<?xml version="1.0" encoding="UTF-8" standalone="no" ?>
<gpx xmlns="http://www.topografix.com/GPX/1/1" xmlns:xsi="http://www.w3.org/2001/XMLSchema-instance" xsi:schemaLocation="http://www.topografix.com/GPX/1/1 http://www.topografix.com/GPX/1/1/gpx.xsd" version="1.1" creator="VisuGPX - https://www.visugpx.com">
  <metadata>
    <name>PlCy-P147</name>
  </metadata>
  <trk>
    <name><![CDATA[PlCy-P147]]></name>
    <trkseg>
      <trkpt lat="48.02082" lon="-4.21818">
        <ele>143.27303832736</ele>
        <time>2021-03-15T17:27:00.000Z</time>
      </trkpt>
      <trkpt lat="48.02048" lon="-4.21738">
        <ele>143.76112826196</ele>
        <time>2021-03-15T17:27:00.010Z</time>
      </trkpt>
      <trkpt lat="48.02" lon="-4.21635">
        <ele>145.07048600832</ele>
        <time>2021-03-15T17:27:00.034Z</time>
      </trkpt>
      <trkpt lat="48.01951" lon="-4.21533">
        <ele>146.66904232184</ele>
        <time>2021-03-15T17:27:00.071Z</time>
      </trkpt>
      <trkpt lat="48.01953" lon="-4.21528">
        <ele>148.22973663719</ele>
        <time>2021-03-15T17:27:00.109Z</time>
      </trkpt>
      <trkpt lat="48.01951" lon="-4.2152">
        <ele>149.61428206429</ele>
        <time>2021-03-15T17:27:00.148Z</time>
      </trkpt>
      <trkpt lat="48.01944" lon="-4.21516">
        <ele>150.77238836243</ele>
        <time>2021-03-15T17:27:00.188Z</time>
      </trkpt>
      <trkpt lat="48.01916" lon="-4.21454">
        <ele>151.87098517769</ele>
        <time>2021-03-15T17:27:00.236Z</time>
      </trkpt>
      <trkpt lat="48.01888" lon="-4.21393">
        <ele>152.71789077098</ele>
        <time>2021-03-15T17:27:00.292Z</time>
      </trkpt>
      <trkpt lat="48.0187" lon="-4.21354">
        <ele>153.29589852748</ele>
        <time>2021-03-15T17:27:00.353Z</time>
      </trkpt>
      <trkpt lat="48.01871" lon="-4.21344">
        <ele>153.73019860201</ele>
        <time>2021-03-15T17:27:00.415Z</time>
      </trkpt>
      <trkpt lat="48.01864" lon="-4.21339">
        <ele>154.04086156914</ele>
        <time>2021-03-15T17:27:00.478Z</time>
      </trkpt>
      <trkpt lat="48.01827" lon="-4.21266">
        <ele>154.45451777458</ele>
        <time>2021-03-15T17:27:00.551Z</time>
      </trkpt>
      <trkpt lat="48.01789" lon="-4.21193">
        <ele>154.89470133891</ele>
        <time>2021-03-15T17:27:00.634Z</time>
      </trkpt>
      <trkpt lat="48.0175" lon="-4.21108">
        <ele>155.40144740278</ele>
        <time>2021-03-15T17:27:00.728Z</time>
      </trkpt>
      <trkpt lat="48.01723" lon="-4.21042">
        <ele>155.72951611287</ele>
        <time>2021-03-15T17:27:00.830Z</time>
      </trkpt>
      <trkpt lat="48.01696" lon="-4.20977">
        <ele>155.82557866141</ele>
        <time>2021-03-15T17:27:00.941Z</time>
      </trkpt>
      <trkpt lat="48.01651" lon="-4.20884">
        <ele>155.83957258214</ele>
        <time>2021-03-15T17:27:01.064Z</time>
      </trkpt>
      <trkpt lat="48.01605" lon="-4.20792">
        <ele>155.84720072303</ele>
        <time>2021-03-15T17:27:01.199Z</time>
      </trkpt>
      <trkpt lat="48.01562" lon="-4.20701">
        <ele>155.70092893763</ele>
        <time>2021-03-15T17:27:01.346Z</time>
      </trkpt>
      <trkpt lat="48.01519" lon="-4.2061">
        <ele>155.41232815332</ele>
        <time>2021-03-15T17:27:01.505Z</time>
      </trkpt>
      <trkpt lat="48.01476" lon="-4.20519">
        <ele>154.97092524473</ele>
        <time>2021-03-15T17:27:01.676Z</time>
      </trkpt>
      <trkpt lat="48.01433" lon="-4.20428">
        <ele>154.3410404249</ele>
        <time>2021-03-15T17:27:01.859Z</time>
      </trkpt>
      <trkpt lat="48.01436" lon="-4.20418">
        <ele>153.69041276082</ele>
        <time>2021-03-15T17:27:02.043Z</time>
      </trkpt>
      <trkpt lat="48.01435" lon="-4.2041">
        <ele>153.00045286036</ele>
        <time>2021-03-15T17:27:02.228Z</time>
      </trkpt>
      <trkpt lat="48.01426" lon="-4.20404">
        <ele>152.28540959106</ele>
        <time>2021-03-15T17:27:02.415Z</time>
      </trkpt>
      <trkpt lat="48.01422" lon="-4.20406">
        <ele>151.5870989991</ele>
        <time>2021-03-15T17:27:02.602Z</time>
      </trkpt>
      <trkpt lat="48.0139" lon="-4.20345">
        <ele>150.88080756286</ele>
        <time>2021-03-15T17:27:02.798Z</time>
      </trkpt>
      <trkpt lat="48.01351" lon="-4.20277">
        <ele>150.07242334975</ele>
        <time>2021-03-15T17:27:03.003Z</time>
      </trkpt>
      <trkpt lat="48.01317" lon="-4.20228">
        <ele>149.2619348837</ele>
        <time>2021-03-15T17:27:03.216Z</time>
      </trkpt>
      <trkpt lat="48.01303" lon="-4.20202">
        <ele>148.59312241739</ele>
        <time>2021-03-15T17:27:03.432Z</time>
      </trkpt>
      <trkpt lat="48.01292" lon="-4.20176">
        <ele>148.05267023586</ele>
        <time>2021-03-15T17:27:03.652Z</time>
      </trkpt>
      <trkpt lat="48.01286" lon="-4.20155">
        <ele>147.58971764515</ele>
        <time>2021-03-15T17:27:03.874Z</time>
      </trkpt>
      <trkpt lat="48.0127" lon="-4.20054">
        <ele>147.18386188306</ele>
        <time>2021-03-15T17:27:04.107Z</time>
      </trkpt>
      <trkpt lat="48.01254" lon="-4.19952">
        <ele>146.90956247256</ele>
        <time>2021-03-15T17:27:04.352Z</time>
      </trkpt>
      <trkpt lat="48.01238" lon="-4.19851">
        <ele>146.67557423393</ele>
        <time>2021-03-15T17:27:04.608Z</time>
      </trkpt>
      <trkpt lat="48.01227" lon="-4.19766">
        <ele>146.36877599062</ele>
        <time>2021-03-15T17:27:04.873Z</time>
      </trkpt>
      <trkpt lat="48.01223" lon="-4.19749">
        <ele>146.05352746067</ele>
        <time>2021-03-15T17:27:05.140Z</time>
      </trkpt>
      <trkpt lat="48.01214" lon="-4.1973">
        <ele>145.72198328644</ele>
        <time>2021-03-15T17:27:05.409Z</time>
      </trkpt>
      <trkpt lat="48.01214" lon="-4.1972">
        <ele>145.42355449565</ele>
        <time>2021-03-15T17:27:05.680Z</time>
      </trkpt>
      <trkpt lat="48.01213" lon="-4.19702">
        <ele>145.12955380568</ele>
        <time>2021-03-15T17:27:05.953Z</time>
      </trkpt>
      <trkpt lat="48.01207" lon="-4.19684">
        <ele>144.83204722016</ele>
        <time>2021-03-15T17:27:06.228Z</time>
      </trkpt>
      <trkpt lat="48.01196" lon="-4.19672">
        <ele>144.61907284444</ele>
        <time>2021-03-15T17:27:06.505Z</time>
      </trkpt>
      <trkpt lat="48.01181" lon="-4.19669">
        <ele>144.42413561403</ele>
        <time>2021-03-15T17:27:06.784Z</time>
      </trkpt>
      <trkpt lat="48.01162" lon="-4.19682">
        <ele>144.2762528063</ele>
        <time>2021-03-15T17:27:07.067Z</time>
      </trkpt>
      <trkpt lat="48.01158" lon="-4.19692">
        <ele>144.22189600044</ele>
        <time>2021-03-15T17:27:07.351Z</time>
      </trkpt>
      <trkpt lat="48.01146" lon="-4.19695">
        <ele>144.23445168547</ele>
        <time>2021-03-15T17:27:07.637Z</time>
      </trkpt>
      <trkpt lat="48.01137" lon="-4.19691">
        <ele>144.34478409024</ele>
        <time>2021-03-15T17:27:07.924Z</time>
      </trkpt>
      <trkpt lat="48.01101" lon="-4.19641">
        <ele>144.47242522637</ele>
        <time>2021-03-15T17:27:08.219Z</time>
      </trkpt>
      <trkpt lat="48.01076" lon="-4.19608">
        <ele>144.80921565275</ele>
        <time>2021-03-15T17:27:08.520Z</time>
      </trkpt>
      <trkpt lat="48.01063" lon="-4.19594">
        <ele>145.29661679321</ele>
        <time>2021-03-15T17:27:08.823Z</time>
      </trkpt>
      <trkpt lat="48.01036" lon="-4.19571">
        <ele>145.96621299067</ele>
        <time>2021-03-15T17:27:09.131Z</time>
      </trkpt>
      <trkpt lat="48.01012" lon="-4.19554">
        <ele>146.81688863457</ele>
        <time>2021-03-15T17:27:09.443Z</time>
      </trkpt>
      <trkpt lat="48.00955" lon="-4.19531">
        <ele>147.84550466823</ele>
        <time>2021-03-15T17:27:09.765Z</time>
      </trkpt>
      <trkpt lat="48.00934" lon="-4.19526">
        <ele>148.9221577429</ele>
        <time>2021-03-15T17:27:10.090Z</time>
      </trkpt>
      <trkpt lat="48.00917" lon="-4.19526">
        <ele>150.06147779247</ele>
        <time>2021-03-15T17:27:10.418Z</time>
      </trkpt>
      <trkpt lat="48.00878" lon="-4.19532">
        <ele>151.2457923968</ele>
        <time>2021-03-15T17:27:10.752Z</time>
      </trkpt>
      <trkpt lat="48.00879" lon="-4.19532">
        <ele>152.44714753839</ele>
        <time>2021-03-15T17:27:11.086Z</time>
      </trkpt>
      <trkpt lat="48.0087" lon="-4.19533">
        <ele>153.65254011249</ele>
        <time>2021-03-15T17:27:11.422Z</time>
      </trkpt>
      <trkpt lat="48.00833" lon="-4.19547">
        <ele>154.87311712851</ele>
        <time>2021-03-15T17:27:11.764Z</time>
      </trkpt>
      <trkpt lat="48.00767" lon="-4.19584">
        <ele>156.02776319727</ele>
        <time>2021-03-15T17:27:12.117Z</time>
      </trkpt>
      <trkpt lat="48.007" lon="-4.1962">
        <ele>157.2535080864</ele>
        <time>2021-03-15T17:27:12.482Z</time>
      </trkpt>
      <trkpt lat="48.00642" lon="-4.19648">
        <ele>158.41965205589</ele>
        <time>2021-03-15T17:27:12.856Z</time>
      </trkpt>
      <trkpt lat="48.00619" lon="-4.19658">
        <ele>159.18332462108</ele>
        <time>2021-03-15T17:27:13.234Z</time>
      </trkpt>
      <trkpt lat="48.0061" lon="-4.19658">
        <ele>159.65975021028</ele>
        <time>2021-03-15T17:27:13.614Z</time>
      </trkpt>
      <trkpt lat="48.00585" lon="-4.19665">
        <ele>159.86290526834</ele>
        <time>2021-03-15T17:27:13.998Z</time>
      </trkpt>
      <trkpt lat="48.00555" lon="-4.19662">
        <ele>159.74605587493</ele>
        <time>2021-03-15T17:27:14.387Z</time>
      </trkpt>
      <trkpt lat="48.00504" lon="-4.19651">
        <ele>159.23926079888</ele>
        <time>2021-03-15T17:27:14.784Z</time>
      </trkpt>
      <trkpt lat="48.00452" lon="-4.19634">
        <ele>158.35922011631</ele>
        <time>2021-03-15T17:27:15.189Z</time>
      </trkpt>
      <trkpt lat="48.00389" lon="-4.19615">
        <ele>157.1560565688</ele>
        <time>2021-03-15T17:27:15.605Z</time>
      </trkpt>
      <trkpt lat="48.00326" lon="-4.19597">
        <ele>155.76025405796</ele>
        <time>2021-03-15T17:27:16.031Z</time>
      </trkpt>
      <trkpt lat="48.00263" lon="-4.19578">
        <ele>154.06158717872</ele>
        <time>2021-03-15T17:27:16.467Z</time>
      </trkpt>
      <trkpt lat="48.00234" lon="-4.19573">
        <ele>152.280676267</ele>
        <time>2021-03-15T17:27:16.908Z</time>
      </trkpt>
      <trkpt lat="48.00183" lon="-4.19558">
        <ele>150.22739952488</ele>
        <time>2021-03-15T17:27:17.357Z</time>
      </trkpt>
      <trkpt lat="48.00132" lon="-4.19543">
        <ele>148.09814793918</ele>
        <time>2021-03-15T17:27:17.814Z</time>
      </trkpt>
      <trkpt lat="48.00087" lon="-4.19529">
        <ele>145.9744617894</ele>
        <time>2021-03-15T17:27:18.279Z</time>
      </trkpt>
      <trkpt lat="48.0004" lon="-4.19509">
        <ele>143.91417276765</ele>
        <time>2021-03-15T17:27:18.752Z</time>
      </trkpt>
      <trkpt lat="47.99992" lon="-4.19489">
        <ele>141.84686042189</ele>
        <time>2021-03-15T17:27:19.233Z</time>
      </trkpt>
      <trkpt lat="47.99913" lon="-4.19451">
        <ele>139.79708837419</ele>
        <time>2021-03-15T17:27:19.727Z</time>
      </trkpt>
      <trkpt lat="47.99908" lon="-4.19447">
        <ele>137.87995468853</ele>
        <time>2021-03-15T17:27:20.222Z</time>
      </trkpt>
      <trkpt lat="47.9988" lon="-4.19415">
        <ele>136.01587613643</ele>
        <time>2021-03-15T17:27:20.723Z</time>
      </trkpt>
      <trkpt lat="47.99874" lon="-4.19414">
        <ele>134.23405979698</ele>
        <time>2021-03-15T17:27:21.224Z</time>
      </trkpt>
      <trkpt lat="47.99868" lon="-4.19416">
        <ele>132.5211201614</ele>
        <time>2021-03-15T17:27:21.726Z</time>
      </trkpt>
      <trkpt lat="47.99862" lon="-4.1942">
        <ele>130.88151260539</ele>
        <time>2021-03-15T17:27:22.230Z</time>
      </trkpt>
      <trkpt lat="47.99857" lon="-4.19428">
        <ele>129.31608657158</ele>
        <time>2021-03-15T17:27:22.735Z</time>
      </trkpt>
      <trkpt lat="47.99845" lon="-4.1943">
        <ele>127.79978784698</ele>
        <time>2021-03-15T17:27:23.242Z</time>
      </trkpt>
      <trkpt lat="47.99787" lon="-4.1941">
        <ele>126.21323257876</ele>
        <time>2021-03-15T17:27:23.758Z</time>
      </trkpt>
      <trkpt lat="47.99727" lon="-4.19384">
        <ele>124.68462001897</ele>
        <time>2021-03-15T17:27:24.284Z</time>
      </trkpt>
      <trkpt lat="47.99667" lon="-4.19358">
        <ele>123.27387155898</ele>
        <time>2021-03-15T17:27:24.820Z</time>
      </trkpt>
      <trkpt lat="47.99607" lon="-4.19332">
        <ele>121.98295238993</ele>
        <time>2021-03-15T17:27:25.366Z</time>
      </trkpt>
      <trkpt lat="47.99578" lon="-4.19317">
        <ele>120.79235684587</ele>
        <time>2021-03-15T17:27:25.917Z</time>
      </trkpt>
      <trkpt lat="47.99546" lon="-4.19296">
        <ele>119.65187295827</ele>
        <time>2021-03-15T17:27:26.474Z</time>
      </trkpt>
      <trkpt lat="47.99478" lon="-4.19238">
        <ele>118.62947577312</ele>
        <time>2021-03-15T17:27:27.043Z</time>
      </trkpt>
      <trkpt lat="47.99453" lon="-4.19207">
        <ele>117.73928890786</ele>
        <time>2021-03-15T17:27:27.617Z</time>
      </trkpt>
      <trkpt lat="47.99409" lon="-4.19149">
        <ele>116.96720774208</ele>
        <time>2021-03-15T17:27:28.201Z</time>
      </trkpt>
      <trkpt lat="47.99364" lon="-4.1908">
        <ele>116.20652803233</ele>
        <time>2021-03-15T17:27:28.795Z</time>
      </trkpt>
      <trkpt lat="47.99318" lon="-4.19011">
        <ele>115.71768989979</ele>
        <time>2021-03-15T17:27:29.400Z</time>
      </trkpt>
      <trkpt lat="47.99255" lon="-4.18926">
        <ele>115.04100126349</ele>
        <time>2021-03-15T17:27:30.018Z</time>
      </trkpt>
      <trkpt lat="47.99229" lon="-4.18898">
        <ele>114.39401855092</ele>
        <time>2021-03-15T17:27:30.641Z</time>
      </trkpt>
      <trkpt lat="47.99191" lon="-4.18867">
        <ele>113.66376258339</ele>
        <time>2021-03-15T17:27:31.271Z</time>
      </trkpt>
      <trkpt lat="47.99168" lon="-4.18851">
        <ele>112.8805647287</ele>
        <time>2021-03-15T17:27:31.905Z</time>
      </trkpt>
      <trkpt lat="47.99111" lon="-4.18818">
        <ele>112.07379610768</ele>
        <time>2021-03-15T17:27:32.549Z</time>
      </trkpt>
      <trkpt lat="47.99074" lon="-4.18807">
        <ele>111.25424875511</ele>
        <time>2021-03-15T17:27:33.199Z</time>
      </trkpt>
      <trkpt lat="47.98986" lon="-4.18792">
        <ele>110.43370986431</ele>
        <time>2021-03-15T17:27:33.863Z</time>
      </trkpt>
      <trkpt lat="47.98926" lon="-4.18796">
        <ele>109.28870667748</ele>
        <time>2021-03-15T17:27:34.537Z</time>
      </trkpt>
      <trkpt lat="47.98865" lon="-4.18799">
        <ele>107.84092390661</ele>
        <time>2021-03-15T17:27:35.221Z</time>
      </trkpt>
      <trkpt lat="47.98804" lon="-4.18804">
        <ele>106.4763427972</ele>
        <time>2021-03-15T17:27:35.914Z</time>
      </trkpt>
      <trkpt lat="47.98744" lon="-4.18808">
        <ele>105.21327336951</ele>
        <time>2021-03-15T17:27:36.617Z</time>
      </trkpt>
      <trkpt lat="47.98702" lon="-4.18813">
        <ele>103.87971996955</ele>
        <time>2021-03-15T17:27:37.327Z</time>
      </trkpt>
      <trkpt lat="47.9865" lon="-4.18815">
        <ele>102.50243102844</ele>
        <time>2021-03-15T17:27:38.045Z</time>
      </trkpt>
      <trkpt lat="47.98596" lon="-4.18811">
        <ele>101.12560520539</ele>
        <time>2021-03-15T17:27:38.772Z</time>
      </trkpt>
      <trkpt lat="47.98527" lon="-4.18804">
        <ele>99.64930768331</ele>
        <time>2021-03-15T17:27:39.510Z</time>
      </trkpt>
      <trkpt lat="47.98459" lon="-4.18797">
        <ele>98.32050439187</ele>
        <time>2021-03-15T17:27:40.259Z</time>
      </trkpt>
      <trkpt lat="47.9839" lon="-4.1879">
        <ele>96.80305356874</ele>
        <time>2021-03-15T17:27:41.019Z</time>
      </trkpt>
      <trkpt lat="47.98321" lon="-4.18783">
        <ele>95.22606180769</ele>
        <time>2021-03-15T17:27:41.790Z</time>
      </trkpt>
      <trkpt lat="47.9824" lon="-4.1878">
        <ele>93.70918301595</ele>
        <time>2021-03-15T17:27:42.574Z</time>
      </trkpt>
      <trkpt lat="47.98185" lon="-4.18783">
        <ele>92.40124690489</ele>
        <time>2021-03-15T17:27:43.367Z</time>
      </trkpt>
      <trkpt lat="47.98129" lon="-4.18785">
        <ele>91.06947599466</ele>
        <time>2021-03-15T17:27:44.169Z</time>
      </trkpt>
      <trkpt lat="47.98068" lon="-4.18793">
        <ele>89.96039124355</ele>
        <time>2021-03-15T17:27:44.981Z</time>
      </trkpt>
      <trkpt lat="47.98008" lon="-4.188">
        <ele>89.00492150935</ele>
        <time>2021-03-15T17:27:45.802Z</time>
      </trkpt>
      <trkpt lat="47.97951" lon="-4.18805">
        <ele>88.26096448444</ele>
        <time>2021-03-15T17:27:46.632Z</time>
      </trkpt>
      <trkpt lat="47.97934" lon="-4.18806">
        <ele>87.69957224232</ele>
        <time>2021-03-15T17:27:47.465Z</time>
      </trkpt>
      <trkpt lat="47.97918" lon="-4.18799">
        <ele>87.28226469219</ele>
        <time>2021-03-15T17:27:48.301Z</time>
      </trkpt>
      <trkpt lat="47.97911" lon="-4.18789">
        <ele>87.01967627413</ele>
        <time>2021-03-15T17:27:49.138Z</time>
      </trkpt>
      <trkpt lat="47.97904" lon="-4.18768">
        <ele>86.90606983769</ele>
        <time>2021-03-15T17:27:49.978Z</time>
      </trkpt>
      <trkpt lat="47.97902" lon="-4.18698">
        <ele>86.94721571497</ele>
        <time>2021-03-15T17:27:50.825Z</time>
      </trkpt>
      <trkpt lat="47.9791" lon="-4.18576">
        <ele>87.28759365641</ele>
        <time>2021-03-15T17:27:51.686Z</time>
      </trkpt>
      <trkpt lat="47.97917" lon="-4.18454">
        <ele>87.66988065623</ele>
        <time>2021-03-15T17:27:52.560Z</time>
      </trkpt>
      <trkpt lat="47.97929" lon="-4.18356">
        <ele>88.22724189064</ele>
        <time>2021-03-15T17:27:53.444Z</time>
      </trkpt>
      <trkpt lat="47.97932" lon="-4.18339">
        <ele>88.80665078595</ele>
        <time>2021-03-15T17:27:54.330Z</time>
      </trkpt>
      <trkpt lat="47.97938" lon="-4.18317">
        <ele>89.44649979688</ele>
        <time>2021-03-15T17:27:55.219Z</time>
      </trkpt>
      <trkpt lat="47.97938" lon="-4.18316">
        <ele>90.0931517599</ele>
        <time>2021-03-15T17:27:56.108Z</time>
      </trkpt>
      <trkpt lat="47.97969" lon="-4.18235">
        <ele>90.79588781552</ele>
        <time>2021-03-15T17:27:57.007Z</time>
      </trkpt>
      <trkpt lat="47.97981" lon="-4.18201">
        <ele>91.48399476011</ele>
        <time>2021-03-15T17:27:57.910Z</time>
      </trkpt>
      <trkpt lat="47.9799" lon="-4.18162">
        <ele>92.16806032185</ele>
        <time>2021-03-15T17:27:58.818Z</time>
      </trkpt>
      <trkpt lat="47.97995" lon="-4.18128">
        <ele>92.75329968939</ele>
        <time>2021-03-15T17:27:59.729Z</time>
      </trkpt>
      <trkpt lat="47.98009" lon="-4.18067">
        <ele>93.23140594373</ele>
        <time>2021-03-15T17:28:00.647Z</time>
      </trkpt>
      <trkpt lat="47.98022" lon="-4.17937">
        <ele>93.6157122416</ele>
        <time>2021-03-15T17:28:01.579Z</time>
      </trkpt>
      <trkpt lat="47.98027" lon="-4.17903">
        <ele>93.98641795139</ele>
        <time>2021-03-15T17:28:02.515Z</time>
      </trkpt>
      <trkpt lat="47.98031" lon="-4.17885">
        <ele>94.29211272214</ele>
        <time>2021-03-15T17:28:03.453Z</time>
      </trkpt>
      <trkpt lat="47.98022" lon="-4.17854">
        <ele>94.48579489706</ele>
        <time>2021-03-15T17:28:04.395Z</time>
      </trkpt>
      <trkpt lat="47.97999" lon="-4.17822">
        <ele>94.61702259663</ele>
        <time>2021-03-15T17:28:05.342Z</time>
      </trkpt>
      <trkpt lat="47.97952" lon="-4.1776">
        <ele>94.81062399166</ele>
        <time>2021-03-15T17:28:06.299Z</time>
      </trkpt>
      <trkpt lat="47.97945" lon="-4.17748">
        <ele>94.82709807426</ele>
        <time>2021-03-15T17:28:07.258Z</time>
      </trkpt>
      <trkpt lat="47.97923" lon="-4.17678">
        <ele>94.85976532174</ele>
        <time>2021-03-15T17:28:08.225Z</time>
      </trkpt>
      <trkpt lat="47.97918" lon="-4.17649">
        <ele>94.59407004</ele>
        <time>2021-03-15T17:28:09.195Z</time>
      </trkpt>
      <trkpt lat="47.9791" lon="-4.17563">
        <ele>94.21501273923</ele>
        <time>2021-03-15T17:28:10.174Z</time>
      </trkpt>
      <trkpt lat="47.97903" lon="-4.17475">
        <ele>93.77049494177</ele>
        <time>2021-03-15T17:28:11.163Z</time>
      </trkpt>
      <trkpt lat="47.97896" lon="-4.17387">
        <ele>93.15274041281</ele>
        <time>2021-03-15T17:28:12.161Z</time>
      </trkpt>
      <trkpt lat="47.97889" lon="-4.1733">
        <ele>92.4053452281</ele>
        <time>2021-03-15T17:28:13.166Z</time>
      </trkpt>
      <trkpt lat="47.97881" lon="-4.17295">
        <ele>91.45490464158</ele>
        <time>2021-03-15T17:28:14.175Z</time>
      </trkpt>
      <trkpt lat="47.97851" lon="-4.17203">
        <ele>90.33925857431</ele>
        <time>2021-03-15T17:28:15.195Z</time>
      </trkpt>
      <trkpt lat="47.9784" lon="-4.17159">
        <ele>89.27461484642</ele>
        <time>2021-03-15T17:28:16.220Z</time>
      </trkpt>
      <trkpt lat="47.97826" lon="-4.17079">
        <ele>88.05699797845</ele>
        <time>2021-03-15T17:28:17.254Z</time>
      </trkpt>
      <trkpt lat="47.97812" lon="-4.16982">
        <ele>86.77658117365</ele>
        <time>2021-03-15T17:28:18.298Z</time>
      </trkpt>
      <trkpt lat="47.97799" lon="-4.16884">
        <ele>85.43626884979</ele>
        <time>2021-03-15T17:28:19.353Z</time>
      </trkpt>
      <trkpt lat="47.97785" lon="-4.16787">
        <ele>84.20038401205</ele>
        <time>2021-03-15T17:28:20.419Z</time>
      </trkpt>
      <trkpt lat="47.97772" lon="-4.16698">
        <ele>82.89543739221</ele>
        <time>2021-03-15T17:28:21.495Z</time>
      </trkpt>
      <trkpt lat="47.97758" lon="-4.16609">
        <ele>81.62964904496</ele>
        <time>2021-03-15T17:28:22.580Z</time>
      </trkpt>
      <trkpt lat="47.97745" lon="-4.16521">
        <ele>80.32409205896</ele>
        <time>2021-03-15T17:28:23.675Z</time>
      </trkpt>
      <trkpt lat="47.97732" lon="-4.16434">
        <ele>79.06013733471</ele>
        <time>2021-03-15T17:28:24.780Z</time>
      </trkpt>
      <trkpt lat="47.97728" lon="-4.16394">
        <ele>77.90621834001</ele>
        <time>2021-03-15T17:28:25.889Z</time>
      </trkpt>
      <trkpt lat="47.97728" lon="-4.16336">
        <ele>76.79059792497</ele>
        <time>2021-03-15T17:28:27.004Z</time>
      </trkpt>
      <trkpt lat="47.97738" lon="-4.1626">
        <ele>75.74250649491</ele>
        <time>2021-03-15T17:28:28.128Z</time>
      </trkpt>
      <trkpt lat="47.97751" lon="-4.1618">
        <ele>74.75396499893</ele>
        <time>2021-03-15T17:28:29.260Z</time>
      </trkpt>
      <trkpt lat="47.97764" lon="-4.161">
        <ele>73.69287938129</ele>
        <time>2021-03-15T17:28:30.401Z</time>
      </trkpt>
      <trkpt lat="47.97769" lon="-4.16061">
        <ele>72.6847598456</ele>
        <time>2021-03-15T17:28:31.546Z</time>
      </trkpt>
      <trkpt lat="47.97778" lon="-4.1593">
        <ele>71.69920343858</ele>
        <time>2021-03-15T17:28:32.706Z</time>
      </trkpt>
      <trkpt lat="47.97787" lon="-4.15798">
        <ele>70.83716885807</ele>
        <time>2021-03-15T17:28:33.880Z</time>
      </trkpt>
      <trkpt lat="47.97792" lon="-4.15719">
        <ele>69.88467904958</ele>
        <time>2021-03-15T17:28:35.062Z</time>
      </trkpt>
      <trkpt lat="47.97792" lon="-4.15674">
        <ele>68.8999189661</ele>
        <time>2021-03-15T17:28:36.249Z</time>
      </trkpt>
      <trkpt lat="47.97787" lon="-4.15627">
        <ele>67.9033170095</ele>
        <time>2021-03-15T17:28:37.441Z</time>
      </trkpt>
      <trkpt lat="47.97768" lon="-4.15525">
        <ele>67.0185355547</ele>
        <time>2021-03-15T17:28:38.645Z</time>
      </trkpt>
      <trkpt lat="47.97748" lon="-4.15424">
        <ele>66.17395310231</ele>
        <time>2021-03-15T17:28:39.860Z</time>
      </trkpt>
      <trkpt lat="47.97729" lon="-4.15324">
        <ele>65.24724891081</ele>
        <time>2021-03-15T17:28:41.086Z</time>
      </trkpt>
      <trkpt lat="47.9771" lon="-4.15224">
        <ele>64.29076987006</ele>
        <time>2021-03-15T17:28:42.323Z</time>
      </trkpt>
      <trkpt lat="47.97693" lon="-4.15116">
        <ele>63.44300227011</ele>
        <time>2021-03-15T17:28:43.572Z</time>
      </trkpt>
      <trkpt lat="47.9768" lon="-4.15016">
        <ele>62.61445252887</ele>
        <time>2021-03-15T17:28:44.832Z</time>
      </trkpt>
      <trkpt lat="47.97666" lon="-4.14916">
        <ele>61.36926895386</ele>
        <time>2021-03-15T17:28:46.103Z</time>
      </trkpt>
      <trkpt lat="47.97662" lon="-4.14872">
        <ele>60.32141568227</ele>
        <time>2021-03-15T17:28:47.379Z</time>
      </trkpt>
      <trkpt lat="47.97663" lon="-4.1479">
        <ele>59.22128634038</ele>
        <time>2021-03-15T17:28:48.664Z</time>
      </trkpt>
      <trkpt lat="47.97671" lon="-4.14715">
        <ele>57.74563238368</ele>
        <time>2021-03-15T17:28:49.957Z</time>
      </trkpt>
      <trkpt lat="47.97678" lon="-4.14639">
        <ele>56.12640667562</ele>
        <time>2021-03-15T17:28:51.258Z</time>
      </trkpt>
      <trkpt lat="47.97685" lon="-4.14531">
        <ele>54.6911035956</ele>
        <time>2021-03-15T17:28:52.571Z</time>
      </trkpt>
      <trkpt lat="47.97692" lon="-4.14423">
        <ele>52.91321659969</ele>
        <time>2021-03-15T17:28:53.896Z</time>
      </trkpt>
      <trkpt lat="47.97699" lon="-4.14315">
        <ele>51.00363859855</ele>
        <time>2021-03-15T17:28:55.232Z</time>
      </trkpt>
      <trkpt lat="47.97703" lon="-4.14247">
        <ele>49.32206906159</ele>
        <time>2021-03-15T17:28:56.576Z</time>
      </trkpt>
      <trkpt lat="47.97707" lon="-4.14179">
        <ele>47.4459519136</ele>
        <time>2021-03-15T17:28:57.927Z</time>
      </trkpt>
      <trkpt lat="47.97706" lon="-4.14146">
        <ele>45.56138043724</ele>
        <time>2021-03-15T17:28:59.281Z</time>
      </trkpt>
      <trkpt lat="47.97705" lon="-4.14132">
        <ele>43.72499840968</ele>
        <time>2021-03-15T17:29:00.637Z</time>
      </trkpt>
      <trkpt lat="47.97696" lon="-4.14081">
        <ele>41.82804118382</ele>
        <time>2021-03-15T17:29:01.999Z</time>
      </trkpt>
      <trkpt lat="47.9767" lon="-4.13965">
        <ele>40.01826770334</ele>
        <time>2021-03-15T17:29:03.374Z</time>
      </trkpt>
      <trkpt lat="47.97643" lon="-4.1385">
        <ele>38.09531118583</ele>
        <time>2021-03-15T17:29:04.762Z</time>
      </trkpt>
      <trkpt lat="47.97617" lon="-4.13734">
        <ele>36.37613396483</ele>
        <time>2021-03-15T17:29:06.163Z</time>
      </trkpt>
      <trkpt lat="47.9761" lon="-4.13677">
        <ele>34.83649051098</ele>
        <time>2021-03-15T17:29:07.570Z</time>
      </trkpt>
      <trkpt lat="47.97611" lon="-4.13649">
        <ele>33.36111313558</ele>
        <time>2021-03-15T17:29:08.980Z</time>
      </trkpt>
      <trkpt lat="47.97621" lon="-4.13594">
        <ele>32.02473912316</ele>
        <time>2021-03-15T17:29:10.396Z</time>
      </trkpt>
      <trkpt lat="47.97656" lon="-4.13527">
        <ele>30.47367091645</ele>
        <time>2021-03-15T17:29:11.822Z</time>
      </trkpt>
      <trkpt lat="47.97682" lon="-4.13472">
        <ele>29.08864752339</ele>
        <time>2021-03-15T17:29:13.255Z</time>
      </trkpt>
      <trkpt lat="47.97708" lon="-4.13417">
        <ele>27.75699032752</ele>
        <time>2021-03-15T17:29:14.695Z</time>
      </trkpt>
      <trkpt lat="47.97727" lon="-4.13366">
        <ele>26.61733345996</ele>
        <time>2021-03-15T17:29:16.141Z</time>
      </trkpt>
      <trkpt lat="47.97753" lon="-4.13282">
        <ele>25.49953481033</ele>
        <time>2021-03-15T17:29:17.597Z</time>
      </trkpt>
      <trkpt lat="47.97753" lon="-4.13281">
        <ele>24.48006422281</ele>
        <time>2021-03-15T17:29:19.053Z</time>
      </trkpt>
      <trkpt lat="47.97773" lon="-4.13214">
        <ele>23.43419586446</ele>
        <time>2021-03-15T17:29:20.517Z</time>
      </trkpt>
      <trkpt lat="47.97787" lon="-4.13148">
        <ele>22.54010683999</ele>
        <time>2021-03-15T17:29:21.989Z</time>
      </trkpt>
      <trkpt lat="47.97801" lon="-4.13082">
        <ele>21.6906031892</ele>
        <time>2021-03-15T17:29:23.468Z</time>
      </trkpt>
      <trkpt lat="47.97813" lon="-4.13006">
        <ele>20.8457759362</ele>
        <time>2021-03-15T17:29:24.956Z</time>
      </trkpt>
      <trkpt lat="47.97832" lon="-4.12915">
        <ele>19.77314709329</ele>
        <time>2021-03-15T17:29:26.454Z</time>
      </trkpt>
      <trkpt lat="47.97844" lon="-4.12849">
        <ele>18.79967867644</ele>
        <time>2021-03-15T17:29:27.959Z</time>
      </trkpt>
      <trkpt lat="47.97856" lon="-4.12783">
        <ele>17.7723337464</ele>
        <time>2021-03-15T17:29:29.471Z</time>
      </trkpt>
      <trkpt lat="47.97868" lon="-4.12705">
        <ele>16.69465814592</ele>
        <time>2021-03-15T17:29:30.992Z</time>
      </trkpt>
      <trkpt lat="47.97879" lon="-4.12626">
        <ele>15.3930662476</ele>
        <time>2021-03-15T17:29:32.522Z</time>
      </trkpt>
      <trkpt lat="47.97893" lon="-4.12519">
        <ele>14.28344814845</ele>
        <time>2021-03-15T17:29:34.064Z</time>
      </trkpt>
      <trkpt lat="47.97907" lon="-4.12411">
        <ele>12.96870915294</ele>
        <time>2021-03-15T17:29:35.617Z</time>
      </trkpt>
      <trkpt lat="47.97911" lon="-4.12386">
        <ele>11.78645970957</ele>
        <time>2021-03-15T17:29:37.173Z</time>
      </trkpt>
      <trkpt lat="47.97911" lon="-4.12385">
        <ele>10.75217341221</ele>
        <time>2021-03-15T17:29:38.729Z</time>
      </trkpt>
      <trkpt lat="47.97925" lon="-4.12328">
        <ele>9.63389852296</ele>
        <time>2021-03-15T17:29:40.292Z</time>
      </trkpt>
      <trkpt lat="47.97938" lon="-4.12289">
        <ele>8.73334585739</ele>
        <time>2021-03-15T17:29:41.859Z</time>
      </trkpt>
      <trkpt lat="47.97946" lon="-4.12277">
        <ele>7.91288303847</ele>
        <time>2021-03-15T17:29:43.428Z</time>
      </trkpt>
      <trkpt lat="47.9796" lon="-4.12268">
        <ele>7.17770508275</ele>
        <time>2021-03-15T17:29:45.000Z</time>
      </trkpt>
      <trkpt lat="47.97978" lon="-4.12275">
        <ele>6.5643932029</ele>
        <time>2021-03-15T17:29:46.575Z</time>
      </trkpt>
      <trkpt lat="47.97994" lon="-4.12265">
        <ele>6.06260527232</ele>
        <time>2021-03-15T17:29:48.152Z</time>
      </trkpt>
      <trkpt lat="47.97999" lon="-4.1226">
        <ele>5.62466421558</ele>
        <time>2021-03-15T17:29:49.730Z</time>
      </trkpt>
      <trkpt lat="47.98008" lon="-4.12238">
        <ele>5.29183592189</ele>
        <time>2021-03-15T17:29:51.311Z</time>
      </trkpt>
      <trkpt lat="47.98011" lon="-4.12206">
        <ele>4.99615028488</ele>
        <time>2021-03-15T17:29:52.896Z</time>
      </trkpt>
      <trkpt lat="47.98009" lon="-4.12192">
        <ele>4.75492837788</ele>
        <time>2021-03-15T17:29:54.482Z</time>
      </trkpt>
      <trkpt lat="47.98" lon="-4.12173">
        <ele>4.53822663723</ele>
        <time>2021-03-15T17:29:56.071Z</time>
      </trkpt>
      <trkpt lat="47.98002" lon="-4.12153">
        <ele>4.34954873269</ele>
        <time>2021-03-15T17:29:57.662Z</time>
      </trkpt>
      <trkpt lat="47.98009" lon="-4.12136">
        <ele>4.23187743598</ele>
        <time>2021-03-15T17:29:59.255Z</time>
      </trkpt>
      <trkpt lat="47.98021" lon="-4.12128">
        <ele>4.16651970563</ele>
        <time>2021-03-15T17:30:00.850Z</time>
      </trkpt>
      <trkpt lat="47.98022" lon="-4.12127">
        <ele>4.14612482838</ele>
        <time>2021-03-15T17:30:02.445Z</time>
      </trkpt>
      <trkpt lat="47.98087" lon="-4.12084">
        <ele>4.19348228965</ele>
        <time>2021-03-15T17:30:04.052Z</time>
      </trkpt>
      <trkpt lat="47.98151" lon="-4.1204">
        <ele>4.21592354937</ele>
        <time>2021-03-15T17:30:05.670Z</time>
      </trkpt>
      <trkpt lat="47.98218" lon="-4.11998">
        <ele>4.23528087542</ele>
        <time>2021-03-15T17:30:07.299Z</time>
      </trkpt>
      <trkpt lat="47.98284" lon="-4.11955">
        <ele>4.29868036422</ele>
        <time>2021-03-15T17:30:08.940Z</time>
      </trkpt>
      <trkpt lat="47.98329" lon="-4.11906">
        <ele>4.44733368762</ele>
        <time>2021-03-15T17:30:10.590Z</time>
      </trkpt>
      <trkpt lat="47.98351" lon="-4.11869">
        <ele>4.55695583239</ele>
        <time>2021-03-15T17:30:12.245Z</time>
      </trkpt>
      <trkpt lat="47.98363" lon="-4.11838">
        <ele>4.61924892684</ele>
        <time>2021-03-15T17:30:13.904Z</time>
      </trkpt>
      <trkpt lat="47.98372" lon="-4.11808">
        <ele>4.70609185769</ele>
        <time>2021-03-15T17:30:15.567Z</time>
      </trkpt>
      <trkpt lat="47.98379" lon="-4.11758">
        <ele>4.78902360072</ele>
        <time>2021-03-15T17:30:17.235Z</time>
      </trkpt>
      <trkpt lat="47.98392" lon="-4.11659">
        <ele>4.59963694784</ele>
        <time>2021-03-15T17:30:18.914Z</time>
      </trkpt>
      <trkpt lat="47.98404" lon="-4.1156">
        <ele>4.6823926594</ele>
        <time>2021-03-15T17:30:20.604Z</time>
      </trkpt>
      <trkpt lat="47.98404" lon="-4.11559">
        <ele>4.80104051885</ele>
        <time>2021-03-15T17:30:22.294Z</time>
      </trkpt>
      <trkpt lat="47.98412" lon="-4.11505">
        <ele>5.16988722561</ele>
        <time>2021-03-15T17:30:23.990Z</time>
      </trkpt>
      <trkpt lat="47.9844" lon="-4.11387">
        <ele>5.50384564047</ele>
        <time>2021-03-15T17:30:25.699Z</time>
      </trkpt>
      <trkpt lat="47.98468" lon="-4.11268">
        <ele>5.5710389539</ele>
        <time>2021-03-15T17:30:27.422Z</time>
      </trkpt>
      <trkpt lat="47.98483" lon="-4.11213">
        <ele>5.69707314186</ele>
        <time>2021-03-15T17:30:29.151Z</time>
      </trkpt>
      <trkpt lat="47.98498" lon="-4.11174">
        <ele>5.87032904985</ele>
        <time>2021-03-15T17:30:30.885Z</time>
      </trkpt>
      <trkpt lat="47.98507" lon="-4.1116">
        <ele>6.04143240284</ele>
        <time>2021-03-15T17:30:32.621Z</time>
      </trkpt>
      <trkpt lat="47.98517" lon="-4.11151">
        <ele>6.21810406673</ele>
        <time>2021-03-15T17:30:34.359Z</time>
      </trkpt>
      <trkpt lat="47.98531" lon="-4.11144">
        <ele>6.39435321755</ele>
        <time>2021-03-15T17:30:36.099Z</time>
      </trkpt>
      <trkpt lat="47.98544" lon="-4.11144">
        <ele>6.59869481487</ele>
        <time>2021-03-15T17:30:37.842Z</time>
      </trkpt>
      <trkpt lat="47.98555" lon="-4.11146">
        <ele>6.84175198554</ele>
        <time>2021-03-15T17:30:39.586Z</time>
      </trkpt>
      <trkpt lat="47.98564" lon="-4.11155">
        <ele>7.07628700539</ele>
        <time>2021-03-15T17:30:41.332Z</time>
      </trkpt>
      <trkpt lat="47.98573" lon="-4.11175">
        <ele>7.36351058723</ele>
        <time>2021-03-15T17:30:43.081Z</time>
      </trkpt>
      <trkpt lat="47.98576" lon="-4.11191">
        <ele>7.68262099312</ele>
        <time>2021-03-15T17:30:44.831Z</time>
      </trkpt>
      <trkpt lat="47.98574" lon="-4.11209">
        <ele>8.0629827062</ele>
        <time>2021-03-15T17:30:46.583Z</time>
      </trkpt>
      <trkpt lat="47.98565" lon="-4.1123">
        <ele>8.56873967842</ele>
        <time>2021-03-15T17:30:48.338Z</time>
      </trkpt>
      <trkpt lat="47.98556" lon="-4.1124">
        <ele>9.1706471226</ele>
        <time>2021-03-15T17:30:50.095Z</time>
      </trkpt>
      <trkpt lat="47.98544" lon="-4.11245">
        <ele>9.85678904678</ele>
        <time>2021-03-15T17:30:51.854Z</time>
      </trkpt>
      <trkpt lat="47.98527" lon="-4.11247">
        <ele>10.63804835755</ele>
        <time>2021-03-15T17:30:53.616Z</time>
      </trkpt>
      <trkpt lat="47.98512" lon="-4.11245">
        <ele>11.50033892881</ele>
        <time>2021-03-15T17:30:55.380Z</time>
      </trkpt>
      <trkpt lat="47.98489" lon="-4.1123">
        <ele>12.41797039305</ele>
        <time>2021-03-15T17:30:57.148Z</time>
      </trkpt>
      <trkpt lat="47.98428" lon="-4.11187">
        <ele>13.31103245165</ele>
        <time>2021-03-15T17:30:58.927Z</time>
      </trkpt>
      <trkpt lat="47.98393" lon="-4.11155">
        <ele>14.36104069571</ele>
        <time>2021-03-15T17:31:00.712Z</time>
      </trkpt>
      <trkpt lat="47.9832" lon="-4.11089">
        <ele>15.62970820812</ele>
        <time>2021-03-15T17:31:02.511Z</time>
      </trkpt>
      <trkpt lat="47.98247" lon="-4.11024">
        <ele>16.85560395381</ele>
        <time>2021-03-15T17:31:04.324Z</time>
      </trkpt>
      <trkpt lat="47.98174" lon="-4.10958">
        <ele>17.90732340386</ele>
        <time>2021-03-15T17:31:06.150Z</time>
      </trkpt>
      <trkpt lat="47.98101" lon="-4.10893">
        <ele>18.75701686967</ele>
        <time>2021-03-15T17:31:07.990Z</time>
      </trkpt>
      <trkpt lat="47.98084" lon="-4.10876">
        <ele>19.46477298242</ele>
        <time>2021-03-15T17:31:09.833Z</time>
      </trkpt>
      <trkpt lat="47.98063" lon="-4.1085">
        <ele>20.13042811421</ele>
        <time>2021-03-15T17:31:11.681Z</time>
      </trkpt>
      <trkpt lat="47.98037" lon="-4.10806">
        <ele>20.63268223223</ele>
        <time>2021-03-15T17:31:13.535Z</time>
      </trkpt>
      <trkpt lat="47.98018" lon="-4.10759">
        <ele>20.99001043699</ele>
        <time>2021-03-15T17:31:15.395Z</time>
      </trkpt>
      <trkpt lat="47.98003" lon="-4.10707">
        <ele>21.19784912194</ele>
        <time>2021-03-15T17:31:17.261Z</time>
      </trkpt>
      <trkpt lat="47.97995" lon="-4.10653">
        <ele>21.26501521668</ele>
        <time>2021-03-15T17:31:19.133Z</time>
      </trkpt>
      <trkpt lat="47.97994" lon="-4.10592">
        <ele>21.04105928201</ele>
        <time>2021-03-15T17:31:21.011Z</time>
      </trkpt>
      <trkpt lat="47.97999" lon="-4.1052">
        <ele>20.77676127589</ele>
        <time>2021-03-15T17:31:22.897Z</time>
      </trkpt>
      <trkpt lat="47.98009" lon="-4.10417">
        <ele>20.49755968656</ele>
        <time>2021-03-15T17:31:24.794Z</time>
      </trkpt>
      <trkpt lat="47.98019" lon="-4.10313">
        <ele>20.0654899818</ele>
        <time>2021-03-15T17:31:26.703Z</time>
      </trkpt>
      <trkpt lat="47.98027" lon="-4.10221">
        <ele>19.6849958186</ele>
        <time>2021-03-15T17:31:28.622Z</time>
      </trkpt>
      <trkpt lat="47.98035" lon="-4.10128">
        <ele>19.38899103463</ele>
        <time>2021-03-15T17:31:30.551Z</time>
      </trkpt>
      <trkpt lat="47.98039" lon="-4.10069">
        <ele>18.83442189307</ele>
        <time>2021-03-15T17:31:32.486Z</time>
      </trkpt>
      <trkpt lat="47.98035" lon="-4.10002">
        <ele>18.1502088301</ele>
        <time>2021-03-15T17:31:34.428Z</time>
      </trkpt>
      <trkpt lat="47.9803" lon="-4.09953">
        <ele>17.55372410001</ele>
        <time>2021-03-15T17:31:36.376Z</time>
      </trkpt>
      <trkpt lat="47.9801" lon="-4.09856">
        <ele>16.73380077561</ele>
        <time>2021-03-15T17:31:38.335Z</time>
      </trkpt>
      <trkpt lat="47.9799" lon="-4.0976">
        <ele>16.04347787559</ele>
        <time>2021-03-15T17:31:40.304Z</time>
      </trkpt>
      <trkpt lat="47.97966" lon="-4.09659">
        <ele>15.2293566235</ele>
        <time>2021-03-15T17:31:42.285Z</time>
      </trkpt>
      <trkpt lat="47.97941" lon="-4.09567">
        <ele>14.69869369184</ele>
        <time>2021-03-15T17:31:44.277Z</time>
      </trkpt>
      <trkpt lat="47.97939" lon="-4.09555">
        <ele>14.132020095</ele>
        <time>2021-03-15T17:31:46.270Z</time>
      </trkpt>
      <trkpt lat="47.97942" lon="-4.09517">
        <ele>13.6084736906</ele>
        <time>2021-03-15T17:31:48.267Z</time>
      </trkpt>
      <trkpt lat="47.97951" lon="-4.09508">
        <ele>13.29531126221</ele>
        <time>2021-03-15T17:31:50.266Z</time>
      </trkpt>
      <trkpt lat="47.97959" lon="-4.0949">
        <ele>13.13097728994</ele>
        <time>2021-03-15T17:31:52.267Z</time>
      </trkpt>
      <trkpt lat="47.97961" lon="-4.09467">
        <ele>13.17068960707</ele>
        <time>2021-03-15T17:31:54.271Z</time>
      </trkpt>
      <trkpt lat="47.9796" lon="-4.09452">
        <ele>13.41368049098</ele>
        <time>2021-03-15T17:31:56.276Z</time>
      </trkpt>
      <trkpt lat="47.97952" lon="-4.09432">
        <ele>13.87073427769</ele>
        <time>2021-03-15T17:31:58.284Z</time>
      </trkpt>
      <trkpt lat="47.97944" lon="-4.09421">
        <ele>14.52715040485</ele>
        <time>2021-03-15T17:32:00.293Z</time>
      </trkpt>
      <trkpt lat="47.97938" lon="-4.09405">
        <ele>15.44224181247</ele>
        <time>2021-03-15T17:32:02.304Z</time>
      </trkpt>
      <trkpt lat="47.97936" lon="-4.09386">
        <ele>16.63596093357</ele>
        <time>2021-03-15T17:32:04.317Z</time>
      </trkpt>
      <trkpt lat="47.97938" lon="-4.09368">
        <ele>18.04197573725</ele>
        <time>2021-03-15T17:32:06.332Z</time>
      </trkpt>
      <trkpt lat="47.97938" lon="-4.09367">
        <ele>19.60307197723</ele>
        <time>2021-03-15T17:32:08.348Z</time>
      </trkpt>
      <trkpt lat="47.97945" lon="-4.09302">
        <ele>21.55840558803</ele>
        <time>2021-03-15T17:32:10.371Z</time>
      </trkpt>
      <trkpt lat="47.9795" lon="-4.092">
        <ele>23.61339190235</ele>
        <time>2021-03-15T17:32:12.405Z</time>
      </trkpt>
      <trkpt lat="47.97955" lon="-4.09098">
        <ele>25.84151203104</ele>
        <time>2021-03-15T17:32:14.450Z</time>
      </trkpt>
      <trkpt lat="47.97967" lon="-4.08999">
        <ele>27.89842299715</ele>
        <time>2021-03-15T17:32:16.505Z</time>
      </trkpt>
      <trkpt lat="47.97978" lon="-4.08901">
        <ele>30.34358984508</ele>
        <time>2021-03-15T17:32:18.571Z</time>
      </trkpt>
      <trkpt lat="47.9799" lon="-4.08802">
        <ele>32.99593727248</ele>
        <time>2021-03-15T17:32:20.648Z</time>
      </trkpt>
      <trkpt lat="47.97999" lon="-4.0869">
        <ele>35.41250742564</ele>
        <time>2021-03-15T17:32:22.737Z</time>
      </trkpt>
      <trkpt lat="47.98002" lon="-4.0862">
        <ele>37.77323459217</ele>
        <time>2021-03-15T17:32:24.834Z</time>
      </trkpt>
      <trkpt lat="47.98004" lon="-4.0855">
        <ele>40.31751454989</ele>
        <time>2021-03-15T17:32:26.938Z</time>
      </trkpt>
      <trkpt lat="47.98004" lon="-4.08549">
        <ele>42.67280199653</ele>
        <time>2021-03-15T17:32:29.042Z</time>
      </trkpt>
      <trkpt lat="47.98008" lon="-4.08424">
        <ele>45.1432309588</ele>
        <time>2021-03-15T17:32:31.160Z</time>
      </trkpt>
      <trkpt lat="47.98011" lon="-4.08298">
        <ele>47.20215618418</ele>
        <time>2021-03-15T17:32:33.291Z</time>
      </trkpt>
      <trkpt lat="47.98016" lon="-4.08187">
        <ele>49.37650582783</ele>
        <time>2021-03-15T17:32:35.434Z</time>
      </trkpt>
      <trkpt lat="47.9803" lon="-4.08087">
        <ele>51.70538088228</ele>
        <time>2021-03-15T17:32:37.588Z</time>
      </trkpt>
      <trkpt lat="47.9804" lon="-4.08027">
        <ele>53.75855074172</ele>
        <time>2021-03-15T17:32:39.749Z</time>
      </trkpt>
      <trkpt lat="47.98061" lon="-4.07939">
        <ele>55.67755531093</ele>
        <time>2021-03-15T17:32:41.920Z</time>
      </trkpt>
      <trkpt lat="47.98087" lon="-4.07857">
        <ele>57.58368395769</ele>
        <time>2021-03-15T17:32:44.101Z</time>
      </trkpt>
      <trkpt lat="47.98102" lon="-4.07814">
        <ele>59.20079041549</ele>
        <time>2021-03-15T17:32:46.287Z</time>
      </trkpt>
      <trkpt lat="47.98126" lon="-4.07758">
        <ele>60.71020789837</ele>
        <time>2021-03-15T17:32:48.480Z</time>
      </trkpt>
      <trkpt lat="47.98159" lon="-4.07694">
        <ele>62.1462086225</ele>
        <time>2021-03-15T17:32:50.682Z</time>
      </trkpt>
      <trkpt lat="47.9816" lon="-4.07694">
        <ele>63.35419439389</ele>
        <time>2021-03-15T17:32:52.884Z</time>
      </trkpt>
      <trkpt lat="47.98219" lon="-4.07603">
        <ele>64.51047301552</ele>
        <time>2021-03-15T17:32:55.099Z</time>
      </trkpt>
      <trkpt lat="47.98259" lon="-4.0755">
        <ele>65.42064400356</ele>
        <time>2021-03-15T17:32:57.323Z</time>
      </trkpt>
      <trkpt lat="47.98276" lon="-4.0754">
        <ele>66.25799725019</ele>
        <time>2021-03-15T17:32:59.550Z</time>
      </trkpt>
      <trkpt lat="47.98295" lon="-4.07536">
        <ele>66.98491797434</ele>
        <time>2021-03-15T17:33:01.780Z</time>
      </trkpt>
      <trkpt lat="47.98306" lon="-4.07545">
        <ele>67.56515510174</ele>
        <time>2021-03-15T17:33:04.012Z</time>
      </trkpt>
      <trkpt lat="47.9832" lon="-4.07545">
        <ele>68.04222891905</ele>
        <time>2021-03-15T17:33:06.246Z</time>
      </trkpt>
      <trkpt lat="47.98329" lon="-4.07544">
        <ele>68.40617528195</ele>
        <time>2021-03-15T17:33:08.482Z</time>
      </trkpt>
      <trkpt lat="47.98337" lon="-4.0754">
        <ele>68.68096233207</ele>
        <time>2021-03-15T17:33:10.719Z</time>
      </trkpt>
      <trkpt lat="47.98353" lon="-4.07524">
        <ele>68.87549820593</ele>
        <time>2021-03-15T17:33:12.959Z</time>
      </trkpt>
      <trkpt lat="47.98363" lon="-4.07496">
        <ele>69.05307315308</ele>
        <time>2021-03-15T17:33:15.202Z</time>
      </trkpt>
      <trkpt lat="47.98364" lon="-4.07481">
        <ele>69.1629861696</ele>
        <time>2021-03-15T17:33:17.447Z</time>
      </trkpt>
      <trkpt lat="47.98364" lon="-4.07467">
        <ele>69.22079942678</ele>
        <time>2021-03-15T17:33:19.694Z</time>
      </trkpt>
      <trkpt lat="47.98357" lon="-4.07442">
        <ele>69.26319112521</ele>
        <time>2021-03-15T17:33:21.944Z</time>
      </trkpt>
      <trkpt lat="47.9835" lon="-4.07428">
        <ele>69.27025146554</ele>
        <time>2021-03-15T17:33:24.195Z</time>
      </trkpt>
      <trkpt lat="47.98338" lon="-4.07416">
        <ele>69.24172948204</ele>
        <time>2021-03-15T17:33:26.449Z</time>
      </trkpt>
      <trkpt lat="47.98334" lon="-4.07402">
        <ele>69.23572632045</ele>
        <time>2021-03-15T17:33:28.704Z</time>
      </trkpt>
      <trkpt lat="47.98336" lon="-4.07378">
        <ele>69.24154080467</ele>
        <time>2021-03-15T17:33:30.962Z</time>
      </trkpt>
      <trkpt lat="47.98342" lon="-4.07367">
        <ele>69.2135623512</ele>
        <time>2021-03-15T17:33:33.221Z</time>
      </trkpt>
      <trkpt lat="47.98342" lon="-4.07366">
        <ele>69.18409398391</ele>
        <time>2021-03-15T17:33:35.481Z</time>
      </trkpt>
      <trkpt lat="47.98353" lon="-4.07352">
        <ele>69.15604094626</ele>
        <time>2021-03-15T17:33:37.743Z</time>
      </trkpt>
      <trkpt lat="47.98373" lon="-4.07334">
        <ele>69.13021208628</ele>
        <time>2021-03-15T17:33:40.009Z</time>
      </trkpt>
      <trkpt lat="47.98388" lon="-4.07322">
        <ele>69.12493213845</ele>
        <time>2021-03-15T17:33:42.277Z</time>
      </trkpt>
      <trkpt lat="47.98394" lon="-4.07324">
        <ele>69.11060092013</ele>
        <time>2021-03-15T17:33:44.546Z</time>
      </trkpt>
      <trkpt lat="47.98401" lon="-4.07317">
        <ele>69.09715137358</ele>
        <time>2021-03-15T17:33:46.817Z</time>
      </trkpt>
      <trkpt lat="47.98402" lon="-4.0731">
        <ele>69.07321074088</ele>
        <time>2021-03-15T17:33:49.088Z</time>
      </trkpt>
      <trkpt lat="47.98415" lon="-4.07289">
        <ele>69.04425122517</ele>
        <time>2021-03-15T17:33:51.363Z</time>
      </trkpt>
      <trkpt lat="47.98419" lon="-4.07277">
        <ele>69.00904573466</ele>
        <time>2021-03-15T17:33:53.639Z</time>
      </trkpt>
      <trkpt lat="47.98418" lon="-4.0726">
        <ele>68.97452007899</ele>
        <time>2021-03-15T17:33:55.917Z</time>
      </trkpt>
      <trkpt lat="47.98421" lon="-4.07202">
        <ele>68.9765992284</ele>
        <time>2021-03-15T17:33:58.201Z</time>
      </trkpt>
      <trkpt lat="47.98437" lon="-4.07128">
        <ele>68.98375620527</ele>
        <time>2021-03-15T17:34:00.493Z</time>
      </trkpt>
      <trkpt lat="47.98437" lon="-4.07127">
        <ele>68.91015676086</ele>
        <time>2021-03-15T17:34:02.786Z</time>
      </trkpt>
      <trkpt lat="47.98451" lon="-4.07064">
        <ele>68.8527356554</ele>
        <time>2021-03-15T17:34:05.086Z</time>
      </trkpt>
      <trkpt lat="47.9848" lon="-4.06957">
        <ele>68.68357543257</ele>
        <time>2021-03-15T17:34:07.398Z</time>
      </trkpt>
      <trkpt lat="47.98495" lon="-4.06914">
        <ele>68.57412805578</ele>
        <time>2021-03-15T17:34:09.715Z</time>
      </trkpt>
      <trkpt lat="47.9851" lon="-4.06877">
        <ele>68.44036322048</ele>
        <time>2021-03-15T17:34:12.037Z</time>
      </trkpt>
      <trkpt lat="47.98552" lon="-4.06791">
        <ele>68.30459912725</ele>
        <time>2021-03-15T17:34:14.370Z</time>
      </trkpt>
      <trkpt lat="47.98569" lon="-4.06773">
        <ele>68.3636998011</ele>
        <time>2021-03-15T17:34:16.707Z</time>
      </trkpt>
      <trkpt lat="47.98574" lon="-4.06771">
        <ele>68.41562333863</ele>
        <time>2021-03-15T17:34:19.045Z</time>
      </trkpt>
      <trkpt lat="47.98577" lon="-4.06767">
        <ele>68.51987341876</ele>
        <time>2021-03-15T17:34:21.383Z</time>
      </trkpt>
      <trkpt lat="47.98578" lon="-4.06761">
        <ele>68.67076445905</ele>
        <time>2021-03-15T17:34:23.722Z</time>
      </trkpt>
      <trkpt lat="47.98574" lon="-4.06752">
        <ele>68.8697624817</ele>
        <time>2021-03-15T17:34:26.062Z</time>
      </trkpt>
      <trkpt lat="47.98585" lon="-4.06688">
        <ele>69.1100965485</ele>
        <time>2021-03-15T17:34:28.409Z</time>
      </trkpt>
      <trkpt lat="47.9859" lon="-4.06645">
        <ele>69.49437867732</ele>
        <time>2021-03-15T17:34:30.761Z</time>
      </trkpt>
      <trkpt lat="47.9859" lon="-4.06611">
        <ele>69.99824186392</ele>
        <time>2021-03-15T17:34:33.116Z</time>
      </trkpt>
      <trkpt lat="47.98584" lon="-4.06533">
        <ele>70.63089020893</ele>
        <time>2021-03-15T17:34:35.480Z</time>
      </trkpt>
      <trkpt lat="47.98577" lon="-4.06456">
        <ele>71.29048162189</ele>
        <time>2021-03-15T17:34:37.852Z</time>
      </trkpt>
      <trkpt lat="47.98569" lon="-4.06398">
        <ele>71.88355166105</ele>
        <time>2021-03-15T17:34:40.231Z</time>
      </trkpt>
      <trkpt lat="47.98569" lon="-4.06374">
        <ele>72.62634841302</ele>
        <time>2021-03-15T17:34:42.612Z</time>
      </trkpt>
      <trkpt lat="47.98561" lon="-4.06302">
        <ele>73.51369350221</ele>
        <time>2021-03-15T17:34:45.001Z</time>
      </trkpt>
      <trkpt lat="47.98553" lon="-4.0623">
        <ele>74.44779911407</ele>
        <time>2021-03-15T17:34:47.398Z</time>
      </trkpt>
      <trkpt lat="47.98549" lon="-4.06196">
        <ele>75.33864909295</ele>
        <time>2021-03-15T17:34:49.799Z</time>
      </trkpt>
      <trkpt lat="47.98527" lon="-4.06112">
        <ele>76.29066202479</ele>
        <time>2021-03-15T17:34:52.209Z</time>
      </trkpt>
      <trkpt lat="47.98523" lon="-4.0609">
        <ele>77.15642991164</ele>
        <time>2021-03-15T17:34:54.622Z</time>
      </trkpt>
      <trkpt lat="47.98504" lon="-4.06039">
        <ele>77.94785964922</ele>
        <time>2021-03-15T17:34:57.041Z</time>
      </trkpt>
      <trkpt lat="47.98502" lon="-4.06021">
        <ele>78.7459164538</ele>
        <time>2021-03-15T17:34:59.462Z</time>
      </trkpt>
      <trkpt lat="47.98505" lon="-4.06017">
        <ele>79.4900575518</ele>
        <time>2021-03-15T17:35:01.884Z</time>
      </trkpt>
      <trkpt lat="47.98507" lon="-4.06011">
        <ele>80.18843756757</ele>
        <time>2021-03-15T17:35:04.306Z</time>
      </trkpt>
      <trkpt lat="47.98504" lon="-4.06001">
        <ele>80.83470919521</ele>
        <time>2021-03-15T17:35:06.729Z</time>
      </trkpt>
      <trkpt lat="47.98498" lon="-4.05999">
        <ele>81.41323815683</ele>
        <time>2021-03-15T17:35:09.153Z</time>
      </trkpt>
      <trkpt lat="47.9848" lon="-4.05974">
        <ele>81.97239932321</ele>
        <time>2021-03-15T17:35:11.581Z</time>
      </trkpt>
      <trkpt lat="47.98446" lon="-4.05877">
        <ele>82.38313343229</ele>
        <time>2021-03-15T17:35:14.021Z</time>
      </trkpt>
      <trkpt lat="47.9842" lon="-4.05778">
        <ele>82.6827350443</ele>
        <time>2021-03-15T17:35:16.473Z</time>
      </trkpt>
      <trkpt lat="47.98394" lon="-4.0568">
        <ele>83.08886090531</ele>
        <time>2021-03-15T17:35:18.936Z</time>
      </trkpt>
      <trkpt lat="47.98368" lon="-4.05581">
        <ele>83.41147784384</ele>
        <time>2021-03-15T17:35:21.410Z</time>
      </trkpt>
      <trkpt lat="47.98352" lon="-4.05487">
        <ele>83.80098973157</ele>
        <time>2021-03-15T17:35:23.895Z</time>
      </trkpt>
      <trkpt lat="47.98348" lon="-4.05419">
        <ele>84.06788742628</ele>
        <time>2021-03-15T17:35:26.387Z</time>
      </trkpt>
      <trkpt lat="47.98347" lon="-4.05318">
        <ele>84.29522615761</ele>
        <time>2021-03-15T17:35:28.890Z</time>
      </trkpt>
      <trkpt lat="47.98345" lon="-4.05217">
        <ele>84.43697514975</ele>
        <time>2021-03-15T17:35:31.404Z</time>
      </trkpt>
      <trkpt lat="47.98344" lon="-4.05116">
        <ele>84.41382477658</ele>
        <time>2021-03-15T17:35:33.929Z</time>
      </trkpt>
      <trkpt lat="47.98342" lon="-4.05032">
        <ele>84.26491299269</ele>
        <time>2021-03-15T17:35:36.463Z</time>
      </trkpt>
      <trkpt lat="47.98339" lon="-4.04948">
        <ele>84.06374705758</ele>
        <time>2021-03-15T17:35:39.006Z</time>
      </trkpt>
      <trkpt lat="47.98344" lon="-4.04945">
        <ele>83.75303246894</ele>
        <time>2021-03-15T17:35:41.550Z</time>
      </trkpt>
      <trkpt lat="47.98346" lon="-4.04936">
        <ele>83.32156216072</ele>
        <time>2021-03-15T17:35:44.095Z</time>
      </trkpt>
      <trkpt lat="47.98341" lon="-4.04926">
        <ele>82.77590668261</ele>
        <time>2021-03-15T17:35:46.641Z</time>
      </trkpt>
      <trkpt lat="47.98338" lon="-4.04925">
        <ele>82.14515844898</ele>
        <time>2021-03-15T17:35:49.187Z</time>
      </trkpt>
      <trkpt lat="47.98336" lon="-4.04815">
        <ele>81.36055047333</ele>
        <time>2021-03-15T17:35:51.745Z</time>
      </trkpt>
      <trkpt lat="47.98336" lon="-4.04788">
        <ele>80.53820273397</ele>
        <time>2021-03-15T17:35:54.306Z</time>
      </trkpt>
      <trkpt lat="47.98342" lon="-4.04721">
        <ele>79.63323532506</ele>
        <time>2021-03-15T17:35:56.874Z</time>
      </trkpt>
      <trkpt lat="47.98348" lon="-4.04654">
        <ele>78.59859682409</ele>
        <time>2021-03-15T17:35:59.450Z</time>
      </trkpt>
      <trkpt lat="47.98355" lon="-4.0462">
        <ele>77.66137889922</ele>
        <time>2021-03-15T17:36:02.030Z</time>
      </trkpt>
      <trkpt lat="47.9836" lon="-4.04617">
        <ele>76.7463271585</ele>
        <time>2021-03-15T17:36:04.610Z</time>
      </trkpt>
      <trkpt lat="47.98362" lon="-4.0461">
        <ele>75.81410251502</ele>
        <time>2021-03-15T17:36:07.191Z</time>
      </trkpt>
      <trkpt lat="47.98361" lon="-4.04605">
        <ele>74.88422132911</ele>
        <time>2021-03-15T17:36:09.773Z</time>
      </trkpt>
      <trkpt lat="47.98356" lon="-4.04599">
        <ele>73.95936853886</ele>
        <time>2021-03-15T17:36:12.356Z</time>
      </trkpt>
      <trkpt lat="47.98343" lon="-4.04566">
        <ele>73.00358457105</ele>
        <time>2021-03-15T17:36:14.943Z</time>
      </trkpt>
      <trkpt lat="47.98315" lon="-4.04482">
        <ele>72.08318540874</ele>
        <time>2021-03-15T17:36:17.540Z</time>
      </trkpt>
      <trkpt lat="47.98297" lon="-4.04389">
        <ele>71.30347935827</ele>
        <time>2021-03-15T17:36:20.147Z</time>
      </trkpt>
      <trkpt lat="47.98291" lon="-4.04387">
        <ele>70.58521148819</ele>
        <time>2021-03-15T17:36:22.755Z</time>
      </trkpt>
      <trkpt lat="47.98279" lon="-4.0439">
        <ele>69.92976894184</ele>
        <time>2021-03-15T17:36:25.365Z</time>
      </trkpt>
      <trkpt lat="47.98291" lon="-4.04387">
        <ele>70.58521148819</ele>
        <time>2021-03-15T17:36:27.977Z</time>
      </trkpt>
      <trkpt lat="47.98297" lon="-4.04389">
        <ele>71.30347935827</ele>
        <time>2021-03-15T17:36:30.590Z</time>
      </trkpt>
      <trkpt lat="47.98278" lon="-4.04288">
        <ele>68.36980728096</ele>
        <time>2021-03-15T17:36:33.215Z</time>
      </trkpt>
      <trkpt lat="47.98258" lon="-4.04188">
        <ele>67.93520042708</ele>
        <time>2021-03-15T17:36:35.851Z</time>
      </trkpt>
      <trkpt lat="47.98239" lon="-4.04087">
        <ele>67.66224160792</ele>
        <time>2021-03-15T17:36:38.498Z</time>
      </trkpt>
      <trkpt lat="47.98246" lon="-4.04066">
        <ele>67.33165444989</ele>
        <time>2021-03-15T17:36:41.148Z</time>
      </trkpt>
      <trkpt lat="47.98252" lon="-4.0406">
        <ele>66.99029613521</ele>
        <time>2021-03-15T17:36:43.799Z</time>
      </trkpt>
      <trkpt lat="47.98234" lon="-4.04007">
        <ele>66.67052094951</ele>
        <time>2021-03-15T17:36:46.456Z</time>
      </trkpt>
      <trkpt lat="47.98224" lon="-4.03953">
        <ele>66.30343515192</ele>
        <time>2021-03-15T17:36:49.119Z</time>
      </trkpt>
      <trkpt lat="47.98219" lon="-4.03911">
        <ele>65.88883959459</ele>
        <time>2021-03-15T17:36:51.787Z</time>
      </trkpt>
      <trkpt lat="47.98215" lon="-4.03839">
        <ele>65.42541888115</ele>
        <time>2021-03-15T17:36:54.463Z</time>
      </trkpt>
      <trkpt lat="47.9821" lon="-4.03767">
        <ele>65.00806332427</ele>
        <time>2021-03-15T17:36:57.146Z</time>
      </trkpt>
      <trkpt lat="47.98203" lon="-4.03683">
        <ele>64.61140252109</ele>
        <time>2021-03-15T17:36:59.838Z</time>
      </trkpt>
      <trkpt lat="47.98186" lon="-4.03585">
        <ele>64.3652970505</ele>
        <time>2021-03-15T17:37:02.541Z</time>
      </trkpt>
      <trkpt lat="47.98168" lon="-4.03488">
        <ele>64.15617597038</ele>
        <time>2021-03-15T17:37:05.255Z</time>
      </trkpt>
      <trkpt lat="47.98166" lon="-4.03461">
        <ele>63.95697664994</ele>
        <time>2021-03-15T17:37:07.972Z</time>
      </trkpt>
      <trkpt lat="47.98172" lon="-4.03433">
        <ele>63.85390088652</ele>
        <time>2021-03-15T17:37:10.692Z</time>
      </trkpt>
      <trkpt lat="47.98171" lon="-4.03416">
        <ele>63.83154418387</ele>
        <time>2021-03-15T17:37:13.414Z</time>
      </trkpt>
      <trkpt lat="47.98164" lon="-4.03393">
        <ele>63.92194307281</ele>
        <time>2021-03-15T17:37:16.139Z</time>
      </trkpt>
      <trkpt lat="47.98156" lon="-4.03378">
        <ele>64.04281354199</ele>
        <time>2021-03-15T17:37:18.866Z</time>
      </trkpt>
      <trkpt lat="47.98146" lon="-4.03369">
        <ele>64.25122042741</ele>
        <time>2021-03-15T17:37:21.595Z</time>
      </trkpt>
      <trkpt lat="47.98134" lon="-4.03364">
        <ele>64.53617047936</ele>
        <time>2021-03-15T17:37:24.326Z</time>
      </trkpt>
      <trkpt lat="47.98126" lon="-4.0335">
        <ele>64.88296548421</ele>
        <time>2021-03-15T17:37:27.059Z</time>
      </trkpt>
      <trkpt lat="47.98121" lon="-4.03334">
        <ele>65.36245849103</ele>
        <time>2021-03-15T17:37:29.793Z</time>
      </trkpt>
      <trkpt lat="47.98122" lon="-4.0323">
        <ele>66.00796166554</ele>
        <time>2021-03-15T17:37:32.539Z</time>
      </trkpt>
      <trkpt lat="47.98122" lon="-4.03229">
        <ele>66.67231973669</ele>
        <time>2021-03-15T17:37:35.285Z</time>
      </trkpt>
      <trkpt lat="47.98122" lon="-4.03109">
        <ele>67.41519069857</ele>
        <time>2021-03-15T17:37:38.044Z</time>
      </trkpt>
      <trkpt lat="47.98118" lon="-4.03011">
        <ele>68.15296385501</ele>
        <time>2021-03-15T17:37:40.813Z</time>
      </trkpt>
      <trkpt lat="47.98114" lon="-4.02914">
        <ele>69.11786644191</ele>
        <time>2021-03-15T17:37:43.593Z</time>
      </trkpt>
      <trkpt lat="47.98112" lon="-4.02823">
        <ele>70.35667727439</ele>
        <time>2021-03-15T17:37:46.382Z</time>
      </trkpt>
      <trkpt lat="47.98106" lon="-4.02765">
        <ele>71.65358907093</ele>
        <time>2021-03-15T17:37:49.178Z</time>
      </trkpt>
      <trkpt lat="47.98101" lon="-4.0268">
        <ele>73.08909774927</ele>
        <time>2021-03-15T17:37:51.983Z</time>
      </trkpt>
      <trkpt lat="47.98106" lon="-4.02653">
        <ele>74.49948802974</ele>
        <time>2021-03-15T17:37:54.791Z</time>
      </trkpt>
      <trkpt lat="47.98112" lon="-4.02644">
        <ele>75.90080874441</ele>
        <time>2021-03-15T17:37:57.600Z</time>
      </trkpt>
      <trkpt lat="47.98114" lon="-4.02627">
        <ele>77.36367131396</ele>
        <time>2021-03-15T17:38:00.411Z</time>
      </trkpt>
      <trkpt lat="47.98111" lon="-4.02618">
        <ele>78.83192833709</ele>
        <time>2021-03-15T17:38:03.223Z</time>
      </trkpt>
      <trkpt lat="47.98103" lon="-4.02608">
        <ele>80.31291091596</ele>
        <time>2021-03-15T17:38:06.037Z</time>
      </trkpt>
      <trkpt lat="47.98095" lon="-4.02583">
        <ele>81.766855055</ele>
        <time>2021-03-15T17:38:08.854Z</time>
      </trkpt>
      <trkpt lat="47.9809" lon="-4.0247">
        <ele>83.17767219162</ele>
        <time>2021-03-15T17:38:11.683Z</time>
      </trkpt>
      <trkpt lat="47.98085" lon="-4.02356">
        <ele>84.65897322226</ele>
        <time>2021-03-15T17:38:14.524Z</time>
      </trkpt>
      <trkpt lat="47.9808" lon="-4.02243">
        <ele>85.9399662645</ele>
        <time>2021-03-15T17:38:17.378Z</time>
      </trkpt>
      <trkpt lat="47.98076" lon="-4.02144">
        <ele>87.11910431337</ele>
        <time>2021-03-15T17:38:20.242Z</time>
      </trkpt>
      <trkpt lat="47.98073" lon="-4.02045">
        <ele>88.30857839952</ele>
        <time>2021-03-15T17:38:23.117Z</time>
      </trkpt>
      <trkpt lat="47.98069" lon="-4.01946">
        <ele>89.35963862895</ele>
        <time>2021-03-15T17:38:26.003Z</time>
      </trkpt>
      <trkpt lat="47.98065" lon="-4.01891">
        <ele>90.19980609749</ele>
        <time>2021-03-15T17:38:28.894Z</time>
      </trkpt>
      <trkpt lat="47.98057" lon="-4.01817">
        <ele>90.83124171087</ele>
        <time>2021-03-15T17:38:31.794Z</time>
      </trkpt>
      <trkpt lat="47.98046" lon="-4.01757">
        <ele>91.32884573983</ele>
        <time>2021-03-15T17:38:34.700Z</time>
      </trkpt>
      <trkpt lat="47.98035" lon="-4.01721">
        <ele>91.62806313329</ele>
        <time>2021-03-15T17:38:37.610Z</time>
      </trkpt>
      <trkpt lat="47.98017" lon="-4.01674">
        <ele>91.74462407124</ele>
        <time>2021-03-15T17:38:40.526Z</time>
      </trkpt>
      <trkpt lat="47.98004" lon="-4.01637">
        <ele>91.75215142248</ele>
        <time>2021-03-15T17:38:43.447Z</time>
      </trkpt>
      <trkpt lat="47.97985" lon="-4.01604">
        <ele>91.6446214303</ele>
        <time>2021-03-15T17:38:46.372Z</time>
      </trkpt>
      <trkpt lat="47.97972" lon="-4.01591">
        <ele>91.40441362885</ele>
        <time>2021-03-15T17:38:49.300Z</time>
      </trkpt>
      <trkpt lat="47.97962" lon="-4.01585">
        <ele>91.0952732563</ele>
        <time>2021-03-15T17:38:52.230Z</time>
      </trkpt>
      <trkpt lat="47.97917" lon="-4.01572">
        <ele>90.70577194258</ele>
        <time>2021-03-15T17:38:55.167Z</time>
      </trkpt>
      <trkpt lat="47.97904" lon="-4.01562">
        <ele>90.26085522367</ele>
        <time>2021-03-15T17:38:58.106Z</time>
      </trkpt>
      <trkpt lat="47.97895" lon="-4.01552">
        <ele>89.77415477682</ele>
        <time>2021-03-15T17:39:01.047Z</time>
      </trkpt>
      <trkpt lat="47.97887" lon="-4.01529">
        <ele>89.2683838896</ele>
        <time>2021-03-15T17:39:03.991Z</time>
      </trkpt>
      <trkpt lat="47.97864" lon="-4.01497">
        <ele>88.7477608212</ele>
        <time>2021-03-15T17:39:06.940Z</time>
      </trkpt>
      <trkpt lat="47.9786" lon="-4.01482">
        <ele>88.32079693548</ele>
        <time>2021-03-15T17:39:09.891Z</time>
      </trkpt>
      <trkpt lat="47.97837" lon="-4.01364">
        <ele>87.94274694892</ele>
        <time>2021-03-15T17:39:12.855Z</time>
      </trkpt>
      <trkpt lat="47.97814" lon="-4.01246">
        <ele>87.67024928142</ele>
        <time>2021-03-15T17:39:15.832Z</time>
      </trkpt>
      <trkpt lat="47.97803" lon="-4.01182">
        <ele>87.49184024065</ele>
        <time>2021-03-15T17:39:18.816Z</time>
      </trkpt>
      <trkpt lat="47.9779" lon="-4.01062">
        <ele>87.51158374212</ele>
        <time>2021-03-15T17:39:21.813Z</time>
      </trkpt>
      <trkpt lat="47.97787" lon="-4.01049">
        <ele>87.51944193063</ele>
        <time>2021-03-15T17:39:24.812Z</time>
      </trkpt>
      <trkpt lat="47.97786" lon="-4.01034">
        <ele>87.61520157027</ele>
        <time>2021-03-15T17:39:27.812Z</time>
      </trkpt>
      <trkpt lat="47.97789" lon="-4.01023">
        <ele>87.76003391024</ele>
        <time>2021-03-15T17:39:30.814Z</time>
      </trkpt>
      <trkpt lat="47.97801" lon="-4.01002">
        <ele>87.97308405582</ele>
        <time>2021-03-15T17:39:33.819Z</time>
      </trkpt>
      <trkpt lat="47.97806" lon="-4.0099">
        <ele>88.18127053929</ele>
        <time>2021-03-15T17:39:36.825Z</time>
      </trkpt>
      <trkpt lat="47.97805" lon="-4.00976">
        <ele>88.42469331174</ele>
        <time>2021-03-15T17:39:39.833Z</time>
      </trkpt>
      <trkpt lat="47.978" lon="-4.00966">
        <ele>88.6523926944</ele>
        <time>2021-03-15T17:39:42.842Z</time>
      </trkpt>
      <trkpt lat="47.9779" lon="-4.00959">
        <ele>88.85746138366</ele>
        <time>2021-03-15T17:39:45.853Z</time>
      </trkpt>
      <trkpt lat="47.97781" lon="-4.00941">
        <ele>89.10692574294</ele>
        <time>2021-03-15T17:39:48.866Z</time>
      </trkpt>
      <trkpt lat="47.97759" lon="-4.0087">
        <ele>89.32600058572</ele>
        <time>2021-03-15T17:39:51.888Z</time>
      </trkpt>
      <trkpt lat="47.97736" lon="-4.008">
        <ele>89.52458563986</ele>
        <time>2021-03-15T17:39:54.918Z</time>
      </trkpt>
      <trkpt lat="47.97733" lon="-4.00788">
        <ele>89.68658752475</ele>
        <time>2021-03-15T17:39:57.949Z</time>
      </trkpt>
      <trkpt lat="47.97702" lon="-4.00671">
        <ele>89.75955354716</ele>
        <time>2021-03-15T17:40:00.994Z</time>
      </trkpt>
      <trkpt lat="47.97671" lon="-4.00554">
        <ele>89.85097528777</ele>
        <time>2021-03-15T17:40:04.052Z</time>
      </trkpt>
      <trkpt lat="47.97654" lon="-4.00485">
        <ele>89.89462936339</ele>
        <time>2021-03-15T17:40:07.118Z</time>
      </trkpt>
      <trkpt lat="47.97637" lon="-4.00417">
        <ele>89.89388869487</ele>
        <time>2021-03-15T17:40:10.192Z</time>
      </trkpt>
      <trkpt lat="47.97621" lon="-4.00342">
        <ele>89.98255488715</ele>
        <time>2021-03-15T17:40:13.275Z</time>
      </trkpt>
      <trkpt lat="47.97605" lon="-4.00267">
        <ele>90.05050819959</ele>
        <time>2021-03-15T17:40:16.366Z</time>
      </trkpt>
      <trkpt lat="47.97588" lon="-4.00172">
        <ele>90.0270899738</ele>
        <time>2021-03-15T17:40:19.468Z</time>
      </trkpt>
      <trkpt lat="47.97571" lon="-4.00077">
        <ele>89.93616717027</ele>
        <time>2021-03-15T17:40:22.580Z</time>
      </trkpt>
      <trkpt lat="47.97558" lon="-4.00026">
        <ele>89.74691754288</ele>
        <time>2021-03-15T17:40:25.698Z</time>
      </trkpt>
      <trkpt lat="47.97553" lon="-3.99999">
        <ele>89.54250089624</ele>
        <time>2021-03-15T17:40:28.819Z</time>
      </trkpt>
      <trkpt lat="47.97549" lon="-3.99986">
        <ele>89.27315169407</ele>
        <time>2021-03-15T17:40:31.942Z</time>
      </trkpt>
      <trkpt lat="47.97541" lon="-3.99974">
        <ele>89.03165436497</ele>
        <time>2021-03-15T17:40:35.066Z</time>
      </trkpt>
      <trkpt lat="47.97537" lon="-3.99953">
        <ele>88.75180975076</ele>
        <time>2021-03-15T17:40:38.193Z</time>
      </trkpt>
      <trkpt lat="47.97529" lon="-3.9988">
        <ele>88.41498583749</ele>
        <time>2021-03-15T17:40:41.328Z</time>
      </trkpt>
      <trkpt lat="47.97518" lon="-3.9982">
        <ele>88.04273971348</ele>
        <time>2021-03-15T17:40:44.469Z</time>
      </trkpt>
      <trkpt lat="47.97516" lon="-3.99796">
        <ele>87.66627407689</ele>
        <time>2021-03-15T17:40:47.613Z</time>
      </trkpt>
      <trkpt lat="47.97512" lon="-3.9979">
        <ele>87.35929176459</ele>
        <time>2021-03-15T17:40:50.758Z</time>
      </trkpt>
      <trkpt lat="47.97499" lon="-3.99752">
        <ele>87.05211457673</ele>
        <time>2021-03-15T17:40:53.907Z</time>
      </trkpt>
      <trkpt lat="47.97476" lon="-3.99656">
        <ele>86.75542135434</ele>
        <time>2021-03-15T17:40:57.067Z</time>
      </trkpt>
      <trkpt lat="47.97452" lon="-3.99561">
        <ele>86.4831451878</ele>
        <time>2021-03-15T17:41:00.238Z</time>
      </trkpt>
      <trkpt lat="47.97424" lon="-3.99449">
        <ele>86.24824892108</ele>
        <time>2021-03-15T17:41:03.422Z</time>
      </trkpt>
      <trkpt lat="47.97396" lon="-3.99337">
        <ele>85.93779240187</ele>
        <time>2021-03-15T17:41:06.619Z</time>
      </trkpt>
      <trkpt lat="47.97368" lon="-3.99225">
        <ele>86.04955438785</ele>
        <time>2021-03-15T17:41:09.829Z</time>
      </trkpt>
      <trkpt lat="47.97339" lon="-3.99114">
        <ele>86.1742618735</ele>
        <time>2021-03-15T17:41:13.052Z</time>
      </trkpt>
      <trkpt lat="47.97311" lon="-3.99002">
        <ele>86.27035152148</ele>
        <time>2021-03-15T17:41:16.288Z</time>
      </trkpt>
      <trkpt lat="47.97283" lon="-3.9889">
        <ele>86.40840756763</ele>
        <time>2021-03-15T17:41:19.536Z</time>
      </trkpt>
      <trkpt lat="47.97255" lon="-3.98784">
        <ele>86.40777821668</ele>
        <time>2021-03-15T17:41:22.797Z</time>
      </trkpt>
      <trkpt lat="47.97226" lon="-3.98678">
        <ele>86.38351306802</ele>
        <time>2021-03-15T17:41:26.070Z</time>
      </trkpt>
      <trkpt lat="47.97198" lon="-3.98573">
        <ele>86.43364234481</ele>
        <time>2021-03-15T17:41:29.355Z</time>
      </trkpt>
      <trkpt lat="47.97169" lon="-3.98467">
        <ele>86.71334785534</ele>
        <time>2021-03-15T17:41:32.652Z</time>
      </trkpt>
      <trkpt lat="47.97141" lon="-3.98361">
        <ele>86.93487245431</ele>
        <time>2021-03-15T17:41:35.962Z</time>
      </trkpt>
      <trkpt lat="47.97132" lon="-3.98307">
        <ele>87.00357853496</ele>
        <time>2021-03-15T17:41:39.278Z</time>
      </trkpt>
      <trkpt lat="47.97125" lon="-3.9826">
        <ele>87.01428853268</ele>
        <time>2021-03-15T17:41:42.599Z</time>
      </trkpt>
      <trkpt lat="47.97117" lon="-3.98191">
        <ele>86.9850974519</ele>
        <time>2021-03-15T17:41:45.927Z</time>
      </trkpt>
      <trkpt lat="47.97114" lon="-3.98109">
        <ele>86.96849336795</ele>
        <time>2021-03-15T17:41:49.264Z</time>
      </trkpt>
      <trkpt lat="47.97114" lon="-3.97989">
        <ele>87.03435904279</ele>
        <time>2021-03-15T17:41:52.614Z</time>
      </trkpt>
      <trkpt lat="47.97113" lon="-3.97869">
        <ele>87.19445939139</ele>
        <time>2021-03-15T17:41:55.977Z</time>
      </trkpt>
      <trkpt lat="47.97102" lon="-3.97781">
        <ele>87.23502276582</ele>
        <time>2021-03-15T17:41:59.350Z</time>
      </trkpt>
      <trkpt lat="47.97083" lon="-3.97675">
        <ele>87.39211160149</ele>
        <time>2021-03-15T17:42:02.734Z</time>
      </trkpt>
      <trkpt lat="47.97063" lon="-3.97569">
        <ele>87.77181805102</ele>
        <time>2021-03-15T17:42:06.130Z</time>
      </trkpt>
      <trkpt lat="47.97053" lon="-3.975">
        <ele>88.16145038412</ele>
        <time>2021-03-15T17:42:09.534Z</time>
      </trkpt>
      <trkpt lat="47.97042" lon="-3.97431">
        <ele>88.57993245568</ele>
        <time>2021-03-15T17:42:12.945Z</time>
      </trkpt>
      <trkpt lat="47.97033" lon="-3.97347">
        <ele>89.07254465187</ele>
        <time>2021-03-15T17:42:16.366Z</time>
      </trkpt>
      <trkpt lat="47.97024" lon="-3.97263">
        <ele>89.61096458466</ele>
        <time>2021-03-15T17:42:19.796Z</time>
      </trkpt>
      <trkpt lat="47.9702" lon="-3.97194">
        <ele>90.28805144032</ele>
        <time>2021-03-15T17:42:23.233Z</time>
      </trkpt>
      <trkpt lat="47.9702" lon="-3.97102">
        <ele>90.99965998351</ele>
        <time>2021-03-15T17:42:26.680Z</time>
      </trkpt>
      <trkpt lat="47.9702" lon="-3.97009">
        <ele>91.74174647657</ele>
        <time>2021-03-15T17:42:30.137Z</time>
      </trkpt>
      <trkpt lat="47.9702" lon="-3.96917">
        <ele>92.36916622709</ele>
        <time>2021-03-15T17:42:33.604Z</time>
      </trkpt>
      <trkpt lat="47.97019" lon="-3.96839">
        <ele>92.94649802</ele>
        <time>2021-03-15T17:42:37.079Z</time>
      </trkpt>
      <trkpt lat="47.97017" lon="-3.96762">
        <ele>93.64940321747</ele>
        <time>2021-03-15T17:42:40.563Z</time>
      </trkpt>
      <trkpt lat="47.97014" lon="-3.96716">
        <ele>94.38644187255</ele>
        <time>2021-03-15T17:42:44.052Z</time>
      </trkpt>
      <trkpt lat="47.97003" lon="-3.96619">
        <ele>95.23986363256</ele>
        <time>2021-03-15T17:42:47.551Z</time>
      </trkpt>
      <trkpt lat="47.97003" lon="-3.96619">
        <ele>96.06633133579</ele>
        <time>2021-03-15T17:42:51.050Z</time>
      </trkpt>
      <trkpt lat="47.97003" lon="-3.96619">
        <ele>96.94711880725</ele>
        <time>2021-03-15T17:42:54.549Z</time>
      </trkpt>
      <trkpt lat="47.96991" lon="-3.96538">
        <ele>97.91181759661</ele>
        <time>2021-03-15T17:42:58.057Z</time>
      </trkpt>
      <trkpt lat="47.96979" lon="-3.96458">
        <ele>98.93325645391</ele>
        <time>2021-03-15T17:43:01.574Z</time>
      </trkpt>
      <trkpt lat="47.9697" lon="-3.96362">
        <ele>99.89803720751</ele>
        <time>2021-03-15T17:43:05.101Z</time>
      </trkpt>
      <trkpt lat="47.96972" lon="-3.96234">
        <ele>101.06375255193</ele>
        <time>2021-03-15T17:43:08.642Z</time>
      </trkpt>
      <trkpt lat="47.96973" lon="-3.96106">
        <ele>102.39796962468</ele>
        <time>2021-03-15T17:43:12.197Z</time>
      </trkpt>
      <trkpt lat="47.96975" lon="-3.95977">
        <ele>103.696624825</ele>
        <time>2021-03-15T17:43:15.766Z</time>
      </trkpt>
      <trkpt lat="47.96976" lon="-3.95849">
        <ele>105.25045480555</ele>
        <time>2021-03-15T17:43:19.349Z</time>
      </trkpt>
      <trkpt lat="47.96974" lon="-3.9576">
        <ele>106.68292869505</ele>
        <time>2021-03-15T17:43:22.941Z</time>
      </trkpt>
      <trkpt lat="47.96969" lon="-3.95712">
        <ele>108.14747149312</ele>
        <time>2021-03-15T17:43:26.538Z</time>
      </trkpt>
      <trkpt lat="47.96956" lon="-3.95608">
        <ele>109.63106634279</ele>
        <time>2021-03-15T17:43:30.147Z</time>
      </trkpt>
      <trkpt lat="47.96943" lon="-3.95504">
        <ele>111.07008488763</ele>
        <time>2021-03-15T17:43:33.767Z</time>
      </trkpt>
      <trkpt lat="47.9693" lon="-3.954">
        <ele>112.5310548169</ele>
        <time>2021-03-15T17:43:37.398Z</time>
      </trkpt>
      <trkpt lat="47.96918" lon="-3.95339">
        <ele>113.90858630849</ele>
        <time>2021-03-15T17:43:41.036Z</time>
      </trkpt>
      <trkpt lat="47.96907" lon="-3.95304">
        <ele>115.23726472239</ele>
        <time>2021-03-15T17:43:44.678Z</time>
      </trkpt>
      <trkpt lat="47.96873" lon="-3.95225">
        <ele>116.49836824275</ele>
        <time>2021-03-15T17:43:48.331Z</time>
      </trkpt>
      <trkpt lat="47.96843" lon="-3.95159">
        <ele>117.6155343795</ele>
        <time>2021-03-15T17:43:51.992Z</time>
      </trkpt>
      <trkpt lat="47.96812" lon="-3.95094">
        <ele>118.57603417374</ele>
        <time>2021-03-15T17:43:55.662Z</time>
      </trkpt>
      <trkpt lat="47.96793" lon="-3.95031">
        <ele>119.45313717313</ele>
        <time>2021-03-15T17:43:59.339Z</time>
      </trkpt>
      <trkpt lat="47.96788" lon="-3.95">
        <ele>120.20751422999</ele>
        <time>2021-03-15T17:44:03.020Z</time>
      </trkpt>
      <trkpt lat="47.96783" lon="-3.94952">
        <ele>120.81864012804</ele>
        <time>2021-03-15T17:44:06.706Z</time>
      </trkpt>
      <trkpt lat="47.96781" lon="-3.94854">
        <ele>121.31479466713</ele>
        <time>2021-03-15T17:44:10.402Z</time>
      </trkpt>
      <trkpt lat="47.96778" lon="-3.94757">
        <ele>121.68764030278</ele>
        <time>2021-03-15T17:44:14.109Z</time>
      </trkpt>
      <trkpt lat="47.96764" lon="-3.94663">
        <ele>121.70519506034</ele>
        <time>2021-03-15T17:44:17.826Z</time>
      </trkpt>
      <trkpt lat="47.96749" lon="-3.9457">
        <ele>121.60073823517</ele>
        <time>2021-03-15T17:44:21.553Z</time>
      </trkpt>
      <trkpt lat="47.96735" lon="-3.94476">
        <ele>121.36702001085</ele>
        <time>2021-03-15T17:44:25.291Z</time>
      </trkpt>
      <trkpt lat="47.96735" lon="-3.94475">
        <ele>121.25166840165</ele>
        <time>2021-03-15T17:44:29.029Z</time>
      </trkpt>
      <trkpt lat="47.96722" lon="-3.94385">
        <ele>121.01068395511</ele>
        <time>2021-03-15T17:44:32.777Z</time>
      </trkpt>
      <trkpt lat="47.96708" lon="-3.94295">
        <ele>120.8734247498</ele>
        <time>2021-03-15T17:44:36.535Z</time>
      </trkpt>
      <trkpt lat="47.96706" lon="-3.94254">
        <ele>120.69892114342</ele>
        <time>2021-03-15T17:44:40.297Z</time>
      </trkpt>
      <trkpt lat="47.96722" lon="-3.94145">
        <ele>120.70932897627</ele>
        <time>2021-03-15T17:44:44.071Z</time>
      </trkpt>
      <trkpt lat="47.96733" lon="-3.94111">
        <ele>120.49073177878</ele>
        <time>2021-03-15T17:44:47.849Z</time>
      </trkpt>
      <trkpt lat="47.96743" lon="-3.9409">
        <ele>120.23712282297</ele>
        <time>2021-03-15T17:44:51.630Z</time>
      </trkpt>
      <trkpt lat="47.96747" lon="-3.9409">
        <ele>119.97199485702</ele>
        <time>2021-03-15T17:44:55.412Z</time>
      </trkpt>
      <trkpt lat="47.96751" lon="-3.94084">
        <ele>119.70622291964</ele>
        <time>2021-03-15T17:44:59.194Z</time>
      </trkpt>
      <trkpt lat="47.96751" lon="-3.94076">
        <ele>119.43854356082</ele>
        <time>2021-03-15T17:45:02.977Z</time>
      </trkpt>
      <trkpt lat="47.96746" lon="-3.9407">
        <ele>119.16481901565</ele>
        <time>2021-03-15T17:45:06.761Z</time>
      </trkpt>
      <trkpt lat="47.96741" lon="-3.94051">
        <ele>118.88862905086</ele>
        <time>2021-03-15T17:45:10.548Z</time>
      </trkpt>
      <trkpt lat="47.96741" lon="-3.9403">
        <ele>118.62703037617</ele>
        <time>2021-03-15T17:45:14.337Z</time>
      </trkpt>
      <trkpt lat="47.96755" lon="-3.93935">
        <ele>118.27376058634</ele>
        <time>2021-03-15T17:45:18.136Z</time>
      </trkpt>
      <trkpt lat="47.96768" lon="-3.9384">
        <ele>118.08752676534</ele>
        <time>2021-03-15T17:45:21.946Z</time>
      </trkpt>
      <trkpt lat="47.96772" lon="-3.93835">
        <ele>117.92308499023</ele>
        <time>2021-03-15T17:45:25.757Z</time>
      </trkpt>
      <trkpt lat="47.96769" lon="-3.93813">
        <ele>117.80526449018</ele>
        <time>2021-03-15T17:45:29.570Z</time>
      </trkpt>
      <trkpt lat="47.96765" lon="-3.937">
        <ele>117.77516924684</ele>
        <time>2021-03-15T17:45:33.395Z</time>
      </trkpt>
      <trkpt lat="47.96756" lon="-3.93572">
        <ele>117.80750962536</ele>
        <time>2021-03-15T17:45:37.234Z</time>
      </trkpt>
      <trkpt lat="47.96747" lon="-3.93445">
        <ele>117.82170322897</ele>
        <time>2021-03-15T17:45:41.087Z</time>
      </trkpt>
      <trkpt lat="47.96742" lon="-3.93352">
        <ele>117.74021783733</ele>
        <time>2021-03-15T17:45:44.950Z</time>
      </trkpt>
      <trkpt lat="47.96737" lon="-3.9326">
        <ele>117.67325703553</ele>
        <time>2021-03-15T17:45:48.823Z</time>
      </trkpt>
      <trkpt lat="47.96732" lon="-3.93159">
        <ele>117.9951532602</ele>
        <time>2021-03-15T17:45:52.707Z</time>
      </trkpt>
      <trkpt lat="47.96728" lon="-3.93057">
        <ele>118.55777104388</ele>
        <time>2021-03-15T17:45:56.601Z</time>
      </trkpt>
      <trkpt lat="47.96723" lon="-3.92956">
        <ele>119.19421877107</ele>
        <time>2021-03-15T17:46:00.506Z</time>
      </trkpt>
      <trkpt lat="47.96719" lon="-3.92906">
        <ele>119.67191233819</ele>
        <time>2021-03-15T17:46:04.417Z</time>
      </trkpt>
      <trkpt lat="47.96711" lon="-3.92863">
        <ele>120.0857407985</ele>
        <time>2021-03-15T17:46:08.333Z</time>
      </trkpt>
      <trkpt lat="47.96702" lon="-3.92833">
        <ele>120.4544447455</ele>
        <time>2021-03-15T17:46:12.252Z</time>
      </trkpt>
      <trkpt lat="47.96669" lon="-3.92744">
        <ele>120.8700793473</ele>
        <time>2021-03-15T17:46:16.182Z</time>
      </trkpt>
      <trkpt lat="47.96636" lon="-3.92655">
        <ele>121.20640828488</ele>
        <time>2021-03-15T17:46:20.123Z</time>
      </trkpt>
      <trkpt lat="47.96597" lon="-3.92559">
        <ele>121.4048099281</ele>
        <time>2021-03-15T17:46:24.076Z</time>
      </trkpt>
      <trkpt lat="47.96571" lon="-3.92465">
        <ele>121.51361205327</ele>
        <time>2021-03-15T17:46:28.040Z</time>
      </trkpt>
      <trkpt lat="47.96565" lon="-3.92427">
        <ele>121.56526445873</ele>
        <time>2021-03-15T17:46:32.008Z</time>
      </trkpt>
      <trkpt lat="47.96562" lon="-3.92378">
        <ele>121.57417099533</ele>
        <time>2021-03-15T17:46:35.982Z</time>
      </trkpt>
      <trkpt lat="47.96563" lon="-3.92342">
        <ele>121.48581482464</ele>
        <time>2021-03-15T17:46:39.959Z</time>
      </trkpt>
      <trkpt lat="47.96575" lon="-3.92223">
        <ele>121.19872662205</ele>
        <time>2021-03-15T17:46:43.949Z</time>
      </trkpt>
      <trkpt lat="47.96586" lon="-3.92103">
        <ele>120.92699009572</ele>
        <time>2021-03-15T17:46:47.952Z</time>
      </trkpt>
      <trkpt lat="47.96598" lon="-3.91984">
        <ele>120.64728361081</ele>
        <time>2021-03-15T17:46:51.968Z</time>
      </trkpt>
      <trkpt lat="47.96605" lon="-3.919">
        <ele>120.14543191149</ele>
        <time>2021-03-15T17:46:55.993Z</time>
      </trkpt>
      <trkpt lat="47.96611" lon="-3.91815">
        <ele>119.49172673174</ele>
        <time>2021-03-15T17:47:00.028Z</time>
      </trkpt>
      <trkpt lat="47.96621" lon="-3.91716">
        <ele>118.75358407692</ele>
        <time>2021-03-15T17:47:04.073Z</time>
      </trkpt>
      <trkpt lat="47.9663" lon="-3.91617">
        <ele>117.95472644369</ele>
        <time>2021-03-15T17:47:08.129Z</time>
      </trkpt>
      <trkpt lat="47.96638" lon="-3.91551">
        <ele>117.07433277875</ele>
        <time>2021-03-15T17:47:12.192Z</time>
      </trkpt>
      <trkpt lat="47.96654" lon="-3.91469">
        <ele>116.1718293316</ele>
        <time>2021-03-15T17:47:16.264Z</time>
      </trkpt>
      <trkpt lat="47.9667" lon="-3.91412">
        <ele>115.19704606936</ele>
        <time>2021-03-15T17:47:20.343Z</time>
      </trkpt>
      <trkpt lat="47.96706" lon="-3.91319">
        <ele>114.111943045</ele>
        <time>2021-03-15T17:47:24.434Z</time>
      </trkpt>
      <trkpt lat="47.96742" lon="-3.91227">
        <ele>112.78171349366</ele>
        <time>2021-03-15T17:47:28.536Z</time>
      </trkpt>
      <trkpt lat="47.96778" lon="-3.91134">
        <ele>111.4502042908</ele>
        <time>2021-03-15T17:47:32.650Z</time>
      </trkpt>
      <trkpt lat="47.96785" lon="-3.91108">
        <ele>110.02981472465</ele>
        <time>2021-03-15T17:47:36.767Z</time>
      </trkpt>
      <trkpt lat="47.96786" lon="-3.91107">
        <ele>108.57178712673</ele>
        <time>2021-03-15T17:47:40.884Z</time>
      </trkpt>
      <trkpt lat="47.96805" lon="-3.91046">
        <ele>106.95947481719</ele>
        <time>2021-03-15T17:47:45.008Z</time>
      </trkpt>
      <trkpt lat="47.96821" lon="-3.90932">
        <ele>105.15792248602</ele>
        <time>2021-03-15T17:47:49.145Z</time>
      </trkpt>
      <trkpt lat="47.96836" lon="-3.90818">
        <ele>103.80721500011</ele>
        <time>2021-03-15T17:47:53.294Z</time>
      </trkpt>
      <trkpt lat="47.96849" lon="-3.90708">
        <ele>102.37647399175</ele>
        <time>2021-03-15T17:47:57.455Z</time>
      </trkpt>
      <trkpt lat="47.96863" lon="-3.90606">
        <ele>100.74124945047</ele>
        <time>2021-03-15T17:48:01.627Z</time>
      </trkpt>
      <trkpt lat="47.96877" lon="-3.90503">
        <ele>99.05978064463</ele>
        <time>2021-03-15T17:48:05.811Z</time>
      </trkpt>
      <trkpt lat="47.96891" lon="-3.90401">
        <ele>97.39128945448</ele>
        <time>2021-03-15T17:48:10.006Z</time>
      </trkpt>
      <trkpt lat="47.969" lon="-3.90298">
        <ele>95.7493865691</ele>
        <time>2021-03-15T17:48:14.212Z</time>
      </trkpt>
      <trkpt lat="47.96909" lon="-3.90195">
        <ele>94.36426244452</ele>
        <time>2021-03-15T17:48:18.429Z</time>
      </trkpt>
      <trkpt lat="47.96918" lon="-3.90082">
        <ele>93.31622099242</ele>
        <time>2021-03-15T17:48:22.658Z</time>
      </trkpt>
      <trkpt lat="47.96926" lon="-3.89968">
        <ele>92.71715191436</ele>
        <time>2021-03-15T17:48:26.900Z</time>
      </trkpt>
      <trkpt lat="47.96925" lon="-3.89914">
        <ele>92.21732525127</ele>
        <time>2021-03-15T17:48:31.147Z</time>
      </trkpt>
      <trkpt lat="47.96914" lon="-3.89835">
        <ele>91.8983096113</ele>
        <time>2021-03-15T17:48:35.403Z</time>
      </trkpt>
      <trkpt lat="47.96898" lon="-3.89768">
        <ele>91.71109970401</ele>
        <time>2021-03-15T17:48:39.667Z</time>
      </trkpt>
      <trkpt lat="47.96863" lon="-3.89677">
        <ele>91.77331962637</ele>
        <time>2021-03-15T17:48:43.942Z</time>
      </trkpt>
      <trkpt lat="47.96827" lon="-3.89586">
        <ele>91.90154740799</ele>
        <time>2021-03-15T17:48:48.228Z</time>
      </trkpt>
      <trkpt lat="47.96812" lon="-3.89541">
        <ele>92.32525275751</ele>
        <time>2021-03-15T17:48:52.520Z</time>
      </trkpt>
      <trkpt lat="47.96798" lon="-3.89475">
        <ele>92.98373069087</ele>
        <time>2021-03-15T17:48:56.819Z</time>
      </trkpt>
      <trkpt lat="47.96787" lon="-3.89384">
        <ele>93.9801165679</ele>
        <time>2021-03-15T17:49:01.128Z</time>
      </trkpt>
      <trkpt lat="47.96776" lon="-3.89294">
        <ele>95.1662295476</ele>
        <time>2021-03-15T17:49:05.447Z</time>
      </trkpt>
      <trkpt lat="47.96765" lon="-3.89203">
        <ele>96.54677655998</ele>
        <time>2021-03-15T17:49:09.776Z</time>
      </trkpt>
      <trkpt lat="47.96762" lon="-3.8913">
        <ele>97.98939813867</ele>
        <time>2021-03-15T17:49:14.113Z</time>
      </trkpt>
      <trkpt lat="47.96768" lon="-3.89005">
        <ele>99.62171204027</ele>
        <time>2021-03-15T17:49:18.463Z</time>
      </trkpt>
      <trkpt lat="47.96773" lon="-3.88879">
        <ele>101.12066217035</ele>
        <time>2021-03-15T17:49:22.827Z</time>
      </trkpt>
      <trkpt lat="47.96779" lon="-3.88754">
        <ele>102.63766496142</ele>
        <time>2021-03-15T17:49:27.204Z</time>
      </trkpt>
      <trkpt lat="47.96788" lon="-3.88655">
        <ele>104.30680297852</ele>
        <time>2021-03-15T17:49:31.592Z</time>
      </trkpt>
      <trkpt lat="47.96801" lon="-3.88561">
        <ele>105.98641395835</ele>
        <time>2021-03-15T17:49:35.990Z</time>
      </trkpt>
      <trkpt lat="47.96814" lon="-3.88467">
        <ele>107.74090024929</ele>
        <time>2021-03-15T17:49:40.399Z</time>
      </trkpt>
      <trkpt lat="47.96819" lon="-3.88356">
        <ele>109.39946156168</ele>
        <time>2021-03-15T17:49:44.820Z</time>
      </trkpt>
      <trkpt lat="47.96821" lon="-3.88258">
        <ele>111.09158444546</ele>
        <time>2021-03-15T17:49:49.251Z</time>
      </trkpt>
      <trkpt lat="47.96823" lon="-3.88161">
        <ele>112.65645999896</ele>
        <time>2021-03-15T17:49:53.693Z</time>
      </trkpt>
      <trkpt lat="47.96825" lon="-3.88063">
        <ele>114.31443116857</ele>
        <time>2021-03-15T17:49:58.145Z</time>
      </trkpt>
      <trkpt lat="47.9682" lon="-3.87991">
        <ele>115.75995228139</ele>
        <time>2021-03-15T17:50:02.605Z</time>
      </trkpt>
      <trkpt lat="47.96811" lon="-3.87896">
        <ele>117.07629473852</ele>
        <time>2021-03-15T17:50:07.075Z</time>
      </trkpt>
      <trkpt lat="47.96802" lon="-3.87802">
        <ele>118.52308712346</ele>
        <time>2021-03-15T17:50:11.556Z</time>
      </trkpt>
      <trkpt lat="47.96802" lon="-3.87801">
        <ele>119.79728469018</ele>
        <time>2021-03-15T17:50:16.037Z</time>
      </trkpt>
      <trkpt lat="47.9679" lon="-3.87678">
        <ele>121.04431928055</ele>
        <time>2021-03-15T17:50:20.531Z</time>
      </trkpt>
      <trkpt lat="47.96781" lon="-3.876">
        <ele>122.2283379081</ele>
        <time>2021-03-15T17:50:25.034Z</time>
      </trkpt>
      <trkpt lat="47.96761" lon="-3.87482">
        <ele>123.33892544057</ele>
        <time>2021-03-15T17:50:29.550Z</time>
      </trkpt>
      <trkpt lat="47.9674" lon="-3.87364">
        <ele>124.3234885143</ele>
        <time>2021-03-15T17:50:34.079Z</time>
      </trkpt>
      <trkpt lat="47.9672" lon="-3.87247">
        <ele>125.23001570571</ele>
        <time>2021-03-15T17:50:38.621Z</time>
      </trkpt>
      <trkpt lat="47.96699" lon="-3.87129">
        <ele>125.82463277106</ele>
        <time>2021-03-15T17:50:43.176Z</time>
      </trkpt>
      <trkpt lat="47.96689" lon="-3.8706">
        <ele>126.33079803855</ele>
        <time>2021-03-15T17:50:47.738Z</time>
      </trkpt>
      <trkpt lat="47.96679" lon="-3.86991">
        <ele>126.77611755563</ele>
        <time>2021-03-15T17:50:52.308Z</time>
      </trkpt>
      <trkpt lat="47.9666" lon="-3.86865">
        <ele>127.05067750656</ele>
        <time>2021-03-15T17:50:56.892Z</time>
      </trkpt>
      <trkpt lat="47.96641" lon="-3.86739">
        <ele>127.17679654656</ele>
        <time>2021-03-15T17:51:01.490Z</time>
      </trkpt>
      <trkpt lat="47.96622" lon="-3.86613">
        <ele>127.26445308609</ele>
        <time>2021-03-15T17:51:06.102Z</time>
      </trkpt>
      <trkpt lat="47.96606" lon="-3.86491">
        <ele>127.18238922982</ele>
        <time>2021-03-15T17:51:10.727Z</time>
      </trkpt>
      <trkpt lat="47.9659" lon="-3.86369">
        <ele>126.94707287287</ele>
        <time>2021-03-15T17:51:15.365Z</time>
      </trkpt>
      <trkpt lat="47.96582" lon="-3.86297">
        <ele>126.74928238945</ele>
        <time>2021-03-15T17:51:20.011Z</time>
      </trkpt>
      <trkpt lat="47.96572" lon="-3.86167">
        <ele>126.49460454269</ele>
        <time>2021-03-15T17:51:24.671Z</time>
      </trkpt>
      <trkpt lat="47.96566" lon="-3.86058">
        <ele>126.29549966921</ele>
        <time>2021-03-15T17:51:29.343Z</time>
      </trkpt>
      <trkpt lat="47.96559" lon="-3.85949">
        <ele>126.07912243266</ele>
        <time>2021-03-15T17:51:34.027Z</time>
      </trkpt>
      <trkpt lat="47.96554" lon="-3.85874">
        <ele>125.64965675111</ele>
        <time>2021-03-15T17:51:38.719Z</time>
      </trkpt>
      <trkpt lat="47.96549" lon="-3.858">
        <ele>125.28261390691</ele>
        <time>2021-03-15T17:51:43.419Z</time>
      </trkpt>
      <trkpt lat="47.96541" lon="-3.85746">
        <ele>124.97826745387</ele>
        <time>2021-03-15T17:51:48.125Z</time>
      </trkpt>
      <trkpt lat="47.96514" lon="-3.85624">
        <ele>124.64488038384</ele>
        <time>2021-03-15T17:51:52.845Z</time>
      </trkpt>
      <trkpt lat="47.96495" lon="-3.85544">
        <ele>124.36462814336</ele>
        <time>2021-03-15T17:51:57.574Z</time>
      </trkpt>
      <trkpt lat="47.96475" lon="-3.85464">
        <ele>124.0883165017</ele>
        <time>2021-03-15T17:52:02.312Z</time>
      </trkpt>
      <trkpt lat="47.96462" lon="-3.85389">
        <ele>123.83114534821</ele>
        <time>2021-03-15T17:52:07.058Z</time>
      </trkpt>
      <trkpt lat="47.96453" lon="-3.85321">
        <ele>123.55224932045</ele>
        <time>2021-03-15T17:52:11.812Z</time>
      </trkpt>
      <trkpt lat="47.96443" lon="-3.85254">
        <ele>123.27785692451</ele>
        <time>2021-03-15T17:52:16.573Z</time>
      </trkpt>
      <trkpt lat="47.96427" lon="-3.85122">
        <ele>123.10555347413</ele>
        <time>2021-03-15T17:52:21.349Z</time>
      </trkpt>
      <trkpt lat="47.96428" lon="-3.85103">
        <ele>122.88257652352</ele>
        <time>2021-03-15T17:52:26.127Z</time>
      </trkpt>
      <trkpt lat="47.96436" lon="-3.85077">
        <ele>122.66754070291</ele>
        <time>2021-03-15T17:52:30.908Z</time>
      </trkpt>
      <trkpt lat="47.96437" lon="-3.85069">
        <ele>122.45587585367</ele>
        <time>2021-03-15T17:52:35.690Z</time>
      </trkpt>
      <trkpt lat="47.96432" lon="-3.85055">
        <ele>122.24880328048</ele>
        <time>2021-03-15T17:52:40.473Z</time>
      </trkpt>
      <trkpt lat="47.96428" lon="-3.85051">
        <ele>122.04422216356</ele>
        <time>2021-03-15T17:52:45.257Z</time>
      </trkpt>
      <trkpt lat="47.96418" lon="-3.85028">
        <ele>121.81812914361</ele>
        <time>2021-03-15T17:52:50.044Z</time>
      </trkpt>
      <trkpt lat="47.96405" lon="-3.84906">
        <ele>121.56105830539</ele>
        <time>2021-03-15T17:52:54.844Z</time>
      </trkpt>
      <trkpt lat="47.96393" lon="-3.84809">
        <ele>121.51116989978</ele>
        <time>2021-03-15T17:52:59.655Z</time>
      </trkpt>
      <trkpt lat="47.9638" lon="-3.84712">
        <ele>121.32455660331</ele>
        <time>2021-03-15T17:53:04.477Z</time>
      </trkpt>
      <trkpt lat="47.96371" lon="-3.84618">
        <ele>121.24885272137</ele>
        <time>2021-03-15T17:53:09.309Z</time>
      </trkpt>
      <trkpt lat="47.96361" lon="-3.84525">
        <ele>121.00499968361</ele>
        <time>2021-03-15T17:53:14.151Z</time>
      </trkpt>
      <trkpt lat="47.96351" lon="-3.84454">
        <ele>120.81891470984</ele>
        <time>2021-03-15T17:53:19.001Z</time>
      </trkpt>
      <trkpt lat="47.96339" lon="-3.8439">
        <ele>120.74444721422</ele>
        <time>2021-03-15T17:53:23.858Z</time>
      </trkpt>
      <trkpt lat="47.96332" lon="-3.84382">
        <ele>120.75905096795</ele>
        <time>2021-03-15T17:53:28.716Z</time>
      </trkpt>
      <trkpt lat="47.96321" lon="-3.84381">
        <ele>120.83610766743</ele>
        <time>2021-03-15T17:53:33.576Z</time>
      </trkpt>
      <trkpt lat="47.9631" lon="-3.84368">
        <ele>120.96170556488</ele>
        <time>2021-03-15T17:53:38.438Z</time>
      </trkpt>
      <trkpt lat="47.96301" lon="-3.84345">
        <ele>121.14492590576</ele>
        <time>2021-03-15T17:53:43.303Z</time>
      </trkpt>
      <trkpt lat="47.9627" lon="-3.84261">
        <ele>121.46921826849</ele>
        <time>2021-03-15T17:53:48.179Z</time>
      </trkpt>
      <trkpt lat="47.96238" lon="-3.84177">
        <ele>121.73403782983</ele>
        <time>2021-03-15T17:53:53.065Z</time>
      </trkpt>
      <trkpt lat="47.96197" lon="-3.8408">
        <ele>122.05744990566</ele>
        <time>2021-03-15T17:53:57.963Z</time>
      </trkpt>
      <trkpt lat="47.96194" lon="-3.84053">
        <ele>122.49348170697</ele>
        <time>2021-03-15T17:54:02.864Z</time>
      </trkpt>
      <trkpt lat="47.96195" lon="-3.84047">
        <ele>122.94043874084</ele>
        <time>2021-03-15T17:54:07.766Z</time>
      </trkpt>
      <trkpt lat="47.96192" lon="-3.84039">
        <ele>123.42008997024</ele>
        <time>2021-03-15T17:54:12.669Z</time>
      </trkpt>
      <trkpt lat="47.9619" lon="-3.84037">
        <ele>123.91054391976</ele>
        <time>2021-03-15T17:54:17.572Z</time>
      </trkpt>
      <trkpt lat="47.96185" lon="-3.84037">
        <ele>124.40492318381</ele>
        <time>2021-03-15T17:54:22.476Z</time>
      </trkpt>
      <trkpt lat="47.96166" lon="-3.84028">
        <ele>124.90456506571</ele>
        <time>2021-03-15T17:54:27.383Z</time>
      </trkpt>
      <trkpt lat="47.96112" lon="-3.83996">
        <ele>125.39496184125</ele>
        <time>2021-03-15T17:54:32.300Z</time>
      </trkpt>
      <trkpt lat="47.96057" lon="-3.83965">
        <ele>125.92068877733</ele>
        <time>2021-03-15T17:54:37.226Z</time>
      </trkpt>
      <trkpt lat="47.96037" lon="-3.83943">
        <ele>126.37798294521</ele>
        <time>2021-03-15T17:54:42.156Z</time>
      </trkpt>
      <trkpt lat="47.96016" lon="-3.83911">
        <ele>126.74943217717</ele>
        <time>2021-03-15T17:54:47.091Z</time>
      </trkpt>
      <trkpt lat="47.96009" lon="-3.8389">
        <ele>126.96989646512</ele>
        <time>2021-03-15T17:54:52.028Z</time>
      </trkpt>
      <trkpt lat="47.96003" lon="-3.83861">
        <ele>127.07997823202</ele>
        <time>2021-03-15T17:54:56.968Z</time>
      </trkpt>
      <trkpt lat="47.95999" lon="-3.83771">
        <ele>126.98473661707</ele>
        <time>2021-03-15T17:55:01.918Z</time>
      </trkpt>
      <trkpt lat="47.95999" lon="-3.8377">
        <ele>126.86190882601</ele>
        <time>2021-03-15T17:55:06.868Z</time>
      </trkpt>
      <trkpt lat="47.95996" lon="-3.8368">
        <ele>126.52925111429</ele>
        <time>2021-03-15T17:55:11.828Z</time>
      </trkpt>
      <trkpt lat="47.95992" lon="-3.83591">
        <ele>126.14249618766</ele>
        <time>2021-03-15T17:55:16.798Z</time>
      </trkpt>
      <trkpt lat="47.95985" lon="-3.83532">
        <ele>125.77615340836</ele>
        <time>2021-03-15T17:55:21.774Z</time>
      </trkpt>
      <trkpt lat="47.95968" lon="-3.83407">
        <ele>125.28118910263</ele>
        <time>2021-03-15T17:55:26.764Z</time>
      </trkpt>
      <trkpt lat="47.9595" lon="-3.83282">
        <ele>124.74269381205</ele>
        <time>2021-03-15T17:55:31.767Z</time>
      </trkpt>
      <trkpt lat="47.95941" lon="-3.83199">
        <ele>124.08218660424</ele>
        <time>2021-03-15T17:55:36.779Z</time>
      </trkpt>
      <trkpt lat="47.95932" lon="-3.83117">
        <ele>123.41067814532</ele>
        <time>2021-03-15T17:55:41.800Z</time>
      </trkpt>
      <trkpt lat="47.95925" lon="-3.83027">
        <ele>122.76518986362</ele>
        <time>2021-03-15T17:55:46.831Z</time>
      </trkpt>
      <trkpt lat="47.95925" lon="-3.8298">
        <ele>122.1490214322</ele>
        <time>2021-03-15T17:55:51.867Z</time>
      </trkpt>
      <trkpt lat="47.95932" lon="-3.82917">
        <ele>121.50998385868</ele>
        <time>2021-03-15T17:55:56.910Z</time>
      </trkpt>
      <trkpt lat="47.95925" lon="-3.82883">
        <ele>120.87492157915</ele>
        <time>2021-03-15T17:56:01.957Z</time>
      </trkpt>
      <trkpt lat="47.95916" lon="-3.82872">
        <ele>120.29347540721</ele>
        <time>2021-03-15T17:56:07.006Z</time>
      </trkpt>
      <trkpt lat="47.95886" lon="-3.82836">
        <ele>119.76958365884</ele>
        <time>2021-03-15T17:56:12.061Z</time>
      </trkpt>
      <trkpt lat="47.95859" lon="-3.82791">
        <ele>119.30437023602</ele>
        <time>2021-03-15T17:56:17.122Z</time>
      </trkpt>
      <trkpt lat="47.95822" lon="-3.8271">
        <ele>118.73544947679</ele>
        <time>2021-03-15T17:56:22.194Z</time>
      </trkpt>
      <trkpt lat="47.95792" lon="-3.82656">
        <ele>118.2940392385</ele>
        <time>2021-03-15T17:56:27.274Z</time>
      </trkpt>
      <trkpt lat="47.95766" lon="-3.82619">
        <ele>117.91023002892</ele>
        <time>2021-03-15T17:56:32.359Z</time>
      </trkpt>
      <trkpt lat="47.9576" lon="-3.82606">
        <ele>117.63618071781</ele>
        <time>2021-03-15T17:56:37.446Z</time>
      </trkpt>
      <trkpt lat="47.95756" lon="-3.82589">
        <ele>117.43958980807</ele>
        <time>2021-03-15T17:56:42.535Z</time>
      </trkpt>
      <trkpt lat="47.95755" lon="-3.82574">
        <ele>117.30515014265</ele>
        <time>2021-03-15T17:56:47.626Z</time>
      </trkpt>
      <trkpt lat="47.95762" lon="-3.82507">
        <ele>117.28184090164</ele>
        <time>2021-03-15T17:56:52.724Z</time>
      </trkpt>
      <trkpt lat="47.95762" lon="-3.82506">
        <ele>117.29476213967</ele>
        <time>2021-03-15T17:56:57.822Z</time>
      </trkpt>
      <trkpt lat="47.95766" lon="-3.82472">
        <ele>117.46483627979</ele>
        <time>2021-03-15T17:57:02.924Z</time>
      </trkpt>
      <trkpt lat="47.95783" lon="-3.82392">
        <ele>117.72578136939</ele>
        <time>2021-03-15T17:57:08.035Z</time>
      </trkpt>
      <trkpt lat="47.9581" lon="-3.82308">
        <ele>117.81088653386</ele>
        <time>2021-03-15T17:57:13.156Z</time>
      </trkpt>
      <trkpt lat="47.95849" lon="-3.82207">
        <ele>117.88747115629</ele>
        <time>2021-03-15T17:57:18.289Z</time>
      </trkpt>
      <trkpt lat="47.95854" lon="-3.82181">
        <ele>117.95848829026</ele>
        <time>2021-03-15T17:57:23.425Z</time>
      </trkpt>
      <trkpt lat="47.95853" lon="-3.82148">
        <ele>118.02895230576</ele>
        <time>2021-03-15T17:57:28.565Z</time>
      </trkpt>
      <trkpt lat="47.95829" lon="-3.82061">
        <ele>117.96171632353</ele>
        <time>2021-03-15T17:57:33.715Z</time>
      </trkpt>
      <trkpt lat="47.9583" lon="-3.82038">
        <ele>118.02580496579</ele>
        <time>2021-03-15T17:57:38.867Z</time>
      </trkpt>
      <trkpt lat="47.95834" lon="-3.82021">
        <ele>118.0797402667</ele>
        <time>2021-03-15T17:57:44.021Z</time>
      </trkpt>
      <trkpt lat="47.9584" lon="-3.82016">
        <ele>118.12265790547</ele>
        <time>2021-03-15T17:57:49.176Z</time>
      </trkpt>
      <trkpt lat="47.95844" lon="-3.82004">
        <ele>118.15323075196</ele>
        <time>2021-03-15T17:57:54.333Z</time>
      </trkpt>
      <trkpt lat="47.95845" lon="-3.81993">
        <ele>118.16967063154</ele>
        <time>2021-03-15T17:57:59.491Z</time>
      </trkpt>
      <trkpt lat="47.95843" lon="-3.81984">
        <ele>118.16974869057</ele>
        <time>2021-03-15T17:58:04.650Z</time>
      </trkpt>
      <trkpt lat="47.95833" lon="-3.81969">
        <ele>118.15083508091</ele>
        <time>2021-03-15T17:58:09.811Z</time>
      </trkpt>
      <trkpt lat="47.95826" lon="-3.81969">
        <ele>118.10398891976</ele>
        <time>2021-03-15T17:58:14.973Z</time>
      </trkpt>
      <trkpt lat="47.95819" lon="-3.8197">
        <ele>118.02984834779</ele>
        <time>2021-03-15T17:58:20.136Z</time>
      </trkpt>
      <trkpt lat="47.95813" lon="-3.81976">
        <ele>117.94268592828</ele>
        <time>2021-03-15T17:58:25.301Z</time>
      </trkpt>
      <trkpt lat="47.95809" lon="-3.81983">
        <ele>117.82568774365</ele>
        <time>2021-03-15T17:58:30.467Z</time>
      </trkpt>
      <trkpt lat="47.95802" lon="-3.81991">
        <ele>117.67389793534</ele>
        <time>2021-03-15T17:58:35.634Z</time>
      </trkpt>
      <trkpt lat="47.95795" lon="-3.81992">
        <ele>117.47268772689</ele>
        <time>2021-03-15T17:58:40.802Z</time>
      </trkpt>
      <trkpt lat="47.95783" lon="-3.8199">
        <ele>117.23478631512</ele>
        <time>2021-03-15T17:58:45.972Z</time>
      </trkpt>
      <trkpt lat="47.95761" lon="-3.81963">
        <ele>116.95090523078</ele>
        <time>2021-03-15T17:58:51.147Z</time>
      </trkpt>
      <trkpt lat="47.95745" lon="-3.81938">
        <ele>116.5823285384</ele>
        <time>2021-03-15T17:58:56.325Z</time>
      </trkpt>
      <trkpt lat="47.95735" lon="-3.81922">
        <ele>116.16319535577</ele>
        <time>2021-03-15T17:59:01.506Z</time>
      </trkpt>
      <trkpt lat="47.95703" lon="-3.81861">
        <ele>115.72961183436</ele>
        <time>2021-03-15T17:59:06.695Z</time>
      </trkpt>
      <trkpt lat="47.9567" lon="-3.81801">
        <ele>115.23121472039</ele>
        <time>2021-03-15T17:59:11.892Z</time>
      </trkpt>
      <trkpt lat="47.95617" lon="-3.81697">
        <ele>114.7007864644</ele>
        <time>2021-03-15T17:59:17.103Z</time>
      </trkpt>
      <trkpt lat="47.95609" lon="-3.81677">
        <ele>114.16948529556</ele>
        <time>2021-03-15T17:59:22.317Z</time>
      </trkpt>
      <trkpt lat="47.95597" lon="-3.81627">
        <ele>113.68854617408</ele>
        <time>2021-03-15T17:59:27.537Z</time>
      </trkpt>
      <trkpt lat="47.95583" lon="-3.81561">
        <ele>113.04737033686</ele>
        <time>2021-03-15T17:59:32.764Z</time>
      </trkpt>
      <trkpt lat="47.95569" lon="-3.81496">
        <ele>112.40208257658</ele>
        <time>2021-03-15T17:59:37.998Z</time>
      </trkpt>
      <trkpt lat="47.95534" lon="-3.81381">
        <ele>111.79044778298</ele>
        <time>2021-03-15T17:59:43.246Z</time>
      </trkpt>
      <trkpt lat="47.9552" lon="-3.81326">
        <ele>111.27276728779</ele>
        <time>2021-03-15T17:59:48.500Z</time>
      </trkpt>
      <trkpt lat="47.95515" lon="-3.81291">
        <ele>110.77887827723</ele>
        <time>2021-03-15T17:59:53.758Z</time>
      </trkpt>
      <trkpt lat="47.95506" lon="-3.81196">
        <ele>110.15594864515</ele>
        <time>2021-03-15T17:59:59.027Z</time>
      </trkpt>
      <trkpt lat="47.95497" lon="-3.81137">
        <ele>109.53960488519</ele>
        <time>2021-03-15T18:00:04.302Z</time>
      </trkpt>
      <trkpt lat="47.95477" lon="-3.81063">
        <ele>108.95327751995</ele>
        <time>2021-03-15T18:00:09.586Z</time>
      </trkpt>
      <trkpt lat="47.95456" lon="-3.8099">
        <ele>108.35939482315</ele>
        <time>2021-03-15T18:00:14.878Z</time>
      </trkpt>
      <trkpt lat="47.95427" lon="-3.809">
        <ele>107.7695338339</ele>
        <time>2021-03-15T18:00:20.181Z</time>
      </trkpt>
      <trkpt lat="47.95402" lon="-3.80808">
        <ele>107.26296000336</ele>
        <time>2021-03-15T18:00:25.495Z</time>
      </trkpt>
      <trkpt lat="47.95377" lon="-3.80716">
        <ele>106.86615746043</ele>
        <time>2021-03-15T18:00:30.819Z</time>
      </trkpt>
      <trkpt lat="47.95373" lon="-3.80683">
        <ele>106.63619347113</ele>
        <time>2021-03-15T18:00:36.147Z</time>
      </trkpt>
      <trkpt lat="47.95374" lon="-3.80628">
        <ele>106.49106052253</ele>
        <time>2021-03-15T18:00:41.481Z</time>
      </trkpt>
      <trkpt lat="47.9538" lon="-3.80557">
        <ele>106.40136112278</ele>
        <time>2021-03-15T18:00:46.822Z</time>
      </trkpt>
      <trkpt lat="47.95385" lon="-3.80486">
        <ele>106.33065149348</ele>
        <time>2021-03-15T18:00:52.171Z</time>
      </trkpt>
      <trkpt lat="47.9539" lon="-3.80393">
        <ele>106.32764813713</ele>
        <time>2021-03-15T18:00:57.530Z</time>
      </trkpt>
      <trkpt lat="47.9539" lon="-3.80358">
        <ele>106.19449178932</ele>
        <time>2021-03-15T18:01:02.893Z</time>
      </trkpt>
      <trkpt lat="47.95383" lon="-3.80241">
        <ele>106.01017778726</ele>
        <time>2021-03-15T18:01:08.269Z</time>
      </trkpt>
      <trkpt lat="47.95375" lon="-3.80125">
        <ele>105.87664570829</ele>
        <time>2021-03-15T18:01:13.657Z</time>
      </trkpt>
      <trkpt lat="47.95375" lon="-3.80087">
        <ele>105.61746074703</ele>
        <time>2021-03-15T18:01:19.049Z</time>
      </trkpt>
      <trkpt lat="47.95382" lon="-3.80005">
        <ele>105.42059268646</ele>
        <time>2021-03-15T18:01:24.450Z</time>
      </trkpt>
      <trkpt lat="47.95389" lon="-3.79923">
        <ele>105.21885359829</ele>
        <time>2021-03-15T18:01:29.860Z</time>
      </trkpt>
      <trkpt lat="47.95391" lon="-3.79871">
        <ele>104.92136453885</ele>
        <time>2021-03-15T18:01:35.276Z</time>
      </trkpt>
      <trkpt lat="47.95382" lon="-3.79788">
        <ele>104.68604246386</ele>
        <time>2021-03-15T18:01:40.701Z</time>
      </trkpt>
      <trkpt lat="47.95369" lon="-3.79684">
        <ele>104.36167098449</ele>
        <time>2021-03-15T18:01:46.137Z</time>
      </trkpt>
      <trkpt lat="47.95347" lon="-3.79567">
        <ele>104.10123853439</ele>
        <time>2021-03-15T18:01:51.586Z</time>
      </trkpt>
      <trkpt lat="47.9533" lon="-3.79494">
        <ele>103.82849221987</ele>
        <time>2021-03-15T18:01:57.043Z</time>
      </trkpt>
      <trkpt lat="47.95309" lon="-3.79391">
        <ele>103.4683956428</ele>
        <time>2021-03-15T18:02:02.512Z</time>
      </trkpt>
      <trkpt lat="47.95288" lon="-3.79289">
        <ele>103.03067644126</ele>
        <time>2021-03-15T18:02:07.992Z</time>
      </trkpt>
      <trkpt lat="47.95267" lon="-3.79186">
        <ele>102.68027924392</ele>
        <time>2021-03-15T18:02:13.484Z</time>
      </trkpt>
      <trkpt lat="47.95242" lon="-3.79063">
        <ele>102.36781356845</ele>
        <time>2021-03-15T18:02:18.990Z</time>
      </trkpt>
      <trkpt lat="47.95216" lon="-3.7894">
        <ele>102.24045818451</ele>
        <time>2021-03-15T18:02:24.510Z</time>
      </trkpt>
      <trkpt lat="47.95191" lon="-3.78817">
        <ele>102.16616416603</ele>
        <time>2021-03-15T18:02:30.044Z</time>
      </trkpt>
      <trkpt lat="47.95165" lon="-3.78694">
        <ele>102.1950172126</ele>
        <time>2021-03-15T18:02:35.591Z</time>
      </trkpt>
      <trkpt lat="47.95144" lon="-3.78589">
        <ele>102.56391102173</ele>
        <time>2021-03-15T18:02:41.150Z</time>
      </trkpt>
      <trkpt lat="47.95124" lon="-3.78485">
        <ele>102.93816455405</ele>
        <time>2021-03-15T18:02:46.721Z</time>
      </trkpt>
      <trkpt lat="47.95103" lon="-3.7838">
        <ele>103.47699485604</ele>
        <time>2021-03-15T18:02:52.304Z</time>
      </trkpt>
      <trkpt lat="47.95081" lon="-3.78277">
        <ele>104.12993479328</ele>
        <time>2021-03-15T18:02:57.898Z</time>
      </trkpt>
      <trkpt lat="47.95059" lon="-3.78174">
        <ele>105.04764573356</ele>
        <time>2021-03-15T18:03:03.504Z</time>
      </trkpt>
      <trkpt lat="47.95046" lon="-3.78106">
        <ele>106.18036333634</ele>
        <time>2021-03-15T18:03:09.117Z</time>
      </trkpt>
      <trkpt lat="47.95032" lon="-3.78039">
        <ele>107.55869246773</ele>
        <time>2021-03-15T18:03:14.738Z</time>
      </trkpt>
      <trkpt lat="47.95014" lon="-3.77962">
        <ele>109.11871239387</ele>
        <time>2021-03-15T18:03:20.368Z</time>
      </trkpt>
      <trkpt lat="47.95001" lon="-3.77923">
        <ele>110.78182417202</ele>
        <time>2021-03-15T18:03:26.002Z</time>
      </trkpt>
      <trkpt lat="47.94979" lon="-3.77872">
        <ele>112.56420821201</ele>
        <time>2021-03-15T18:03:31.643Z</time>
      </trkpt>
      <trkpt lat="47.94957" lon="-3.77829">
        <ele>114.44592981402</ele>
        <time>2021-03-15T18:03:37.290Z</time>
      </trkpt>
      <trkpt lat="47.94922" lon="-3.77769">
        <ele>116.37181341042</ele>
        <time>2021-03-15T18:03:42.945Z</time>
      </trkpt>
      <trkpt lat="47.9487" lon="-3.77672">
        <ele>118.38717814397</ele>
        <time>2021-03-15T18:03:48.614Z</time>
      </trkpt>
      <trkpt lat="47.94819" lon="-3.77575">
        <ele>120.53998091763</ele>
        <time>2021-03-15T18:03:54.296Z</time>
      </trkpt>
      <trkpt lat="47.94767" lon="-3.77478">
        <ele>122.50818892369</ele>
        <time>2021-03-15T18:03:59.991Z</time>
      </trkpt>
      <trkpt lat="47.94715" lon="-3.77376">
        <ele>124.60095244323</ele>
        <time>2021-03-15T18:04:05.700Z</time>
      </trkpt>
      <trkpt lat="47.94676" lon="-3.77307">
        <ele>126.47960848631</ele>
        <time>2021-03-15T18:04:11.419Z</time>
      </trkpt>
      <trkpt lat="47.94657" lon="-3.77281">
        <ele>128.13976451718</ele>
        <time>2021-03-15T18:04:17.142Z</time>
      </trkpt>
      <trkpt lat="47.94607" lon="-3.77227">
        <ele>129.66021258654</ele>
        <time>2021-03-15T18:04:22.875Z</time>
      </trkpt>
      <trkpt lat="47.94556" lon="-3.77173">
        <ele>130.89711649813</ele>
        <time>2021-03-15T18:04:28.618Z</time>
      </trkpt>
      <trkpt lat="47.94521" lon="-3.77139">
        <ele>131.8027845424</ele>
        <time>2021-03-15T18:04:34.367Z</time>
      </trkpt>
      <trkpt lat="47.94501" lon="-3.77114">
        <ele>132.41982342657</ele>
        <time>2021-03-15T18:04:40.121Z</time>
      </trkpt>
      <trkpt lat="47.94444" lon="-3.77057">
        <ele>132.68392011718</ele>
        <time>2021-03-15T18:04:45.886Z</time>
      </trkpt>
      <trkpt lat="47.94413" lon="-3.77018">
        <ele>132.6759167008</ele>
        <time>2021-03-15T18:04:51.657Z</time>
      </trkpt>
      <trkpt lat="47.94396" lon="-3.76988">
        <ele>132.34339596763</ele>
        <time>2021-03-15T18:04:57.432Z</time>
      </trkpt>
      <trkpt lat="47.94365" lon="-3.76914">
        <ele>131.68091447066</ele>
        <time>2021-03-15T18:05:03.217Z</time>
      </trkpt>
      <trkpt lat="47.94343" lon="-3.76829">
        <ele>130.69778479028</ele>
        <time>2021-03-15T18:05:09.012Z</time>
      </trkpt>
      <trkpt lat="47.94324" lon="-3.76733">
        <ele>129.53146063068</ele>
        <time>2021-03-15T18:05:14.817Z</time>
      </trkpt>
      <trkpt lat="47.94304" lon="-3.76637">
        <ele>128.19170406864</ele>
        <time>2021-03-15T18:05:20.633Z</time>
      </trkpt>
      <trkpt lat="47.94296" lon="-3.76581">
        <ele>126.52168243767</ele>
        <time>2021-03-15T18:05:26.455Z</time>
      </trkpt>
      <trkpt lat="47.94291" lon="-3.76473">
        <ele>124.6426047392</ele>
        <time>2021-03-15T18:05:32.289Z</time>
      </trkpt>
      <trkpt lat="47.94272" lon="-3.76343">
        <ele>122.60385284178</ele>
        <time>2021-03-15T18:05:38.137Z</time>
      </trkpt>
      <trkpt lat="47.94252" lon="-3.76212">
        <ele>120.36261689416</ele>
        <time>2021-03-15T18:05:44.000Z</time>
      </trkpt>
      <trkpt lat="47.94233" lon="-3.76082">
        <ele>118.20610522143</ele>
        <time>2021-03-15T18:05:49.877Z</time>
      </trkpt>
      <trkpt lat="47.94216" lon="-3.75972">
        <ele>116.1286278284</ele>
        <time>2021-03-15T18:05:55.766Z</time>
      </trkpt>
      <trkpt lat="47.94198" lon="-3.75863">
        <ele>114.06335323681</ele>
        <time>2021-03-15T18:06:01.667Z</time>
      </trkpt>
      <trkpt lat="47.94187" lon="-3.75822">
        <ele>112.11211876254</ele>
        <time>2021-03-15T18:06:07.573Z</time>
      </trkpt>
      <trkpt lat="47.94143" lon="-3.75713">
        <ele>110.30780924684</ele>
        <time>2021-03-15T18:06:13.493Z</time>
      </trkpt>
      <trkpt lat="47.94098" lon="-3.75605">
        <ele>108.53975146239</ele>
        <time>2021-03-15T18:06:19.426Z</time>
      </trkpt>
      <trkpt lat="47.94083" lon="-3.75558">
        <ele>106.79528706041</ele>
        <time>2021-03-15T18:06:25.365Z</time>
      </trkpt>
      <trkpt lat="47.94069" lon="-3.75504">
        <ele>105.1315116521</ele>
        <time>2021-03-15T18:06:31.310Z</time>
      </trkpt>
      <trkpt lat="47.9404" lon="-3.75389">
        <ele>103.59174230401</ele>
        <time>2021-03-15T18:06:37.268Z</time>
      </trkpt>
      <trkpt lat="47.94012" lon="-3.75274">
        <ele>102.13192500892</ele>
        <time>2021-03-15T18:06:43.240Z</time>
      </trkpt>
      <trkpt lat="47.93983" lon="-3.75158">
        <ele>100.63043828618</ele>
        <time>2021-03-15T18:06:49.225Z</time>
      </trkpt>
      <trkpt lat="47.93954" lon="-3.75043">
        <ele>99.32419775585</ele>
        <time>2021-03-15T18:06:55.223Z</time>
      </trkpt>
      <trkpt lat="47.93926" lon="-3.74928">
        <ele>98.17986603317</ele>
        <time>2021-03-15T18:07:01.234Z</time>
      </trkpt>
      <trkpt lat="47.93897" lon="-3.74813">
        <ele>96.83388349174</ele>
        <time>2021-03-15T18:07:07.258Z</time>
      </trkpt>
      <trkpt lat="47.93868" lon="-3.74697">
        <ele>95.46624316967</ele>
        <time>2021-03-15T18:07:13.296Z</time>
      </trkpt>
      <trkpt lat="47.9384" lon="-3.74582">
        <ele>94.27701780029</ele>
        <time>2021-03-15T18:07:19.347Z</time>
      </trkpt>
      <trkpt lat="47.93811" lon="-3.74467">
        <ele>93.05722737223</ele>
        <time>2021-03-15T18:07:25.411Z</time>
      </trkpt>
      <trkpt lat="47.93785" lon="-3.74383">
        <ele>91.82698445445</ele>
        <time>2021-03-15T18:07:31.485Z</time>
      </trkpt>
      <trkpt lat="47.9376" lon="-3.74325">
        <ele>90.84846297332</ele>
        <time>2021-03-15T18:07:37.566Z</time>
      </trkpt>
      <trkpt lat="47.93735" lon="-3.74268">
        <ele>89.91011859558</ele>
        <time>2021-03-15T18:07:43.655Z</time>
      </trkpt>
      <trkpt lat="47.93709" lon="-3.74197">
        <ele>89.1761998177</ele>
        <time>2021-03-15T18:07:49.753Z</time>
      </trkpt>
      <trkpt lat="47.93697" lon="-3.74127">
        <ele>88.4826065454</ele>
        <time>2021-03-15T18:07:55.858Z</time>
      </trkpt>
      <trkpt lat="47.93691" lon="-3.74064">
        <ele>87.90317772085</ele>
        <time>2021-03-15T18:08:01.970Z</time>
      </trkpt>
      <trkpt lat="47.9369" lon="-3.74018">
        <ele>87.29647198896</ele>
        <time>2021-03-15T18:08:08.087Z</time>
      </trkpt>
      <trkpt lat="47.93694" lon="-3.73958">
        <ele>86.72561717545</ele>
        <time>2021-03-15T18:08:14.211Z</time>
      </trkpt>
      <trkpt lat="47.93698" lon="-3.73928">
        <ele>86.14391175184</ele>
        <time>2021-03-15T18:08:20.338Z</time>
      </trkpt>
      <trkpt lat="47.93706" lon="-3.73858">
        <ele>85.65370177739</ele>
        <time>2021-03-15T18:08:26.472Z</time>
      </trkpt>
      <trkpt lat="47.93713" lon="-3.73788">
        <ele>85.19170848722</ele>
        <time>2021-03-15T18:08:32.614Z</time>
      </trkpt>
      <trkpt lat="47.93722" lon="-3.73687">
        <ele>84.53506239717</ele>
        <time>2021-03-15T18:08:38.767Z</time>
      </trkpt>
      <trkpt lat="47.9373" lon="-3.73585">
        <ele>83.7525717017</ele>
        <time>2021-03-15T18:08:44.931Z</time>
      </trkpt>
      <trkpt lat="47.93731" lon="-3.73545">
        <ele>82.85771327854</ele>
        <time>2021-03-15T18:08:51.099Z</time>
      </trkpt>
      <trkpt lat="47.93729" lon="-3.73506">
        <ele>81.84605317903</ele>
        <time>2021-03-15T18:08:57.272Z</time>
      </trkpt>
      <trkpt lat="47.93722" lon="-3.7345">
        <ele>80.78671990244</ele>
        <time>2021-03-15T18:09:03.451Z</time>
      </trkpt>
      <trkpt lat="47.93711" lon="-3.73388">
        <ele>79.72043229926</ele>
        <time>2021-03-15T18:09:09.637Z</time>
      </trkpt>
      <trkpt lat="47.93687" lon="-3.73304">
        <ele>78.7099944331</ele>
        <time>2021-03-15T18:09:15.832Z</time>
      </trkpt>
      <trkpt lat="47.93656" lon="-3.73221">
        <ele>77.568881917</ele>
        <time>2021-03-15T18:09:22.038Z</time>
      </trkpt>
      <trkpt lat="47.93626" lon="-3.73126">
        <ele>76.74936583805</ele>
        <time>2021-03-15T18:09:28.255Z</time>
      </trkpt>
      <trkpt lat="47.93605" lon="-3.73034">
        <ele>75.99693408592</ele>
        <time>2021-03-15T18:09:34.482Z</time>
      </trkpt>
      <trkpt lat="47.93585" lon="-3.72941">
        <ele>75.66034138316</ele>
        <time>2021-03-15T18:09:40.720Z</time>
      </trkpt>
      <trkpt lat="47.93564" lon="-3.72849">
        <ele>75.20549356517</ele>
        <time>2021-03-15T18:09:46.968Z</time>
      </trkpt>
      <trkpt lat="47.93554" lon="-3.72772">
        <ele>75.43791658601</ele>
        <time>2021-03-15T18:09:53.225Z</time>
      </trkpt>
      <trkpt lat="47.93554" lon="-3.72739">
        <ele>75.92068563227</ele>
        <time>2021-03-15T18:09:59.485Z</time>
      </trkpt>
      <trkpt lat="47.93566" lon="-3.72655">
        <ele>76.65013780214</ele>
        <time>2021-03-15T18:10:05.755Z</time>
      </trkpt>
      <trkpt lat="47.9358" lon="-3.72602">
        <ele>77.40055156684</ele>
        <time>2021-03-15T18:10:12.031Z</time>
      </trkpt>
      <trkpt lat="47.93595" lon="-3.72555">
        <ele>78.21570550103</ele>
        <time>2021-03-15T18:10:18.312Z</time>
      </trkpt>
      <trkpt lat="47.93631" lon="-3.72472">
        <ele>79.23418677243</ele>
        <time>2021-03-15T18:10:24.604Z</time>
      </trkpt>
      <trkpt lat="47.93668" lon="-3.7239">
        <ele>80.63482851805</ele>
        <time>2021-03-15T18:10:30.907Z</time>
      </trkpt>
      <trkpt lat="47.93704" lon="-3.72307">
        <ele>82.00782282751</ele>
        <time>2021-03-15T18:10:37.220Z</time>
      </trkpt>
      <trkpt lat="47.93719" lon="-3.72269">
        <ele>83.38809102871</ele>
        <time>2021-03-15T18:10:43.538Z</time>
      </trkpt>
      <trkpt lat="47.93729" lon="-3.72209">
        <ele>84.82513486385</ele>
        <time>2021-03-15T18:10:49.863Z</time>
      </trkpt>
      <trkpt lat="47.93731" lon="-3.72148">
        <ele>86.06621915153</ele>
        <time>2021-03-15T18:10:56.194Z</time>
      </trkpt>
      <trkpt lat="47.93727" lon="-3.72107">
        <ele>87.14441124098</ele>
        <time>2021-03-15T18:11:02.530Z</time>
      </trkpt>
      <trkpt lat="47.93708" lon="-3.72039">
        <ele>88.14143281431</ele>
        <time>2021-03-15T18:11:08.874Z</time>
      </trkpt>
      <trkpt lat="47.93682" lon="-3.71984">
        <ele>89.06656177242</ele>
        <time>2021-03-15T18:11:15.225Z</time>
      </trkpt>
      <trkpt lat="47.93671" lon="-3.71969">
        <ele>89.71329828221</ele>
        <time>2021-03-15T18:11:21.578Z</time>
      </trkpt>
      <trkpt lat="47.93627" lon="-3.71906">
        <ele>90.11320281987</ele>
        <time>2021-03-15T18:11:27.941Z</time>
      </trkpt>
      <trkpt lat="47.93583" lon="-3.71844">
        <ele>90.30153824473</ele>
        <time>2021-03-15T18:11:34.314Z</time>
      </trkpt>
      <trkpt lat="47.93539" lon="-3.71781">
        <ele>90.3305459532</ele>
        <time>2021-03-15T18:11:40.696Z</time>
      </trkpt>
      <trkpt lat="47.93475" lon="-3.71697">
        <ele>90.14648491035</ele>
        <time>2021-03-15T18:11:47.092Z</time>
      </trkpt>
      <trkpt lat="47.93412" lon="-3.71614">
        <ele>89.75205070184</ele>
        <time>2021-03-15T18:11:53.502Z</time>
      </trkpt>
      <trkpt lat="47.93348" lon="-3.7153">
        <ele>89.2181972475</ele>
        <time>2021-03-15T18:11:59.925Z</time>
      </trkpt>
      <trkpt lat="47.93322" lon="-3.7149">
        <ele>88.61527178332</ele>
        <time>2021-03-15T18:12:06.354Z</time>
      </trkpt>
      <trkpt lat="47.93312" lon="-3.71468">
        <ele>87.91272113163</ele>
        <time>2021-03-15T18:12:12.786Z</time>
      </trkpt>
      <trkpt lat="47.93297" lon="-3.71418">
        <ele>87.12142525324</ele>
        <time>2021-03-15T18:12:19.224Z</time>
      </trkpt>
      <trkpt lat="47.93284" lon="-3.71348">
        <ele>86.31316401055</ele>
        <time>2021-03-15T18:12:25.670Z</time>
      </trkpt>
      <trkpt lat="47.93272" lon="-3.71217">
        <ele>85.56800552984</ele>
        <time>2021-03-15T18:12:32.130Z</time>
      </trkpt>
      <trkpt lat="47.9326" lon="-3.71086">
        <ele>84.61193885638</ele>
        <time>2021-03-15T18:12:38.604Z</time>
      </trkpt>
      <trkpt lat="47.93248" lon="-3.70955">
        <ele>83.69813926503</ele>
        <time>2021-03-15T18:12:45.092Z</time>
      </trkpt>
      <trkpt lat="47.93247" lon="-3.70889">
        <ele>82.78066936957</ele>
        <time>2021-03-15T18:12:51.588Z</time>
      </trkpt>
      <trkpt lat="47.93249" lon="-3.70859">
        <ele>81.99514747642</ele>
        <time>2021-03-15T18:12:58.087Z</time>
      </trkpt>
      <trkpt lat="47.93257" lon="-3.7086">
        <ele>81.28547604405</ele>
        <time>2021-03-15T18:13:04.587Z</time>
      </trkpt>
      <trkpt lat="47.93263" lon="-3.70854">
        <ele>80.66972095406</ele>
        <time>2021-03-15T18:13:11.088Z</time>
      </trkpt>
      <trkpt lat="47.93268" lon="-3.70846">
        <ele>80.16052623731</ele>
        <time>2021-03-15T18:13:17.590Z</time>
      </trkpt>
      <trkpt lat="47.9327" lon="-3.70838">
        <ele>79.77176447847</ele>
        <time>2021-03-15T18:13:24.093Z</time>
      </trkpt>
      <trkpt lat="47.93271" lon="-3.70828">
        <ele>79.50601702322</ele>
        <time>2021-03-15T18:13:30.597Z</time>
      </trkpt>
      <trkpt lat="47.93268" lon="-3.70819">
        <ele>79.36220122457</ele>
        <time>2021-03-15T18:13:37.103Z</time>
      </trkpt>
      <trkpt lat="47.93263" lon="-3.70812">
        <ele>79.35367487102</ele>
        <time>2021-03-15T18:13:43.610Z</time>
      </trkpt>
      <trkpt lat="47.93256" lon="-3.70805">
        <ele>79.48597748514</ele>
        <time>2021-03-15T18:13:50.118Z</time>
      </trkpt>
      <trkpt lat="47.93245" lon="-3.70807">
        <ele>79.74768012164</ele>
        <time>2021-03-15T18:13:56.628Z</time>
      </trkpt>
      <trkpt lat="47.93238" lon="-3.70816">
        <ele>80.13722505826</ele>
        <time>2021-03-15T18:14:03.139Z</time>
      </trkpt>
      <trkpt lat="47.93219" lon="-3.7082">
        <ele>80.6251797275</ele>
        <time>2021-03-15T18:14:09.653Z</time>
      </trkpt>
      <trkpt lat="47.93185" lon="-3.70804">
        <ele>81.18802677413</ele>
        <time>2021-03-15T18:14:16.173Z</time>
      </trkpt>
      <trkpt lat="47.93165" lon="-3.70785">
        <ele>81.85302536971</ele>
        <time>2021-03-15T18:14:22.697Z</time>
      </trkpt>
      <trkpt lat="47.9312" lon="-3.70738">
        <ele>82.67442543931</ele>
        <time>2021-03-15T18:14:29.230Z</time>
      </trkpt>
      <trkpt lat="47.93054" lon="-3.70657">
        <ele>83.76013052339</ele>
        <time>2021-03-15T18:14:35.776Z</time>
      </trkpt>
      <trkpt lat="47.93019" lon="-3.70623">
        <ele>84.64588065173</ele>
        <time>2021-03-15T18:14:42.329Z</time>
      </trkpt>
      <trkpt lat="47.93002" lon="-3.70612">
        <ele>85.4096122263</ele>
        <time>2021-03-15T18:14:48.885Z</time>
      </trkpt>
      <trkpt lat="47.9298" lon="-3.70602">
        <ele>86.08608626595</ele>
        <time>2021-03-15T18:14:55.445Z</time>
      </trkpt>
      <trkpt lat="47.9296" lon="-3.70596">
        <ele>86.70363049001</ele>
        <time>2021-03-15T18:15:02.008Z</time>
      </trkpt>
      <trkpt lat="47.92907" lon="-3.70585">
        <ele>87.20571146838</ele>
        <time>2021-03-15T18:15:08.579Z</time>
      </trkpt>
      <trkpt lat="47.92855" lon="-3.70575">
        <ele>87.66502413195</ele>
        <time>2021-03-15T18:15:15.159Z</time>
      </trkpt>
      <trkpt lat="47.9282" lon="-3.70562">
        <ele>88.12478381902</ele>
        <time>2021-03-15T18:15:21.745Z</time>
      </trkpt>
      <trkpt lat="47.92763" lon="-3.70522">
        <ele>88.44074411806</ele>
        <time>2021-03-15T18:15:28.341Z</time>
      </trkpt>
      <trkpt lat="47.92765" lon="-3.70514">
        <ele>88.7104055007</ele>
        <time>2021-03-15T18:15:34.938Z</time>
      </trkpt>
      <trkpt lat="47.92762" lon="-3.70504">
        <ele>88.89797570925</ele>
        <time>2021-03-15T18:15:41.536Z</time>
      </trkpt>
      <trkpt lat="47.92752" lon="-3.70501">
        <ele>89.00666433914</ele>
        <time>2021-03-15T18:15:48.136Z</time>
      </trkpt>
      <trkpt lat="47.92748" lon="-3.70502">
        <ele>89.06451008296</ele>
        <time>2021-03-15T18:15:54.736Z</time>
      </trkpt>
      <trkpt lat="47.92745" lon="-3.70507">
        <ele>89.0763597678</ele>
        <time>2021-03-15T18:16:01.337Z</time>
      </trkpt>
      <trkpt lat="47.92725" lon="-3.70499">
        <ele>89.0449672133</ele>
        <time>2021-03-15T18:16:07.941Z</time>
      </trkpt>
      <trkpt lat="47.92703" lon="-3.70481">
        <ele>88.9905730621</ele>
        <time>2021-03-15T18:16:14.549Z</time>
      </trkpt>
      <trkpt lat="47.92688" lon="-3.70462">
        <ele>88.95465710019</ele>
        <time>2021-03-15T18:16:21.160Z</time>
      </trkpt>
      <trkpt lat="47.92672" lon="-3.7042">
        <ele>88.9565395665</ele>
        <time>2021-03-15T18:16:27.777Z</time>
      </trkpt>
      <trkpt lat="47.92669" lon="-3.70399">
        <ele>88.97642571048</ele>
        <time>2021-03-15T18:16:34.396Z</time>
      </trkpt>
      <trkpt lat="47.92668" lon="-3.70377">
        <ele>89.06270598461</ele>
        <time>2021-03-15T18:16:41.017Z</time>
      </trkpt>
      <trkpt lat="47.92675" lon="-3.70282">
        <ele>89.14930378104</ele>
        <time>2021-03-15T18:16:47.649Z</time>
      </trkpt>
      <trkpt lat="47.92682" lon="-3.70186">
        <ele>89.23150967275</ele>
        <time>2021-03-15T18:16:54.291Z</time>
      </trkpt>
      <trkpt lat="47.92682" lon="-3.70185">
        <ele>89.44417815349</ele>
        <time>2021-03-15T18:17:00.933Z</time>
      </trkpt>
      <trkpt lat="47.92686" lon="-3.70127">
        <ele>89.71806037971</ele>
        <time>2021-03-15T18:17:07.581Z</time>
      </trkpt>
      <trkpt lat="47.92687" lon="-3.70029">
        <ele>90.16943995778</ele>
        <time>2021-03-15T18:17:14.240Z</time>
      </trkpt>
      <trkpt lat="47.92688" lon="-3.69931">
        <ele>90.55821088986</ele>
        <time>2021-03-15T18:17:20.909Z</time>
      </trkpt>
      <trkpt lat="47.9269" lon="-3.69903">
        <ele>90.99282250187</ele>
        <time>2021-03-15T18:17:27.581Z</time>
      </trkpt>
      <trkpt lat="47.92698" lon="-3.69865">
        <ele>91.48317698348</ele>
        <time>2021-03-15T18:17:34.258Z</time>
      </trkpt>
      <trkpt lat="47.92708" lon="-3.69836">
        <ele>91.99156041766</ele>
        <time>2021-03-15T18:17:40.938Z</time>
      </trkpt>
      <trkpt lat="47.92714" lon="-3.69823">
        <ele>92.46190183598</ele>
        <time>2021-03-15T18:17:47.620Z</time>
      </trkpt>
      <trkpt lat="47.92748" lon="-3.69769">
        <ele>92.98114117156</ele>
        <time>2021-03-15T18:17:54.310Z</time>
      </trkpt>
      <trkpt lat="47.92782" lon="-3.69714">
        <ele>93.52498523957</ele>
        <time>2021-03-15T18:18:01.008Z</time>
      </trkpt>
      <trkpt lat="47.92803" lon="-3.69674">
        <ele>93.95063471174</ele>
        <time>2021-03-15T18:18:07.711Z</time>
      </trkpt>
      <trkpt lat="47.92817" lon="-3.6964">
        <ele>94.30636750059</ele>
        <time>2021-03-15T18:18:14.419Z</time>
      </trkpt>
      <trkpt lat="47.9284" lon="-3.69556">
        <ele>94.56342091451</ele>
        <time>2021-03-15T18:18:21.136Z</time>
      </trkpt>
      <trkpt lat="47.92864" lon="-3.69471">
        <ele>94.75198601292</ele>
        <time>2021-03-15T18:18:27.863Z</time>
      </trkpt>
      <trkpt lat="47.92887" lon="-3.69387">
        <ele>94.86320889519</ele>
        <time>2021-03-15T18:18:34.600Z</time>
      </trkpt>
      <trkpt lat="47.92913" lon="-3.69282">
        <ele>94.76572187637</ele>
        <time>2021-03-15T18:18:41.349Z</time>
      </trkpt>
      <trkpt lat="47.92913" lon="-3.69281">
        <ele>94.67057471207</ele>
        <time>2021-03-15T18:18:48.098Z</time>
      </trkpt>
      <trkpt lat="47.92946" lon="-3.69159">
        <ele>94.41326670175</ele>
        <time>2021-03-15T18:18:54.861Z</time>
      </trkpt>
      <trkpt lat="47.92967" lon="-3.69111">
        <ele>94.15654655431</ele>
        <time>2021-03-15T18:19:01.631Z</time>
      </trkpt>
      <trkpt lat="47.93002" lon="-3.6907">
        <ele>93.87539999475</ele>
        <time>2021-03-15T18:19:08.408Z</time>
      </trkpt>
      <trkpt lat="47.92999" lon="-3.69058">
        <ele>93.44933407641</ele>
        <time>2021-03-15T18:19:15.186Z</time>
      </trkpt>
      <trkpt lat="47.93001" lon="-3.69052">
        <ele>92.94269482424</ele>
        <time>2021-03-15T18:19:21.965Z</time>
      </trkpt>
      <trkpt lat="47.93005" lon="-3.69048">
        <ele>92.37206219147</ele>
        <time>2021-03-15T18:19:28.745Z</time>
      </trkpt>
      <trkpt lat="47.92954" lon="-3.68941">
        <ele>91.7462786108</ele>
        <time>2021-03-15T18:19:35.539Z</time>
      </trkpt>
      <trkpt lat="47.92915" lon="-3.68898">
        <ele>91.00471874897</ele>
        <time>2021-03-15T18:19:42.340Z</time>
      </trkpt>
      <trkpt lat="47.929" lon="-3.68882">
        <ele>90.30169724072</ele>
        <time>2021-03-15T18:19:49.144Z</time>
      </trkpt>
      <trkpt lat="47.92824" lon="-3.6882">
        <ele>89.59673997233</ele>
        <time>2021-03-15T18:19:55.962Z</time>
      </trkpt>
      <trkpt lat="47.9277" lon="-3.68772">
        <ele>88.85668448456</ele>
        <time>2021-03-15T18:20:02.790Z</time>
      </trkpt>
      <trkpt lat="47.92716" lon="-3.68725">
        <ele>88.08455509032</ele>
        <time>2021-03-15T18:20:09.628Z</time>
      </trkpt>
      <trkpt lat="47.92679" lon="-3.68684">
        <ele>87.41347797486</ele>
        <time>2021-03-15T18:20:16.474Z</time>
      </trkpt>
      <trkpt lat="47.92641" lon="-3.68643">
        <ele>86.8717957585</ele>
        <time>2021-03-15T18:20:23.327Z</time>
      </trkpt>
      <trkpt lat="47.92625" lon="-3.68618">
        <ele>86.4728932886</ele>
        <time>2021-03-15T18:20:30.184Z</time>
      </trkpt>
      <trkpt lat="47.9259" lon="-3.68552">
        <ele>86.18821565185</ele>
        <time>2021-03-15T18:20:37.050Z</time>
      </trkpt>
      <trkpt lat="47.92579" lon="-3.68521">
        <ele>86.08945513872</ele>
        <time>2021-03-15T18:20:43.920Z</time>
      </trkpt>
      <trkpt lat="47.92565" lon="-3.68474">
        <ele>86.17032942297</ele>
        <time>2021-03-15T18:20:50.795Z</time>
      </trkpt>
      <trkpt lat="47.92554" lon="-3.68406">
        <ele>86.33024081447</ele>
        <time>2021-03-15T18:20:57.678Z</time>
      </trkpt>
      <trkpt lat="47.92543" lon="-3.68296">
        <ele>86.76101954227</ele>
        <time>2021-03-15T18:21:04.573Z</time>
      </trkpt>
      <trkpt lat="47.92536" lon="-3.68206">
        <ele>87.37286638442</ele>
        <time>2021-03-15T18:21:11.478Z</time>
      </trkpt>
      <trkpt lat="47.92529" lon="-3.68117">
        <ele>88.17103121938</ele>
        <time>2021-03-15T18:21:18.392Z</time>
      </trkpt>
      <trkpt lat="47.92516" lon="-3.68043">
        <ele>88.89033954666</ele>
        <time>2021-03-15T18:21:25.314Z</time>
      </trkpt>
      <trkpt lat="47.92507" lon="-3.68001">
        <ele>89.65343743182</ele>
        <time>2021-03-15T18:21:32.241Z</time>
      </trkpt>
      <trkpt lat="47.92479" lon="-3.67908">
        <ele>90.62289408873</ele>
        <time>2021-03-15T18:21:39.179Z</time>
      </trkpt>
      <trkpt lat="47.9245" lon="-3.67815">
        <ele>91.53854495025</ele>
        <time>2021-03-15T18:21:46.128Z</time>
      </trkpt>
      <trkpt lat="47.92418" lon="-3.67718">
        <ele>92.4211632594</ele>
        <time>2021-03-15T18:21:53.089Z</time>
      </trkpt>
      <trkpt lat="47.92385" lon="-3.67621">
        <ele>93.49718235045</ele>
        <time>2021-03-15T18:22:00.062Z</time>
      </trkpt>
      <trkpt lat="47.92353" lon="-3.67524">
        <ele>94.57239011748</ele>
        <time>2021-03-15T18:22:07.046Z</time>
      </trkpt>
      <trkpt lat="47.92339" lon="-3.67466">
        <ele>95.62592467169</ele>
        <time>2021-03-15T18:22:14.037Z</time>
      </trkpt>
      <trkpt lat="47.92327" lon="-3.67403">
        <ele>96.58116470603</ele>
        <time>2021-03-15T18:22:21.035Z</time>
      </trkpt>
      <trkpt lat="47.92313" lon="-3.67299">
        <ele>97.6326406923</ele>
        <time>2021-03-15T18:22:28.044Z</time>
      </trkpt>
      <trkpt lat="47.92298" lon="-3.67195">
        <ele>98.66186692758</ele>
        <time>2021-03-15T18:22:35.065Z</time>
      </trkpt>
      <trkpt lat="47.92298" lon="-3.67196">
        <ele>99.5423565443</ele>
        <time>2021-03-15T18:22:42.086Z</time>
      </trkpt>
      <trkpt lat="47.92298" lon="-3.67196">
        <ele>100.35769247852</ele>
        <time>2021-03-15T18:22:49.107Z</time>
      </trkpt>
      <trkpt lat="47.92284" lon="-3.67092">
        <ele>101.18860851751</ele>
        <time>2021-03-15T18:22:56.139Z</time>
      </trkpt>
      <trkpt lat="47.92269" lon="-3.66988">
        <ele>101.87478249968</ele>
        <time>2021-03-15T18:23:03.183Z</time>
      </trkpt>
      <trkpt lat="47.92261" lon="-3.66873">
        <ele>102.44424642065</ele>
        <time>2021-03-15T18:23:10.239Z</time>
      </trkpt>
      <trkpt lat="47.92252" lon="-3.66758">
        <ele>102.95137232579</ele>
        <time>2021-03-15T18:23:17.307Z</time>
      </trkpt>
      <trkpt lat="47.92242" lon="-3.66646">
        <ele>103.34900526261</ele>
        <time>2021-03-15T18:23:24.388Z</time>
      </trkpt>
      <trkpt lat="47.92232" lon="-3.66583">
        <ele>103.61558753217</ele>
        <time>2021-03-15T18:23:31.476Z</time>
      </trkpt>
      <trkpt lat="47.92216" lon="-3.66518">
        <ele>103.81447843225</ele>
        <time>2021-03-15T18:23:38.571Z</time>
      </trkpt>
      <trkpt lat="47.92191" lon="-3.66441">
        <ele>103.91335752234</ele>
        <time>2021-03-15T18:23:45.675Z</time>
      </trkpt>
      <trkpt lat="47.92161" lon="-3.66356">
        <ele>103.89744678549</ele>
        <time>2021-03-15T18:23:52.790Z</time>
      </trkpt>
      <trkpt lat="47.9213" lon="-3.66272">
        <ele>103.92464356851</ele>
        <time>2021-03-15T18:23:59.915Z</time>
      </trkpt>
      <trkpt lat="47.92112" lon="-3.66201">
        <ele>103.8550117851</ele>
        <time>2021-03-15T18:24:07.048Z</time>
      </trkpt>
      <trkpt lat="47.92099" lon="-3.6613">
        <ele>103.72430696041</ele>
        <time>2021-03-15T18:24:14.189Z</time>
      </trkpt>
      <trkpt lat="47.92095" lon="-3.66101">
        <ele>103.58502396488</ele>
        <time>2021-03-15T18:24:21.333Z</time>
      </trkpt>
      <trkpt lat="47.92091" lon="-3.66013">
        <ele>103.41700502468</ele>
        <time>2021-03-15T18:24:28.487Z</time>
      </trkpt>
      <trkpt lat="47.92092" lon="-3.65939">
        <ele>103.31693407581</ele>
        <time>2021-03-15T18:24:35.649Z</time>
      </trkpt>
      <trkpt lat="47.92095" lon="-3.65866">
        <ele>103.25221542316</ele>
        <time>2021-03-15T18:24:42.818Z</time>
      </trkpt>
      <trkpt lat="47.92101" lon="-3.65765">
        <ele>103.05688110559</ele>
        <time>2021-03-15T18:24:49.998Z</time>
      </trkpt>
      <trkpt lat="47.92107" lon="-3.65665">
        <ele>102.97384802512</ele>
        <time>2021-03-15T18:24:57.189Z</time>
      </trkpt>
      <trkpt lat="47.92113" lon="-3.65564">
        <ele>102.88853028109</ele>
        <time>2021-03-15T18:25:04.391Z</time>
      </trkpt>
      <trkpt lat="47.92113" lon="-3.65563">
        <ele>102.77937783048</ele>
        <time>2021-03-15T18:25:11.593Z</time>
      </trkpt>
      <trkpt lat="47.92122" lon="-3.65441">
        <ele>102.71164772377</ele>
        <time>2021-03-15T18:25:18.808Z</time>
      </trkpt>
      <trkpt lat="47.92131" lon="-3.65318">
        <ele>102.53110300155</ele>
        <time>2021-03-15T18:25:26.037Z</time>
      </trkpt>
      <trkpt lat="47.92146" lon="-3.65189">
        <ele>102.50509614271</ele>
        <time>2021-03-15T18:25:33.280Z</time>
      </trkpt>
      <trkpt lat="47.9216" lon="-3.6506">
        <ele>102.37963454662</ele>
        <time>2021-03-15T18:25:40.537Z</time>
      </trkpt>
      <trkpt lat="47.92175" lon="-3.6493">
        <ele>102.17502225772</ele>
        <time>2021-03-15T18:25:47.808Z</time>
      </trkpt>
      <trkpt lat="47.92189" lon="-3.64801">
        <ele>102.15437067751</ele>
        <time>2021-03-15T18:25:55.093Z</time>
      </trkpt>
      <trkpt lat="47.92197" lon="-3.64712">
        <ele>101.958343551</ele>
        <time>2021-03-15T18:26:02.388Z</time>
      </trkpt>
      <trkpt lat="47.92199" lon="-3.64644">
        <ele>101.80486057462</ele>
        <time>2021-03-15T18:26:09.690Z</time>
      </trkpt>
      <trkpt lat="47.922" lon="-3.64576">
        <ele>101.66096993815</ele>
        <time>2021-03-15T18:26:16.999Z</time>
      </trkpt>
      <trkpt lat="47.92196" lon="-3.64508">
        <ele>101.43850757864</ele>
        <time>2021-03-15T18:26:24.316Z</time>
      </trkpt>
      <trkpt lat="47.92187" lon="-3.64421">
        <ele>101.24590453753</ele>
        <time>2021-03-15T18:26:31.642Z</time>
      </trkpt>
      <trkpt lat="47.92177" lon="-3.64334">
        <ele>101.08335519987</ele>
        <time>2021-03-15T18:26:38.978Z</time>
      </trkpt>
      <trkpt lat="47.92162" lon="-3.64214">
        <ele>100.81458882502</ele>
        <time>2021-03-15T18:26:46.327Z</time>
      </trkpt>
      <trkpt lat="47.92147" lon="-3.64094">
        <ele>100.4544974622</ele>
        <time>2021-03-15T18:26:53.689Z</time>
      </trkpt>
      <trkpt lat="47.92133" lon="-3.63973">
        <ele>100.17048379798</ele>
        <time>2021-03-15T18:27:01.064Z</time>
      </trkpt>
      <trkpt lat="47.92118" lon="-3.63853">
        <ele>99.87931728893</ele>
        <time>2021-03-15T18:27:08.452Z</time>
      </trkpt>
      <trkpt lat="47.92103" lon="-3.63733">
        <ele>99.48504802602</ele>
        <time>2021-03-15T18:27:15.853Z</time>
      </trkpt>
      <trkpt lat="47.92089" lon="-3.63624">
        <ele>99.14480332339</ele>
        <time>2021-03-15T18:27:23.266Z</time>
      </trkpt>
      <trkpt lat="47.92075" lon="-3.63515">
        <ele>98.76384228266</ele>
        <time>2021-03-15T18:27:30.691Z</time>
      </trkpt>
      <trkpt lat="47.92062" lon="-3.63407">
        <ele>98.4215296246</ele>
        <time>2021-03-15T18:27:38.128Z</time>
      </trkpt>
      <trkpt lat="47.92048" lon="-3.63298">
        <ele>98.24833960742</ele>
        <time>2021-03-15T18:27:45.577Z</time>
      </trkpt>
      <trkpt lat="47.92034" lon="-3.63189">
        <ele>97.83237138035</ele>
        <time>2021-03-15T18:27:53.038Z</time>
      </trkpt>
      <trkpt lat="47.92025" lon="-3.63099">
        <ele>97.48420503753</ele>
        <time>2021-03-15T18:28:00.509Z</time>
      </trkpt>
      <trkpt lat="47.92016" lon="-3.6301">
        <ele>97.22758062785</ele>
        <time>2021-03-15T18:28:07.990Z</time>
      </trkpt>
      <trkpt lat="47.92007" lon="-3.6289">
        <ele>96.85600283383</ele>
        <time>2021-03-15T18:28:15.484Z</time>
      </trkpt>
      <trkpt lat="47.91997" lon="-3.62771">
        <ele>96.541561894</ele>
        <time>2021-03-15T18:28:22.990Z</time>
      </trkpt>
      <trkpt lat="47.91986" lon="-3.62697">
        <ele>96.18307218756</ele>
        <time>2021-03-15T18:28:30.505Z</time>
      </trkpt>
      <trkpt lat="47.91962" lon="-3.62584">
        <ele>95.85920896058</ele>
        <time>2021-03-15T18:28:38.032Z</time>
      </trkpt>
      <trkpt lat="47.91937" lon="-3.6247">
        <ele>95.61287215582</ele>
        <time>2021-03-15T18:28:45.572Z</time>
      </trkpt>
      <trkpt lat="47.91913" lon="-3.62357">
        <ele>95.28007819156</ele>
        <time>2021-03-15T18:28:53.125Z</time>
      </trkpt>
      <trkpt lat="47.91888" lon="-3.62244">
        <ele>94.85771196665</ele>
        <time>2021-03-15T18:29:00.691Z</time>
      </trkpt>
      <trkpt lat="47.91862" lon="-3.62124">
        <ele>94.47037862607</ele>
        <time>2021-03-15T18:29:08.270Z</time>
      </trkpt>
      <trkpt lat="47.91835" lon="-3.62005">
        <ele>94.23031687909</ele>
        <time>2021-03-15T18:29:15.863Z</time>
      </trkpt>
      <trkpt lat="47.91809" lon="-3.61885">
        <ele>93.96453554062</ele>
        <time>2021-03-15T18:29:23.470Z</time>
      </trkpt>
      <trkpt lat="47.91782" lon="-3.61765">
        <ele>93.62645698385</ele>
        <time>2021-03-15T18:29:31.090Z</time>
      </trkpt>
      <trkpt lat="47.91756" lon="-3.61645">
        <ele>93.28443093277</ele>
        <time>2021-03-15T18:29:38.724Z</time>
      </trkpt>
      <trkpt lat="47.91729" lon="-3.61526">
        <ele>93.0431871313</ele>
        <time>2021-03-15T18:29:46.371Z</time>
      </trkpt>
      <trkpt lat="47.91703" lon="-3.61406">
        <ele>92.79967092601</ele>
        <time>2021-03-15T18:29:54.032Z</time>
      </trkpt>
      <trkpt lat="47.91677" lon="-3.61293">
        <ele>92.6851454434</ele>
        <time>2021-03-15T18:30:01.706Z</time>
      </trkpt>
      <trkpt lat="47.9165" lon="-3.6118">
        <ele>92.61306886206</ele>
        <time>2021-03-15T18:30:09.393Z</time>
      </trkpt>
      <trkpt lat="47.91639" lon="-3.61139">
        <ele>92.4913122243</ele>
        <time>2021-03-15T18:30:17.084Z</time>
      </trkpt>
      <trkpt lat="47.91614" lon="-3.61063">
        <ele>92.37771605576</ele>
        <time>2021-03-15T18:30:24.784Z</time>
      </trkpt>
      <trkpt lat="47.9157" lon="-3.60963">
        <ele>92.17957773867</ele>
        <time>2021-03-15T18:30:32.497Z</time>
      </trkpt>
      <trkpt lat="47.91537" lon="-3.60895">
        <ele>92.08158884378</ele>
        <time>2021-03-15T18:30:40.219Z</time>
      </trkpt>
      <trkpt lat="47.91503" lon="-3.6083">
        <ele>92.08237846401</ele>
        <time>2021-03-15T18:30:47.950Z</time>
      </trkpt>
      <trkpt lat="47.91468" lon="-3.60765">
        <ele>92.10041600981</ele>
        <time>2021-03-15T18:30:55.690Z</time>
      </trkpt>
      <trkpt lat="47.91421" lon="-3.60677">
        <ele>92.10009641969</ele>
        <time>2021-03-15T18:31:03.442Z</time>
      </trkpt>
      <trkpt lat="47.91374" lon="-3.6059">
        <ele>92.1925456467</ele>
        <time>2021-03-15T18:31:11.206Z</time>
      </trkpt>
      <trkpt lat="47.91342" lon="-3.60537">
        <ele>92.17219401327</ele>
        <time>2021-03-15T18:31:18.978Z</time>
      </trkpt>
      <trkpt lat="47.91309" lon="-3.60484">
        <ele>92.14741485899</ele>
        <time>2021-03-15T18:31:26.758Z</time>
      </trkpt>
      <trkpt lat="47.91259" lon="-3.60405">
        <ele>92.24042058207</ele>
        <time>2021-03-15T18:31:34.549Z</time>
      </trkpt>
      <trkpt lat="47.91208" lon="-3.60326">
        <ele>92.4113235108</ele>
        <time>2021-03-15T18:31:42.352Z</time>
      </trkpt>
      <trkpt lat="47.91158" lon="-3.60247">
        <ele>92.49795490516</ele>
        <time>2021-03-15T18:31:50.167Z</time>
      </trkpt>
      <trkpt lat="47.91107" lon="-3.60168">
        <ele>92.48857156741</ele>
        <time>2021-03-15T18:31:57.994Z</time>
      </trkpt>
      <trkpt lat="47.91071" lon="-3.60102">
        <ele>92.46616454331</ele>
        <time>2021-03-15T18:32:05.830Z</time>
      </trkpt>
      <trkpt lat="47.91034" lon="-3.60032">
        <ele>92.24163446876</ele>
        <time>2021-03-15T18:32:13.675Z</time>
      </trkpt>
      <trkpt lat="47.90997" lon="-3.59961">
        <ele>92.07295968503</ele>
        <time>2021-03-15T18:32:21.530Z</time>
      </trkpt>
      <trkpt lat="47.9096" lon="-3.59891">
        <ele>91.80407070795</ele>
        <time>2021-03-15T18:32:29.395Z</time>
      </trkpt>
      <trkpt lat="47.90933" lon="-3.59844">
        <ele>91.48582357211</ele>
        <time>2021-03-15T18:32:37.266Z</time>
      </trkpt>
      <trkpt lat="47.90916" lon="-3.5981">
        <ele>91.06962400645</ele>
        <time>2021-03-15T18:32:45.142Z</time>
      </trkpt>
      <trkpt lat="47.90881" lon="-3.59748">
        <ele>90.59462810709</ele>
        <time>2021-03-15T18:32:53.027Z</time>
      </trkpt>
      <trkpt lat="47.90858" lon="-3.59716">
        <ele>90.07901421838</ele>
        <time>2021-03-15T18:33:00.917Z</time>
      </trkpt>
      <trkpt lat="47.90801" lon="-3.59647">
        <ele>89.47767660918</ele>
        <time>2021-03-15T18:33:08.818Z</time>
      </trkpt>
      <trkpt lat="47.90743" lon="-3.59579">
        <ele>88.96201513193</ele>
        <time>2021-03-15T18:33:16.731Z</time>
      </trkpt>
      <trkpt lat="47.90686" lon="-3.59524">
        <ele>88.44856183856</ele>
        <time>2021-03-15T18:33:24.655Z</time>
      </trkpt>
      <trkpt lat="47.90629" lon="-3.5947">
        <ele>88.01239712657</ele>
        <time>2021-03-15T18:33:32.590Z</time>
      </trkpt>
      <trkpt lat="47.90601" lon="-3.59438">
        <ele>87.59613025817</ele>
        <time>2021-03-15T18:33:40.531Z</time>
      </trkpt>
      <trkpt lat="47.90581" lon="-3.5941">
        <ele>87.24719531637</ele>
        <time>2021-03-15T18:33:48.476Z</time>
      </trkpt>
      <trkpt lat="47.90566" lon="-3.59383">
        <ele>86.99258017674</ele>
        <time>2021-03-15T18:33:56.425Z</time>
      </trkpt>
      <trkpt lat="47.90538" lon="-3.59314">
        <ele>86.92723748406</ele>
        <time>2021-03-15T18:34:04.382Z</time>
      </trkpt>
      <trkpt lat="47.9051" lon="-3.59246">
        <ele>86.89701759735</ele>
        <time>2021-03-15T18:34:12.348Z</time>
      </trkpt>
      <trkpt lat="47.90488" lon="-3.59199">
        <ele>86.81466082725</ele>
        <time>2021-03-15T18:34:20.320Z</time>
      </trkpt>
      <trkpt lat="47.90467" lon="-3.5916">
        <ele>86.68597491823</ele>
        <time>2021-03-15T18:34:28.297Z</time>
      </trkpt>
      <trkpt lat="47.90434" lon="-3.59106">
        <ele>86.51428580888</ele>
        <time>2021-03-15T18:34:36.282Z</time>
      </trkpt>
      <trkpt lat="47.90401" lon="-3.59052">
        <ele>86.41570910679</ele>
        <time>2021-03-15T18:34:44.275Z</time>
      </trkpt>
      <trkpt lat="47.90344" lon="-3.5895">
        <ele>86.21094555935</ele>
        <time>2021-03-15T18:34:52.283Z</time>
      </trkpt>
      <trkpt lat="47.90286" lon="-3.58848">
        <ele>85.97741855228</ele>
        <time>2021-03-15T18:35:00.305Z</time>
      </trkpt>
      <trkpt lat="47.90229" lon="-3.58746">
        <ele>85.69505840377</ele>
        <time>2021-03-15T18:35:08.341Z</time>
      </trkpt>
      <trkpt lat="47.90187" lon="-3.58646">
        <ele>85.3211379858</ele>
        <time>2021-03-15T18:35:16.390Z</time>
      </trkpt>
      <trkpt lat="47.90146" lon="-3.58546">
        <ele>84.86240812077</ele>
        <time>2021-03-15T18:35:24.451Z</time>
      </trkpt>
      <trkpt lat="47.90104" lon="-3.58447">
        <ele>84.45514434681</ele>
        <time>2021-03-15T18:35:32.525Z</time>
      </trkpt>
      <trkpt lat="47.90062" lon="-3.58347">
        <ele>83.92455098606</ele>
        <time>2021-03-15T18:35:40.612Z</time>
      </trkpt>
      <trkpt lat="47.90026" lon="-3.58256">
        <ele>83.35992494647</ele>
        <time>2021-03-15T18:35:48.710Z</time>
      </trkpt>
      <trkpt lat="47.8999" lon="-3.58166">
        <ele>82.86542639002</ele>
        <time>2021-03-15T18:35:56.819Z</time>
      </trkpt>
      <trkpt lat="47.89964" lon="-3.58107">
        <ele>82.41057069341</ele>
        <time>2021-03-15T18:36:04.936Z</time>
      </trkpt>
      <trkpt lat="47.89937" lon="-3.58048">
        <ele>82.04125429509</ele>
        <time>2021-03-15T18:36:13.061Z</time>
      </trkpt>
      <trkpt lat="47.89894" lon="-3.57963">
        <ele>81.77219377389</ele>
        <time>2021-03-15T18:36:21.197Z</time>
      </trkpt>
      <trkpt lat="47.89849" lon="-3.57878">
        <ele>81.4346867854</ele>
        <time>2021-03-15T18:36:29.345Z</time>
      </trkpt>
      <trkpt lat="47.89804" lon="-3.57792">
        <ele>81.03148039191</ele>
        <time>2021-03-15T18:36:37.504Z</time>
      </trkpt>
      <trkpt lat="47.89759" lon="-3.57707">
        <ele>80.73994184118</ele>
        <time>2021-03-15T18:36:45.675Z</time>
      </trkpt>
      <trkpt lat="47.89714" lon="-3.57622">
        <ele>80.31004886705</ele>
        <time>2021-03-15T18:36:53.858Z</time>
      </trkpt>
      <trkpt lat="47.89679" lon="-3.57557">
        <ele>79.81629343422</ele>
        <time>2021-03-15T18:37:02.050Z</time>
      </trkpt>
      <trkpt lat="47.89643" lon="-3.57492">
        <ele>79.39518494461</ele>
        <time>2021-03-15T18:37:10.251Z</time>
      </trkpt>
      <trkpt lat="47.89646" lon="-3.57481">
        <ele>78.91555991039</ele>
        <time>2021-03-15T18:37:18.453Z</time>
      </trkpt>
      <trkpt lat="47.89646" lon="-3.57458">
        <ele>78.41348356503</ele>
        <time>2021-03-15T18:37:26.658Z</time>
      </trkpt>
      <trkpt lat="47.89642" lon="-3.57446">
        <ele>77.844139206</ele>
        <time>2021-03-15T18:37:34.864Z</time>
      </trkpt>
      <trkpt lat="47.89637" lon="-3.57438">
        <ele>77.21582501006</ele>
        <time>2021-03-15T18:37:43.071Z</time>
      </trkpt>
      <trkpt lat="47.89629" lon="-3.57432">
        <ele>76.53514382242</ele>
        <time>2021-03-15T18:37:51.280Z</time>
      </trkpt>
      <trkpt lat="47.89622" lon="-3.57431">
        <ele>75.81802915328</ele>
        <time>2021-03-15T18:37:59.490Z</time>
      </trkpt>
      <trkpt lat="47.89613" lon="-3.57432">
        <ele>75.07607582636</ele>
        <time>2021-03-15T18:38:07.701Z</time>
      </trkpt>
      <trkpt lat="47.896" lon="-3.57445">
        <ele>74.30775656667</ele>
        <time>2021-03-15T18:38:15.915Z</time>
      </trkpt>
      <trkpt lat="47.89582" lon="-3.57419">
        <ele>73.50881851744</ele>
        <time>2021-03-15T18:38:24.133Z</time>
      </trkpt>
      <trkpt lat="47.89532" lon="-3.57358">
        <ele>72.64204047515</ele>
        <time>2021-03-15T18:38:32.361Z</time>
      </trkpt>
      <trkpt lat="47.89481" lon="-3.57297">
        <ele>71.93532706535</ele>
        <time>2021-03-15T18:38:40.600Z</time>
      </trkpt>
      <trkpt lat="47.89431" lon="-3.57236">
        <ele>71.15004424159</ele>
        <time>2021-03-15T18:38:48.849Z</time>
      </trkpt>
      <trkpt lat="47.89389" lon="-3.57173">
        <ele>70.32983602617</ele>
        <time>2021-03-15T18:38:57.107Z</time>
      </trkpt>
      <trkpt lat="47.8935" lon="-3.57092">
        <ele>69.77338492261</ele>
        <time>2021-03-15T18:39:05.376Z</time>
      </trkpt>
      <trkpt lat="47.89331" lon="-3.57024">
        <ele>69.38075136025</ele>
        <time>2021-03-15T18:39:13.653Z</time>
      </trkpt>
      <trkpt lat="47.89304" lon="-3.56915">
        <ele>69.05598787551</ele>
        <time>2021-03-15T18:39:21.943Z</time>
      </trkpt>
      <trkpt lat="47.89277" lon="-3.56807">
        <ele>68.95359631812</ele>
        <time>2021-03-15T18:39:30.245Z</time>
      </trkpt>
      <trkpt lat="47.89257" lon="-3.5676">
        <ele>68.94894188994</ele>
        <time>2021-03-15T18:39:38.553Z</time>
      </trkpt>
      <trkpt lat="47.89229" lon="-3.567">
        <ele>69.03218902053</ele>
        <time>2021-03-15T18:39:46.869Z</time>
      </trkpt>
      <trkpt lat="47.892" lon="-3.5664">
        <ele>69.22200922475</ele>
        <time>2021-03-15T18:39:55.193Z</time>
      </trkpt>
      <trkpt lat="47.89156" lon="-3.56556">
        <ele>69.48372412606</ele>
        <time>2021-03-15T18:40:03.528Z</time>
      </trkpt>
      <trkpt lat="47.89129" lon="-3.56512">
        <ele>69.77096431874</ele>
        <time>2021-03-15T18:40:11.870Z</time>
      </trkpt>
      <trkpt lat="47.89079" lon="-3.56446">
        <ele>70.0589312081</ele>
        <time>2021-03-15T18:40:20.222Z</time>
      </trkpt>
      <trkpt lat="47.8904" lon="-3.56397">
        <ele>70.39459760049</ele>
        <time>2021-03-15T18:40:28.583Z</time>
      </trkpt>
      <trkpt lat="47.88988" lon="-3.56338">
        <ele>70.75116427352</ele>
        <time>2021-03-15T18:40:36.954Z</time>
      </trkpt>
      <trkpt lat="47.88932" lon="-3.56263">
        <ele>70.93798669724</ele>
        <time>2021-03-15T18:40:45.337Z</time>
      </trkpt>
      <trkpt lat="47.88875" lon="-3.56189">
        <ele>70.89922579147</ele>
        <time>2021-03-15T18:40:53.732Z</time>
      </trkpt>
      <trkpt lat="47.88809" lon="-3.56104">
        <ele>70.83023050592</ele>
        <time>2021-03-15T18:41:02.141Z</time>
      </trkpt>
      <trkpt lat="47.88743" lon="-3.5602">
        <ele>70.6936093028</ele>
        <time>2021-03-15T18:41:10.564Z</time>
      </trkpt>
      <trkpt lat="47.88677" lon="-3.55935">
        <ele>70.28412387468</ele>
        <time>2021-03-15T18:41:19.001Z</time>
      </trkpt>
      <trkpt lat="47.88665" lon="-3.55918">
        <ele>69.82066714782</ele>
        <time>2021-03-15T18:41:27.441Z</time>
      </trkpt>
      <trkpt lat="47.88624" lon="-3.55853">
        <ele>69.20949636434</ele>
        <time>2021-03-15T18:41:35.890Z</time>
      </trkpt>
      <trkpt lat="47.88601" lon="-3.55804">
        <ele>68.5182949761</ele>
        <time>2021-03-15T18:41:44.346Z</time>
      </trkpt>
      <trkpt lat="47.88568" lon="-3.55708">
        <ele>67.56707360304</ele>
        <time>2021-03-15T18:41:52.813Z</time>
      </trkpt>
      <trkpt lat="47.88534" lon="-3.55611">
        <ele>66.68192851054</ele>
        <time>2021-03-15T18:42:01.292Z</time>
      </trkpt>
      <trkpt lat="47.88501" lon="-3.55515">
        <ele>65.86187088435</ele>
        <time>2021-03-15T18:42:09.783Z</time>
      </trkpt>
      <trkpt lat="47.88467" lon="-3.55418">
        <ele>64.92192532074</ele>
        <time>2021-03-15T18:42:18.286Z</time>
      </trkpt>
      <trkpt lat="47.88434" lon="-3.55322">
        <ele>63.96198910353</ele>
        <time>2021-03-15T18:42:26.800Z</time>
      </trkpt>
      <trkpt lat="47.88398" lon="-3.55211">
        <ele>62.95588535675</ele>
        <time>2021-03-15T18:42:35.327Z</time>
      </trkpt>
      <trkpt lat="47.88362" lon="-3.55101">
        <ele>61.73149092041</ele>
        <time>2021-03-15T18:42:43.868Z</time>
      </trkpt>
      <trkpt lat="47.88332" lon="-3.55014">
        <ele>60.53476225613</ele>
        <time>2021-03-15T18:42:52.419Z</time>
      </trkpt>
      <trkpt lat="47.88302" lon="-3.54928">
        <ele>59.4415083804</ele>
        <time>2021-03-15T18:43:00.981Z</time>
      </trkpt>
      <trkpt lat="47.88275" lon="-3.54863">
        <ele>58.19990814788</ele>
        <time>2021-03-15T18:43:09.551Z</time>
      </trkpt>
      <trkpt lat="47.88227" lon="-3.54801">
        <ele>56.85234661157</ele>
        <time>2021-03-15T18:43:18.131Z</time>
      </trkpt>
      <trkpt lat="47.8818" lon="-3.54738">
        <ele>55.44318959355</ele>
        <time>2021-03-15T18:43:26.721Z</time>
      </trkpt>
      <trkpt lat="47.88132" lon="-3.54676">
        <ele>54.05040184542</ele>
        <time>2021-03-15T18:43:35.321Z</time>
      </trkpt>
      <trkpt lat="47.88074" lon="-3.54619">
        <ele>52.47663860781</ele>
        <time>2021-03-15T18:43:43.932Z</time>
      </trkpt>
      <trkpt lat="47.88056" lon="-3.5461">
        <ele>50.96376580452</ele>
        <time>2021-03-15T18:43:52.547Z</time>
      </trkpt>
      <trkpt lat="47.88034" lon="-3.54604">
        <ele>49.44110014933</ele>
        <time>2021-03-15T18:44:01.165Z</time>
      </trkpt>
      <trkpt lat="47.88021" lon="-3.54604">
        <ele>47.96100969288</ele>
        <time>2021-03-15T18:44:09.785Z</time>
      </trkpt>
      <trkpt lat="47.88008" lon="-3.54606">
        <ele>46.4682179903</ele>
        <time>2021-03-15T18:44:18.407Z</time>
      </trkpt>
      <trkpt lat="47.87991" lon="-3.54618">
        <ele>44.99247016794</ele>
        <time>2021-03-15T18:44:27.032Z</time>
      </trkpt>
      <trkpt lat="47.87976" lon="-3.54631">
        <ele>43.50273872179</ele>
        <time>2021-03-15T18:44:35.660Z</time>
      </trkpt>
      <trkpt lat="47.87962" lon="-3.5466">
        <ele>41.98960264896</ele>
        <time>2021-03-15T18:44:44.292Z</time>
      </trkpt>
      <trkpt lat="47.87935" lon="-3.54767">
        <ele>40.66013396939</ele>
        <time>2021-03-15T18:44:52.936Z</time>
      </trkpt>
      <trkpt lat="47.87922" lon="-3.5479">
        <ele>39.30230840048</ele>
        <time>2021-03-15T18:45:01.583Z</time>
      </trkpt>
      <trkpt lat="47.87906" lon="-3.54806">
        <ele>37.94995709273</ele>
        <time>2021-03-15T18:45:10.234Z</time>
      </trkpt>
      <trkpt lat="47.8789" lon="-3.54808">
        <ele>36.6338970107</ele>
        <time>2021-03-15T18:45:18.887Z</time>
      </trkpt>
      <trkpt lat="47.87876" lon="-3.54806">
        <ele>35.35535264978</ele>
        <time>2021-03-15T18:45:27.542Z</time>
      </trkpt>
      <trkpt lat="47.87859" lon="-3.54795">
        <ele>34.13834753712</ele>
        <time>2021-03-15T18:45:36.200Z</time>
      </trkpt>
      <trkpt lat="47.87845" lon="-3.54774">
        <ele>32.87269354477</ele>
        <time>2021-03-15T18:45:44.862Z</time>
      </trkpt>
      <trkpt lat="47.87838" lon="-3.54753">
        <ele>31.57300061646</ele>
        <time>2021-03-15T18:45:53.526Z</time>
      </trkpt>
      <trkpt lat="47.87827" lon="-3.5471">
        <ele>30.1672615662</ele>
        <time>2021-03-15T18:46:02.195Z</time>
      </trkpt>
      <trkpt lat="47.8781" lon="-3.54647">
        <ele>28.65787514779</ele>
        <time>2021-03-15T18:46:10.871Z</time>
      </trkpt>
      <trkpt lat="47.87793" lon="-3.54619">
        <ele>27.36406457425</ele>
        <time>2021-03-15T18:46:19.551Z</time>
      </trkpt>
      <trkpt lat="47.87772" lon="-3.54611">
        <ele>26.07886837965</ele>
        <time>2021-03-15T18:46:28.235Z</time>
      </trkpt>
      <trkpt lat="47.87751" lon="-3.5461">
        <ele>24.77499031138</ele>
        <time>2021-03-15T18:46:36.922Z</time>
      </trkpt>
      <trkpt lat="47.87703" lon="-3.54618">
        <ele>23.30418422962</ele>
        <time>2021-03-15T18:46:45.617Z</time>
      </trkpt>
      <trkpt lat="47.87636" lon="-3.54638">
        <ele>22.02292736213</ele>
        <time>2021-03-15T18:46:54.323Z</time>
      </trkpt>
      <trkpt lat="47.87583" lon="-3.54669">
        <ele>21.1380030033</ele>
        <time>2021-03-15T18:47:03.038Z</time>
      </trkpt>
      <trkpt lat="47.87529" lon="-3.54699">
        <ele>20.13052204682</ele>
        <time>2021-03-15T18:47:11.762Z</time>
      </trkpt>
      <trkpt lat="47.87488" lon="-3.54726">
        <ele>19.00181438442</ele>
        <time>2021-03-15T18:47:20.493Z</time>
      </trkpt>
      <trkpt lat="47.87468" lon="-3.5472">
        <ele>17.78131470545</ele>
        <time>2021-03-15T18:47:29.228Z</time>
      </trkpt>
      <trkpt lat="47.87465" lon="-3.54705">
        <ele>16.66385660196</ele>
        <time>2021-03-15T18:47:37.964Z</time>
      </trkpt>
      <trkpt lat="47.87457" lon="-3.54705">
        <ele>15.67117649922</ele>
        <time>2021-03-15T18:47:46.702Z</time>
      </trkpt>
      <trkpt lat="47.87453" lon="-3.54707">
        <ele>14.74752210134</ele>
        <time>2021-03-15T18:47:55.440Z</time>
      </trkpt>
      <trkpt lat="47.87451" lon="-3.54713">
        <ele>13.88730093945</ele>
        <time>2021-03-15T18:48:04.179Z</time>
      </trkpt>
      <trkpt lat="47.87451" lon="-3.54721">
        <ele>13.0677760319</ele>
        <time>2021-03-15T18:48:12.919Z</time>
      </trkpt>
      <trkpt lat="47.87429" lon="-3.54733">
        <ele>12.27321422483</ele>
        <time>2021-03-15T18:48:21.663Z</time>
      </trkpt>
      <trkpt lat="47.87364" lon="-3.54732">
        <ele>11.3215619028</ele>
        <time>2021-03-15T18:48:30.417Z</time>
      </trkpt>
      <trkpt lat="47.87359" lon="-3.54732">
        <ele>10.51741843891</ele>
        <time>2021-03-15T18:48:39.172Z</time>
      </trkpt>
      <trkpt lat="47.87331" lon="-3.5472">
        <ele>9.73804896314</ele>
        <time>2021-03-15T18:48:47.932Z</time>
      </trkpt>
      <trkpt lat="47.87257" lon="-3.54679">
        <ele>8.80430269547</ele>
        <time>2021-03-15T18:48:56.704Z</time>
      </trkpt>
      <trkpt lat="47.8724" lon="-3.54665">
        <ele>8.02890298977</ele>
        <time>2021-03-15T18:49:05.479Z</time>
      </trkpt>
      <trkpt lat="47.87239" lon="-3.54661">
        <ele>7.28339463979</ele>
        <time>2021-03-15T18:49:14.255Z</time>
      </trkpt>
      <trkpt lat="47.87237" lon="-3.54659">
        <ele>6.57062319142</ele>
        <time>2021-03-15T18:49:23.031Z</time>
      </trkpt>
      <trkpt lat="47.87234" lon="-3.54659">
        <ele>5.90398138661</ele>
        <time>2021-03-15T18:49:31.808Z</time>
      </trkpt>
      <trkpt lat="47.87233" lon="-3.54662">
        <ele>5.29079342556</ele>
        <time>2021-03-15T18:49:40.585Z</time>
      </trkpt>
      <trkpt lat="47.87205" lon="-3.54623">
        <ele>4.71092027229</ele>
        <time>2021-03-15T18:49:49.368Z</time>
      </trkpt>
      <trkpt lat="47.87144" lon="-3.54563">
        <ele>4.16049538814</ele>
        <time>2021-03-15T18:49:58.163Z</time>
      </trkpt>
      <trkpt lat="47.87145" lon="-3.5456">
        <ele>3.74339942161</ele>
        <time>2021-03-15T18:50:06.958Z</time>
      </trkpt>
      <trkpt lat="47.87142" lon="-3.54554">
        <ele>3.42384394851</ele>
        <time>2021-03-15T18:50:15.754Z</time>
      </trkpt>
      <trkpt lat="47.87156" lon="-3.54496">
        <ele>3.24540584797</ele>
        <time>2021-03-15T18:50:24.557Z</time>
      </trkpt>
      <trkpt lat="47.87149" lon="-3.54495">
        <ele>3.19998109969</ele>
        <time>2021-03-15T18:50:33.361Z</time>
      </trkpt>
      <trkpt lat="47.87152" lon="-3.54481">
        <ele>3.31001678968</ele>
        <time>2021-03-15T18:50:42.166Z</time>
      </trkpt>
      <trkpt lat="47.87117" lon="-3.54464">
        <ele>3.59730297569</ele>
        <time>2021-03-15T18:50:50.977Z</time>
      </trkpt>
      <trkpt lat="47.87074" lon="-3.54442">
        <ele>4.14820538435</ele>
        <time>2021-03-15T18:50:59.796Z</time>
      </trkpt>
      <trkpt lat="47.87029" lon="-3.54415">
        <ele>4.83264444994</ele>
        <time>2021-03-15T18:51:08.622Z</time>
      </trkpt>
      <trkpt lat="47.86983" lon="-3.54388">
        <ele>5.6458453215</ele>
        <time>2021-03-15T18:51:17.456Z</time>
      </trkpt>
      <trkpt lat="47.86973" lon="-3.54373">
        <ele>6.7581400519</ele>
        <time>2021-03-15T18:51:26.292Z</time>
      </trkpt>
      <trkpt lat="47.86972" lon="-3.54356">
        <ele>8.10914072445</ele>
        <time>2021-03-15T18:51:35.130Z</time>
      </trkpt>
      <trkpt lat="47.86973" lon="-3.54333">
        <ele>9.73043880511</ele>
        <time>2021-03-15T18:51:43.971Z</time>
      </trkpt>
      <trkpt lat="47.86964" lon="-3.54286">
        <ele>11.61488720943</ele>
        <time>2021-03-15T18:51:52.817Z</time>
      </trkpt>
      <trkpt lat="47.86946" lon="-3.54247">
        <ele>13.80411755942</ele>
        <time>2021-03-15T18:52:01.668Z</time>
      </trkpt>
      <trkpt lat="47.86901" lon="-3.54199">
        <ele>16.25301494909</ele>
        <time>2021-03-15T18:52:10.528Z</time>
      </trkpt>
      <trkpt lat="47.86878" lon="-3.54169">
        <ele>18.82233456075</ele>
        <time>2021-03-15T18:52:19.393Z</time>
      </trkpt>
      <trkpt lat="47.86862" lon="-3.54123">
        <ele>21.55887063988</ele>
        <time>2021-03-15T18:52:28.264Z</time>
      </trkpt>
      <trkpt lat="47.86844" lon="-3.54037">
        <ele>24.5680254135</ele>
        <time>2021-03-15T18:52:37.144Z</time>
      </trkpt>
      <trkpt lat="47.86832" lon="-3.53955">
        <ele>27.67401827735</ele>
        <time>2021-03-15T18:52:46.033Z</time>
      </trkpt>
      <trkpt lat="47.8682" lon="-3.53873">
        <ele>30.9641747305</ele>
        <time>2021-03-15T18:52:54.931Z</time>
      </trkpt>
      <trkpt lat="47.86805" lon="-3.53756">
        <ele>34.31561622892</ele>
        <time>2021-03-15T18:53:03.842Z</time>
      </trkpt>
      <trkpt lat="47.86791" lon="-3.53692">
        <ele>37.58716855963</ele>
        <time>2021-03-15T18:53:12.760Z</time>
      </trkpt>
      <trkpt lat="47.86739" lon="-3.53584">
        <ele>40.88125595226</ele>
        <time>2021-03-15T18:53:21.693Z</time>
      </trkpt>
      <trkpt lat="47.86687" lon="-3.53476">
        <ele>44.30183287214</ele>
        <time>2021-03-15T18:53:30.640Z</time>
      </trkpt>
      <trkpt lat="47.8665" lon="-3.53404">
        <ele>47.5687225205</ele>
        <time>2021-03-15T18:53:39.597Z</time>
      </trkpt>
      <trkpt lat="47.86612" lon="-3.53332">
        <ele>50.70784843944</ele>
        <time>2021-03-15T18:53:48.564Z</time>
      </trkpt>
      <trkpt lat="47.86594" lon="-3.53284">
        <ele>53.53616902527</ele>
        <time>2021-03-15T18:53:57.537Z</time>
      </trkpt>
      <trkpt lat="47.86584" lon="-3.53189">
        <ele>56.25524634416</ele>
        <time>2021-03-15T18:54:06.520Z</time>
      </trkpt>
      <trkpt lat="47.86573" lon="-3.53095">
        <ele>58.75896203828</ele>
        <time>2021-03-15T18:54:15.513Z</time>
      </trkpt>
      <trkpt lat="47.86565" lon="-3.52973">
        <ele>60.99683873962</ele>
        <time>2021-03-15T18:54:24.519Z</time>
      </trkpt>
      <trkpt lat="47.86556" lon="-3.52902">
        <ele>62.8393709272</ele>
        <time>2021-03-15T18:54:33.533Z</time>
      </trkpt>
      <trkpt lat="47.86546" lon="-3.52831">
        <ele>64.35483283735</ele>
        <time>2021-03-15T18:54:42.555Z</time>
      </trkpt>
      <trkpt lat="47.8654" lon="-3.52772">
        <ele>65.62778379069</ele>
        <time>2021-03-15T18:54:51.583Z</time>
      </trkpt>
      <trkpt lat="47.86544" lon="-3.5276">
        <ele>66.60111879275</ele>
        <time>2021-03-15T18:55:00.613Z</time>
      </trkpt>
      <trkpt lat="47.86542" lon="-3.52744">
        <ele>67.29542698611</ele>
        <time>2021-03-15T18:55:09.645Z</time>
      </trkpt>
      <trkpt lat="47.86534" lon="-3.52731">
        <ele>67.70694926584</ele>
        <time>2021-03-15T18:55:18.678Z</time>
      </trkpt>
      <trkpt lat="47.86522" lon="-3.52728">
        <ele>67.83584056531</ele>
        <time>2021-03-15T18:55:27.713Z</time>
      </trkpt>
      <trkpt lat="47.86516" lon="-3.52713">
        <ele>67.73720352799</ele>
        <time>2021-03-15T18:55:36.750Z</time>
      </trkpt>
      <trkpt lat="47.86514" lon="-3.52693">
        <ele>67.42132823934</ele>
        <time>2021-03-15T18:55:45.789Z</time>
      </trkpt>
      <trkpt lat="47.86508" lon="-3.52672">
        <ele>66.94088490861</ele>
        <time>2021-03-15T18:55:54.831Z</time>
      </trkpt>
      <trkpt lat="47.86483" lon="-3.52606">
        <ele>66.25332702621</ele>
        <time>2021-03-15T18:56:03.881Z</time>
      </trkpt>
      <trkpt lat="47.86442" lon="-3.52511">
        <ele>65.3500958103</ele>
        <time>2021-03-15T18:56:12.943Z</time>
      </trkpt>
      <trkpt lat="47.86402" lon="-3.52416">
        <ele>64.39268374115</ele>
        <time>2021-03-15T18:56:22.017Z</time>
      </trkpt>
      <trkpt lat="47.86361" lon="-3.52322">
        <ele>63.40512363927</ele>
        <time>2021-03-15T18:56:31.103Z</time>
      </trkpt>
      <trkpt lat="47.8632" lon="-3.52227">
        <ele>62.31295133023</ele>
        <time>2021-03-15T18:56:40.202Z</time>
      </trkpt>
      <trkpt lat="47.86288" lon="-3.52135">
        <ele>61.21095784748</ele>
        <time>2021-03-15T18:56:49.312Z</time>
      </trkpt>
      <trkpt lat="47.86237" lon="-3.5204">
        <ele>60.18560211599</ele>
        <time>2021-03-15T18:56:58.435Z</time>
      </trkpt>
      <trkpt lat="47.86196" lon="-3.51982">
        <ele>59.25189423098</ele>
        <time>2021-03-15T18:57:07.567Z</time>
      </trkpt>
      <trkpt lat="47.86155" lon="-3.51925">
        <ele>58.25670846801</ele>
        <time>2021-03-15T18:57:16.708Z</time>
      </trkpt>
      <trkpt lat="47.86105" lon="-3.51875">
        <ele>57.45224023191</ele>
        <time>2021-03-15T18:57:25.859Z</time>
      </trkpt>
      <trkpt lat="47.86054" lon="-3.51825">
        <ele>56.76246579385</ele>
        <time>2021-03-15T18:57:35.019Z</time>
      </trkpt>
      <trkpt lat="47.86025" lon="-3.51792">
        <ele>56.12010765341</ele>
        <time>2021-03-15T18:57:44.185Z</time>
      </trkpt>
      <trkpt lat="47.86" lon="-3.51772">
        <ele>55.54170127471</ele>
        <time>2021-03-15T18:57:53.356Z</time>
      </trkpt>
      <trkpt lat="47.85933" lon="-3.51734">
        <ele>55.20157634081</ele>
        <time>2021-03-15T18:58:02.538Z</time>
      </trkpt>
      <trkpt lat="47.85865" lon="-3.51697">
        <ele>54.84797287668</ele>
        <time>2021-03-15T18:58:11.732Z</time>
      </trkpt>
      <trkpt lat="47.85831" lon="-3.51665">
        <ele>54.45022682375</ele>
        <time>2021-03-15T18:58:20.932Z</time>
      </trkpt>
      <trkpt lat="47.85803" lon="-3.51639">
        <ele>54.15611754381</ele>
        <time>2021-03-15T18:58:30.138Z</time>
      </trkpt>
      <trkpt lat="47.85736" lon="-3.51566">
        <ele>53.8646694098</ele>
        <time>2021-03-15T18:58:39.357Z</time>
      </trkpt>
      <trkpt lat="47.85669" lon="-3.51492">
        <ele>53.43769178071</ele>
        <time>2021-03-15T18:58:48.589Z</time>
      </trkpt>
      <trkpt lat="47.85602" lon="-3.51419">
        <ele>53.10199228114</ele>
        <time>2021-03-15T18:58:57.834Z</time>
      </trkpt>
      <trkpt lat="47.85533" lon="-3.51352">
        <ele>52.95037521537</ele>
        <time>2021-03-15T18:59:07.093Z</time>
      </trkpt>
      <trkpt lat="47.85473" lon="-3.51297">
        <ele>52.7262633523</ele>
        <time>2021-03-15T18:59:16.363Z</time>
      </trkpt>
      <trkpt lat="47.85413" lon="-3.51243">
        <ele>52.36641674041</ele>
        <time>2021-03-15T18:59:25.644Z</time>
      </trkpt>
      <trkpt lat="47.85353" lon="-3.51188">
        <ele>52.0598549928</ele>
        <time>2021-03-15T18:59:34.936Z</time>
      </trkpt>
      <trkpt lat="47.85296" lon="-3.51131">
        <ele>51.96716631999</ele>
        <time>2021-03-15T18:59:44.239Z</time>
      </trkpt>
      <trkpt lat="47.85239" lon="-3.51074">
        <ele>51.54095680942</ele>
        <time>2021-03-15T18:59:53.553Z</time>
      </trkpt>
      <trkpt lat="47.85187" lon="-3.51006">
        <ele>51.24932840355</ele>
        <time>2021-03-15T19:00:02.879Z</time>
      </trkpt>
      <trkpt lat="47.85135" lon="-3.50938">
        <ele>51.06256204765</ele>
        <time>2021-03-15T19:00:12.216Z</time>
      </trkpt>
      <trkpt lat="47.85093" lon="-3.5091">
        <ele>50.74305762344</ele>
        <time>2021-03-15T19:00:21.560Z</time>
      </trkpt>
      <trkpt lat="47.8505" lon="-3.50895">
        <ele>50.48274974057</ele>
        <time>2021-03-15T19:00:30.911Z</time>
      </trkpt>
      <trkpt lat="47.85018" lon="-3.5089">
        <ele>50.23833523605</ele>
        <time>2021-03-15T19:00:40.267Z</time>
      </trkpt>
      <trkpt lat="47.84959" lon="-3.50898">
        <ele>50.02013133481</ele>
        <time>2021-03-15T19:00:49.633Z</time>
      </trkpt>
      <trkpt lat="47.84875" lon="-3.50906">
        <ele>49.66654759449</ele>
        <time>2021-03-15T19:00:59.012Z</time>
      </trkpt>
      <trkpt lat="47.84791" lon="-3.50913">
        <ele>49.40608584568</ele>
        <time>2021-03-15T19:01:08.405Z</time>
      </trkpt>
      <trkpt lat="47.84751" lon="-3.50911">
        <ele>49.23980582606</ele>
        <time>2021-03-15T19:01:17.804Z</time>
      </trkpt>
      <trkpt lat="47.84675" lon="-3.50894">
        <ele>48.95134421885</ele>
        <time>2021-03-15T19:01:27.215Z</time>
      </trkpt>
      <trkpt lat="47.846" lon="-3.50877">
        <ele>48.71535473189</ele>
        <time>2021-03-15T19:01:36.639Z</time>
      </trkpt>
      <trkpt lat="47.84524" lon="-3.5086">
        <ele>48.44232445738</ele>
        <time>2021-03-15T19:01:46.075Z</time>
      </trkpt>
      <trkpt lat="47.84446" lon="-3.50841">
        <ele>48.14182095482</ele>
        <time>2021-03-15T19:01:55.523Z</time>
      </trkpt>
      <trkpt lat="47.84369" lon="-3.50821">
        <ele>47.82461416644</ele>
        <time>2021-03-15T19:02:04.984Z</time>
      </trkpt>
      <trkpt lat="47.84291" lon="-3.50802">
        <ele>47.55400946622</ele>
        <time>2021-03-15T19:02:14.458Z</time>
      </trkpt>
      <trkpt lat="47.84274" lon="-3.50795">
        <ele>47.26277335473</ele>
        <time>2021-03-15T19:02:23.935Z</time>
      </trkpt>
      <trkpt lat="47.84236" lon="-3.50771">
        <ele>46.94756432586</ele>
        <time>2021-03-15T19:02:33.418Z</time>
      </trkpt>
      <trkpt lat="47.84236" lon="-3.50772">
        <ele>46.66786874277</ele>
        <time>2021-03-15T19:02:42.901Z</time>
      </trkpt>
      <trkpt lat="47.84179" lon="-3.50719">
        <ele>46.35686014663</ele>
        <time>2021-03-15T19:02:52.395Z</time>
      </trkpt>
      <trkpt lat="47.84123" lon="-3.50665">
        <ele>46.12383408487</ele>
        <time>2021-03-15T19:03:01.900Z</time>
      </trkpt>
      <trkpt lat="47.84066" lon="-3.50612">
        <ele>45.89639029726</ele>
        <time>2021-03-15T19:03:11.415Z</time>
      </trkpt>
      <trkpt lat="47.84" lon="-3.50551">
        <ele>45.58202183622</ele>
        <time>2021-03-15T19:03:20.943Z</time>
      </trkpt>
      <trkpt lat="47.83934" lon="-3.50491">
        <ele>45.23859928715</ele>
        <time>2021-03-15T19:03:30.483Z</time>
      </trkpt>
      <trkpt lat="47.83868" lon="-3.5043">
        <ele>44.9908490031</ele>
        <time>2021-03-15T19:03:40.036Z</time>
      </trkpt>
      <trkpt lat="47.83807" lon="-3.50368">
        <ele>44.92238754844</ele>
        <time>2021-03-15T19:03:49.601Z</time>
      </trkpt>
      <trkpt lat="47.83777" lon="-3.50341">
        <ele>44.72151205097</ele>
        <time>2021-03-15T19:03:59.171Z</time>
      </trkpt>
      <trkpt lat="47.83716" lon="-3.50291">
        <ele>44.48177370005</ele>
        <time>2021-03-15T19:04:08.752Z</time>
      </trkpt>
      <trkpt lat="47.83654" lon="-3.50241">
        <ele>44.25288001164</ele>
        <time>2021-03-15T19:04:18.345Z</time>
      </trkpt>
      <trkpt lat="47.83613" lon="-3.50217">
        <ele>44.1715157822</ele>
        <time>2021-03-15T19:04:27.945Z</time>
      </trkpt>
      <trkpt lat="47.83542" lon="-3.50184">
        <ele>44.02035049949</ele>
        <time>2021-03-15T19:04:37.557Z</time>
      </trkpt>
      <trkpt lat="47.8347" lon="-3.50151">
        <ele>43.91691112804</ele>
        <time>2021-03-15T19:04:47.181Z</time>
      </trkpt>
      <trkpt lat="47.83399" lon="-3.50118">
        <ele>43.95327281957</ele>
        <time>2021-03-15T19:04:56.817Z</time>
      </trkpt>
      <trkpt lat="47.83368" lon="-3.50106">
        <ele>43.92019638305</ele>
        <time>2021-03-15T19:05:06.458Z</time>
      </trkpt>
      <trkpt lat="47.83332" lon="-3.50085">
        <ele>43.95550924095</ele>
        <time>2021-03-15T19:05:16.105Z</time>
      </trkpt>
      <trkpt lat="47.83312" lon="-3.50071">
        <ele>44.06112907427</ele>
        <time>2021-03-15T19:05:25.755Z</time>
      </trkpt>
      <trkpt lat="47.83243" lon="-3.50014">
        <ele>44.31200351021</ele>
        <time>2021-03-15T19:05:35.418Z</time>
      </trkpt>
      <trkpt lat="47.83174" lon="-3.49956">
        <ele>44.48751218965</ele>
        <time>2021-03-15T19:05:45.094Z</time>
      </trkpt>
      <trkpt lat="47.83105" lon="-3.49899">
        <ele>44.64134562203</ele>
        <time>2021-03-15T19:05:54.782Z</time>
      </trkpt>
      <trkpt lat="47.83044" lon="-3.49828">
        <ele>44.83489746627</ele>
        <time>2021-03-15T19:06:04.483Z</time>
      </trkpt>
      <trkpt lat="47.82982" lon="-3.49757">
        <ele>44.89977571583</ele>
        <time>2021-03-15T19:06:14.196Z</time>
      </trkpt>
      <trkpt lat="47.82921" lon="-3.49686">
        <ele>45.10039283932</ele>
        <time>2021-03-15T19:06:23.922Z</time>
      </trkpt>
      <trkpt lat="47.82863" lon="-3.4962">
        <ele>45.19869491193</ele>
        <time>2021-03-15T19:06:33.659Z</time>
      </trkpt>
      <trkpt lat="47.82805" lon="-3.49554">
        <ele>45.46774075938</ele>
        <time>2021-03-15T19:06:43.408Z</time>
      </trkpt>
      <trkpt lat="47.82772" lon="-3.49523">
        <ele>45.80811693311</ele>
        <time>2021-03-15T19:06:53.163Z</time>
      </trkpt>
      <trkpt lat="47.82703" lon="-3.49469">
        <ele>46.20352211326</ele>
        <time>2021-03-15T19:07:02.931Z</time>
      </trkpt>
      <trkpt lat="47.82632" lon="-3.4941">
        <ele>46.36459584357</ele>
        <time>2021-03-15T19:07:12.712Z</time>
      </trkpt>
      <trkpt lat="47.82576" lon="-3.49344">
        <ele>46.54780350502</ele>
        <time>2021-03-15T19:07:22.504Z</time>
      </trkpt>
      <trkpt lat="47.8252" lon="-3.49278">
        <ele>46.71408800451</ele>
        <time>2021-03-15T19:07:32.308Z</time>
      </trkpt>
      <trkpt lat="47.82498" lon="-3.49257">
        <ele>46.98796522559</ele>
        <time>2021-03-15T19:07:42.116Z</time>
      </trkpt>
      <trkpt lat="47.82471" lon="-3.49236">
        <ele>47.29482488738</ele>
        <time>2021-03-15T19:07:51.929Z</time>
      </trkpt>
      <trkpt lat="47.82448" lon="-3.49224">
        <ele>47.60578917587</ele>
        <time>2021-03-15T19:08:01.746Z</time>
      </trkpt>
      <trkpt lat="47.82425" lon="-3.49215">
        <ele>47.85313085959</ele>
        <time>2021-03-15T19:08:11.567Z</time>
      </trkpt>
      <trkpt lat="47.82364" lon="-3.49195">
        <ele>48.14676766476</ele>
        <time>2021-03-15T19:08:21.398Z</time>
      </trkpt>
      <trkpt lat="47.82302" lon="-3.49175">
        <ele>48.57749227738</ele>
        <time>2021-03-15T19:08:31.239Z</time>
      </trkpt>
      <trkpt lat="47.82227" lon="-3.49148">
        <ele>49.18307763113</ele>
        <time>2021-03-15T19:08:41.092Z</time>
      </trkpt>
      <trkpt lat="47.82146" lon="-3.49128">
        <ele>49.33306574541</ele>
        <time>2021-03-15T19:08:50.958Z</time>
      </trkpt>
      <trkpt lat="47.82087" lon="-3.49078">
        <ele>49.52899061549</ele>
        <time>2021-03-15T19:09:00.835Z</time>
      </trkpt>
      <trkpt lat="47.82028" lon="-3.49029">
        <ele>49.79938938997</ele>
        <time>2021-03-15T19:09:10.723Z</time>
      </trkpt>
      <trkpt lat="47.8197" lon="-3.48979">
        <ele>49.88174293769</ele>
        <time>2021-03-15T19:09:20.622Z</time>
      </trkpt>
      <trkpt lat="47.8194" lon="-3.48958">
        <ele>49.9139254057</ele>
        <time>2021-03-15T19:09:30.526Z</time>
      </trkpt>
      <trkpt lat="47.81887" lon="-3.48904">
        <ele>49.79374072849</ele>
        <time>2021-03-15T19:09:40.440Z</time>
      </trkpt>
      <trkpt lat="47.81834" lon="-3.48853">
        <ele>49.77995640015</ele>
        <time>2021-03-15T19:09:50.364Z</time>
      </trkpt>
      <trkpt lat="47.81782" lon="-3.48803">
        <ele>49.78604539286</ele>
        <time>2021-03-15T19:10:00.298Z</time>
      </trkpt>
      <trkpt lat="47.81729" lon="-3.48752">
        <ele>49.81345258297</ele>
        <time>2021-03-15T19:10:10.242Z</time>
      </trkpt>
      <trkpt lat="47.81667" lon="-3.48696">
        <ele>49.92646930373</ele>
        <time>2021-03-15T19:10:20.198Z</time>
      </trkpt>
      <trkpt lat="47.81605" lon="-3.48641">
        <ele>50.14816113827</ele>
        <time>2021-03-15T19:10:30.166Z</time>
      </trkpt>
      <trkpt lat="47.81582" lon="-3.48613">
        <ele>50.35710744897</ele>
        <time>2021-03-15T19:10:40.138Z</time>
      </trkpt>
      <trkpt lat="47.81544" lon="-3.48556">
        <ele>50.51977607525</ele>
        <time>2021-03-15T19:10:50.119Z</time>
      </trkpt>
      <trkpt lat="47.81505" lon="-3.485">
        <ele>50.74394936286</ele>
        <time>2021-03-15T19:11:00.109Z</time>
      </trkpt>
      <trkpt lat="47.81454" lon="-3.48427">
        <ele>51.08814196016</ele>
        <time>2021-03-15T19:11:10.110Z</time>
      </trkpt>
      <trkpt lat="47.81421" lon="-3.48373">
        <ele>51.27517277245</ele>
        <time>2021-03-15T19:11:20.119Z</time>
      </trkpt>
      <trkpt lat="47.81387" lon="-3.4832">
        <ele>51.36712271842</ele>
        <time>2021-03-15T19:11:30.136Z</time>
      </trkpt>
      <trkpt lat="47.81328" lon="-3.48273">
        <ele>51.4339367275</ele>
        <time>2021-03-15T19:11:40.164Z</time>
      </trkpt>
      <trkpt lat="47.81245" lon="-3.48246">
        <ele>51.32711124346</ele>
        <time>2021-03-15T19:11:50.205Z</time>
      </trkpt>
      <trkpt lat="47.81203" lon="-3.48225">
        <ele>51.46399007847</ele>
        <time>2021-03-15T19:12:00.253Z</time>
      </trkpt>
      <trkpt lat="47.81135" lon="-3.48189">
        <ele>51.58707275956</ele>
        <time>2021-03-15T19:12:10.313Z</time>
      </trkpt>
      <trkpt lat="47.81068" lon="-3.48153">
        <ele>51.91839806681</ele>
        <time>2021-03-15T19:12:20.384Z</time>
      </trkpt>
      <trkpt lat="47.81" lon="-3.48117">
        <ele>51.93943435434</ele>
        <time>2021-03-15T19:12:30.467Z</time>
      </trkpt>
      <trkpt lat="47.80957" lon="-3.48097">
        <ele>52.08909027093</ele>
        <time>2021-03-15T19:12:40.557Z</time>
      </trkpt>
      <trkpt lat="47.80913" lon="-3.48078">
        <ele>52.34030158471</ele>
        <time>2021-03-15T19:12:50.654Z</time>
      </trkpt>
      <trkpt lat="47.80853" lon="-3.48059">
        <ele>52.64997160994</ele>
        <time>2021-03-15T19:13:00.761Z</time>
      </trkpt>
      <trkpt lat="47.80793" lon="-3.48041">
        <ele>52.90307406248</ele>
        <time>2021-03-15T19:13:10.878Z</time>
      </trkpt>
      <trkpt lat="47.80754" lon="-3.48032">
        <ele>53.0959893496</ele>
        <time>2021-03-15T19:13:21.001Z</time>
      </trkpt>
      <trkpt lat="47.80696" lon="-3.48023">
        <ele>53.21774922818</ele>
        <time>2021-03-15T19:13:31.134Z</time>
      </trkpt>
      <trkpt lat="47.80637" lon="-3.48015">
        <ele>53.30978091748</ele>
        <time>2021-03-15T19:13:41.276Z</time>
      </trkpt>
      <trkpt lat="47.80576" lon="-3.48002">
        <ele>53.34505062218</ele>
        <time>2021-03-15T19:13:51.428Z</time>
      </trkpt>
      <trkpt lat="47.80518" lon="-3.47988">
        <ele>53.30380697148</ele>
        <time>2021-03-15T19:14:01.589Z</time>
      </trkpt>
      <trkpt lat="47.80491" lon="-3.47978">
        <ele>53.24547100759</ele>
        <time>2021-03-15T19:14:11.755Z</time>
      </trkpt>
      <trkpt lat="47.80442" lon="-3.47961">
        <ele>53.20565342015</ele>
        <time>2021-03-15T19:14:21.929Z</time>
      </trkpt>
      <trkpt lat="47.80363" lon="-3.47925">
        <ele>52.9182578525</ele>
        <time>2021-03-15T19:14:32.116Z</time>
      </trkpt>
      <trkpt lat="47.80283" lon="-3.47889">
        <ele>52.62174229028</ele>
        <time>2021-03-15T19:14:42.317Z</time>
      </trkpt>
      <trkpt lat="47.80245" lon="-3.47869">
        <ele>52.39639901791</ele>
        <time>2021-03-15T19:14:52.524Z</time>
      </trkpt>
      <trkpt lat="47.80225" lon="-3.47854">
        <ele>52.10399177807</ele>
        <time>2021-03-15T19:15:02.735Z</time>
      </trkpt>
      <trkpt lat="47.80215" lon="-3.47841">
        <ele>51.83902030351</ele>
        <time>2021-03-15T19:15:12.948Z</time>
      </trkpt>
      <trkpt lat="47.80214" lon="-3.47833">
        <ele>51.58246651648</ele>
        <time>2021-03-15T19:15:23.162Z</time>
      </trkpt>
      <trkpt lat="47.802" lon="-3.4782">
        <ele>51.34412472108</ele>
        <time>2021-03-15T19:15:33.378Z</time>
      </trkpt>
      <trkpt lat="47.80195" lon="-3.47821">
        <ele>51.1178518859</ele>
        <time>2021-03-15T19:15:43.595Z</time>
      </trkpt>
      <trkpt lat="47.8019" lon="-3.47826">
        <ele>50.90542225837</ele>
        <time>2021-03-15T19:15:53.813Z</time>
      </trkpt>
      <trkpt lat="47.80186" lon="-3.47833">
        <ele>50.70726190319</ele>
        <time>2021-03-15T19:16:04.032Z</time>
      </trkpt>
      <trkpt lat="47.80177" lon="-3.47839">
        <ele>50.52221581098</ele>
        <time>2021-03-15T19:16:14.253Z</time>
      </trkpt>
      <trkpt lat="47.80167" lon="-3.47841">
        <ele>50.34770486845</ele>
        <time>2021-03-15T19:16:24.475Z</time>
      </trkpt>
      <trkpt lat="47.80107" lon="-3.47834">
        <ele>50.21525235588</ele>
        <time>2021-03-15T19:16:34.707Z</time>
      </trkpt>
      <trkpt lat="47.80046" lon="-3.47828">
        <ele>50.17116668904</ele>
        <time>2021-03-15T19:16:44.949Z</time>
      </trkpt>
      <trkpt lat="47.80037" lon="-3.47826">
        <ele>50.00098495686</ele>
        <time>2021-03-15T19:16:55.192Z</time>
      </trkpt>
      <trkpt lat="47.80024" lon="-3.4782">
        <ele>49.77597229901</ele>
        <time>2021-03-15T19:17:05.437Z</time>
      </trkpt>
      <trkpt lat="47.80008" lon="-3.47808">
        <ele>49.53197090779</ele>
        <time>2021-03-15T19:17:15.685Z</time>
      </trkpt>
      <trkpt lat="47.79997" lon="-3.47797">
        <ele>49.31303154757</ele>
        <time>2021-03-15T19:17:25.935Z</time>
      </trkpt>
      <trkpt lat="47.7998" lon="-3.47766">
        <ele>49.06059073427</ele>
        <time>2021-03-15T19:17:36.190Z</time>
      </trkpt>
      <trkpt lat="47.7997" lon="-3.47737">
        <ele>48.87219852708</ele>
        <time>2021-03-15T19:17:46.448Z</time>
      </trkpt>
      <trkpt lat="47.79967" lon="-3.47709">
        <ele>48.6566433268</ele>
        <time>2021-03-15T19:17:56.709Z</time>
      </trkpt>
      <trkpt lat="47.79963" lon="-3.47699">
        <ele>48.41919928205</ele>
        <time>2021-03-15T19:18:06.971Z</time>
      </trkpt>
      <trkpt lat="47.7996" lon="-3.47696">
        <ele>48.20286733289</ele>
        <time>2021-03-15T19:18:17.234Z</time>
      </trkpt>
      <trkpt lat="47.79956" lon="-3.47696">
        <ele>48.0021607143</ele>
        <time>2021-03-15T19:18:27.498Z</time>
      </trkpt>
      <trkpt lat="47.79949" lon="-3.47702">
        <ele>47.82920971812</ele>
        <time>2021-03-15T19:18:37.763Z</time>
      </trkpt>
      <trkpt lat="47.79936" lon="-3.47738">
        <ele>47.70272935859</ele>
        <time>2021-03-15T19:18:48.032Z</time>
      </trkpt>
      <trkpt lat="47.79933" lon="-3.47808">
        <ele>47.58456382396</ele>
        <time>2021-03-15T19:18:58.309Z</time>
      </trkpt>
      <trkpt lat="47.79928" lon="-3.47882">
        <ele>47.47673195565</ele>
        <time>2021-03-15T19:19:08.594Z</time>
      </trkpt>
      <trkpt lat="47.79926" lon="-3.47893">
        <ele>47.44955767845</ele>
        <time>2021-03-15T19:19:18.880Z</time>
      </trkpt>
      <trkpt lat="47.79921" lon="-3.47901">
        <ele>47.46775569554</ele>
        <time>2021-03-15T19:19:29.167Z</time>
      </trkpt>
      <trkpt lat="47.79845" lon="-3.4797">
        <ele>47.58727892791</ele>
        <time>2021-03-15T19:19:39.469Z</time>
      </trkpt>
      <trkpt lat="47.79768" lon="-3.48038">
        <ele>47.70187875636</ele>
        <time>2021-03-15T19:19:49.785Z</time>
      </trkpt>
      <trkpt lat="47.79771" lon="-3.48043">
        <ele>47.85267082241</ele>
        <time>2021-03-15T19:20:00.102Z</time>
      </trkpt>
      <trkpt lat="47.79842" lon="-3.47979">
        <ele>48.06189956874</ele>
        <time>2021-03-15T19:20:10.432Z</time>
      </trkpt>
      <trkpt lat="47.79838" lon="-3.47968">
        <ele>48.32397482646</ele>
        <time>2021-03-15T19:20:20.763Z</time>
      </trkpt>
      <trkpt lat="47.79823" lon="-3.47981">
        <ele>48.57739951013</ele>
        <time>2021-03-15T19:20:31.097Z</time>
      </trkpt>
      <trkpt lat="47.79785" lon="-3.4801">
        <ele>48.89437091843</ele>
        <time>2021-03-15T19:20:41.438Z</time>
      </trkpt>
      <trkpt lat="47.79767" lon="-3.48033">
        <ele>49.2627989604</ele>
        <time>2021-03-15T19:20:51.783Z</time>
      </trkpt>
      <trkpt lat="47.79768" lon="-3.48038">
        <ele>47.70187875636</ele>
        <time>2021-03-15T19:21:02.128Z</time>
      </trkpt>
      <trkpt lat="47.79738" lon="-3.48064">
        <ele>50.07961569564</ele>
        <time>2021-03-15T19:21:12.479Z</time>
      </trkpt>
      <trkpt lat="47.79726" lon="-3.48083">
        <ele>50.48047406787</ele>
        <time>2021-03-15T19:21:22.833Z</time>
      </trkpt>
      <trkpt lat="47.79719" lon="-3.48098">
        <ele>50.83452690315</ele>
        <time>2021-03-15T19:21:33.189Z</time>
      </trkpt>
      <trkpt lat="47.79703" lon="-3.48165">
        <ele>51.16454572605</ele>
        <time>2021-03-15T19:21:43.552Z</time>
      </trkpt>
      <trkpt lat="47.79687" lon="-3.48232">
        <ele>51.43990593099</ele>
        <time>2021-03-15T19:21:53.923Z</time>
      </trkpt>
      <trkpt lat="47.79675" lon="-3.48252">
        <ele>51.68265846534</ele>
        <time>2021-03-15T19:22:04.297Z</time>
      </trkpt>
      <trkpt lat="47.7966" lon="-3.48261">
        <ele>51.87496854285</ele>
        <time>2021-03-15T19:22:14.673Z</time>
      </trkpt>
      <trkpt lat="47.79654" lon="-3.48262">
        <ele>52.02474715647</ele>
        <time>2021-03-15T19:22:25.050Z</time>
      </trkpt>
      <trkpt lat="47.79653" lon="-3.48278">
        <ele>52.05047649566</ele>
        <time>2021-03-15T19:22:35.429Z</time>
      </trkpt>
      <trkpt lat="47.79646" lon="-3.48296">
        <ele>52.02919734932</ele>
        <time>2021-03-15T19:22:45.810Z</time>
      </trkpt>
      <trkpt lat="47.7964" lon="-3.48302">
        <ele>51.97224646961</ele>
        <time>2021-03-15T19:22:56.192Z</time>
      </trkpt>
      <trkpt lat="47.79655" lon="-3.48336">
        <ele>51.88092350351</ele>
        <time>2021-03-15T19:23:06.579Z</time>
      </trkpt>
      <trkpt lat="47.79676" lon="-3.48358">
        <ele>51.80054595076</ele>
        <time>2021-03-15T19:23:16.970Z</time>
      </trkpt>
      <trkpt lat="47.79719" lon="-3.48401">
        <ele>51.73913358033</ele>
        <time>2021-03-15T19:23:27.369Z</time>
      </trkpt>
      <trkpt lat="47.7978" lon="-3.4847">
        <ele>51.50487613634</ele>
        <time>2021-03-15T19:23:37.781Z</time>
      </trkpt>
      <trkpt lat="47.79842" lon="-3.4854">
        <ele>50.79567396344</ele>
        <time>2021-03-15T19:23:48.205Z</time>
      </trkpt>
      <trkpt lat="47.79903" lon="-3.48609">
        <ele>50.23028959709</ele>
        <time>2021-03-15T19:23:58.641Z</time>
      </trkpt>
      <trkpt lat="47.79912" lon="-3.48736">
        <ele>49.85977150899</ele>
        <time>2021-03-15T19:24:09.091Z</time>
      </trkpt>
      <trkpt lat="47.79922" lon="-3.48863">
        <ele>49.32454869804</ele>
        <time>2021-03-15T19:24:19.555Z</time>
      </trkpt>
      <trkpt lat="47.79931" lon="-3.4899">
        <ele>49.07986722819</ele>
        <time>2021-03-15T19:24:30.033Z</time>
      </trkpt>
      <trkpt lat="47.79941" lon="-3.49117">
        <ele>48.45855980249</ele>
        <time>2021-03-15T19:24:40.524Z</time>
      </trkpt>
      <trkpt lat="47.7995" lon="-3.49244">
        <ele>47.64186425878</ele>
        <time>2021-03-15T19:24:51.029Z</time>
      </trkpt>
      <trkpt lat="47.79958" lon="-3.4935">
        <ele>46.79477353147</ele>
        <time>2021-03-15T19:25:01.546Z</time>
      </trkpt>
      <trkpt lat="47.79965" lon="-3.49456">
        <ele>46.16909339117</ele>
        <time>2021-03-15T19:25:12.074Z</time>
      </trkpt>
      <trkpt lat="47.79973" lon="-3.49563">
        <ele>45.81891235038</ele>
        <time>2021-03-15T19:25:22.614Z</time>
      </trkpt>
      <trkpt lat="47.7998" lon="-3.49669">
        <ele>45.5833497207</ele>
        <time>2021-03-15T19:25:33.165Z</time>
      </trkpt>
      <trkpt lat="47.7998" lon="-3.49669">
        <ele>45.22994443476</ele>
        <time>2021-03-15T19:25:43.716Z</time>
      </trkpt>
      <trkpt lat="47.7998" lon="-3.49669">
        <ele>44.93693538295</ele>
        <time>2021-03-15T19:25:54.267Z</time>
      </trkpt>
      <trkpt lat="47.79926" lon="-3.49717">
        <ele>44.59506318863</ele>
        <time>2021-03-15T19:26:04.828Z</time>
      </trkpt>
      <trkpt lat="47.79906" lon="-3.49745">
        <ele>44.46172979882</ele>
        <time>2021-03-15T19:26:15.394Z</time>
      </trkpt>
      <trkpt lat="47.79881" lon="-3.49761">
        <ele>44.38622213074</ele>
        <time>2021-03-15T19:26:25.964Z</time>
      </trkpt>
      <trkpt lat="47.79819" lon="-3.49747">
        <ele>44.36627495281</ele>
        <time>2021-03-15T19:26:36.544Z</time>
      </trkpt>
      <trkpt lat="47.79782" lon="-3.49738">
        <ele>44.3654776494</ele>
        <time>2021-03-15T19:26:47.130Z</time>
      </trkpt>
      <trkpt lat="47.79758" lon="-3.49721">
        <ele>44.42742360023</ele>
        <time>2021-03-15T19:26:57.720Z</time>
      </trkpt>
      <trkpt lat="47.79722" lon="-3.49681">
        <ele>44.55025398259</ele>
        <time>2021-03-15T19:27:08.318Z</time>
      </trkpt>
      <trkpt lat="47.79693" lon="-3.49668">
        <ele>44.63224888281</ele>
        <time>2021-03-15T19:27:18.921Z</time>
      </trkpt>
      <trkpt lat="47.79669" lon="-3.49638">
        <ele>44.75484961793</ele>
        <time>2021-03-15T19:27:29.529Z</time>
      </trkpt>
      <trkpt lat="47.79671" lon="-3.49631">
        <ele>44.92026511213</ele>
        <time>2021-03-15T19:27:40.137Z</time>
      </trkpt>
      <trkpt lat="47.79669" lon="-3.49624">
        <ele>45.11690779484</ele>
        <time>2021-03-15T19:27:50.746Z</time>
      </trkpt>
      <trkpt lat="47.79665" lon="-3.49622">
        <ele>45.33458976704</ele>
        <time>2021-03-15T19:28:01.356Z</time>
      </trkpt>
      <trkpt lat="47.79659" lon="-3.49623">
        <ele>45.56823724512</ele>
        <time>2021-03-15T19:28:11.967Z</time>
      </trkpt>
      <trkpt lat="47.79628" lon="-3.49576">
        <ele>45.87526760042</ele>
        <time>2021-03-15T19:28:22.585Z</time>
      </trkpt>
      <trkpt lat="47.79618" lon="-3.49554">
        <ele>46.12033889906</ele>
        <time>2021-03-15T19:28:33.206Z</time>
      </trkpt>
      <trkpt lat="47.79588" lon="-3.49428">
        <ele>46.31459792525</ele>
        <time>2021-03-15T19:28:43.841Z</time>
      </trkpt>
      <trkpt lat="47.79568" lon="-3.49385">
        <ele>46.50369154181</ele>
        <time>2021-03-15T19:28:54.482Z</time>
      </trkpt>
      <trkpt lat="47.79522" lon="-3.49319">
        <ele>46.75035670313</ele>
        <time>2021-03-15T19:29:05.133Z</time>
      </trkpt>
      <trkpt lat="47.79464" lon="-3.49243">
        <ele>46.87996506734</ele>
        <time>2021-03-15T19:29:15.796Z</time>
      </trkpt>
      <trkpt lat="47.7939" lon="-3.49174">
        <ele>47.11848640531</ele>
        <time>2021-03-15T19:29:26.473Z</time>
      </trkpt>
      <trkpt lat="47.79376" lon="-3.49163">
        <ele>47.34096937316</ele>
        <time>2021-03-15T19:29:37.153Z</time>
      </trkpt>
      <trkpt lat="47.79325" lon="-3.49149">
        <ele>47.50251869147</ele>
        <time>2021-03-15T19:29:47.841Z</time>
      </trkpt>
      <trkpt lat="47.79302" lon="-3.49149">
        <ele>47.67185701283</ele>
        <time>2021-03-15T19:29:58.533Z</time>
      </trkpt>
      <trkpt lat="47.79295" lon="-3.4915">
        <ele>47.89883458482</ele>
        <time>2021-03-15T19:30:09.226Z</time>
      </trkpt>
      <trkpt lat="47.79284" lon="-3.49155">
        <ele>48.13992711753</ele>
        <time>2021-03-15T19:30:19.921Z</time>
      </trkpt>
      <trkpt lat="47.7928" lon="-3.49147">
        <ele>48.42097742165</ele>
        <time>2021-03-15T19:30:30.617Z</time>
      </trkpt>
      <trkpt lat="47.79274" lon="-3.49143">
        <ele>48.70933041308</ele>
        <time>2021-03-15T19:30:41.314Z</time>
      </trkpt>
      <trkpt lat="47.79269" lon="-3.49145">
        <ele>49.01802742651</ele>
        <time>2021-03-15T19:30:52.012Z</time>
      </trkpt>
      <trkpt lat="47.79266" lon="-3.4915">
        <ele>49.34924569006</ele>
        <time>2021-03-15T19:31:02.711Z</time>
      </trkpt>
      <trkpt lat="47.79264" lon="-3.49157">
        <ele>49.69692601182</ele>
        <time>2021-03-15T19:31:13.410Z</time>
      </trkpt>
      <trkpt lat="47.79267" lon="-3.49169">
        <ele>50.04734201756</ele>
        <time>2021-03-15T19:31:24.111Z</time>
      </trkpt>
      <trkpt lat="47.79263" lon="-3.49218">
        <ele>50.40548353963</ele>
        <time>2021-03-15T19:31:34.817Z</time>
      </trkpt>
      <trkpt lat="47.79267" lon="-3.49242">
        <ele>50.81267083931</ele>
        <time>2021-03-15T19:31:45.526Z</time>
      </trkpt>
      <trkpt lat="47.79272" lon="-3.49255">
        <ele>51.13697640154</ele>
        <time>2021-03-15T19:31:56.236Z</time>
      </trkpt>
      <trkpt lat="47.79276" lon="-3.4931">
        <ele>51.48604341446</ele>
        <time>2021-03-15T19:32:06.952Z</time>
      </trkpt>
      <trkpt lat="47.79276" lon="-3.49401">
        <ele>51.81141398618</ele>
        <time>2021-03-15T19:32:17.678Z</time>
      </trkpt>
      <trkpt lat="47.79279" lon="-3.49439">
        <ele>51.94842013273</ele>
        <time>2021-03-15T19:32:28.408Z</time>
      </trkpt>
      <trkpt lat="47.79287" lon="-3.49482">
        <ele>51.96438273954</ele>
        <time>2021-03-15T19:32:39.143Z</time>
      </trkpt>
      <trkpt lat="47.79317" lon="-3.49579">
        <ele>51.82678877209</ele>
        <time>2021-03-15T19:32:49.890Z</time>
      </trkpt>
      <trkpt lat="47.79346" lon="-3.49676">
        <ele>51.65319635691</ele>
        <time>2021-03-15T19:33:00.648Z</time>
      </trkpt>
      <trkpt lat="47.7935" lon="-3.49757">
        <ele>51.30795933156</ele>
        <time>2021-03-15T19:33:11.415Z</time>
      </trkpt>
      <trkpt lat="47.79344" lon="-3.49759">
        <ele>50.83300112209</ele>
        <time>2021-03-15T19:33:22.183Z</time>
      </trkpt>
      <trkpt lat="47.7934" lon="-3.4977">
        <ele>50.23099259914</ele>
        <time>2021-03-15T19:33:32.952Z</time>
      </trkpt>
      <trkpt lat="47.79342" lon="-3.49778">
        <ele>49.53516154902</ele>
        <time>2021-03-15T19:33:43.722Z</time>
      </trkpt>
      <trkpt lat="47.79344" lon="-3.4978">
        <ele>48.75934320102</ele>
        <time>2021-03-15T19:33:54.493Z</time>
      </trkpt>
      <trkpt lat="47.79349" lon="-3.49782">
        <ele>47.91798045749</ele>
        <time>2021-03-15T19:34:05.264Z</time>
      </trkpt>
      <trkpt lat="47.79348" lon="-3.49879">
        <ele>46.86286966035</ele>
        <time>2021-03-15T19:34:16.046Z</time>
      </trkpt>
      <trkpt lat="47.7935" lon="-3.49922">
        <ele>45.86273568915</ele>
        <time>2021-03-15T19:34:26.832Z</time>
      </trkpt>
      <trkpt lat="47.7936" lon="-3.49996">
        <ele>44.80617831092</ele>
        <time>2021-03-15T19:34:37.627Z</time>
      </trkpt>
      <trkpt lat="47.79369" lon="-3.5007">
        <ele>43.85512323443</ele>
        <time>2021-03-15T19:34:48.430Z</time>
      </trkpt>
      <trkpt lat="47.79374" lon="-3.50093">
        <ele>43.02359683171</ele>
        <time>2021-03-15T19:34:59.235Z</time>
      </trkpt>
      <trkpt lat="47.7937" lon="-3.50096">
        <ele>42.35155433784</ele>
        <time>2021-03-15T19:35:10.041Z</time>
      </trkpt>
      <trkpt lat="47.79367" lon="-3.50103">
        <ele>41.79998289513</ele>
        <time>2021-03-15T19:35:20.848Z</time>
      </trkpt>
      <trkpt lat="47.79367" lon="-3.50112">
        <ele>41.39849942592</ele>
        <time>2021-03-15T19:35:31.656Z</time>
      </trkpt>
      <trkpt lat="47.79371" lon="-3.50118">
        <ele>41.17304388954</ele>
        <time>2021-03-15T19:35:42.465Z</time>
      </trkpt>
      <trkpt lat="47.79378" lon="-3.50119">
        <ele>41.14196448584</ele>
        <time>2021-03-15T19:35:53.275Z</time>
      </trkpt>
      <trkpt lat="47.79376" lon="-3.50137">
        <ele>41.24750484598</ele>
        <time>2021-03-15T19:36:04.087Z</time>
      </trkpt>
      <trkpt lat="47.79386" lon="-3.50221">
        <ele>41.5260607905</ele>
        <time>2021-03-15T19:36:14.908Z</time>
      </trkpt>
      <trkpt lat="47.79395" lon="-3.50305">
        <ele>41.97300425991</ele>
        <time>2021-03-15T19:36:25.738Z</time>
      </trkpt>
      <trkpt lat="47.79406" lon="-3.50356">
        <ele>42.8154810846</ele>
        <time>2021-03-15T19:36:36.574Z</time>
      </trkpt>
      <trkpt lat="47.79436" lon="-3.50439">
        <ele>43.74489637418</ele>
        <time>2021-03-15T19:36:47.420Z</time>
      </trkpt>
      <trkpt lat="47.79466" lon="-3.50522">
        <ele>44.75201540136</ele>
        <time>2021-03-15T19:36:58.276Z</time>
      </trkpt>
      <trkpt lat="47.79485" lon="-3.50584">
        <ele>45.81219684578</ele>
        <time>2021-03-15T19:37:09.140Z</time>
      </trkpt>
      <trkpt lat="47.79491" lon="-3.50613">
        <ele>46.8311591765</ele>
        <time>2021-03-15T19:37:20.007Z</time>
      </trkpt>
      <trkpt lat="47.79494" lon="-3.50646">
        <ele>47.82140428386</ele>
        <time>2021-03-15T19:37:30.878Z</time>
      </trkpt>
      <trkpt lat="47.79493" lon="-3.50752">
        <ele>48.7861529381</ele>
        <time>2021-03-15T19:37:41.760Z</time>
      </trkpt>
      <trkpt lat="47.79492" lon="-3.50858">
        <ele>49.63186030029</ele>
        <time>2021-03-15T19:37:52.654Z</time>
      </trkpt>
      <trkpt lat="47.7949" lon="-3.509">
        <ele>50.29648529137</ele>
        <time>2021-03-15T19:38:03.552Z</time>
      </trkpt>
      <trkpt lat="47.79483" lon="-3.50984">
        <ele>50.81136025377</ele>
        <time>2021-03-15T19:38:14.459Z</time>
      </trkpt>
      <trkpt lat="47.79476" lon="-3.51067">
        <ele>51.19889323299</ele>
        <time>2021-03-15T19:38:25.375Z</time>
      </trkpt>
      <trkpt lat="47.79473" lon="-3.51145">
        <ele>51.35930269387</ele>
        <time>2021-03-15T19:38:36.300Z</time>
      </trkpt>
      <trkpt lat="47.79469" lon="-3.51222">
        <ele>51.34601292915</ele>
        <time>2021-03-15T19:38:47.233Z</time>
      </trkpt>
      <trkpt lat="47.79462" lon="-3.51302">
        <ele>51.23702901358</ele>
        <time>2021-03-15T19:38:58.175Z</time>
      </trkpt>
      <trkpt lat="47.79452" lon="-3.51384">
        <ele>50.98966937474</ele>
        <time>2021-03-15T19:39:09.126Z</time>
      </trkpt>
      <trkpt lat="47.79442" lon="-3.51465">
        <ele>50.53706772064</ele>
        <time>2021-03-15T19:39:20.086Z</time>
      </trkpt>
      <trkpt lat="47.79436" lon="-3.51494">
        <ele>50.03424635965</ele>
        <time>2021-03-15T19:39:31.049Z</time>
      </trkpt>
      <trkpt lat="47.79412" lon="-3.51561">
        <ele>49.38164567095</ele>
        <time>2021-03-15T19:39:42.020Z</time>
      </trkpt>
      <trkpt lat="47.79386" lon="-3.51615">
        <ele>48.59781760338</ele>
        <time>2021-03-15T19:39:52.998Z</time>
      </trkpt>
      <trkpt lat="47.79338" lon="-3.51691">
        <ele>47.60213034341</ele>
        <time>2021-03-15T19:40:03.987Z</time>
      </trkpt>
      <trkpt lat="47.79289" lon="-3.51768">
        <ele>46.60180541023</ele>
        <time>2021-03-15T19:40:14.988Z</time>
      </trkpt>
      <trkpt lat="47.79241" lon="-3.51844">
        <ele>45.5124119558</ele>
        <time>2021-03-15T19:40:26.000Z</time>
      </trkpt>
      <trkpt lat="47.79233" lon="-3.5186">
        <ele>44.45512608238</ele>
        <time>2021-03-15T19:40:37.014Z</time>
      </trkpt>
      <trkpt lat="47.79226" lon="-3.51882">
        <ele>43.34701563582</ele>
        <time>2021-03-15T19:40:48.031Z</time>
      </trkpt>
      <trkpt lat="47.79215" lon="-3.51935">
        <ele>42.24636409521</ele>
        <time>2021-03-15T19:40:59.054Z</time>
      </trkpt>
      <trkpt lat="47.79212" lon="-3.51975">
        <ele>41.06357237555</ele>
        <time>2021-03-15T19:41:10.081Z</time>
      </trkpt>
      <trkpt lat="47.7921" lon="-3.52047">
        <ele>39.79852107696</ele>
        <time>2021-03-15T19:41:21.116Z</time>
      </trkpt>
      <trkpt lat="47.79208" lon="-3.52119">
        <ele>38.45006090369</ele>
        <time>2021-03-15T19:41:32.159Z</time>
      </trkpt>
      <trkpt lat="47.79209" lon="-3.52175">
        <ele>37.15116623639</ele>
        <time>2021-03-15T19:41:43.208Z</time>
      </trkpt>
      <trkpt lat="47.79216" lon="-3.52238">
        <ele>35.86905176631</ele>
        <time>2021-03-15T19:41:54.264Z</time>
      </trkpt>
      <trkpt lat="47.79224" lon="-3.52272">
        <ele>34.54647650455</ele>
        <time>2021-03-15T19:42:05.324Z</time>
      </trkpt>
      <trkpt lat="47.79238" lon="-3.52308">
        <ele>33.18839657367</ele>
        <time>2021-03-15T19:42:16.388Z</time>
      </trkpt>
      <trkpt lat="47.79265" lon="-3.52359">
        <ele>31.85577372897</ele>
        <time>2021-03-15T19:42:27.459Z</time>
      </trkpt>
      <trkpt lat="47.79291" lon="-3.52388">
        <ele>30.32129690921</ele>
        <time>2021-03-15T19:42:38.535Z</time>
      </trkpt>
      <trkpt lat="47.79309" lon="-3.52403">
        <ele>28.67673874206</ele>
        <time>2021-03-15T19:42:49.615Z</time>
      </trkpt>
      <trkpt lat="47.79334" lon="-3.52421">
        <ele>26.88541772438</ele>
        <time>2021-03-15T19:43:00.699Z</time>
      </trkpt>
      <trkpt lat="47.79353" lon="-3.52428">
        <ele>25.15476535703</ele>
        <time>2021-03-15T19:43:11.786Z</time>
      </trkpt>
      <trkpt lat="47.79397" lon="-3.52436">
        <ele>23.42387610402</ele>
        <time>2021-03-15T19:43:22.880Z</time>
      </trkpt>
      <trkpt lat="47.79416" lon="-3.52436">
        <ele>21.73466803589</ele>
        <time>2021-03-15T19:43:33.977Z</time>
      </trkpt>
      <trkpt lat="47.79436" lon="-3.52435">
        <ele>20.08069550571</ele>
        <time>2021-03-15T19:43:45.077Z</time>
      </trkpt>
      <trkpt lat="47.79497" lon="-3.52418">
        <ele>18.46641449293</ele>
        <time>2021-03-15T19:43:56.187Z</time>
      </trkpt>
      <trkpt lat="47.79544" lon="-3.52401">
        <ele>17.02480670273</ele>
        <time>2021-03-15T19:44:07.305Z</time>
      </trkpt>
      <trkpt lat="47.79591" lon="-3.52383">
        <ele>15.7199207873</ele>
        <time>2021-03-15T19:44:18.431Z</time>
      </trkpt>
      <trkpt lat="47.79625" lon="-3.52374">
        <ele>14.548642378</ele>
        <time>2021-03-15T19:44:29.562Z</time>
      </trkpt>
      <trkpt lat="47.79685" lon="-3.52352">
        <ele>13.27443076666</ele>
        <time>2021-03-15T19:44:40.703Z</time>
      </trkpt>
      <trkpt lat="47.79686" lon="-3.52352">
        <ele>12.94225124493</ele>
        <time>2021-03-15T19:44:51.844Z</time>
      </trkpt>
      <trkpt lat="47.79763" lon="-3.52324">
        <ele>13.01508344653</ele>
        <time>2021-03-15T19:45:02.998Z</time>
      </trkpt>
      <trkpt lat="47.7984" lon="-3.52296">
        <ele>13.77908317785</ele>
        <time>2021-03-15T19:45:14.165Z</time>
      </trkpt>
      <trkpt lat="47.79864" lon="-3.52288">
        <ele>14.70140686675</ele>
        <time>2021-03-15T19:45:25.336Z</time>
      </trkpt>
      <trkpt lat="47.79905" lon="-3.52292">
        <ele>15.99765650171</ele>
        <time>2021-03-15T19:45:36.513Z</time>
      </trkpt>
      <trkpt lat="47.79924" lon="-3.52298">
        <ele>17.48830389601</ele>
        <time>2021-03-15T19:45:47.694Z</time>
      </trkpt>
      <trkpt lat="47.79944" lon="-3.52307">
        <ele>19.26223028296</ele>
        <time>2021-03-15T19:45:58.878Z</time>
      </trkpt>
      <trkpt lat="47.79971" lon="-3.52326">
        <ele>21.29318223739</ele>
        <time>2021-03-15T19:46:10.067Z</time>
      </trkpt>
      <trkpt lat="47.79998" lon="-3.52362">
        <ele>23.54894797043</ele>
        <time>2021-03-15T19:46:21.261Z</time>
      </trkpt>
      <trkpt lat="47.80021" lon="-3.52415">
        <ele>26.08775977756</ele>
        <time>2021-03-15T19:46:32.462Z</time>
      </trkpt>
      <trkpt lat="47.80029" lon="-3.52447">
        <ele>28.46980995385</ele>
        <time>2021-03-15T19:46:43.667Z</time>
      </trkpt>
      <trkpt lat="47.80038" lon="-3.52515">
        <ele>30.82596890252</ele>
        <time>2021-03-15T19:46:54.879Z</time>
      </trkpt>
      <trkpt lat="47.8004" lon="-3.52629">
        <ele>33.31352629814</ele>
        <time>2021-03-15T19:47:06.104Z</time>
      </trkpt>
      <trkpt lat="47.80041" lon="-3.52744">
        <ele>35.77895997301</ele>
        <time>2021-03-15T19:47:17.341Z</time>
      </trkpt>
      <trkpt lat="47.80043" lon="-3.52858">
        <ele>38.26759067347</ele>
        <time>2021-03-15T19:47:28.590Z</time>
      </trkpt>
      <trkpt lat="47.80044" lon="-3.52973">
        <ele>40.65148929889</ele>
        <time>2021-03-15T19:47:39.852Z</time>
      </trkpt>
      <trkpt lat="47.80042" lon="-3.53054">
        <ele>42.80979772984</ele>
        <time>2021-03-15T19:47:51.123Z</time>
      </trkpt>
      <trkpt lat="47.80036" lon="-3.53109">
        <ele>44.96592126595</ele>
        <time>2021-03-15T19:48:02.400Z</time>
      </trkpt>
      <trkpt lat="47.80008" lon="-3.53217">
        <ele>47.03919669009</ele>
        <time>2021-03-15T19:48:13.689Z</time>
      </trkpt>
      <trkpt lat="47.7998" lon="-3.53325">
        <ele>48.89959338212</ele>
        <time>2021-03-15T19:48:24.991Z</time>
      </trkpt>
      <trkpt lat="47.79948" lon="-3.53431">
        <ele>50.65825348198</ele>
        <time>2021-03-15T19:48:36.305Z</time>
      </trkpt>
      <trkpt lat="47.79916" lon="-3.53538">
        <ele>52.10616485106</ele>
        <time>2021-03-15T19:48:47.632Z</time>
      </trkpt>
      <trkpt lat="47.79883" lon="-3.53644">
        <ele>53.22682036811</ele>
        <time>2021-03-15T19:48:58.971Z</time>
      </trkpt>
      <trkpt lat="47.79851" lon="-3.5375">
        <ele>54.05374077022</ele>
        <time>2021-03-15T19:49:10.323Z</time>
      </trkpt>
      <trkpt lat="47.79832" lon="-3.53807">
        <ele>54.64128612589</ele>
        <time>2021-03-15T19:49:21.682Z</time>
      </trkpt>
      <trkpt lat="47.79798" lon="-3.53914">
        <ele>55.12275625314</ele>
        <time>2021-03-15T19:49:33.053Z</time>
      </trkpt>
      <trkpt lat="47.79765" lon="-3.54021">
        <ele>55.47015120246</ele>
        <time>2021-03-15T19:49:44.437Z</time>
      </trkpt>
      <trkpt lat="47.79731" lon="-3.54128">
        <ele>55.6541518905</ele>
        <time>2021-03-15T19:49:55.834Z</time>
      </trkpt>
      <trkpt lat="47.79722" lon="-3.54164">
        <ele>55.71618911108</ele>
        <time>2021-03-15T19:50:07.235Z</time>
      </trkpt>
      <trkpt lat="47.79715" lon="-3.54211">
        <ele>55.65722523923</ele>
        <time>2021-03-15T19:50:18.641Z</time>
      </trkpt>
      <trkpt lat="47.79712" lon="-3.54253">
        <ele>55.54038887254</ele>
        <time>2021-03-15T19:50:30.052Z</time>
      </trkpt>
      <trkpt lat="47.79712" lon="-3.54293">
        <ele>55.40096733892</ele>
        <time>2021-03-15T19:50:41.467Z</time>
      </trkpt>
      <trkpt lat="47.79717" lon="-3.54354">
        <ele>55.28676993942</ele>
        <time>2021-03-15T19:50:52.889Z</time>
      </trkpt>
      <trkpt lat="47.79733" lon="-3.5446">
        <ele>55.02948733068</ele>
        <time>2021-03-15T19:51:04.322Z</time>
      </trkpt>
      <trkpt lat="47.7975" lon="-3.54565">
        <ele>54.59844097785</ele>
        <time>2021-03-15T19:51:15.767Z</time>
      </trkpt>
      <trkpt lat="47.79766" lon="-3.54671">
        <ele>54.29733770815</ele>
        <time>2021-03-15T19:51:27.224Z</time>
      </trkpt>
      <trkpt lat="47.79774" lon="-3.54715">
        <ele>53.97027400719</ele>
        <time>2021-03-15T19:51:38.686Z</time>
      </trkpt>
      <trkpt lat="47.79784" lon="-3.54756">
        <ele>53.71125080221</ele>
        <time>2021-03-15T19:51:50.152Z</time>
      </trkpt>
      <trkpt lat="47.79809" lon="-3.5483">
        <ele>53.5872252523</ele>
        <time>2021-03-15T19:52:01.627Z</time>
      </trkpt>
      <trkpt lat="47.79834" lon="-3.54905">
        <ele>53.395660417</ele>
        <time>2021-03-15T19:52:13.111Z</time>
      </trkpt>
      <trkpt lat="47.79874" lon="-3.55018">
        <ele>53.13054011936</ele>
        <time>2021-03-15T19:52:24.609Z</time>
      </trkpt>
      <trkpt lat="47.79913" lon="-3.55131">
        <ele>52.94800081445</ele>
        <time>2021-03-15T19:52:36.121Z</time>
      </trkpt>
      <trkpt lat="47.79953" lon="-3.55244">
        <ele>52.74186157746</ele>
        <time>2021-03-15T19:52:47.647Z</time>
      </trkpt>
      <trkpt lat="47.79992" lon="-3.55357">
        <ele>52.49452815851</ele>
        <time>2021-03-15T19:52:59.186Z</time>
      </trkpt>
      <trkpt lat="47.80032" lon="-3.5547">
        <ele>52.26342203403</ele>
        <time>2021-03-15T19:53:10.739Z</time>
      </trkpt>
      <trkpt lat="47.80055" lon="-3.55523">
        <ele>51.9846863982</ele>
        <time>2021-03-15T19:53:22.299Z</time>
      </trkpt>
      <trkpt lat="47.80049" lon="-3.55534">
        <ele>51.80044512981</ele>
        <time>2021-03-15T19:53:33.860Z</time>
      </trkpt>
      <trkpt lat="47.8005" lon="-3.55547">
        <ele>51.64274365631</ele>
        <time>2021-03-15T19:53:45.423Z</time>
      </trkpt>
      <trkpt lat="47.80053" lon="-3.55553">
        <ele>51.50682223253</ele>
        <time>2021-03-15T19:53:56.987Z</time>
      </trkpt>
      <trkpt lat="47.80062" lon="-3.55556">
        <ele>51.40696894781</ele>
        <time>2021-03-15T19:54:08.552Z</time>
      </trkpt>
      <trkpt lat="47.80091" lon="-3.55634">
        <ele>51.31800708915</ele>
        <time>2021-03-15T19:54:20.127Z</time>
      </trkpt>
      <trkpt lat="47.8012" lon="-3.55712">
        <ele>51.28890258024</ele>
        <time>2021-03-15T19:54:31.711Z</time>
      </trkpt>
      <trkpt lat="47.80151" lon="-3.55815">
        <ele>51.33476366893</ele>
        <time>2021-03-15T19:54:43.308Z</time>
      </trkpt>
      <trkpt lat="47.80182" lon="-3.55918">
        <ele>51.42245431006</ele>
        <time>2021-03-15T19:54:54.917Z</time>
      </trkpt>
      <trkpt lat="47.80208" lon="-3.56022">
        <ele>51.710946412</ele>
        <time>2021-03-15T19:55:06.538Z</time>
      </trkpt>
      <trkpt lat="47.80218" lon="-3.56071">
        <ele>52.08377269921</ele>
        <time>2021-03-15T19:55:18.164Z</time>
      </trkpt>
      <trkpt lat="47.80227" lon="-3.56136">
        <ele>52.54194039604</ele>
        <time>2021-03-15T19:55:29.797Z</time>
      </trkpt>
      <trkpt lat="47.80231" lon="-3.56224">
        <ele>53.1015718185</ele>
        <time>2021-03-15T19:55:41.440Z</time>
      </trkpt>
      <trkpt lat="47.80231" lon="-3.56311">
        <ele>53.96851742311</ele>
        <time>2021-03-15T19:55:53.092Z</time>
      </trkpt>
      <trkpt lat="47.80227" lon="-3.56416">
        <ele>54.84045143079</ele>
        <time>2021-03-15T19:56:04.756Z</time>
      </trkpt>
      <trkpt lat="47.80222" lon="-3.56487">
        <ele>55.81113710735</ele>
        <time>2021-03-15T19:56:16.427Z</time>
      </trkpt>
      <trkpt lat="47.80212" lon="-3.56539">
        <ele>56.79937072503</ele>
        <time>2021-03-15T19:56:28.104Z</time>
      </trkpt>
      <trkpt lat="47.80192" lon="-3.56612">
        <ele>57.78556672591</ele>
        <time>2021-03-15T19:56:39.790Z</time>
      </trkpt>
      <trkpt lat="47.80171" lon="-3.56679">
        <ele>58.76900490194</ele>
        <time>2021-03-15T19:56:51.484Z</time>
      </trkpt>
      <trkpt lat="47.80133" lon="-3.56784">
        <ele>59.87041081408</ele>
        <time>2021-03-15T19:57:03.191Z</time>
      </trkpt>
      <trkpt lat="47.80095" lon="-3.5689">
        <ele>60.94947696879</ele>
        <time>2021-03-15T19:57:14.910Z</time>
      </trkpt>
      <trkpt lat="47.80056" lon="-3.56995">
        <ele>61.90651489748</ele>
        <time>2021-03-15T19:57:26.642Z</time>
      </trkpt>
      <trkpt lat="47.80018" lon="-3.57101">
        <ele>62.83323264447</ele>
        <time>2021-03-15T19:57:38.387Z</time>
      </trkpt>
      <trkpt lat="47.7998" lon="-3.57206">
        <ele>63.63743847569</ele>
        <time>2021-03-15T19:57:50.145Z</time>
      </trkpt>
      <trkpt lat="47.79942" lon="-3.57312">
        <ele>64.34263139357</ele>
        <time>2021-03-15T19:58:01.916Z</time>
      </trkpt>
      <trkpt lat="47.79903" lon="-3.57417">
        <ele>64.95822835468</ele>
        <time>2021-03-15T19:58:13.700Z</time>
      </trkpt>
      <trkpt lat="47.79894" lon="-3.57457">
        <ele>65.37563395317</ele>
        <time>2021-03-15T19:58:25.489Z</time>
      </trkpt>
      <trkpt lat="47.79882" lon="-3.57486">
        <ele>65.65978630399</ele>
        <time>2021-03-15T19:58:37.281Z</time>
      </trkpt>
      <trkpt lat="47.79862" lon="-3.57583">
        <ele>65.88991422174</ele>
        <time>2021-03-15T19:58:49.084Z</time>
      </trkpt>
      <trkpt lat="47.79846" lon="-3.57672">
        <ele>65.89517529521</ele>
        <time>2021-03-15T19:59:00.897Z</time>
      </trkpt>
      <trkpt lat="47.7983" lon="-3.57761">
        <ele>65.708715395</ele>
        <time>2021-03-15T19:59:12.720Z</time>
      </trkpt>
      <trkpt lat="47.79803" lon="-3.57881">
        <ele>65.57372234082</ele>
        <time>2021-03-15T19:59:24.557Z</time>
      </trkpt>
      <trkpt lat="47.79784" lon="-3.5795">
        <ele>65.23578884751</ele>
        <time>2021-03-15T19:59:36.402Z</time>
      </trkpt>
      <trkpt lat="47.79765" lon="-3.58019">
        <ele>64.85780410156</ele>
        <time>2021-03-15T19:59:48.255Z</time>
      </trkpt>
      <trkpt lat="47.79729" lon="-3.58124">
        <ele>64.47205638881</ele>
        <time>2021-03-15T20:00:00.120Z</time>
      </trkpt>
      <trkpt lat="47.79692" lon="-3.58228">
        <ele>63.92360156083</ele>
        <time>2021-03-15T20:00:11.998Z</time>
      </trkpt>
      <trkpt lat="47.79674" lon="-3.58286">
        <ele>63.34081976329</ele>
        <time>2021-03-15T20:00:23.883Z</time>
      </trkpt>
      <trkpt lat="47.79658" lon="-3.58359">
        <ele>62.78501604557</ele>
        <time>2021-03-15T20:00:35.776Z</time>
      </trkpt>
      <trkpt lat="47.79661" lon="-3.58428">
        <ele>62.1035131785</ele>
        <time>2021-03-15T20:00:47.677Z</time>
      </trkpt>
      <trkpt lat="47.79652" lon="-3.58531">
        <ele>61.51151813298</ele>
        <time>2021-03-15T20:00:59.589Z</time>
      </trkpt>
      <trkpt lat="47.79645" lon="-3.58555">
        <ele>60.94721544292</ele>
        <time>2021-03-15T20:01:11.504Z</time>
      </trkpt>
      <trkpt lat="47.79659" lon="-3.5857">
        <ele>60.38404010246</ele>
        <time>2021-03-15T20:01:23.422Z</time>
      </trkpt>
      <trkpt lat="47.79701" lon="-3.58667">
        <ele>59.74259607374</ele>
        <time>2021-03-15T20:01:35.352Z</time>
      </trkpt>
      <trkpt lat="47.79712" lon="-3.58688">
        <ele>59.24409105161</ele>
        <time>2021-03-15T20:01:47.285Z</time>
      </trkpt>
      <trkpt lat="47.79716" lon="-3.58699">
        <ele>58.82361053226</ele>
        <time>2021-03-15T20:01:59.219Z</time>
      </trkpt>
      <trkpt lat="47.7976" lon="-3.58746">
        <ele>58.38722258785</ele>
        <time>2021-03-15T20:02:11.162Z</time>
      </trkpt>
      <trkpt lat="47.79796" lon="-3.588">
        <ele>58.11347663083</ele>
        <time>2021-03-15T20:02:23.113Z</time>
      </trkpt>
      <trkpt lat="47.79807" lon="-3.58828">
        <ele>57.97919347723</ele>
        <time>2021-03-15T20:02:35.068Z</time>
      </trkpt>
      <trkpt lat="47.79825" lon="-3.58898">
        <ele>57.95466110894</ele>
        <time>2021-03-15T20:02:47.031Z</time>
      </trkpt>
      <trkpt lat="47.79844" lon="-3.58955">
        <ele>58.02519612994</ele>
        <time>2021-03-15T20:02:59.001Z</time>
      </trkpt>
      <trkpt lat="47.79884" lon="-3.59057">
        <ele>58.11462518481</ele>
        <time>2021-03-15T20:03:10.983Z</time>
      </trkpt>
      <trkpt lat="47.79907" lon="-3.5912">
        <ele>58.33923784596</ele>
        <time>2021-03-15T20:03:22.973Z</time>
      </trkpt>
      <trkpt lat="47.79942" lon="-3.59219">
        <ele>58.58927874279</ele>
        <time>2021-03-15T20:03:34.975Z</time>
      </trkpt>
      <trkpt lat="47.79977" lon="-3.59317">
        <ele>58.98963758648</ele>
        <time>2021-03-15T20:03:46.989Z</time>
      </trkpt>
      <trkpt lat="47.80011" lon="-3.59416">
        <ele>59.3609828739</ele>
        <time>2021-03-15T20:03:59.015Z</time>
      </trkpt>
      <trkpt lat="47.80046" lon="-3.59515">
        <ele>59.76757820993</ele>
        <time>2021-03-15T20:04:11.053Z</time>
      </trkpt>
      <trkpt lat="47.80067" lon="-3.59635">
        <ele>60.14648287086</ele>
        <time>2021-03-15T20:04:23.104Z</time>
      </trkpt>
      <trkpt lat="47.80087" lon="-3.59755">
        <ele>60.53676631668</ele>
        <time>2021-03-15T20:04:35.169Z</time>
      </trkpt>
      <trkpt lat="47.80108" lon="-3.59875">
        <ele>61.15014474572</ele>
        <time>2021-03-15T20:04:47.247Z</time>
      </trkpt>
      <trkpt lat="47.80128" lon="-3.59995">
        <ele>61.5660835288</ele>
        <time>2021-03-15T20:04:59.339Z</time>
      </trkpt>
      <trkpt lat="47.80154" lon="-3.60119">
        <ele>61.99589703033</ele>
        <time>2021-03-15T20:05:11.445Z</time>
      </trkpt>
      <trkpt lat="47.80179" lon="-3.60244">
        <ele>62.32603823326</ele>
        <time>2021-03-15T20:05:23.565Z</time>
      </trkpt>
      <trkpt lat="47.80187" lon="-3.60305">
        <ele>62.5210746667</ele>
        <time>2021-03-15T20:05:35.691Z</time>
      </trkpt>
      <trkpt lat="47.80188" lon="-3.60396">
        <ele>62.61834975635</ele>
        <time>2021-03-15T20:05:47.827Z</time>
      </trkpt>
      <trkpt lat="47.80183" lon="-3.6048">
        <ele>62.64658741529</ele>
        <time>2021-03-15T20:05:59.972Z</time>
      </trkpt>
      <trkpt lat="47.80177" lon="-3.60563">
        <ele>62.64164737739</ele>
        <time>2021-03-15T20:06:12.126Z</time>
      </trkpt>
      <trkpt lat="47.80173" lon="-3.60665">
        <ele>62.72936283338</ele>
        <time>2021-03-15T20:06:24.291Z</time>
      </trkpt>
      <trkpt lat="47.80173" lon="-3.6078">
        <ele>62.69125834126</ele>
        <time>2021-03-15T20:06:36.469Z</time>
      </trkpt>
      <trkpt lat="47.80173" lon="-3.60895">
        <ele>62.34033210669</ele>
        <time>2021-03-15T20:06:48.659Z</time>
      </trkpt>
      <trkpt lat="47.80179" lon="-3.6099">
        <ele>62.26010383634</ele>
        <time>2021-03-15T20:07:00.859Z</time>
      </trkpt>
      <trkpt lat="47.80177" lon="-3.61077">
        <ele>62.19541564284</ele>
        <time>2021-03-15T20:07:13.069Z</time>
      </trkpt>
      <trkpt lat="47.80177" lon="-3.61167">
        <ele>61.87506672847</ele>
        <time>2021-03-15T20:07:25.288Z</time>
      </trkpt>
      <trkpt lat="47.80176" lon="-3.61256">
        <ele>61.53858363492</ele>
        <time>2021-03-15T20:07:37.517Z</time>
      </trkpt>
      <trkpt lat="47.80178" lon="-3.61322">
        <ele>61.149856378</ele>
        <time>2021-03-15T20:07:49.753Z</time>
      </trkpt>
      <trkpt lat="47.80181" lon="-3.6139">
        <ele>60.81239269189</ele>
        <time>2021-03-15T20:08:01.997Z</time>
      </trkpt>
      <trkpt lat="47.80191" lon="-3.61487">
        <ele>60.44180647473</ele>
        <time>2021-03-15T20:08:14.251Z</time>
      </trkpt>
      <trkpt lat="47.80201" lon="-3.61585">
        <ele>60.11225650209</ele>
        <time>2021-03-15T20:08:26.516Z</time>
      </trkpt>
      <trkpt lat="47.80211" lon="-3.61682">
        <ele>59.70505180161</ele>
        <time>2021-03-15T20:08:38.791Z</time>
      </trkpt>
      <trkpt lat="47.8024" lon="-3.61772">
        <ele>59.30522385625</ele>
        <time>2021-03-15T20:08:51.077Z</time>
      </trkpt>
      <trkpt lat="47.80268" lon="-3.61863">
        <ele>59.03142032726</ele>
        <time>2021-03-15T20:09:03.374Z</time>
      </trkpt>
      <trkpt lat="47.80302" lon="-3.61979">
        <ele>58.81371450704</ele>
        <time>2021-03-15T20:09:15.685Z</time>
      </trkpt>
      <trkpt lat="47.80336" lon="-3.62094">
        <ele>58.50816003148</ele>
        <time>2021-03-15T20:09:28.009Z</time>
      </trkpt>
      <trkpt lat="47.80369" lon="-3.6221">
        <ele>58.35854571119</ele>
        <time>2021-03-15T20:09:40.347Z</time>
      </trkpt>
      <trkpt lat="47.80403" lon="-3.62326">
        <ele>58.16477303909</ele>
        <time>2021-03-15T20:09:52.698Z</time>
      </trkpt>
      <trkpt lat="47.80431" lon="-3.62418">
        <ele>57.96348624379</ele>
        <time>2021-03-15T20:10:05.060Z</time>
      </trkpt>
      <trkpt lat="47.80459" lon="-3.6251">
        <ele>57.85918308868</ele>
        <time>2021-03-15T20:10:17.433Z</time>
      </trkpt>
      <trkpt lat="47.80487" lon="-3.62603">
        <ele>57.79992566819</ele>
        <time>2021-03-15T20:10:29.817Z</time>
      </trkpt>
      <trkpt lat="47.80515" lon="-3.62695">
        <ele>57.76257998679</ele>
        <time>2021-03-15T20:10:42.212Z</time>
      </trkpt>
      <trkpt lat="47.8054" lon="-3.6275">
        <ele>57.73953939599</ele>
        <time>2021-03-15T20:10:54.614Z</time>
      </trkpt>
      <trkpt lat="47.80536" lon="-3.6276">
        <ele>57.65229084527</ele>
        <time>2021-03-15T20:11:07.017Z</time>
      </trkpt>
      <trkpt lat="47.80535" lon="-3.62766">
        <ele>57.55844980985</ele>
        <time>2021-03-15T20:11:19.421Z</time>
      </trkpt>
      <trkpt lat="47.80539" lon="-3.62778">
        <ele>57.44305943742</ele>
        <time>2021-03-15T20:11:31.827Z</time>
      </trkpt>
      <trkpt lat="47.80546" lon="-3.6278">
        <ele>57.29402942207</ele>
        <time>2021-03-15T20:11:44.234Z</time>
      </trkpt>
      <trkpt lat="47.80547" lon="-3.62793">
        <ele>57.09014852303</ele>
        <time>2021-03-15T20:11:56.642Z</time>
      </trkpt>
      <trkpt lat="47.80572" lon="-3.62861">
        <ele>56.87210092215</ele>
        <time>2021-03-15T20:12:09.058Z</time>
      </trkpt>
      <trkpt lat="47.80602" lon="-3.62952">
        <ele>56.5605604478</ele>
        <time>2021-03-15T20:12:21.485Z</time>
      </trkpt>
      <trkpt lat="47.80633" lon="-3.63043">
        <ele>56.08017281646</ele>
        <time>2021-03-15T20:12:33.923Z</time>
      </trkpt>
      <trkpt lat="47.80663" lon="-3.63134">
        <ele>55.53398817916</ele>
        <time>2021-03-15T20:12:46.372Z</time>
      </trkpt>
      <trkpt lat="47.80683" lon="-3.63193">
        <ele>54.96563638245</ele>
        <time>2021-03-15T20:12:58.828Z</time>
      </trkpt>
      <trkpt lat="47.80714" lon="-3.63298">
        <ele>54.24955711044</ele>
        <time>2021-03-15T20:13:11.297Z</time>
      </trkpt>
      <trkpt lat="47.80744" lon="-3.63403">
        <ele>53.47925428809</ele>
        <time>2021-03-15T20:13:23.778Z</time>
      </trkpt>
      <trkpt lat="47.80768" lon="-3.63496">
        <ele>52.63815692365</ele>
        <time>2021-03-15T20:13:36.270Z</time>
      </trkpt>
      <trkpt lat="47.80793" lon="-3.63588">
        <ele>51.89548201818</ele>
        <time>2021-03-15T20:13:48.773Z</time>
      </trkpt>
      <trkpt lat="47.80817" lon="-3.63681">
        <ele>51.06220460647</ele>
        <time>2021-03-15T20:14:01.286Z</time>
      </trkpt>
      <trkpt lat="47.80841" lon="-3.63743">
        <ele>50.36994001991</ele>
        <time>2021-03-15T20:14:13.807Z</time>
      </trkpt>
      <trkpt lat="47.80847" lon="-3.63769">
        <ele>49.746130954</ele>
        <time>2021-03-15T20:14:26.331Z</time>
      </trkpt>
      <trkpt lat="47.80859" lon="-3.63804">
        <ele>49.16837665513</ele>
        <time>2021-03-15T20:14:38.859Z</time>
      </trkpt>
      <trkpt lat="47.80856" lon="-3.63812">
        <ele>48.71780654921</ele>
        <time>2021-03-15T20:14:51.388Z</time>
      </trkpt>
      <trkpt lat="47.80857" lon="-3.63821">
        <ele>48.35366644953</ele>
        <time>2021-03-15T20:15:03.918Z</time>
      </trkpt>
      <trkpt lat="47.80863" lon="-3.63825">
        <ele>48.04514700639</ele>
        <time>2021-03-15T20:15:16.449Z</time>
      </trkpt>
      <trkpt lat="47.80858" lon="-3.63892">
        <ele>47.89652727863</ele>
        <time>2021-03-15T20:15:28.988Z</time>
      </trkpt>
      <trkpt lat="47.80852" lon="-3.63959">
        <ele>47.78702049609</ele>
        <time>2021-03-15T20:15:41.534Z</time>
      </trkpt>
      <trkpt lat="47.80852" lon="-3.64076">
        <ele>47.65676835778</ele>
        <time>2021-03-15T20:15:54.092Z</time>
      </trkpt>
      <trkpt lat="47.80852" lon="-3.64194">
        <ele>47.4403957355</ele>
        <time>2021-03-15T20:16:06.663Z</time>
      </trkpt>
      <trkpt lat="47.80852" lon="-3.64311">
        <ele>47.42638990296</ele>
        <time>2021-03-15T20:16:19.247Z</time>
      </trkpt>
      <trkpt lat="47.80878" lon="-3.64305">
        <ele>47.33171145096</ele>
        <time>2021-03-15T20:16:31.835Z</time>
      </trkpt>
      <trkpt lat="47.8096" lon="-3.64268">
        <ele>47.16855916938</ele>
        <time>2021-03-15T20:16:44.437Z</time>
      </trkpt>
      <trkpt lat="47.81015" lon="-3.64247">
        <ele>47.01261926972</ele>
        <time>2021-03-15T20:16:57.048Z</time>
      </trkpt>
      <trkpt lat="47.81039" lon="-3.64243">
        <ele>46.82959928269</ele>
        <time>2021-03-15T20:17:09.663Z</time>
      </trkpt>
      <trkpt lat="47.81071" lon="-3.64253">
        <ele>46.59929544418</ele>
        <time>2021-03-15T20:17:22.283Z</time>
      </trkpt>
      <trkpt lat="47.81151" lon="-3.64308">
        <ele>46.18550769838</ele>
        <time>2021-03-15T20:17:34.917Z</time>
      </trkpt>
      <trkpt lat="47.81174" lon="-3.64325">
        <ele>45.73158336828</ele>
        <time>2021-03-15T20:17:47.555Z</time>
      </trkpt>
      <trkpt lat="47.81209" lon="-3.64339">
        <ele>45.23105460645</ele>
        <time>2021-03-15T20:18:00.199Z</time>
      </trkpt>
      <trkpt lat="47.81269" lon="-3.64347">
        <ele>44.6573444167</ele>
        <time>2021-03-15T20:18:12.852Z</time>
      </trkpt>
      <trkpt lat="47.81328" lon="-3.64356">
        <ele>43.95393690056</ele>
        <time>2021-03-15T20:18:25.515Z</time>
      </trkpt>
      <trkpt lat="47.81348" lon="-3.64365">
        <ele>43.26231146245</ele>
        <time>2021-03-15T20:18:38.181Z</time>
      </trkpt>
      <trkpt lat="47.81366" lon="-3.64379">
        <ele>42.52329383999</ele>
        <time>2021-03-15T20:18:50.851Z</time>
      </trkpt>
      <trkpt lat="47.81401" lon="-3.64439">
        <ele>41.74989655507</ele>
        <time>2021-03-15T20:19:03.529Z</time>
      </trkpt>
      <trkpt lat="47.8143" lon="-3.64504">
        <ele>40.99251787013</ele>
        <time>2021-03-15T20:19:16.216Z</time>
      </trkpt>
      <trkpt lat="47.81461" lon="-3.64574">
        <ele>40.12735502761</ele>
        <time>2021-03-15T20:19:28.912Z</time>
      </trkpt>
      <trkpt lat="47.81492" lon="-3.64644">
        <ele>39.14652828424</ele>
        <time>2021-03-15T20:19:41.617Z</time>
      </trkpt>
      <trkpt lat="47.81533" lon="-3.64731">
        <ele>38.27567124422</ele>
        <time>2021-03-15T20:19:54.333Z</time>
      </trkpt>
      <trkpt lat="47.81575" lon="-3.64819">
        <ele>37.3897862994</ele>
        <time>2021-03-15T20:20:07.061Z</time>
      </trkpt>
      <trkpt lat="47.81616" lon="-3.64906">
        <ele>36.35468394576</ele>
        <time>2021-03-15T20:20:19.800Z</time>
      </trkpt>
      <trkpt lat="47.81656" lon="-3.64992">
        <ele>35.37024895769</ele>
        <time>2021-03-15T20:20:32.550Z</time>
      </trkpt>
      <trkpt lat="47.81695" lon="-3.65078">
        <ele>34.41123502611</ele>
        <time>2021-03-15T20:20:45.312Z</time>
      </trkpt>
      <trkpt lat="47.8172" lon="-3.65148">
        <ele>33.38316430127</ele>
        <time>2021-03-15T20:20:58.082Z</time>
      </trkpt>
      <trkpt lat="47.81744" lon="-3.65218">
        <ele>32.26303609684</ele>
        <time>2021-03-15T20:21:10.861Z</time>
      </trkpt>
      <trkpt lat="47.81764" lon="-3.65254">
        <ele>31.17131635472</ele>
        <time>2021-03-15T20:21:23.645Z</time>
      </trkpt>
      <trkpt lat="47.8178" lon="-3.65274">
        <ele>30.06237719669</ele>
        <time>2021-03-15T20:21:36.432Z</time>
      </trkpt>
      <trkpt lat="47.81803" lon="-3.65293">
        <ele>28.87812713479</ele>
        <time>2021-03-15T20:21:49.223Z</time>
      </trkpt>
      <trkpt lat="47.81831" lon="-3.65301">
        <ele>27.60674797785</ele>
        <time>2021-03-15T20:22:02.019Z</time>
      </trkpt>
      <trkpt lat="47.81851" lon="-3.65301">
        <ele>26.28195721411</ele>
        <time>2021-03-15T20:22:14.818Z</time>
      </trkpt>
      <trkpt lat="47.81868" lon="-3.65295">
        <ele>24.9324230664</ele>
        <time>2021-03-15T20:22:27.620Z</time>
      </trkpt>
      <trkpt lat="47.81878" lon="-3.65289">
        <ele>23.54454879827</ele>
        <time>2021-03-15T20:22:40.424Z</time>
      </trkpt>
      <trkpt lat="47.81879" lon="-3.65288">
        <ele>22.13522643973</ele>
        <time>2021-03-15T20:22:53.228Z</time>
      </trkpt>
      <trkpt lat="47.81889" lon="-3.65282">
        <ele>20.66735876229</ele>
        <time>2021-03-15T20:23:06.033Z</time>
      </trkpt>
      <trkpt lat="47.81909" lon="-3.65266">
        <ele>19.16038807876</ele>
        <time>2021-03-15T20:23:18.842Z</time>
      </trkpt>
      <trkpt lat="47.81924" lon="-3.65243">
        <ele>17.66592206267</ele>
        <time>2021-03-15T20:23:31.655Z</time>
      </trkpt>
      <trkpt lat="47.81971" lon="-3.65152">
        <ele>15.94029010066</ele>
        <time>2021-03-15T20:23:44.480Z</time>
      </trkpt>
      <trkpt lat="47.81989" lon="-3.65126">
        <ele>14.39963381792</ele>
        <time>2021-03-15T20:23:57.309Z</time>
      </trkpt>
      <trkpt lat="47.82004" lon="-3.65111">
        <ele>12.97444045197</ele>
        <time>2021-03-15T20:24:10.141Z</time>
      </trkpt>
      <trkpt lat="47.82022" lon="-3.65099">
        <ele>11.60363634068</ele>
        <time>2021-03-15T20:24:22.976Z</time>
      </trkpt>
      <trkpt lat="47.82044" lon="-3.65091">
        <ele>10.30565877918</ele>
        <time>2021-03-15T20:24:35.815Z</time>
      </trkpt>
      <trkpt lat="47.82102" lon="-3.65093">
        <ele>8.96810718159</ele>
        <time>2021-03-15T20:24:48.663Z</time>
      </trkpt>
      <trkpt lat="47.82154" lon="-3.65105">
        <ele>7.92476465167</ele>
        <time>2021-03-15T20:25:01.519Z</time>
      </trkpt>
      <trkpt lat="47.82175" lon="-3.65119">
        <ele>7.12562901905</ele>
        <time>2021-03-15T20:25:14.379Z</time>
      </trkpt>
      <trkpt lat="47.82191" lon="-3.65139">
        <ele>6.48155162861</ele>
        <time>2021-03-15T20:25:27.242Z</time>
      </trkpt>
      <trkpt lat="47.82221" lon="-3.65192">
        <ele>5.96451010911</ele>
        <time>2021-03-15T20:25:40.113Z</time>
      </trkpt>
      <trkpt lat="47.8225" lon="-3.65246">
        <ele>5.56068994012</ele>
        <time>2021-03-15T20:25:52.991Z</time>
      </trkpt>
      <trkpt lat="47.82306" lon="-3.65349">
        <ele>5.60995427524</ele>
        <time>2021-03-15T20:26:05.884Z</time>
      </trkpt>
      <trkpt lat="47.82361" lon="-3.65452">
        <ele>5.54247523983</ele>
        <time>2021-03-15T20:26:18.791Z</time>
      </trkpt>
      <trkpt lat="47.82383" lon="-3.65505">
        <ele>5.3246795706</ele>
        <time>2021-03-15T20:26:31.704Z</time>
      </trkpt>
      <trkpt lat="47.82401" lon="-3.65559">
        <ele>5.22327952779</ele>
        <time>2021-03-15T20:26:44.624Z</time>
      </trkpt>
      <trkpt lat="47.82416" lon="-3.65615">
        <ele>5.35183555116</ele>
        <time>2021-03-15T20:26:57.550Z</time>
      </trkpt>
      <trkpt lat="47.82445" lon="-3.65734">
        <ele>5.1619047354</ele>
        <time>2021-03-15T20:27:10.490Z</time>
      </trkpt>
      <trkpt lat="47.82473" lon="-3.65854">
        <ele>5.09618095581</ele>
        <time>2021-03-15T20:27:23.444Z</time>
      </trkpt>
      <trkpt lat="47.82474" lon="-3.6586">
        <ele>5.1035338092</ele>
        <time>2021-03-15T20:27:36.398Z</time>
      </trkpt>
      <trkpt lat="47.82484" lon="-3.65925">
        <ele>5.14322451037</ele>
        <time>2021-03-15T20:27:49.360Z</time>
      </trkpt>
      <trkpt lat="47.82492" lon="-3.66">
        <ele>5.19899996246</ele>
        <time>2021-03-15T20:28:02.330Z</time>
      </trkpt>
      <trkpt lat="47.82503" lon="-3.66127">
        <ele>5.37745299037</ele>
        <time>2021-03-15T20:28:15.314Z</time>
      </trkpt>
      <trkpt lat="47.82514" lon="-3.66254">
        <ele>5.28900734926</ele>
        <time>2021-03-15T20:28:28.311Z</time>
      </trkpt>
      <trkpt lat="47.82525" lon="-3.66381">
        <ele>5.02453940193</ele>
        <time>2021-03-15T20:28:41.322Z</time>
      </trkpt>
      <trkpt lat="47.82535" lon="-3.66509">
        <ele>4.911174239</ele>
        <time>2021-03-15T20:28:54.347Z</time>
      </trkpt>
      <trkpt lat="47.82546" lon="-3.66636">
        <ele>4.78471142252</ele>
        <time>2021-03-15T20:29:07.386Z</time>
      </trkpt>
      <trkpt lat="47.82557" lon="-3.66763">
        <ele>4.82706730584</ele>
        <time>2021-03-15T20:29:20.439Z</time>
      </trkpt>
      <trkpt lat="47.82568" lon="-3.6689">
        <ele>4.94107620107</ele>
        <time>2021-03-15T20:29:33.506Z</time>
      </trkpt>
      <trkpt lat="47.82573" lon="-3.66926">
        <ele>5.09148260515</ele>
        <time>2021-03-15T20:29:46.577Z</time>
      </trkpt>
      <trkpt lat="47.82587" lon="-3.66991">
        <ele>5.27067928893</ele>
        <time>2021-03-15T20:29:59.655Z</time>
      </trkpt>
      <trkpt lat="47.82617" lon="-3.67078">
        <ele>5.5139306661</ele>
        <time>2021-03-15T20:30:12.743Z</time>
      </trkpt>
      <trkpt lat="47.82632" lon="-3.67111">
        <ele>5.74052732515</ele>
        <time>2021-03-15T20:30:25.836Z</time>
      </trkpt>
      <trkpt lat="47.82649" lon="-3.67141">
        <ele>5.9967063788</ele>
        <time>2021-03-15T20:30:38.933Z</time>
      </trkpt>
      <trkpt lat="47.82667" lon="-3.67168">
        <ele>6.28413739207</ele>
        <time>2021-03-15T20:30:52.034Z</time>
      </trkpt>
      <trkpt lat="47.82706" lon="-3.67213">
        <ele>6.65782424038</ele>
        <time>2021-03-15T20:31:05.143Z</time>
      </trkpt>
      <trkpt lat="47.82741" lon="-3.67241">
        <ele>7.08029060119</ele>
        <time>2021-03-15T20:31:18.258Z</time>
      </trkpt>
      <trkpt lat="47.82764" lon="-3.67256">
        <ele>7.49921449818</ele>
        <time>2021-03-15T20:31:31.377Z</time>
      </trkpt>
      <trkpt lat="47.82787" lon="-3.67268">
        <ele>7.99653189108</ele>
        <time>2021-03-15T20:31:44.500Z</time>
      </trkpt>
      <trkpt lat="47.82857" lon="-3.673">
        <ele>8.58883172313</ele>
        <time>2021-03-15T20:31:57.635Z</time>
      </trkpt>
      <trkpt lat="47.829" lon="-3.67324">
        <ele>9.22381533568</ele>
        <time>2021-03-15T20:32:10.777Z</time>
      </trkpt>
      <trkpt lat="47.82943" lon="-3.67349">
        <ele>9.87697820238</ele>
        <time>2021-03-15T20:32:23.927Z</time>
      </trkpt>
      <trkpt lat="47.82983" lon="-3.67371">
        <ele>10.52845198415</ele>
        <time>2021-03-15T20:32:37.084Z</time>
      </trkpt>
      <trkpt lat="47.83051" lon="-3.67419">
        <ele>11.33972655645</ele>
        <time>2021-03-15T20:32:50.253Z</time>
      </trkpt>
      <trkpt lat="47.83073" lon="-3.67443">
        <ele>12.17715736</ele>
        <time>2021-03-15T20:33:03.426Z</time>
      </trkpt>
      <trkpt lat="47.83107" lon="-3.67486">
        <ele>13.05476048023</ele>
        <time>2021-03-15T20:33:16.606Z</time>
      </trkpt>
      <trkpt lat="47.83137" lon="-3.6754">
        <ele>13.99464220099</ele>
        <time>2021-03-15T20:33:29.794Z</time>
      </trkpt>
      <trkpt lat="47.83183" lon="-3.67632">
        <ele>15.24161240961</ele>
        <time>2021-03-15T20:33:42.994Z</time>
      </trkpt>
      <trkpt lat="47.83228" lon="-3.67724">
        <ele>16.57073611063</ele>
        <time>2021-03-15T20:33:56.206Z</time>
      </trkpt>
      <trkpt lat="47.83274" lon="-3.67816">
        <ele>17.75250560006</ele>
        <time>2021-03-15T20:34:09.431Z</time>
      </trkpt>
      <trkpt lat="47.83288" lon="-3.6785">
        <ele>18.90888144245</ele>
        <time>2021-03-15T20:34:22.660Z</time>
      </trkpt>
      <trkpt lat="47.833" lon="-3.67884">
        <ele>20.11088341428</ele>
        <time>2021-03-15T20:34:35.893Z</time>
      </trkpt>
      <trkpt lat="47.83312" lon="-3.6793">
        <ele>21.31503865693</ele>
        <time>2021-03-15T20:34:49.131Z</time>
      </trkpt>
      <trkpt lat="47.83318" lon="-3.67964">
        <ele>22.52361373037</ele>
        <time>2021-03-15T20:35:02.373Z</time>
      </trkpt>
      <trkpt lat="47.83324" lon="-3.68032">
        <ele>23.71161217416</ele>
        <time>2021-03-15T20:35:15.623Z</time>
      </trkpt>
      <trkpt lat="47.83322" lon="-3.68086">
        <ele>24.98693714821</ele>
        <time>2021-03-15T20:35:28.878Z</time>
      </trkpt>
      <trkpt lat="47.83313" lon="-3.68162">
        <ele>26.34136009013</ele>
        <time>2021-03-15T20:35:42.142Z</time>
      </trkpt>
      <trkpt lat="47.83304" lon="-3.68237">
        <ele>27.73108804882</ele>
        <time>2021-03-15T20:35:55.414Z</time>
      </trkpt>
      <trkpt lat="47.83303" lon="-3.68264">
        <ele>29.11918875079</ele>
        <time>2021-03-15T20:36:08.689Z</time>
      </trkpt>
      <trkpt lat="47.83307" lon="-3.6833">
        <ele>30.56528145025</ele>
        <time>2021-03-15T20:36:21.971Z</time>
      </trkpt>
      <trkpt lat="47.83316" lon="-3.68384">
        <ele>31.92427429013</ele>
        <time>2021-03-15T20:36:35.259Z</time>
      </trkpt>
      <trkpt lat="47.83333" lon="-3.68441">
        <ele>33.31695251543</ele>
        <time>2021-03-15T20:36:48.554Z</time>
      </trkpt>
      <trkpt lat="47.83348" lon="-3.68476">
        <ele>34.76574591584</ele>
        <time>2021-03-15T20:37:01.853Z</time>
      </trkpt>
      <trkpt lat="47.83369" lon="-3.68508">
        <ele>36.1140061114</ele>
        <time>2021-03-15T20:37:15.157Z</time>
      </trkpt>
      <trkpt lat="47.83403" lon="-3.68551">
        <ele>37.29965263372</ele>
        <time>2021-03-15T20:37:28.468Z</time>
      </trkpt>
      <trkpt lat="47.83457" lon="-3.68603">
        <ele>38.62177134143</ele>
        <time>2021-03-15T20:37:41.789Z</time>
      </trkpt>
      <trkpt lat="47.83523" lon="-3.68657">
        <ele>40.21625158212</ele>
        <time>2021-03-15T20:37:55.123Z</time>
      </trkpt>
      <trkpt lat="47.83566" lon="-3.68673">
        <ele>41.71482965911</ele>
        <time>2021-03-15T20:38:08.464Z</time>
      </trkpt>
      <trkpt lat="47.83609" lon="-3.68676">
        <ele>43.10879505111</ele>
        <time>2021-03-15T20:38:21.812Z</time>
      </trkpt>
      <trkpt lat="47.83664" lon="-3.68665">
        <ele>44.51228817503</ele>
        <time>2021-03-15T20:38:35.168Z</time>
      </trkpt>
      <trkpt lat="47.83719" lon="-3.68654">
        <ele>45.96960849275</ele>
        <time>2021-03-15T20:38:48.533Z</time>
      </trkpt>
      <trkpt lat="47.8372" lon="-3.68653">
        <ele>47.34118465742</ele>
        <time>2021-03-15T20:39:01.898Z</time>
      </trkpt>
      <trkpt lat="47.8379" lon="-3.68639">
        <ele>48.82471823233</ele>
        <time>2021-03-15T20:39:15.275Z</time>
      </trkpt>
      <trkpt lat="47.83859" lon="-3.68625">
        <ele>50.25220045447</ele>
        <time>2021-03-15T20:39:28.663Z</time>
      </trkpt>
      <trkpt lat="47.83929" lon="-3.6861">
        <ele>51.53304846804</ele>
        <time>2021-03-15T20:39:42.062Z</time>
      </trkpt>
      <trkpt lat="47.83998" lon="-3.68596">
        <ele>52.83098895459</ele>
        <time>2021-03-15T20:39:55.472Z</time>
      </trkpt>
      <trkpt lat="47.84065" lon="-3.68584">
        <ele>54.10026090082</ele>
        <time>2021-03-15T20:40:08.893Z</time>
      </trkpt>
      <trkpt lat="47.84133" lon="-3.68571">
        <ele>55.30810507703</ele>
        <time>2021-03-15T20:40:22.325Z</time>
      </trkpt>
      <trkpt lat="47.84198" lon="-3.68557">
        <ele>56.31598446833</ele>
        <time>2021-03-15T20:40:35.768Z</time>
      </trkpt>
      <trkpt lat="47.84262" lon="-3.68544">
        <ele>57.3368480576</ele>
        <time>2021-03-15T20:40:49.221Z</time>
      </trkpt>
      <trkpt lat="47.84327" lon="-3.6853">
        <ele>58.22217870652</ele>
        <time>2021-03-15T20:41:02.685Z</time>
      </trkpt>
      <trkpt lat="47.84347" lon="-3.68527">
        <ele>59.02654187982</ele>
        <time>2021-03-15T20:41:16.152Z</time>
      </trkpt>
      <trkpt lat="47.84374" lon="-3.68526">
        <ele>59.78565179292</ele>
        <time>2021-03-15T20:41:29.623Z</time>
      </trkpt>
      <trkpt lat="47.84403" lon="-3.68529">
        <ele>60.45284287423</ele>
        <time>2021-03-15T20:41:43.099Z</time>
      </trkpt>
      <trkpt lat="47.84441" lon="-3.68544">
        <ele>61.10951657472</ele>
        <time>2021-03-15T20:41:56.581Z</time>
      </trkpt>
      <trkpt lat="47.84463" lon="-3.68562">
        <ele>61.68777335898</ele>
        <time>2021-03-15T20:42:10.067Z</time>
      </trkpt>
      <trkpt lat="47.84491" lon="-3.68589">
        <ele>62.2315368806</ele>
        <time>2021-03-15T20:42:23.558Z</time>
      </trkpt>
      <trkpt lat="47.84514" lon="-3.68618">
        <ele>62.717163497</ele>
        <time>2021-03-15T20:42:37.054Z</time>
      </trkpt>
      <trkpt lat="47.84536" lon="-3.6867">
        <ele>63.12982220573</ele>
        <time>2021-03-15T20:42:50.557Z</time>
      </trkpt>
      <trkpt lat="47.84544" lon="-3.68708">
        <ele>63.50737673339</ele>
        <time>2021-03-15T20:43:04.064Z</time>
      </trkpt>
      <trkpt lat="47.8455" lon="-3.68748">
        <ele>63.76982850625</ele>
        <time>2021-03-15T20:43:17.576Z</time>
      </trkpt>
      <trkpt lat="47.84549" lon="-3.6877">
        <ele>63.94168100338</ele>
        <time>2021-03-15T20:43:31.090Z</time>
      </trkpt>
      <trkpt lat="47.84552" lon="-3.68776">
        <ele>64.00992467211</ele>
        <time>2021-03-15T20:43:44.605Z</time>
      </trkpt>
      <trkpt lat="47.84509" lon="-3.68887">
        <ele>64.03566803909</ele>
        <time>2021-03-15T20:43:58.134Z</time>
      </trkpt>
      <trkpt lat="47.84466" lon="-3.68998">
        <ele>63.90970777152</ele>
        <time>2021-03-15T20:44:11.676Z</time>
      </trkpt>
      <trkpt lat="47.84465" lon="-3.69038">
        <ele>63.57309185264</ele>
        <time>2021-03-15T20:44:25.223Z</time>
      </trkpt>
      <trkpt lat="47.84466" lon="-3.6913">
        <ele>63.08292222543</ele>
        <time>2021-03-15T20:44:38.780Z</time>
      </trkpt>
      <trkpt lat="47.84467" lon="-3.69252">
        <ele>62.43657766241</ele>
        <time>2021-03-15T20:44:52.350Z</time>
      </trkpt>
      <trkpt lat="47.84468" lon="-3.69374">
        <ele>61.65872070321</ele>
        <time>2021-03-15T20:45:05.933Z</time>
      </trkpt>
      <trkpt lat="47.8447" lon="-3.69504">
        <ele>60.57562207221</ele>
        <time>2021-03-15T20:45:19.530Z</time>
      </trkpt>
      <trkpt lat="47.84523" lon="-3.69578">
        <ele>59.17923296192</ele>
        <time>2021-03-15T20:45:33.139Z</time>
      </trkpt>
      <trkpt lat="47.84563" lon="-3.69607">
        <ele>57.65629453758</ele>
        <time>2021-03-15T20:45:46.755Z</time>
      </trkpt>
      <trkpt lat="47.84615" lon="-3.69649">
        <ele>55.92872098278</ele>
        <time>2021-03-15T20:46:00.380Z</time>
      </trkpt>
      <trkpt lat="47.84624" lon="-3.69662">
        <ele>54.15058065638</ele>
        <time>2021-03-15T20:46:14.007Z</time>
      </trkpt>
      <trkpt lat="47.84634" lon="-3.69687">
        <ele>52.24929981734</ele>
        <time>2021-03-15T20:46:27.637Z</time>
      </trkpt>
      <trkpt lat="47.84645" lon="-3.69732">
        <ele>50.28594617657</ele>
        <time>2021-03-15T20:46:41.272Z</time>
      </trkpt>
      <trkpt lat="47.8465" lon="-3.69762">
        <ele>48.30724922809</ele>
        <time>2021-03-15T20:46:54.911Z</time>
      </trkpt>
      <trkpt lat="47.8466" lon="-3.6979">
        <ele>46.28988186879</ele>
        <time>2021-03-15T20:47:08.553Z</time>
      </trkpt>
      <trkpt lat="47.8469" lon="-3.69852">
        <ele>44.18779340001</ele>
        <time>2021-03-15T20:47:22.203Z</time>
      </trkpt>
      <trkpt lat="47.84726" lon="-3.69922">
        <ele>42.15467681128</ele>
        <time>2021-03-15T20:47:35.863Z</time>
      </trkpt>
      <trkpt lat="47.84761" lon="-3.69987">
        <ele>40.2115485538</ele>
        <time>2021-03-15T20:47:49.532Z</time>
      </trkpt>
      <trkpt lat="47.84795" lon="-3.70052">
        <ele>38.38707066398</ele>
        <time>2021-03-15T20:48:03.210Z</time>
      </trkpt>
      <trkpt lat="47.84802" lon="-3.70067">
        <ele>36.85163293189</ele>
        <time>2021-03-15T20:48:16.890Z</time>
      </trkpt>
      <trkpt lat="47.84809" lon="-3.70104">
        <ele>35.48596975309</ele>
        <time>2021-03-15T20:48:30.574Z</time>
      </trkpt>
      <trkpt lat="47.84809" lon="-3.70122">
        <ele>34.43314406293</ele>
        <time>2021-03-15T20:48:44.260Z</time>
      </trkpt>
      <trkpt lat="47.84806" lon="-3.70149">
        <ele>33.67093485537</ele>
        <time>2021-03-15T20:48:57.949Z</time>
      </trkpt>
      <trkpt lat="47.84796" lon="-3.70189">
        <ele>33.3171355479</ele>
        <time>2021-03-15T20:49:11.642Z</time>
      </trkpt>
      <trkpt lat="47.84789" lon="-3.70205">
        <ele>33.23024932181</ele>
        <time>2021-03-15T20:49:25.337Z</time>
      </trkpt>
      <trkpt lat="47.84723" lon="-3.70285">
        <ele>33.50008089781</ele>
        <time>2021-03-15T20:49:39.046Z</time>
      </trkpt>
      <trkpt lat="47.84706" lon="-3.70311">
        <ele>33.97299387173</ele>
        <time>2021-03-15T20:49:52.759Z</time>
      </trkpt>
      <trkpt lat="47.84686" lon="-3.70345">
        <ele>34.66815976038</ele>
        <time>2021-03-15T20:50:06.477Z</time>
      </trkpt>
      <trkpt lat="47.8466" lon="-3.70401">
        <ele>35.64489516945</ele>
        <time>2021-03-15T20:50:20.202Z</time>
      </trkpt>
      <trkpt lat="47.84648" lon="-3.70433">
        <ele>36.96270352505</ele>
        <time>2021-03-15T20:50:33.931Z</time>
      </trkpt>
      <trkpt lat="47.84633" lon="-3.70501">
        <ele>38.54660190636</ele>
        <time>2021-03-15T20:50:47.668Z</time>
      </trkpt>
      <trkpt lat="47.84622" lon="-3.70575">
        <ele>40.35454704024</ele>
        <time>2021-03-15T20:51:01.413Z</time>
      </trkpt>
      <trkpt lat="47.84618" lon="-3.70677">
        <ele>42.29381804009</ele>
        <time>2021-03-15T20:51:15.169Z</time>
      </trkpt>
      <trkpt lat="47.84613" lon="-3.70778">
        <ele>44.43291615919</ele>
        <time>2021-03-15T20:51:28.936Z</time>
      </trkpt>
      <trkpt lat="47.84609" lon="-3.7088">
        <ele>46.68662498613</ele>
        <time>2021-03-15T20:51:42.714Z</time>
      </trkpt>
      <trkpt lat="47.84611" lon="-3.70953">
        <ele>49.00180065242</ele>
        <time>2021-03-15T20:51:56.500Z</time>
      </trkpt>
      <trkpt lat="47.84618" lon="-3.71057">
        <ele>51.33867466856</ele>
        <time>2021-03-15T20:52:10.297Z</time>
      </trkpt>
      <trkpt lat="47.84628" lon="-3.71169">
        <ele>53.64061641255</ele>
        <time>2021-03-15T20:52:24.106Z</time>
      </trkpt>
      <trkpt lat="47.84639" lon="-3.71281">
        <ele>55.94010966076</ele>
        <time>2021-03-15T20:52:37.927Z</time>
      </trkpt>
      <trkpt lat="47.84649" lon="-3.71393">
        <ele>58.18191850591</ele>
        <time>2021-03-15T20:52:51.761Z</time>
      </trkpt>
      <trkpt lat="47.84659" lon="-3.71489">
        <ele>60.41816943624</ele>
        <time>2021-03-15T20:53:05.605Z</time>
      </trkpt>
      <trkpt lat="47.84668" lon="-3.71585">
        <ele>62.55978797182</ele>
        <time>2021-03-15T20:53:19.460Z</time>
      </trkpt>
      <trkpt lat="47.84677" lon="-3.71634">
        <ele>64.53788366731</ele>
        <time>2021-03-15T20:53:33.320Z</time>
      </trkpt>
      <trkpt lat="47.84684" lon="-3.7166">
        <ele>66.29006009394</ele>
        <time>2021-03-15T20:53:47.183Z</time>
      </trkpt>
      <trkpt lat="47.84719" lon="-3.71752">
        <ele>67.97270229619</ele>
        <time>2021-03-15T20:54:01.057Z</time>
      </trkpt>
      <trkpt lat="47.84753" lon="-3.71845">
        <ele>69.22590491568</ele>
        <time>2021-03-15T20:54:14.943Z</time>
      </trkpt>
      <trkpt lat="47.84788" lon="-3.71937">
        <ele>70.24433094412</ele>
        <time>2021-03-15T20:54:28.840Z</time>
      </trkpt>
      <trkpt lat="47.84812" lon="-3.72016">
        <ele>71.1107709415</ele>
        <time>2021-03-15T20:54:42.747Z</time>
      </trkpt>
      <trkpt lat="47.84836" lon="-3.72095">
        <ele>71.72703491227</ele>
        <time>2021-03-15T20:54:56.663Z</time>
      </trkpt>
      <trkpt lat="47.84851" lon="-3.72156">
        <ele>72.01444572085</ele>
        <time>2021-03-15T20:55:10.586Z</time>
      </trkpt>
      <trkpt lat="47.84873" lon="-3.72249">
        <ele>72.06887898073</ele>
        <time>2021-03-15T20:55:24.520Z</time>
      </trkpt>
      <trkpt lat="47.84894" lon="-3.72324">
        <ele>72.00818906892</ele>
        <time>2021-03-15T20:55:38.462Z</time>
      </trkpt>
      <trkpt lat="47.84914" lon="-3.724">
        <ele>71.67014350326</ele>
        <time>2021-03-15T20:55:52.413Z</time>
      </trkpt>
      <trkpt lat="47.84951" lon="-3.72499">
        <ele>71.15926928806</ele>
        <time>2021-03-15T20:56:06.376Z</time>
      </trkpt>
      <trkpt lat="47.84989" lon="-3.72599">
        <ele>70.4428653852</ele>
        <time>2021-03-15T20:56:20.352Z</time>
      </trkpt>
      <trkpt lat="47.85026" lon="-3.72698">
        <ele>69.53814093827</ele>
        <time>2021-03-15T20:56:34.340Z</time>
      </trkpt>
      <trkpt lat="47.85063" lon="-3.72811">
        <ele>68.52586532787</ele>
        <time>2021-03-15T20:56:48.341Z</time>
      </trkpt>
      <trkpt lat="47.85099" lon="-3.72925">
        <ele>67.2689680583</ele>
        <time>2021-03-15T20:57:02.356Z</time>
      </trkpt>
      <trkpt lat="47.85136" lon="-3.73038">
        <ele>65.70164159082</ele>
        <time>2021-03-15T20:57:16.385Z</time>
      </trkpt>
      <trkpt lat="47.85172" lon="-3.73152">
        <ele>64.09507142947</ele>
        <time>2021-03-15T20:57:30.427Z</time>
      </trkpt>
      <trkpt lat="47.85202" lon="-3.73253">
        <ele>62.51037563248</ele>
        <time>2021-03-15T20:57:44.481Z</time>
      </trkpt>
      <trkpt lat="47.85232" lon="-3.73355">
        <ele>60.82768709593</ele>
        <time>2021-03-15T20:57:58.547Z</time>
      </trkpt>
      <trkpt lat="47.85243" lon="-3.73402">
        <ele>59.14793106858</ele>
        <time>2021-03-15T20:58:12.618Z</time>
      </trkpt>
      <trkpt lat="47.85243" lon="-3.73402">
        <ele>57.49406760775</ele>
        <time>2021-03-15T20:58:26.689Z</time>
      </trkpt>
      <trkpt lat="47.85243" lon="-3.73402">
        <ele>55.82705734527</ele>
        <time>2021-03-15T20:58:40.760Z</time>
      </trkpt>
      <trkpt lat="47.85247" lon="-3.73441">
        <ele>54.11302053088</ele>
        <time>2021-03-15T20:58:54.836Z</time>
      </trkpt>
      <trkpt lat="47.85247" lon="-3.73518">
        <ele>52.47629250289</ele>
        <time>2021-03-15T20:59:08.920Z</time>
      </trkpt>
      <trkpt lat="47.85252" lon="-3.73612">
        <ele>50.69309346106</ele>
        <time>2021-03-15T20:59:23.014Z</time>
      </trkpt>
      <trkpt lat="47.85257" lon="-3.73707">
        <ele>48.90294285209</ele>
        <time>2021-03-15T20:59:37.118Z</time>
      </trkpt>
      <trkpt lat="47.85263" lon="-3.73738">
        <ele>47.18863198201</ele>
        <time>2021-03-15T20:59:51.226Z</time>
      </trkpt>
      <trkpt lat="47.85284" lon="-3.73782">
        <ele>45.48506794764</ele>
        <time>2021-03-15T21:00:05.340Z</time>
      </trkpt>
      <trkpt lat="47.85304" lon="-3.73803">
        <ele>43.84043378352</ele>
        <time>2021-03-15T21:00:19.458Z</time>
      </trkpt>
      <trkpt lat="47.85341" lon="-3.73815">
        <ele>42.20752000851</ele>
        <time>2021-03-15T21:00:33.582Z</time>
      </trkpt>
      <trkpt lat="47.85407" lon="-3.73812">
        <ele>40.49106882485</ele>
        <time>2021-03-15T21:00:47.716Z</time>
      </trkpt>
      <trkpt lat="47.85472" lon="-3.73808">
        <ele>38.71031009805</ele>
        <time>2021-03-15T21:01:01.861Z</time>
      </trkpt>
      <trkpt lat="47.85503" lon="-3.7381">
        <ele>37.05091208623</ele>
        <time>2021-03-15T21:01:16.011Z</time>
      </trkpt>
      <trkpt lat="47.85521" lon="-3.73821">
        <ele>35.39270784605</ele>
        <time>2021-03-15T21:01:30.164Z</time>
      </trkpt>
      <trkpt lat="47.85549" lon="-3.73843">
        <ele>33.66871966124</ele>
        <time>2021-03-15T21:01:44.322Z</time>
      </trkpt>
      <trkpt lat="47.85574" lon="-3.73877">
        <ele>31.95375961401</ele>
        <time>2021-03-15T21:01:58.485Z</time>
      </trkpt>
      <trkpt lat="47.8559" lon="-3.7391">
        <ele>30.32595434867</ele>
        <time>2021-03-15T21:02:12.653Z</time>
      </trkpt>
      <trkpt lat="47.85607" lon="-3.73951">
        <ele>28.70311585056</ele>
        <time>2021-03-15T21:02:26.826Z</time>
      </trkpt>
      <trkpt lat="47.8562" lon="-3.74015">
        <ele>26.9691522228</ele>
        <time>2021-03-15T21:02:41.006Z</time>
      </trkpt>
      <trkpt lat="47.85637" lon="-3.74116">
        <ele>25.19517868791</ele>
        <time>2021-03-15T21:02:55.197Z</time>
      </trkpt>
      <trkpt lat="47.85654" lon="-3.74218">
        <ele>23.477458827</ele>
        <time>2021-03-15T21:03:09.400Z</time>
      </trkpt>
      <trkpt lat="47.85665" lon="-3.7427">
        <ele>21.66462004743</ele>
        <time>2021-03-15T21:03:23.608Z</time>
      </trkpt>
      <trkpt lat="47.85682" lon="-3.74337">
        <ele>19.80719623075</ele>
        <time>2021-03-15T21:03:37.824Z</time>
      </trkpt>
      <trkpt lat="47.85699" lon="-3.74404">
        <ele>17.94550522369</ele>
        <time>2021-03-15T21:03:52.048Z</time>
      </trkpt>
      <trkpt lat="47.85701" lon="-3.74428">
        <ele>16.22846944242</ele>
        <time>2021-03-15T21:04:06.274Z</time>
      </trkpt>
      <trkpt lat="47.85699" lon="-3.74442">
        <ele>14.62810312813</ele>
        <time>2021-03-15T21:04:20.502Z</time>
      </trkpt>
      <trkpt lat="47.85649" lon="-3.74532">
        <ele>13.03223858578</ele>
        <time>2021-03-15T21:04:34.743Z</time>
      </trkpt>
      <trkpt lat="47.85624" lon="-3.74595">
        <ele>11.64845381916</ele>
        <time>2021-03-15T21:04:48.991Z</time>
      </trkpt>
      <trkpt lat="47.85609" lon="-3.7462">
        <ele>10.39800173202</ele>
        <time>2021-03-15T21:05:03.243Z</time>
      </trkpt>
      <trkpt lat="47.85579" lon="-3.74655">
        <ele>9.30217503859</ele>
        <time>2021-03-15T21:05:17.501Z</time>
      </trkpt>
      <trkpt lat="47.8558" lon="-3.74655">
        <ele>8.39900512503</ele>
        <time>2021-03-15T21:05:31.759Z</time>
      </trkpt>
      <trkpt lat="47.85564" lon="-3.74673">
        <ele>7.65089952966</ele>
        <time>2021-03-15T21:05:46.021Z</time>
      </trkpt>
      <trkpt lat="47.85553" lon="-3.74692">
        <ele>7.12945598711</ele>
        <time>2021-03-15T21:06:00.285Z</time>
      </trkpt>
      <trkpt lat="47.85544" lon="-3.74717">
        <ele>6.82056658161</ele>
        <time>2021-03-15T21:06:14.552Z</time>
      </trkpt>
      <trkpt lat="47.85533" lon="-3.74759">
        <ele>6.64902193157</ele>
        <time>2021-03-15T21:06:28.824Z</time>
      </trkpt>
      <trkpt lat="47.85536" lon="-3.74795">
        <ele>6.67117871218</ele>
        <time>2021-03-15T21:06:43.100Z</time>
      </trkpt>
      <trkpt lat="47.85549" lon="-3.74828">
        <ele>7.01634449512</ele>
        <time>2021-03-15T21:06:57.380Z</time>
      </trkpt>
      <trkpt lat="47.85578" lon="-3.74811">
        <ele>7.54122530166</ele>
        <time>2021-03-15T21:07:11.665Z</time>
      </trkpt>
      <trkpt lat="47.85587" lon="-3.74807">
        <ele>8.3200193484</ele>
        <time>2021-03-15T21:07:25.952Z</time>
      </trkpt>
      <trkpt lat="47.85602" lon="-3.74799">
        <ele>9.32516360311</ele>
        <time>2021-03-15T21:07:40.241Z</time>
      </trkpt>
      <trkpt lat="47.85647" lon="-3.74788">
        <ele>10.6508194899</ele>
        <time>2021-03-15T21:07:54.537Z</time>
      </trkpt>
      <trkpt lat="47.85705" lon="-3.74778">
        <ele>12.06046757557</ele>
        <time>2021-03-15T21:08:08.843Z</time>
      </trkpt>
      <trkpt lat="47.85735" lon="-3.74778">
        <ele>13.57727924498</ele>
        <time>2021-03-15T21:08:23.154Z</time>
      </trkpt>
      <trkpt lat="47.85753" lon="-3.74786">
        <ele>15.19122625524</ele>
        <time>2021-03-15T21:08:37.468Z</time>
      </trkpt>
      <trkpt lat="47.85765" lon="-3.74804">
        <ele>16.93882039869</ele>
        <time>2021-03-15T21:08:51.784Z</time>
      </trkpt>
      <trkpt lat="47.85773" lon="-3.7482">
        <ele>18.70686235729</ele>
        <time>2021-03-15T21:09:06.103Z</time>
      </trkpt>
      <trkpt lat="47.85787" lon="-3.74889">
        <ele>20.59422590846</ele>
        <time>2021-03-15T21:09:20.429Z</time>
      </trkpt>
      <trkpt lat="47.85799" lon="-3.74975">
        <ele>22.58164468003</ele>
        <time>2021-03-15T21:09:34.765Z</time>
      </trkpt>
      <trkpt lat="47.85811" lon="-3.75062">
        <ele>24.34250035233</ele>
        <time>2021-03-15T21:09:49.110Z</time>
      </trkpt>
      <trkpt lat="47.85823" lon="-3.75137">
        <ele>26.16466272253</ele>
        <time>2021-03-15T21:10:03.464Z</time>
      </trkpt>
      <trkpt lat="47.85834" lon="-3.75212">
        <ele>27.82005892036</ele>
        <time>2021-03-15T21:10:17.826Z</time>
      </trkpt>
      <trkpt lat="47.85836" lon="-3.75248">
        <ele>29.32203824038</ele>
        <time>2021-03-15T21:10:32.192Z</time>
      </trkpt>
      <trkpt lat="47.85833" lon="-3.75288">
        <ele>30.76717898723</ele>
        <time>2021-03-15T21:10:46.562Z</time>
      </trkpt>
      <trkpt lat="47.85829" lon="-3.75307">
        <ele>32.10441608156</ele>
        <time>2021-03-15T21:11:00.934Z</time>
      </trkpt>
      <trkpt lat="47.85822" lon="-3.75327">
        <ele>33.36228031052</ele>
        <time>2021-03-15T21:11:15.309Z</time>
      </trkpt>
      <trkpt lat="47.85815" lon="-3.7534">
        <ele>34.51386784132</ele>
        <time>2021-03-15T21:11:29.686Z</time>
      </trkpt>
      <trkpt lat="47.85748" lon="-3.75426">
        <ele>35.49029619365</ele>
        <time>2021-03-15T21:11:44.077Z</time>
      </trkpt>
      <trkpt lat="47.85734" lon="-3.75447">
        <ele>36.41216590661</ele>
        <time>2021-03-15T21:11:58.471Z</time>
      </trkpt>
      <trkpt lat="47.85712" lon="-3.7549">
        <ele>37.23907595226</ele>
        <time>2021-03-15T21:12:12.871Z</time>
      </trkpt>
      <trkpt lat="47.85702" lon="-3.75524">
        <ele>38.01426265468</ele>
        <time>2021-03-15T21:12:27.275Z</time>
      </trkpt>
      <trkpt lat="47.857" lon="-3.75542">
        <ele>38.71663143813</ele>
        <time>2021-03-15T21:12:41.681Z</time>
      </trkpt>
      <trkpt lat="47.85702" lon="-3.75644">
        <ele>39.45454429308</ele>
        <time>2021-03-15T21:12:56.098Z</time>
      </trkpt>
      <trkpt lat="47.85696" lon="-3.75675">
        <ele>40.06158505165</ele>
        <time>2021-03-15T21:13:10.518Z</time>
      </trkpt>
      <trkpt lat="47.85684" lon="-3.75707">
        <ele>40.64739231968</ele>
        <time>2021-03-15T21:13:24.942Z</time>
      </trkpt>
      <trkpt lat="47.85673" lon="-3.75727">
        <ele>41.17743551045</ele>
        <time>2021-03-15T21:13:39.369Z</time>
      </trkpt>
      <trkpt lat="47.85673" lon="-3.75726">
        <ele>41.59929571407</ele>
        <time>2021-03-15T21:13:53.796Z</time>
      </trkpt>
      <trkpt lat="47.85659" lon="-3.75747">
        <ele>42.01656966414</ele>
        <time>2021-03-15T21:14:08.226Z</time>
      </trkpt>
      <trkpt lat="47.85646" lon="-3.75775">
        <ele>42.38640178604</ele>
        <time>2021-03-15T21:14:22.660Z</time>
      </trkpt>
      <trkpt lat="47.85638" lon="-3.75781">
        <ele>42.69768759568</ele>
        <time>2021-03-15T21:14:37.095Z</time>
      </trkpt>
      <trkpt lat="47.85638" lon="-3.75796">
        <ele>42.97147406567</ele>
        <time>2021-03-15T21:14:51.532Z</time>
      </trkpt>
      <trkpt lat="47.85636" lon="-3.75801">
        <ele>43.24349457232</ele>
        <time>2021-03-15T21:15:05.969Z</time>
      </trkpt>
      <trkpt lat="47.85629" lon="-3.75803">
        <ele>43.50640645487</ele>
        <time>2021-03-15T21:15:20.408Z</time>
      </trkpt>
      <trkpt lat="47.85631" lon="-3.75829">
        <ele>43.78096475728</ele>
        <time>2021-03-15T21:15:34.849Z</time>
      </trkpt>
      <trkpt lat="47.85631" lon="-3.75892">
        <ele>44.09934291161</ele>
        <time>2021-03-15T21:15:49.297Z</time>
      </trkpt>
      <trkpt lat="47.8563" lon="-3.75967">
        <ele>44.43312569073</ele>
        <time>2021-03-15T21:16:03.753Z</time>
      </trkpt>
      <trkpt lat="47.85628" lon="-3.76041">
        <ele>44.76927986354</ele>
        <time>2021-03-15T21:16:18.217Z</time>
      </trkpt>
      <trkpt lat="47.85619" lon="-3.76131">
        <ele>45.18885755472</ele>
        <time>2021-03-15T21:16:32.691Z</time>
      </trkpt>
      <trkpt lat="47.8561" lon="-3.76221">
        <ele>45.59764481037</ele>
        <time>2021-03-15T21:16:47.175Z</time>
      </trkpt>
      <trkpt lat="47.85601" lon="-3.76311">
        <ele>46.05290943451</ele>
        <time>2021-03-15T21:17:01.669Z</time>
      </trkpt>
      <trkpt lat="47.8559" lon="-3.76393">
        <ele>46.47492098778</ele>
        <time>2021-03-15T21:17:16.172Z</time>
      </trkpt>
      <trkpt lat="47.85581" lon="-3.76486">
        <ele>46.90040172698</ele>
        <time>2021-03-15T21:17:30.685Z</time>
      </trkpt>
      <trkpt lat="47.85576" lon="-3.76563">
        <ele>47.4280460521</ele>
        <time>2021-03-15T21:17:45.206Z</time>
      </trkpt>
      <trkpt lat="47.85573" lon="-3.76649">
        <ele>47.97272460471</ele>
        <time>2021-03-15T21:17:59.736Z</time>
      </trkpt>
      <trkpt lat="47.85574" lon="-3.7673">
        <ele>48.65650811033</ele>
        <time>2021-03-15T21:18:14.275Z</time>
      </trkpt>
      <trkpt lat="47.85583" lon="-3.76854">
        <ele>49.36454924973</ele>
        <time>2021-03-15T21:18:28.828Z</time>
      </trkpt>
      <trkpt lat="47.85588" lon="-3.76901">
        <ele>50.02282316821</ele>
        <time>2021-03-15T21:18:43.386Z</time>
      </trkpt>
      <trkpt lat="47.85593" lon="-3.76941">
        <ele>50.72363121121</ele>
        <time>2021-03-15T21:18:57.948Z</time>
      </trkpt>
      <trkpt lat="47.85614" lon="-3.77054">
        <ele>51.450421566</ele>
        <time>2021-03-15T21:19:12.523Z</time>
      </trkpt>
      <trkpt lat="47.85635" lon="-3.77167">
        <ele>52.23994121252</ele>
        <time>2021-03-15T21:19:27.110Z</time>
      </trkpt>
      <trkpt lat="47.85655" lon="-3.7728">
        <ele>52.97052662644</ele>
        <time>2021-03-15T21:19:41.710Z</time>
      </trkpt>
      <trkpt lat="47.85676" lon="-3.77393">
        <ele>53.67508210112</ele>
        <time>2021-03-15T21:19:56.323Z</time>
      </trkpt>
      <trkpt lat="47.85696" lon="-3.77481">
        <ele>54.38215258791</ele>
        <time>2021-03-15T21:20:10.946Z</time>
      </trkpt>
      <trkpt lat="47.85716" lon="-3.77569">
        <ele>55.01448449633</ele>
        <time>2021-03-15T21:20:25.579Z</time>
      </trkpt>
      <trkpt lat="47.8572" lon="-3.77592">
        <ele>55.51113901356</ele>
        <time>2021-03-15T21:20:40.214Z</time>
      </trkpt>
      <trkpt lat="47.85718" lon="-3.77599">
        <ele>55.91479221693</ele>
        <time>2021-03-15T21:20:54.850Z</time>
      </trkpt>
      <trkpt lat="47.85719" lon="-3.77604">
        <ele>56.21527444945</ele>
        <time>2021-03-15T21:21:09.487Z</time>
      </trkpt>
      <trkpt lat="47.85723" lon="-3.77607">
        <ele>56.39393304705</ele>
        <time>2021-03-15T21:21:24.124Z</time>
      </trkpt>
      <trkpt lat="47.85731" lon="-3.77639">
        <ele>56.47775969071</ele>
        <time>2021-03-15T21:21:38.765Z</time>
      </trkpt>
      <trkpt lat="47.85761" lon="-3.77761">
        <ele>56.41766461081</ele>
        <time>2021-03-15T21:21:53.420Z</time>
      </trkpt>
      <trkpt lat="47.85763" lon="-3.77786">
        <ele>56.19263541786</ele>
        <time>2021-03-15T21:22:08.078Z</time>
      </trkpt>
      <trkpt lat="47.85763" lon="-3.77827">
        <ele>55.78461556185</ele>
        <time>2021-03-15T21:22:22.740Z</time>
      </trkpt>
      <trkpt lat="47.85762" lon="-3.77844">
        <ele>55.32518794079</ele>
        <time>2021-03-15T21:22:37.404Z</time>
      </trkpt>
      <trkpt lat="47.85751" lon="-3.77902">
        <ele>54.758772258</ele>
        <time>2021-03-15T21:22:52.074Z</time>
      </trkpt>
      <trkpt lat="47.8573" lon="-3.77995">
        <ele>54.0201691824</ele>
        <time>2021-03-15T21:23:06.755Z</time>
      </trkpt>
      <trkpt lat="47.85709" lon="-3.78088">
        <ele>53.26105853539</ele>
        <time>2021-03-15T21:23:21.447Z</time>
      </trkpt>
      <trkpt lat="47.85688" lon="-3.78181">
        <ele>52.49521023439</ele>
        <time>2021-03-15T21:23:36.149Z</time>
      </trkpt>
      <trkpt lat="47.85665" lon="-3.78275">
        <ele>51.62653299123</ele>
        <time>2021-03-15T21:23:50.862Z</time>
      </trkpt>
      <trkpt lat="47.85647" lon="-3.78366">
        <ele>50.59635198812</ele>
        <time>2021-03-15T21:24:05.585Z</time>
      </trkpt>
      <trkpt lat="47.85629" lon="-3.78457">
        <ele>49.46461782613</ele>
        <time>2021-03-15T21:24:20.318Z</time>
      </trkpt>
      <trkpt lat="47.85612" lon="-3.78555">
        <ele>48.41116307185</ele>
        <time>2021-03-15T21:24:35.062Z</time>
      </trkpt>
      <trkpt lat="47.85594" lon="-3.78652">
        <ele>47.29222663952</ele>
        <time>2021-03-15T21:24:49.817Z</time>
      </trkpt>
      <trkpt lat="47.85577" lon="-3.7875">
        <ele>46.2028380893</ele>
        <time>2021-03-15T21:25:04.583Z</time>
      </trkpt>
      <trkpt lat="47.85562" lon="-3.78812">
        <ele>45.01684225076</ele>
        <time>2021-03-15T21:25:19.356Z</time>
      </trkpt>
      <trkpt lat="47.85534" lon="-3.78879">
        <ele>43.87418413028</ele>
        <time>2021-03-15T21:25:34.138Z</time>
      </trkpt>
      <trkpt lat="47.85498" lon="-3.78948">
        <ele>42.67653643791</ele>
        <time>2021-03-15T21:25:48.929Z</time>
      </trkpt>
      <trkpt lat="47.85482" lon="-3.78989">
        <ele>41.72377682061</ele>
        <time>2021-03-15T21:26:03.725Z</time>
      </trkpt>
      <trkpt lat="47.85472" lon="-3.79035">
        <ele>40.82128038713</ele>
        <time>2021-03-15T21:26:18.526Z</time>
      </trkpt>
      <trkpt lat="47.85462" lon="-3.7912">
        <ele>39.96797190907</ele>
        <time>2021-03-15T21:26:33.337Z</time>
      </trkpt>
      <trkpt lat="47.85451" lon="-3.79205">
        <ele>39.1438072341</ele>
        <time>2021-03-15T21:26:48.157Z</time>
      </trkpt>
      <trkpt lat="47.85446" lon="-3.79263">
        <ele>38.57314657139</ele>
        <time>2021-03-15T21:27:02.983Z</time>
      </trkpt>
      <trkpt lat="47.85446" lon="-3.79262">
        <ele>38.0829592012</ele>
        <time>2021-03-15T21:27:17.809Z</time>
      </trkpt>
      <trkpt lat="47.85441" lon="-3.79394">
        <ele>37.70945146027</ele>
        <time>2021-03-15T21:27:32.650Z</time>
      </trkpt>
      <trkpt lat="47.85437" lon="-3.79525">
        <ele>37.57487023399</ele>
        <time>2021-03-15T21:27:47.505Z</time>
      </trkpt>
      <trkpt lat="47.85432" lon="-3.79657">
        <ele>37.32519705178</ele>
        <time>2021-03-15T21:28:02.374Z</time>
      </trkpt>
      <trkpt lat="47.85427" lon="-3.79788">
        <ele>37.34508776657</ele>
        <time>2021-03-15T21:28:17.257Z</time>
      </trkpt>
      <trkpt lat="47.85422" lon="-3.7992">
        <ele>37.40389840885</ele>
        <time>2021-03-15T21:28:32.154Z</time>
      </trkpt>
      <trkpt lat="47.85418" lon="-3.80052">
        <ele>37.59336051535</ele>
        <time>2021-03-15T21:28:47.066Z</time>
      </trkpt>
      <trkpt lat="47.85413" lon="-3.80183">
        <ele>37.7397536142</ele>
        <time>2021-03-15T21:29:01.992Z</time>
      </trkpt>
      <trkpt lat="47.85408" lon="-3.80315">
        <ele>38.15901972168</ele>
        <time>2021-03-15T21:29:16.932Z</time>
      </trkpt>
      <trkpt lat="47.85403" lon="-3.80446">
        <ele>38.73101215206</ele>
        <time>2021-03-15T21:29:31.886Z</time>
      </trkpt>
      <trkpt lat="47.85399" lon="-3.80578">
        <ele>39.01015797313</ele>
        <time>2021-03-15T21:29:46.854Z</time>
      </trkpt>
      <trkpt lat="47.85394" lon="-3.8071">
        <ele>39.56486873452</ele>
        <time>2021-03-15T21:30:01.837Z</time>
      </trkpt>
      <trkpt lat="47.85389" lon="-3.80841">
        <ele>40.15557348341</ele>
        <time>2021-03-15T21:30:16.834Z</time>
      </trkpt>
      <trkpt lat="47.85384" lon="-3.80973">
        <ele>40.82071492564</ele>
        <time>2021-03-15T21:30:31.845Z</time>
      </trkpt>
      <trkpt lat="47.8538" lon="-3.81105">
        <ele>41.54539036461</ele>
        <time>2021-03-15T21:30:46.870Z</time>
      </trkpt>
      <trkpt lat="47.85375" lon="-3.81236">
        <ele>42.36211072825</ele>
        <time>2021-03-15T21:31:01.909Z</time>
      </trkpt>
      <trkpt lat="47.8537" lon="-3.81368">
        <ele>43.00494368917</ele>
        <time>2021-03-15T21:31:16.963Z</time>
      </trkpt>
      <trkpt lat="47.85366" lon="-3.81499">
        <ele>43.90360320849</ele>
        <time>2021-03-15T21:31:32.031Z</time>
      </trkpt>
      <trkpt lat="47.85361" lon="-3.81631">
        <ele>44.69998712059</ele>
        <time>2021-03-15T21:31:47.113Z</time>
      </trkpt>
      <trkpt lat="47.85356" lon="-3.81763">
        <ele>45.45016134224</ele>
        <time>2021-03-15T21:32:02.209Z</time>
      </trkpt>
      <trkpt lat="47.85351" lon="-3.81894">
        <ele>46.0445448381</ele>
        <time>2021-03-15T21:32:17.319Z</time>
      </trkpt>
      <trkpt lat="47.85347" lon="-3.82026">
        <ele>46.54067012963</ele>
        <time>2021-03-15T21:32:32.444Z</time>
      </trkpt>
      <trkpt lat="47.85342" lon="-3.82157">
        <ele>47.10175863535</ele>
        <time>2021-03-15T21:32:47.583Z</time>
      </trkpt>
      <trkpt lat="47.85337" lon="-3.82289">
        <ele>47.71492267614</ele>
        <time>2021-03-15T21:33:02.736Z</time>
      </trkpt>
      <trkpt lat="47.85328" lon="-3.82364">
        <ele>48.39561911058</ele>
        <time>2021-03-15T21:33:17.897Z</time>
      </trkpt>
      <trkpt lat="47.85314" lon="-3.82455">
        <ele>49.07588255533</ele>
        <time>2021-03-15T21:33:33.068Z</time>
      </trkpt>
      <trkpt lat="47.853" lon="-3.82546">
        <ele>49.75591989757</ele>
        <time>2021-03-15T21:33:48.249Z</time>
      </trkpt>
      <trkpt lat="47.85288" lon="-3.8262">
        <ele>50.40821042734</ele>
        <time>2021-03-15T21:34:03.439Z</time>
      </trkpt>
      <trkpt lat="47.85275" lon="-3.82694">
        <ele>50.99230285975</ele>
        <time>2021-03-15T21:34:18.637Z</time>
      </trkpt>
      <trkpt lat="47.85271" lon="-3.82743">
        <ele>51.46379995393</ele>
        <time>2021-03-15T21:34:33.840Z</time>
      </trkpt>
      <trkpt lat="47.85277" lon="-3.8281">
        <ele>51.82121006902</ele>
        <time>2021-03-15T21:34:49.050Z</time>
      </trkpt>
      <trkpt lat="47.85283" lon="-3.8285">
        <ele>52.09443780005</ele>
        <time>2021-03-15T21:35:04.265Z</time>
      </trkpt>
      <trkpt lat="47.85292" lon="-3.82891">
        <ele>52.33627536983</ele>
        <time>2021-03-15T21:35:19.485Z</time>
      </trkpt>
      <trkpt lat="47.85324" lon="-3.83001">
        <ele>52.43396072221</ele>
        <time>2021-03-15T21:35:34.717Z</time>
      </trkpt>
      <trkpt lat="47.85337" lon="-3.83086">
        <ele>52.49626488141</ele>
        <time>2021-03-15T21:35:49.959Z</time>
      </trkpt>
      <trkpt lat="47.85339" lon="-3.83156">
        <ele>52.45482267997</ele>
        <time>2021-03-15T21:36:05.208Z</time>
      </trkpt>
      <trkpt lat="47.85339" lon="-3.83247">
        <ele>52.40014480234</ele>
        <time>2021-03-15T21:36:20.467Z</time>
      </trkpt>
      <trkpt lat="47.85339" lon="-3.83337">
        <ele>52.14793668205</ele>
        <time>2021-03-15T21:36:35.736Z</time>
      </trkpt>
      <trkpt lat="47.85339" lon="-3.83428">
        <ele>51.94478463001</ele>
        <time>2021-03-15T21:36:51.015Z</time>
      </trkpt>
      <trkpt lat="47.85344" lon="-3.83464">
        <ele>51.54132311436</ele>
        <time>2021-03-15T21:37:06.298Z</time>
      </trkpt>
      <trkpt lat="47.85362" lon="-3.83536">
        <ele>51.1458019832</ele>
        <time>2021-03-15T21:37:21.589Z</time>
      </trkpt>
      <trkpt lat="47.85376" lon="-3.83611">
        <ele>50.61926305044</ele>
        <time>2021-03-15T21:37:36.888Z</time>
      </trkpt>
      <trkpt lat="47.85393" lon="-3.83723">
        <ele>49.96512852055</ele>
        <time>2021-03-15T21:37:52.200Z</time>
      </trkpt>
      <trkpt lat="47.85411" lon="-3.83835">
        <ele>49.22538590368</ele>
        <time>2021-03-15T21:38:07.524Z</time>
      </trkpt>
      <trkpt lat="47.85428" lon="-3.83947">
        <ele>48.51074972665</ele>
        <time>2021-03-15T21:38:22.860Z</time>
      </trkpt>
      <trkpt lat="47.85445" lon="-3.84059">
        <ele>47.90862118286</ele>
        <time>2021-03-15T21:38:38.209Z</time>
      </trkpt>
      <trkpt lat="47.85457" lon="-3.84183">
        <ele>47.020635687</ele>
        <time>2021-03-15T21:38:53.571Z</time>
      </trkpt>
      <trkpt lat="47.85468" lon="-3.84306">
        <ele>46.08061317497</ele>
        <time>2021-03-15T21:39:08.947Z</time>
      </trkpt>
      <trkpt lat="47.8548" lon="-3.8443">
        <ele>45.39280004527</ele>
        <time>2021-03-15T21:39:24.336Z</time>
      </trkpt>
      <trkpt lat="47.8549" lon="-3.84528">
        <ele>44.59137860257</ele>
        <time>2021-03-15T21:39:39.736Z</time>
      </trkpt>
      <trkpt lat="47.85494" lon="-3.84598">
        <ele>43.89665313746</ele>
        <time>2021-03-15T21:39:55.143Z</time>
      </trkpt>
      <trkpt lat="47.85498" lon="-3.84668">
        <ele>43.18504491374</ele>
        <time>2021-03-15T21:40:10.558Z</time>
      </trkpt>
      <trkpt lat="47.85497" lon="-3.84702">
        <ele>42.59938105077</ele>
        <time>2021-03-15T21:40:25.977Z</time>
      </trkpt>
      <trkpt lat="47.85485" lon="-3.8483">
        <ele>42.14160439221</ele>
        <time>2021-03-15T21:40:41.410Z</time>
      </trkpt>
      <trkpt lat="47.85485" lon="-3.84853">
        <ele>41.69928034546</ele>
        <time>2021-03-15T21:40:56.845Z</time>
      </trkpt>
      <trkpt lat="47.85476" lon="-3.84947">
        <ele>41.2248865664</ele>
        <time>2021-03-15T21:41:12.290Z</time>
      </trkpt>
      <trkpt lat="47.85499" lon="-3.8505">
        <ele>40.94365428907</ele>
        <time>2021-03-15T21:41:27.747Z</time>
      </trkpt>
      <trkpt lat="47.85503" lon="-3.85085">
        <ele>40.67080265784</ele>
        <time>2021-03-15T21:41:43.208Z</time>
      </trkpt>
      <trkpt lat="47.85504" lon="-3.85148">
        <ele>40.4274747304</ele>
        <time>2021-03-15T21:41:58.676Z</time>
      </trkpt>
      <trkpt lat="47.85508" lon="-3.85177">
        <ele>40.1586163915</ele>
        <time>2021-03-15T21:42:14.147Z</time>
      </trkpt>
      <trkpt lat="47.85514" lon="-3.85198">
        <ele>39.87655323999</ele>
        <time>2021-03-15T21:42:29.620Z</time>
      </trkpt>
      <trkpt lat="47.85519" lon="-3.85205">
        <ele>39.56213196199</ele>
        <time>2021-03-15T21:42:45.094Z</time>
      </trkpt>
      <trkpt lat="47.85543" lon="-3.85224">
        <ele>39.22726175974</ele>
        <time>2021-03-15T21:43:00.573Z</time>
      </trkpt>
      <trkpt lat="47.85548" lon="-3.85232">
        <ele>38.81274049325</ele>
        <time>2021-03-15T21:43:16.053Z</time>
      </trkpt>
      <trkpt lat="47.85553" lon="-3.85286">
        <ele>38.26270988658</ele>
        <time>2021-03-15T21:43:31.539Z</time>
      </trkpt>
      <trkpt lat="47.85575" lon="-3.85308">
        <ele>37.71828176682</ele>
        <time>2021-03-15T21:43:47.029Z</time>
      </trkpt>
      <trkpt lat="47.85604" lon="-3.85343">
        <ele>37.1083794773</ele>
        <time>2021-03-15T21:44:02.525Z</time>
      </trkpt>
      <trkpt lat="47.85664" lon="-3.85423">
        <ele>36.37861080987</ele>
        <time>2021-03-15T21:44:18.034Z</time>
      </trkpt>
      <trkpt lat="47.85688" lon="-3.85457">
        <ele>35.57778524297</ele>
        <time>2021-03-15T21:44:33.548Z</time>
      </trkpt>
      <trkpt lat="47.85703" lon="-3.85487">
        <ele>34.74530899439</ele>
        <time>2021-03-15T21:44:49.066Z</time>
      </trkpt>
      <trkpt lat="47.85713" lon="-3.85514">
        <ele>33.87347444543</ele>
        <time>2021-03-15T21:45:04.588Z</time>
      </trkpt>
      <trkpt lat="47.85721" lon="-3.85543">
        <ele>32.95685378177</ele>
        <time>2021-03-15T21:45:20.113Z</time>
      </trkpt>
      <trkpt lat="47.85726" lon="-3.85577">
        <ele>31.99587802217</ele>
        <time>2021-03-15T21:45:35.642Z</time>
      </trkpt>
      <trkpt lat="47.85727" lon="-3.85612">
        <ele>31.02733618668</ele>
        <time>2021-03-15T21:45:51.174Z</time>
      </trkpt>
      <trkpt lat="47.85721" lon="-3.85659">
        <ele>30.09957424278</ele>
        <time>2021-03-15T21:46:06.712Z</time>
      </trkpt>
      <trkpt lat="47.8571" lon="-3.85718">
        <ele>29.22037612351</ele>
        <time>2021-03-15T21:46:22.256Z</time>
      </trkpt>
      <trkpt lat="47.85698" lon="-3.85755">
        <ele>28.42821625368</ele>
        <time>2021-03-15T21:46:37.805Z</time>
      </trkpt>
      <trkpt lat="47.85693" lon="-3.85765">
        <ele>27.69160688553</ele>
        <time>2021-03-15T21:46:53.355Z</time>
      </trkpt>
      <trkpt lat="47.85687" lon="-3.85769">
        <ele>27.00463619212</ele>
        <time>2021-03-15T21:47:08.906Z</time>
      </trkpt>
      <trkpt lat="47.85677" lon="-3.85774">
        <ele>26.37113503946</ele>
        <time>2021-03-15T21:47:24.459Z</time>
      </trkpt>
      <trkpt lat="47.85673" lon="-3.85788">
        <ele>25.77509086921</ele>
        <time>2021-03-15T21:47:40.013Z</time>
      </trkpt>
      <trkpt lat="47.85677" lon="-3.85805">
        <ele>25.20956900955</ele>
        <time>2021-03-15T21:47:55.569Z</time>
      </trkpt>
      <trkpt lat="47.85681" lon="-3.85807">
        <ele>24.67705596035</ele>
        <time>2021-03-15T21:48:11.126Z</time>
      </trkpt>
      <trkpt lat="47.85683" lon="-3.85851">
        <ele>24.18181621315</ele>
        <time>2021-03-15T21:48:26.688Z</time>
      </trkpt>
      <trkpt lat="47.85668" lon="-3.85931">
        <ele>23.59659081825</ele>
        <time>2021-03-15T21:48:42.259Z</time>
      </trkpt>
      <trkpt lat="47.85653" lon="-3.86011">
        <ele>23.15335367498</ele>
        <time>2021-03-15T21:48:57.839Z</time>
      </trkpt>
      <trkpt lat="47.85649" lon="-3.86047">
        <ele>22.74972891478</ele>
        <time>2021-03-15T21:49:13.423Z</time>
      </trkpt>
      <trkpt lat="47.85646" lon="-3.86138">
        <ele>22.37985457448</ele>
        <time>2021-03-15T21:49:29.016Z</time>
      </trkpt>
      <trkpt lat="47.85647" lon="-3.86228">
        <ele>21.94551045004</ele>
        <time>2021-03-15T21:49:44.619Z</time>
      </trkpt>
      <trkpt lat="47.85647" lon="-3.86318">
        <ele>21.54710226495</ele>
        <time>2021-03-15T21:50:00.232Z</time>
      </trkpt>
      <trkpt lat="47.85648" lon="-3.86386">
        <ele>21.11844703002</ele>
        <time>2021-03-15T21:50:15.852Z</time>
      </trkpt>
      <trkpt lat="47.85656" lon="-3.86424">
        <ele>20.67832359649</ele>
        <time>2021-03-15T21:50:31.476Z</time>
      </trkpt>
      <trkpt lat="47.85655" lon="-3.86433">
        <ele>20.2605493234</ele>
        <time>2021-03-15T21:50:47.101Z</time>
      </trkpt>
      <trkpt lat="47.85659" lon="-3.86468">
        <ele>19.81938889105</ele>
        <time>2021-03-15T21:51:02.730Z</time>
      </trkpt>
      <trkpt lat="47.85682" lon="-3.86564">
        <ele>19.47633204631</ele>
        <time>2021-03-15T21:51:18.370Z</time>
      </trkpt>
      <trkpt lat="47.85701" lon="-3.86661">
        <ele>18.89897948418</ele>
        <time>2021-03-15T21:51:34.021Z</time>
      </trkpt>
      <trkpt lat="47.85724" lon="-3.86759">
        <ele>18.42879553599</ele>
        <time>2021-03-15T21:51:49.683Z</time>
      </trkpt>
      <trkpt lat="47.85746" lon="-3.86857">
        <ele>17.54536536832</ele>
        <time>2021-03-15T21:52:05.356Z</time>
      </trkpt>
      <trkpt lat="47.85769" lon="-3.86955">
        <ele>16.74825825045</ele>
        <time>2021-03-15T21:52:21.041Z</time>
      </trkpt>
      <trkpt lat="47.85804" lon="-3.87062">
        <ele>15.87470426771</ele>
        <time>2021-03-15T21:52:36.738Z</time>
      </trkpt>
      <trkpt lat="47.85839" lon="-3.8717">
        <ele>14.97356949314</ele>
        <time>2021-03-15T21:52:52.448Z</time>
      </trkpt>
      <trkpt lat="47.85871" lon="-3.87281">
        <ele>14.19205747863</ele>
        <time>2021-03-15T21:53:08.171Z</time>
      </trkpt>
      <trkpt lat="47.85874" lon="-3.87305">
        <ele>13.41019640448</ele>
        <time>2021-03-15T21:53:23.897Z</time>
      </trkpt>
      <trkpt lat="47.85874" lon="-3.87354">
        <ele>12.68252367075</ele>
        <time>2021-03-15T21:53:39.628Z</time>
      </trkpt>
      <trkpt lat="47.85872" lon="-3.8739">
        <ele>11.94840474417</ele>
        <time>2021-03-15T21:53:55.363Z</time>
      </trkpt>
      <trkpt lat="47.85857" lon="-3.87486">
        <ele>11.2298808659</ele>
        <time>2021-03-15T21:54:11.109Z</time>
      </trkpt>
      <trkpt lat="47.85843" lon="-3.87581">
        <ele>10.45567489456</ele>
        <time>2021-03-15T21:54:26.865Z</time>
      </trkpt>
      <trkpt lat="47.85828" lon="-3.87677">
        <ele>9.74205547852</ele>
        <time>2021-03-15T21:54:42.632Z</time>
      </trkpt>
      <trkpt lat="47.85816" lon="-3.87729">
        <ele>9.10961720364</ele>
        <time>2021-03-15T21:54:58.405Z</time>
      </trkpt>
      <trkpt lat="47.85808" lon="-3.87738">
        <ele>8.54814945001</ele>
        <time>2021-03-15T21:55:14.179Z</time>
      </trkpt>
      <trkpt lat="47.85805" lon="-3.87753">
        <ele>8.06455029356</ele>
        <time>2021-03-15T21:55:29.955Z</time>
      </trkpt>
      <trkpt lat="47.85805" lon="-3.87762">
        <ele>7.68373676731</ele>
        <time>2021-03-15T21:55:45.732Z</time>
      </trkpt>
      <trkpt lat="47.8581" lon="-3.87775">
        <ele>7.40468641507</ele>
        <time>2021-03-15T21:56:01.511Z</time>
      </trkpt>
      <trkpt lat="47.85814" lon="-3.87793">
        <ele>7.21486296142</ele>
        <time>2021-03-15T21:56:17.292Z</time>
      </trkpt>
      <trkpt lat="47.85813" lon="-3.87839">
        <ele>7.1068027955</ele>
        <time>2021-03-15T21:56:33.078Z</time>
      </trkpt>
      <trkpt lat="47.85816" lon="-3.87875">
        <ele>7.14735134589</ele>
        <time>2021-03-15T21:56:48.868Z</time>
      </trkpt>
      <trkpt lat="47.85821" lon="-3.87902">
        <ele>7.31847926426</ele>
        <time>2021-03-15T21:57:04.661Z</time>
      </trkpt>
      <trkpt lat="47.85839" lon="-3.87936">
        <ele>7.63776752508</ele>
        <time>2021-03-15T21:57:20.458Z</time>
      </trkpt>
      <trkpt lat="47.85881" lon="-3.88006">
        <ele>7.81384837714</ele>
        <time>2021-03-15T21:57:36.265Z</time>
      </trkpt>
      <trkpt lat="47.85922" lon="-3.88076">
        <ele>8.17853912005</ele>
        <time>2021-03-15T21:57:52.082Z</time>
      </trkpt>
      <trkpt lat="47.85964" lon="-3.88146">
        <ele>8.79101829207</ele>
        <time>2021-03-15T21:58:07.909Z</time>
      </trkpt>
      <trkpt lat="47.8599" lon="-3.88193">
        <ele>9.32820902506</ele>
        <time>2021-03-15T21:58:23.743Z</time>
      </trkpt>
      <trkpt lat="47.86032" lon="-3.88295">
        <ele>9.95308161363</ele>
        <time>2021-03-15T21:58:39.590Z</time>
      </trkpt>
      <trkpt lat="47.86067" lon="-3.88383">
        <ele>10.66948702314</ele>
        <time>2021-03-15T21:58:55.448Z</time>
      </trkpt>
      <trkpt lat="47.86102" lon="-3.8847">
        <ele>11.44334588998</ele>
        <time>2021-03-15T21:59:11.317Z</time>
      </trkpt>
      <trkpt lat="47.86137" lon="-3.88558">
        <ele>12.18701991551</ele>
        <time>2021-03-15T21:59:27.197Z</time>
      </trkpt>
      <trkpt lat="47.86172" lon="-3.88646">
        <ele>12.90234157908</ele>
        <time>2021-03-15T21:59:43.088Z</time>
      </trkpt>
      <trkpt lat="47.86194" lon="-3.88708">
        <ele>13.50686418945</ele>
        <time>2021-03-15T21:59:58.986Z</time>
      </trkpt>
      <trkpt lat="47.86209" lon="-3.88767">
        <ele>14.02900064254</ele>
        <time>2021-03-15T22:00:14.891Z</time>
      </trkpt>
      <trkpt lat="47.8623" lon="-3.88867">
        <ele>14.51592328939</ele>
        <time>2021-03-15T22:00:30.807Z</time>
      </trkpt>
      <trkpt lat="47.86229" lon="-3.88903">
        <ele>14.89158372422</ele>
        <time>2021-03-15T22:00:46.727Z</time>
      </trkpt>
      <trkpt lat="47.86226" lon="-3.88919">
        <ele>15.16494500177</ele>
        <time>2021-03-15T22:01:02.649Z</time>
      </trkpt>
      <trkpt lat="47.86226" lon="-3.8893">
        <ele>15.36803982433</ele>
        <time>2021-03-15T22:01:18.572Z</time>
      </trkpt>
      <trkpt lat="47.86231" lon="-3.88946">
        <ele>15.50683268006</ele>
        <time>2021-03-15T22:01:34.497Z</time>
      </trkpt>
      <trkpt lat="47.8624" lon="-3.88958">
        <ele>15.56278592705</ele>
        <time>2021-03-15T22:01:50.424Z</time>
      </trkpt>
      <trkpt lat="47.86253" lon="-3.8896">
        <ele>15.55390979497</ele>
        <time>2021-03-15T22:02:06.353Z</time>
      </trkpt>
      <trkpt lat="47.86263" lon="-3.88967">
        <ele>15.49192986428</ele>
        <time>2021-03-15T22:02:22.284Z</time>
      </trkpt>
      <trkpt lat="47.8628" lon="-3.89012">
        <ele>15.35484273282</ele>
        <time>2021-03-15T22:02:38.221Z</time>
      </trkpt>
      <trkpt lat="47.8629" lon="-3.89026">
        <ele>15.26546282388</ele>
        <time>2021-03-15T22:02:54.160Z</time>
      </trkpt>
      <trkpt lat="47.86339" lon="-3.89064">
        <ele>15.0935935723</ele>
        <time>2021-03-15T22:03:10.108Z</time>
      </trkpt>
      <trkpt lat="47.8634" lon="-3.89065">
        <ele>15.01571578723</ele>
        <time>2021-03-15T22:03:26.056Z</time>
      </trkpt>
      <trkpt lat="47.86416" lon="-3.89125">
        <ele>14.96015721334</ele>
        <time>2021-03-15T22:03:42.018Z</time>
      </trkpt>
      <trkpt lat="47.86492" lon="-3.89185">
        <ele>14.92883005495</ele>
        <time>2021-03-15T22:03:57.993Z</time>
      </trkpt>
      <trkpt lat="47.86568" lon="-3.89245">
        <ele>14.89901586959</ele>
        <time>2021-03-15T22:04:13.982Z</time>
      </trkpt>
      <trkpt lat="47.86644" lon="-3.89306">
        <ele>15.00252914181</ele>
        <time>2021-03-15T22:04:29.985Z</time>
      </trkpt>
      <trkpt lat="47.8672" lon="-3.89366">
        <ele>15.20169692461</ele>
        <time>2021-03-15T22:04:46.002Z</time>
      </trkpt>
      <trkpt lat="47.86796" lon="-3.89426">
        <ele>15.40824535639</ele>
        <time>2021-03-15T22:05:02.033Z</time>
      </trkpt>
      <trkpt lat="47.86872" lon="-3.89486">
        <ele>15.59745602188</ele>
        <time>2021-03-15T22:05:18.077Z</time>
      </trkpt>
      <trkpt lat="47.86929" lon="-3.89528">
        <ele>15.69050416784</ele>
        <time>2021-03-15T22:05:34.132Z</time>
      </trkpt>
      <trkpt lat="47.86995" lon="-3.89581">
        <ele>15.71289801886</ele>
        <time>2021-03-15T22:05:50.199Z</time>
      </trkpt>
      <trkpt lat="47.87062" lon="-3.89633">
        <ele>15.745605469</ele>
        <time>2021-03-15T22:06:06.278Z</time>
      </trkpt>
      <trkpt lat="47.87128" lon="-3.89686">
        <ele>15.71088046207</ele>
        <time>2021-03-15T22:06:22.369Z</time>
      </trkpt>
      <trkpt lat="47.87194" lon="-3.89739">
        <ele>15.75822297224</ele>
        <time>2021-03-15T22:06:38.472Z</time>
      </trkpt>
      <trkpt lat="47.8725" lon="-3.89778">
        <ele>15.92878330727</ele>
        <time>2021-03-15T22:06:54.585Z</time>
      </trkpt>
      <trkpt lat="47.87282" lon="-3.89793">
        <ele>16.10849156289</ele>
        <time>2021-03-15T22:07:10.703Z</time>
      </trkpt>
      <trkpt lat="47.8732" lon="-3.89807">
        <ele>16.34412384256</ele>
        <time>2021-03-15T22:07:26.827Z</time>
      </trkpt>
      <trkpt lat="47.874" lon="-3.89829">
        <ele>16.41480382199</ele>
        <time>2021-03-15T22:07:42.964Z</time>
      </trkpt>
      <trkpt lat="47.8748" lon="-3.89851">
        <ele>16.54475368526</ele>
        <time>2021-03-15T22:07:59.114Z</time>
      </trkpt>
      <trkpt lat="47.87533" lon="-3.89866">
        <ele>16.8479889494</ele>
        <time>2021-03-15T22:08:15.273Z</time>
      </trkpt>
      <trkpt lat="47.87585" lon="-3.89881">
        <ele>17.08243337586</ele>
        <time>2021-03-15T22:08:31.440Z</time>
      </trkpt>
      <trkpt lat="47.87624" lon="-3.89902">
        <ele>17.33762091454</ele>
        <time>2021-03-15T22:08:47.614Z</time>
      </trkpt>
      <trkpt lat="47.87667" lon="-3.89929">
        <ele>17.61916837792</ele>
        <time>2021-03-15T22:09:03.796Z</time>
      </trkpt>
      <trkpt lat="47.87704" lon="-3.89969">
        <ele>17.85125364045</ele>
        <time>2021-03-15T22:09:19.985Z</time>
      </trkpt>
      <trkpt lat="47.87738" lon="-3.9001">
        <ele>17.97983241607</ele>
        <time>2021-03-15T22:09:36.181Z</time>
      </trkpt>
      <trkpt lat="47.87772" lon="-3.90064">
        <ele>18.12255308123</ele>
        <time>2021-03-15T22:09:52.385Z</time>
      </trkpt>
      <trkpt lat="47.87802" lon="-3.90132">
        <ele>18.13146880919</ele>
        <time>2021-03-15T22:10:08.598Z</time>
      </trkpt>
      <trkpt lat="47.87843" lon="-3.9024">
        <ele>18.1517389613</ele>
        <time>2021-03-15T22:10:24.824Z</time>
      </trkpt>
      <trkpt lat="47.87884" lon="-3.90348">
        <ele>17.60058641284</ele>
        <time>2021-03-15T22:10:41.063Z</time>
      </trkpt>
      <trkpt lat="47.87924" lon="-3.90456">
        <ele>17.4451742425</ele>
        <time>2021-03-15T22:10:57.316Z</time>
      </trkpt>
      <trkpt lat="47.87965" lon="-3.90564">
        <ele>18.17759798483</ele>
        <time>2021-03-15T22:11:13.582Z</time>
      </trkpt>
      <trkpt lat="47.87962" lon="-3.90593">
        <ele>18.43175546713</ele>
        <time>2021-03-15T22:11:29.851Z</time>
      </trkpt>
      <trkpt lat="47.87952" lon="-3.90619">
        <ele>18.71513394012</ele>
        <time>2021-03-15T22:11:46.123Z</time>
      </trkpt>
      <trkpt lat="47.87949" lon="-3.90635">
        <ele>19.15417197567</ele>
        <time>2021-03-15T22:12:02.397Z</time>
      </trkpt>
      <trkpt lat="47.8795" lon="-3.90646">
        <ele>19.71475315769</ele>
        <time>2021-03-15T22:12:18.672Z</time>
      </trkpt>
      <trkpt lat="47.87958" lon="-3.9066">
        <ele>20.41315837903</ele>
        <time>2021-03-15T22:12:34.949Z</time>
      </trkpt>
      <trkpt lat="47.87965" lon="-3.90661">
        <ele>21.22458923758</ele>
        <time>2021-03-15T22:12:51.227Z</time>
      </trkpt>
      <trkpt lat="47.87971" lon="-3.90661">
        <ele>22.15673216081</ele>
        <time>2021-03-15T22:13:07.506Z</time>
      </trkpt>
      <trkpt lat="47.87987" lon="-3.90666">
        <ele>23.22696568487</ele>
        <time>2021-03-15T22:13:23.788Z</time>
      </trkpt>
      <trkpt lat="47.88" lon="-3.90681">
        <ele>24.42324649368</ele>
        <time>2021-03-15T22:13:40.073Z</time>
      </trkpt>
      <trkpt lat="47.88014" lon="-3.90702">
        <ele>25.74991460146</ele>
        <time>2021-03-15T22:13:56.361Z</time>
      </trkpt>
      <trkpt lat="47.88028" lon="-3.90746">
        <ele>27.16681719799</ele>
        <time>2021-03-15T22:14:12.654Z</time>
      </trkpt>
      <trkpt lat="47.88049" lon="-3.90811">
        <ele>28.74938066089</ele>
        <time>2021-03-15T22:14:28.955Z</time>
      </trkpt>
      <trkpt lat="47.88096" lon="-3.90925">
        <ele>30.37170703013</ele>
        <time>2021-03-15T22:14:45.270Z</time>
      </trkpt>
      <trkpt lat="47.88137" lon="-3.91">
        <ele>32.22895436312</ele>
        <time>2021-03-15T22:15:01.596Z</time>
      </trkpt>
      <trkpt lat="47.88167" lon="-3.91045">
        <ele>33.96298404454</ele>
        <time>2021-03-15T22:15:17.928Z</time>
      </trkpt>
      <trkpt lat="47.88204" lon="-3.91086">
        <ele>35.72324049543</ele>
        <time>2021-03-15T22:15:34.268Z</time>
      </trkpt>
      <trkpt lat="47.88239" lon="-3.91115">
        <ele>37.50593603114</ele>
        <time>2021-03-15T22:15:50.614Z</time>
      </trkpt>
      <trkpt lat="47.88315" lon="-3.91163">
        <ele>39.12749253765</ele>
        <time>2021-03-15T22:16:06.973Z</time>
      </trkpt>
      <trkpt lat="47.8839" lon="-3.91211">
        <ele>40.86020093567</ele>
        <time>2021-03-15T22:16:23.346Z</time>
      </trkpt>
      <trkpt lat="47.88466" lon="-3.9126">
        <ele>42.6482149236</ele>
        <time>2021-03-15T22:16:39.732Z</time>
      </trkpt>
      <trkpt lat="47.88541" lon="-3.91308">
        <ele>44.60175489502</ele>
        <time>2021-03-15T22:16:56.131Z</time>
      </trkpt>
      <trkpt lat="47.8856" lon="-3.91337">
        <ele>46.48981722096</ele>
        <time>2021-03-15T22:17:12.534Z</time>
      </trkpt>
      <trkpt lat="47.88563" lon="-3.91345">
        <ele>48.28122679101</ele>
        <time>2021-03-15T22:17:28.938Z</time>
      </trkpt>
      <trkpt lat="47.88569" lon="-3.91353">
        <ele>50.04929067236</ele>
        <time>2021-03-15T22:17:45.344Z</time>
      </trkpt>
      <trkpt lat="47.88578" lon="-3.91356">
        <ele>51.76951020895</ele>
        <time>2021-03-15T22:18:01.751Z</time>
      </trkpt>
      <trkpt lat="47.88611" lon="-3.91355">
        <ele>53.42496849073</ele>
        <time>2021-03-15T22:18:18.163Z</time>
      </trkpt>
      <trkpt lat="47.88688" lon="-3.91405">
        <ele>55.32643945978</ele>
        <time>2021-03-15T22:18:34.589Z</time>
      </trkpt>
      <trkpt lat="47.88766" lon="-3.91455">
        <ele>56.89273207412</ele>
        <time>2021-03-15T22:18:51.028Z</time>
      </trkpt>
      <trkpt lat="47.88843" lon="-3.91505">
        <ele>58.34149319154</ele>
        <time>2021-03-15T22:19:07.481Z</time>
      </trkpt>
      <trkpt lat="47.88918" lon="-3.91555">
        <ele>59.63574136604</ele>
        <time>2021-03-15T22:19:23.947Z</time>
      </trkpt>
      <trkpt lat="47.88966" lon="-3.91589">
        <ele>60.77969035864</ele>
        <time>2021-03-15T22:19:40.421Z</time>
      </trkpt>
      <trkpt lat="47.88985" lon="-3.9161">
        <ele>61.70515585608</ele>
        <time>2021-03-15T22:19:56.899Z</time>
      </trkpt>
      <trkpt lat="47.88991" lon="-3.91622">
        <ele>62.47779297853</ele>
        <time>2021-03-15T22:20:13.379Z</time>
      </trkpt>
      <trkpt lat="47.88998" lon="-3.91658">
        <ele>63.07718709848</ele>
        <time>2021-03-15T22:20:29.863Z</time>
      </trkpt>
      <trkpt lat="47.89012" lon="-3.91678">
        <ele>63.57140856946</ele>
        <time>2021-03-15T22:20:46.350Z</time>
      </trkpt>
      <trkpt lat="47.89019" lon="-3.91679">
        <ele>63.90775216448</ele>
        <time>2021-03-15T22:21:02.838Z</time>
      </trkpt>
      <trkpt lat="47.89035" lon="-3.91678">
        <ele>64.11864012687</ele>
        <time>2021-03-15T22:21:19.329Z</time>
      </trkpt>
      <trkpt lat="47.89042" lon="-3.91671">
        <ele>64.21849993568</ele>
        <time>2021-03-15T22:21:35.821Z</time>
      </trkpt>
      <trkpt lat="47.89048" lon="-3.91664">
        <ele>64.22353811319</ele>
        <time>2021-03-15T22:21:52.314Z</time>
      </trkpt>
      <trkpt lat="47.89053" lon="-3.91651">
        <ele>64.1513068706</ele>
        <time>2021-03-15T22:22:08.809Z</time>
      </trkpt>
      <trkpt lat="47.89055" lon="-3.91634">
        <ele>64.02030282366</ele>
        <time>2021-03-15T22:22:25.306Z</time>
      </trkpt>
      <trkpt lat="47.89067" lon="-3.91623">
        <ele>63.84959529261</ele>
        <time>2021-03-15T22:22:41.805Z</time>
      </trkpt>
      <trkpt lat="47.8908" lon="-3.91612">
        <ele>63.65848040643</ele>
        <time>2021-03-15T22:22:58.306Z</time>
      </trkpt>
      <trkpt lat="47.89121" lon="-3.91587">
        <ele>63.42963954999</ele>
        <time>2021-03-15T22:23:14.814Z</time>
      </trkpt>
      <trkpt lat="47.89122" lon="-3.91587">
        <ele>63.25417019129</ele>
        <time>2021-03-15T22:23:31.323Z</time>
      </trkpt>
      <trkpt lat="47.89168" lon="-3.91561">
        <ele>63.08663411638</ele>
        <time>2021-03-15T22:23:47.840Z</time>
      </trkpt>
      <trkpt lat="47.89214" lon="-3.91535">
        <ele>63.06262334021</ele>
        <time>2021-03-15T22:24:04.364Z</time>
      </trkpt>
      <trkpt lat="47.89263" lon="-3.91508">
        <ele>62.97184361517</ele>
        <time>2021-03-15T22:24:20.897Z</time>
      </trkpt>
      <trkpt lat="47.89312" lon="-3.91481">
        <ele>62.96849984235</ele>
        <time>2021-03-15T22:24:37.438Z</time>
      </trkpt>
      <trkpt lat="47.89354" lon="-3.91454">
        <ele>63.21749431183</ele>
        <time>2021-03-15T22:24:53.986Z</time>
      </trkpt>
      <trkpt lat="47.89395" lon="-3.91427">
        <ele>63.46130139318</ele>
        <time>2021-03-15T22:25:10.542Z</time>
      </trkpt>
      <trkpt lat="47.89426" lon="-3.91434">
        <ele>63.81413491962</ele>
        <time>2021-03-15T22:25:27.103Z</time>
      </trkpt>
      <trkpt lat="47.89436" lon="-3.91441">
        <ele>64.23815747477</ele>
        <time>2021-03-15T22:25:43.665Z</time>
      </trkpt>
      <trkpt lat="47.89444" lon="-3.91441">
        <ele>64.75981635774</ele>
        <time>2021-03-15T22:26:00.229Z</time>
      </trkpt>
      <trkpt lat="47.89454" lon="-3.91433">
        <ele>65.37523803144</ele>
        <time>2021-03-15T22:26:16.795Z</time>
      </trkpt>
      <trkpt lat="47.89458" lon="-3.91427">
        <ele>66.0431447156</ele>
        <time>2021-03-15T22:26:33.361Z</time>
      </trkpt>
      <trkpt lat="47.89461" lon="-3.91417">
        <ele>66.76417078126</ele>
        <time>2021-03-15T22:26:49.929Z</time>
      </trkpt>
      <trkpt lat="47.89481" lon="-3.9138">
        <ele>67.57197457881</ele>
        <time>2021-03-15T22:27:06.502Z</time>
      </trkpt>
      <trkpt lat="47.89557" lon="-3.91337">
        <ele>68.50442844378</ele>
        <time>2021-03-15T22:27:23.088Z</time>
      </trkpt>
      <trkpt lat="47.89633" lon="-3.91294">
        <ele>69.3100900714</ele>
        <time>2021-03-15T22:27:39.687Z</time>
      </trkpt>
      <trkpt lat="47.89709" lon="-3.91251">
        <ele>70.15464760748</ele>
        <time>2021-03-15T22:27:56.299Z</time>
      </trkpt>
      <trkpt lat="47.89785" lon="-3.91208">
        <ele>70.9323411818</ele>
        <time>2021-03-15T22:28:12.924Z</time>
      </trkpt>
      <trkpt lat="47.89819" lon="-3.9119">
        <ele>71.61074105416</ele>
        <time>2021-03-15T22:28:29.555Z</time>
      </trkpt>
      <trkpt lat="47.89865" lon="-3.9118">
        <ele>72.23941229254</ele>
        <time>2021-03-15T22:28:46.193Z</time>
      </trkpt>
      <trkpt lat="47.89874" lon="-3.91181">
        <ele>72.74243807399</ele>
        <time>2021-03-15T22:29:02.832Z</time>
      </trkpt>
      <trkpt lat="47.89947" lon="-3.91183">
        <ele>73.03661601728</ele>
        <time>2021-03-15T22:29:19.483Z</time>
      </trkpt>
      <trkpt lat="47.89972" lon="-3.91183">
        <ele>73.38734597462</ele>
        <time>2021-03-15T22:29:36.138Z</time>
      </trkpt>
      <trkpt lat="47.89987" lon="-3.91172">
        <ele>73.66182124743</ele>
        <time>2021-03-15T22:29:52.796Z</time>
      </trkpt>
      <trkpt lat="47.90018" lon="-3.91174">
        <ele>73.83762784946</ele>
        <time>2021-03-15T22:30:09.459Z</time>
      </trkpt>
      <trkpt lat="47.90029" lon="-3.91185">
        <ele>74.00026084161</ele>
        <time>2021-03-15T22:30:26.124Z</time>
      </trkpt>
      <trkpt lat="47.90039" lon="-3.91188">
        <ele>74.08862227527</ele>
        <time>2021-03-15T22:30:42.791Z</time>
      </trkpt>
      <trkpt lat="47.90044" lon="-3.91187">
        <ele>74.14558477747</ele>
        <time>2021-03-15T22:30:59.458Z</time>
      </trkpt>
      <trkpt lat="47.90075" lon="-3.91225">
        <ele>74.1824129346</ele>
        <time>2021-03-15T22:31:16.132Z</time>
      </trkpt>
      <trkpt lat="47.90082" lon="-3.91237">
        <ele>74.19954724157</ele>
        <time>2021-03-15T22:31:32.808Z</time>
      </trkpt>
      <trkpt lat="47.90087" lon="-3.91241">
        <ele>74.20123769906</ele>
        <time>2021-03-15T22:31:49.484Z</time>
      </trkpt>
      <trkpt lat="47.90134" lon="-3.91282">
        <ele>74.20193416481</ele>
        <time>2021-03-15T22:32:06.169Z</time>
      </trkpt>
      <trkpt lat="47.90213" lon="-3.91347">
        <ele>74.19957567763</ele>
        <time>2021-03-15T22:32:22.869Z</time>
      </trkpt>
      <trkpt lat="47.90291" lon="-3.91412">
        <ele>74.07684540994</ele>
        <time>2021-03-15T22:32:39.583Z</time>
      </trkpt>
      <trkpt lat="47.90365" lon="-3.91471">
        <ele>74.04697517577</ele>
        <time>2021-03-15T22:32:56.310Z</time>
      </trkpt>
      <trkpt lat="47.90439" lon="-3.9153">
        <ele>74.12051002973</ele>
        <time>2021-03-15T22:33:13.051Z</time>
      </trkpt>
      <trkpt lat="47.90509" lon="-3.91588">
        <ele>74.31799535126</ele>
        <time>2021-03-15T22:33:29.805Z</time>
      </trkpt>
      <trkpt lat="47.90578" lon="-3.91646">
        <ele>74.44173749178</ele>
        <time>2021-03-15T22:33:46.571Z</time>
      </trkpt>
      <trkpt lat="47.90648" lon="-3.91703">
        <ele>74.62584726448</ele>
        <time>2021-03-15T22:34:03.350Z</time>
      </trkpt>
      <trkpt lat="47.90717" lon="-3.9176">
        <ele>74.82353119387</ele>
        <time>2021-03-15T22:34:20.142Z</time>
      </trkpt>
      <trkpt lat="47.90787" lon="-3.91817">
        <ele>75.07332678281</ele>
        <time>2021-03-15T22:34:36.946Z</time>
      </trkpt>
      <trkpt lat="47.90856" lon="-3.91874">
        <ele>75.40240345513</ele>
        <time>2021-03-15T22:34:53.763Z</time>
      </trkpt>
      <trkpt lat="47.90935" lon="-3.91939">
        <ele>75.69427067872</ele>
        <time>2021-03-15T22:35:10.595Z</time>
      </trkpt>
      <trkpt lat="47.91013" lon="-3.92004">
        <ele>75.89233471543</ele>
        <time>2021-03-15T22:35:27.441Z</time>
      </trkpt>
      <trkpt lat="47.91063" lon="-3.92044">
        <ele>76.06712530913</ele>
        <time>2021-03-15T22:35:44.296Z</time>
      </trkpt>
      <trkpt lat="47.91112" lon="-3.92084">
        <ele>76.25308383872</ele>
        <time>2021-03-15T22:36:01.160Z</time>
      </trkpt>
      <trkpt lat="47.91165" lon="-3.92132">
        <ele>76.43370269246</ele>
        <time>2021-03-15T22:36:18.034Z</time>
      </trkpt>
      <trkpt lat="47.91226" lon="-3.92209">
        <ele>76.62296601743</ele>
        <time>2021-03-15T22:36:34.921Z</time>
      </trkpt>
      <trkpt lat="47.91286" lon="-3.92287">
        <ele>77.05196781894</ele>
        <time>2021-03-15T22:36:51.820Z</time>
      </trkpt>
      <trkpt lat="47.91347" lon="-3.92364">
        <ele>77.28726867873</ele>
        <time>2021-03-15T22:37:08.732Z</time>
      </trkpt>
      <trkpt lat="47.91407" lon="-3.92442">
        <ele>77.52625380363</ele>
        <time>2021-03-15T22:37:25.657Z</time>
      </trkpt>
      <trkpt lat="47.91468" lon="-3.92519">
        <ele>77.70044009517</ele>
        <time>2021-03-15T22:37:42.595Z</time>
      </trkpt>
      <trkpt lat="47.91523" lon="-3.92586">
        <ele>77.76904710243</ele>
        <time>2021-03-15T22:37:59.544Z</time>
      </trkpt>
      <trkpt lat="47.91577" lon="-3.92654">
        <ele>77.66860456042</ele>
        <time>2021-03-15T22:38:16.505Z</time>
      </trkpt>
      <trkpt lat="47.91601" lon="-3.92694">
        <ele>77.54015894939</ele>
        <time>2021-03-15T22:38:33.471Z</time>
      </trkpt>
      <trkpt lat="47.91625" lon="-3.92741">
        <ele>77.33825945157</ele>
        <time>2021-03-15T22:38:50.444Z</time>
      </trkpt>
      <trkpt lat="47.91635" lon="-3.92764">
        <ele>77.03398908017</ele>
        <time>2021-03-15T22:39:07.420Z</time>
      </trkpt>
      <trkpt lat="47.91664" lon="-3.92859">
        <ele>76.55552701276</ele>
        <time>2021-03-15T22:39:24.407Z</time>
      </trkpt>
      <trkpt lat="47.91693" lon="-3.92953">
        <ele>76.02812829423</ele>
        <time>2021-03-15T22:39:41.405Z</time>
      </trkpt>
      <trkpt lat="47.91721" lon="-3.93048">
        <ele>75.34472422587</ele>
        <time>2021-03-15T22:39:58.414Z</time>
      </trkpt>
      <trkpt lat="47.9175" lon="-3.93143">
        <ele>74.5339545719</ele>
        <time>2021-03-15T22:40:15.434Z</time>
      </trkpt>
      <trkpt lat="47.9177" lon="-3.93215">
        <ele>73.64685592981</ele>
        <time>2021-03-15T22:40:32.463Z</time>
      </trkpt>
      <trkpt lat="47.91785" lon="-3.93286">
        <ele>72.67386123976</ele>
        <time>2021-03-15T22:40:49.500Z</time>
      </trkpt>
      <trkpt lat="47.91786" lon="-3.93333">
        <ele>71.61262374883</ele>
        <time>2021-03-15T22:41:06.542Z</time>
      </trkpt>
      <trkpt lat="47.91778" lon="-3.93386">
        <ele>70.44677372164</ele>
        <time>2021-03-15T22:41:23.590Z</time>
      </trkpt>
      <trkpt lat="47.91766" lon="-3.93433">
        <ele>69.12027014861</ele>
        <time>2021-03-15T22:41:40.643Z</time>
      </trkpt>
      <trkpt lat="47.91727" lon="-3.93543">
        <ele>67.57403918081</ele>
        <time>2021-03-15T22:41:57.709Z</time>
      </trkpt>
      <trkpt lat="47.91722" lon="-3.9357">
        <ele>66.04964344587</ele>
        <time>2021-03-15T22:42:14.778Z</time>
      </trkpt>
      <trkpt lat="47.9172" lon="-3.93596">
        <ele>64.41397817938</ele>
        <time>2021-03-15T22:42:31.850Z</time>
      </trkpt>
      <trkpt lat="47.91721" lon="-3.93624">
        <ele>62.66744266873</ele>
        <time>2021-03-15T22:42:48.925Z</time>
      </trkpt>
      <trkpt lat="47.91736" lon="-3.93717">
        <ele>60.89897615345</ele>
        <time>2021-03-15T22:43:06.011Z</time>
      </trkpt>
      <trkpt lat="47.91737" lon="-3.93752">
        <ele>58.91898816407</ele>
        <time>2021-03-15T22:43:23.100Z</time>
      </trkpt>
      <trkpt lat="47.91736" lon="-3.93785">
        <ele>56.79422801834</ele>
        <time>2021-03-15T22:43:40.193Z</time>
      </trkpt>
      <trkpt lat="47.9173" lon="-3.93832">
        <ele>54.47657117223</ele>
        <time>2021-03-15T22:43:57.291Z</time>
      </trkpt>
      <trkpt lat="47.91711" lon="-3.93911">
        <ele>51.93366371274</ele>
        <time>2021-03-15T22:44:14.398Z</time>
      </trkpt>
      <trkpt lat="47.91691" lon="-3.93989">
        <ele>49.34323769136</ele>
        <time>2021-03-15T22:44:31.514Z</time>
      </trkpt>
      <trkpt lat="47.91679" lon="-3.94022">
        <ele>46.79434043423</ele>
        <time>2021-03-15T22:44:48.634Z</time>
      </trkpt>
      <trkpt lat="47.91632" lon="-3.94119">
        <ele>44.22137713903</ele>
        <time>2021-03-15T22:45:05.767Z</time>
      </trkpt>
      <trkpt lat="47.91588" lon="-3.9422">
        <ele>41.65736884074</ele>
        <time>2021-03-15T22:45:22.913Z</time>
      </trkpt>
      <trkpt lat="47.91578" lon="-3.94249">
        <ele>39.24721593139</ele>
        <time>2021-03-15T22:45:40.062Z</time>
      </trkpt>
      <trkpt lat="47.91568" lon="-3.94293">
        <ele>36.84169190992</ele>
        <time>2021-03-15T22:45:57.216Z</time>
      </trkpt>
      <trkpt lat="47.91548" lon="-3.94404">
        <ele>34.35713976705</ele>
        <time>2021-03-15T22:46:14.383Z</time>
      </trkpt>
      <trkpt lat="47.91549" lon="-3.94404">
        <ele>32.39168238811</ele>
        <time>2021-03-15T22:46:31.550Z</time>
      </trkpt>
      <trkpt lat="47.91532" lon="-3.9449">
        <ele>30.61722898786</ele>
        <time>2021-03-15T22:46:48.727Z</time>
      </trkpt>
      <trkpt lat="47.91515" lon="-3.94576">
        <ele>28.76252093236</ele>
        <time>2021-03-15T22:47:05.913Z</time>
      </trkpt>
      <trkpt lat="47.91491" lon="-3.94672">
        <ele>27.44760729547</ele>
        <time>2021-03-15T22:47:23.110Z</time>
      </trkpt>
      <trkpt lat="47.91467" lon="-3.94767">
        <ele>26.95150415465</ele>
        <time>2021-03-15T22:47:40.318Z</time>
      </trkpt>
      <trkpt lat="47.91462" lon="-3.94803">
        <ele>26.62042704455</ele>
        <time>2021-03-15T22:47:57.530Z</time>
      </trkpt>
      <trkpt lat="47.9146" lon="-3.94835">
        <ele>26.68937161555</ele>
        <time>2021-03-15T22:48:14.746Z</time>
      </trkpt>
      <trkpt lat="47.91463" lon="-3.94884">
        <ele>27.17262856531</ele>
        <time>2021-03-15T22:48:31.967Z</time>
      </trkpt>
      <trkpt lat="47.91468" lon="-3.94911">
        <ele>27.9742738853</ele>
        <time>2021-03-15T22:48:49.191Z</time>
      </trkpt>
      <trkpt lat="47.91482" lon="-3.94958">
        <ele>29.14056955894</ele>
        <time>2021-03-15T22:49:06.421Z</time>
      </trkpt>
      <trkpt lat="47.91505" lon="-3.95019">
        <ele>30.47286683072</ele>
        <time>2021-03-15T22:49:23.658Z</time>
      </trkpt>
      <trkpt lat="47.91528" lon="-3.95081">
        <ele>32.09792424688</ele>
        <time>2021-03-15T22:49:40.903Z</time>
      </trkpt>
      <trkpt lat="47.91539" lon="-3.95128">
        <ele>33.88207892273</ele>
        <time>2021-03-15T22:49:58.153Z</time>
      </trkpt>
      <trkpt lat="47.91546" lon="-3.95196">
        <ele>35.83139127704</ele>
        <time>2021-03-15T22:50:15.410Z</time>
      </trkpt>
      <trkpt lat="47.91552" lon="-3.95264">
        <ele>38.03673344988</ele>
        <time>2021-03-15T22:50:32.675Z</time>
      </trkpt>
      <trkpt lat="47.91563" lon="-3.95318">
        <ele>40.27772478747</ele>
        <time>2021-03-15T22:50:49.946Z</time>
      </trkpt>
      <trkpt lat="47.9157" lon="-3.95339">
        <ele>42.55357402774</ele>
        <time>2021-03-15T22:51:07.219Z</time>
      </trkpt>
      <trkpt lat="47.91588" lon="-3.9538">
        <ele>44.88603291024</ele>
        <time>2021-03-15T22:51:24.498Z</time>
      </trkpt>
      <trkpt lat="47.91605" lon="-3.95406">
        <ele>47.13183273905</ele>
        <time>2021-03-15T22:51:41.781Z</time>
      </trkpt>
      <trkpt lat="47.91631" lon="-3.9544">
        <ele>49.31557445671</ele>
        <time>2021-03-15T22:51:59.069Z</time>
      </trkpt>
      <trkpt lat="47.91678" lon="-3.95494">
        <ele>51.46672405301</ele>
        <time>2021-03-15T22:52:16.367Z</time>
      </trkpt>
      <trkpt lat="47.91702" lon="-3.95523">
        <ele>53.4791798021</ele>
        <time>2021-03-15T22:52:33.670Z</time>
      </trkpt>
      <trkpt lat="47.91737" lon="-3.95577">
        <ele>55.41965840582</ele>
        <time>2021-03-15T22:52:50.981Z</time>
      </trkpt>
      <trkpt lat="47.91762" lon="-3.95643">
        <ele>57.26513817027</ele>
        <time>2021-03-15T22:53:08.300Z</time>
      </trkpt>
      <trkpt lat="47.91773" lon="-3.9569">
        <ele>58.9405770063</ele>
        <time>2021-03-15T22:53:25.624Z</time>
      </trkpt>
      <trkpt lat="47.9178" lon="-3.95745">
        <ele>60.47940726457</ele>
        <time>2021-03-15T22:53:42.954Z</time>
      </trkpt>
      <trkpt lat="47.91781" lon="-3.95861">
        <ele>61.94421235917</ele>
        <time>2021-03-15T22:54:00.297Z</time>
      </trkpt>
      <trkpt lat="47.91779" lon="-3.9597">
        <ele>62.91477844224</ele>
        <time>2021-03-15T22:54:17.651Z</time>
      </trkpt>
      <trkpt lat="47.91776" lon="-3.96078">
        <ele>63.72028032422</ele>
        <time>2021-03-15T22:54:35.017Z</time>
      </trkpt>
      <trkpt lat="47.9178" lon="-3.96125">
        <ele>64.28376902598</ele>
        <time>2021-03-15T22:54:52.388Z</time>
      </trkpt>
      <trkpt lat="47.91788" lon="-3.96163">
        <ele>64.60557094595</ele>
        <time>2021-03-15T22:55:09.763Z</time>
      </trkpt>
      <trkpt lat="47.91784" lon="-3.96165">
        <ele>64.8007525833</ele>
        <time>2021-03-15T22:55:27.139Z</time>
      </trkpt>
      <trkpt lat="47.91779" lon="-3.96172">
        <ele>64.81446424869</ele>
        <time>2021-03-15T22:55:44.516Z</time>
      </trkpt>
      <trkpt lat="47.91777" lon="-3.96186">
        <ele>64.65680554694</ele>
        <time>2021-03-15T22:56:01.895Z</time>
      </trkpt>
      <trkpt lat="47.91779" lon="-3.96192">
        <ele>64.36754291553</ele>
        <time>2021-03-15T22:56:19.274Z</time>
      </trkpt>
      <trkpt lat="47.91786" lon="-3.96201">
        <ele>63.95258029019</ele>
        <time>2021-03-15T22:56:36.655Z</time>
      </trkpt>
      <trkpt lat="47.9179" lon="-3.96205">
        <ele>63.45799152082</ele>
        <time>2021-03-15T22:56:54.037Z</time>
      </trkpt>
      <trkpt lat="47.91795" lon="-3.96202">
        <ele>62.91039278115</ele>
        <time>2021-03-15T22:57:11.420Z</time>
      </trkpt>
      <trkpt lat="47.91816" lon="-3.96248">
        <ele>62.30640335636</ele>
        <time>2021-03-15T22:57:28.809Z</time>
      </trkpt>
      <trkpt lat="47.91852" lon="-3.96308">
        <ele>61.618183793</ele>
        <time>2021-03-15T22:57:46.206Z</time>
      </trkpt>
      <trkpt lat="47.91847" lon="-3.96321">
        <ele>60.99360700887</ele>
        <time>2021-03-15T22:58:03.605Z</time>
      </trkpt>
      <trkpt lat="47.91846" lon="-3.96328">
        <ele>60.39733714043</ele>
        <time>2021-03-15T22:58:21.005Z</time>
      </trkpt>
      <trkpt lat="47.9185" lon="-3.96337">
        <ele>59.83687835617</ele>
        <time>2021-03-15T22:58:38.406Z</time>
      </trkpt>
      <trkpt lat="47.91857" lon="-3.96346">
        <ele>59.35155280089</ele>
        <time>2021-03-15T22:58:55.808Z</time>
      </trkpt>
      <trkpt lat="47.91864" lon="-3.96343">
        <ele>58.95010180098</ele>
        <time>2021-03-15T22:59:13.211Z</time>
      </trkpt>
      <trkpt lat="47.91871" lon="-3.96335">
        <ele>58.63917155107</ele>
        <time>2021-03-15T22:59:30.616Z</time>
      </trkpt>
      <trkpt lat="47.919" lon="-3.96383">
        <ele>58.38979668375</ele>
        <time>2021-03-15T22:59:48.028Z</time>
      </trkpt>
      <trkpt lat="47.91928" lon="-3.96437">
        <ele>58.31467424198</ele>
        <time>2021-03-15T23:00:05.447Z</time>
      </trkpt>
      <trkpt lat="47.91953" lon="-3.96484">
        <ele>58.32788433762</ele>
        <time>2021-03-15T23:00:22.873Z</time>
      </trkpt>
      <trkpt lat="47.91999" lon="-3.96581">
        <ele>58.38109229565</ele>
        <time>2021-03-15T23:00:40.311Z</time>
      </trkpt>
      <trkpt lat="47.92046" lon="-3.96678">
        <ele>58.61777038585</ele>
        <time>2021-03-15T23:00:57.762Z</time>
      </trkpt>
      <trkpt lat="47.92092" lon="-3.96775">
        <ele>58.9961171856</ele>
        <time>2021-03-15T23:01:15.226Z</time>
      </trkpt>
      <trkpt lat="47.9212" lon="-3.96829">
        <ele>59.4806034175</ele>
        <time>2021-03-15T23:01:32.697Z</time>
      </trkpt>
      <trkpt lat="47.92148" lon="-3.96877">
        <ele>60.14172404927</ele>
        <time>2021-03-15T23:01:50.175Z</time>
      </trkpt>
      <trkpt lat="47.92182" lon="-3.96924">
        <ele>60.81510319215</ele>
        <time>2021-03-15T23:02:07.661Z</time>
      </trkpt>
      <trkpt lat="47.92238" lon="-3.97005">
        <ele>61.26112191404</ele>
        <time>2021-03-15T23:02:25.159Z</time>
      </trkpt>
      <trkpt lat="47.92293" lon="-3.97087">
        <ele>61.94921687252</ele>
        <time>2021-03-15T23:02:42.670Z</time>
      </trkpt>
      <trkpt lat="47.92348" lon="-3.97177">
        <ele>62.67056023623</ele>
        <time>2021-03-15T23:03:00.194Z</time>
      </trkpt>
      <trkpt lat="47.92402" lon="-3.97266">
        <ele>63.32855649154</ele>
        <time>2021-03-15T23:03:17.731Z</time>
      </trkpt>
      <trkpt lat="47.92457" lon="-3.97356">
        <ele>64.03927802314</ele>
        <time>2021-03-15T23:03:35.281Z</time>
      </trkpt>
      <trkpt lat="47.92511" lon="-3.97446">
        <ele>64.65312045371</ele>
        <time>2021-03-15T23:03:52.844Z</time>
      </trkpt>
      <trkpt lat="47.9256" lon="-3.97515">
        <ele>65.25911700451</ele>
        <time>2021-03-15T23:04:10.417Z</time>
      </trkpt>
      <trkpt lat="47.92608" lon="-3.97584">
        <ele>65.88767488785</ele>
        <time>2021-03-15T23:04:28.001Z</time>
      </trkpt>
      <trkpt lat="47.92641" lon="-3.97633">
        <ele>66.38663298041</ele>
        <time>2021-03-15T23:04:45.593Z</time>
      </trkpt>
      <trkpt lat="47.9264" lon="-3.97633">
        <ele>66.79735260317</ele>
        <time>2021-03-15T23:05:03.185Z</time>
      </trkpt>
      <trkpt lat="47.92673" lon="-3.97682">
        <ele>67.36994964078</ele>
        <time>2021-03-15T23:05:20.784Z</time>
      </trkpt>
      <trkpt lat="47.92707" lon="-3.97726">
        <ele>67.55779393084</ele>
        <time>2021-03-15T23:05:38.390Z</time>
      </trkpt>
      <trkpt lat="47.92764" lon="-3.9779">
        <ele>67.77269385349</ele>
        <time>2021-03-15T23:05:56.008Z</time>
      </trkpt>
      <trkpt lat="47.92821" lon="-3.97855">
        <ele>67.82873492289</ele>
        <time>2021-03-15T23:06:13.637Z</time>
      </trkpt>
      <trkpt lat="47.92878" lon="-3.97919">
        <ele>67.79138302893</ele>
        <time>2021-03-15T23:06:31.278Z</time>
      </trkpt>
      <trkpt lat="47.92918" lon="-3.9794">
        <ele>67.73397750581</ele>
        <time>2021-03-15T23:06:48.925Z</time>
      </trkpt>
      <trkpt lat="47.92974" lon="-3.97955">
        <ele>67.77303045565</ele>
        <time>2021-03-15T23:07:06.581Z</time>
      </trkpt>
      <trkpt lat="47.93029" lon="-3.97971">
        <ele>67.7653295448</ele>
        <time>2021-03-15T23:07:24.246Z</time>
      </trkpt>
      <trkpt lat="47.93065" lon="-3.97983">
        <ele>67.76651205431</ele>
        <time>2021-03-15T23:07:41.917Z</time>
      </trkpt>
      <trkpt lat="47.93088" lon="-3.97995">
        <ele>67.74612908588</ele>
        <time>2021-03-15T23:07:59.592Z</time>
      </trkpt>
      <trkpt lat="47.93112" lon="-3.98008">
        <ele>67.75245760425</ele>
        <time>2021-03-15T23:08:17.271Z</time>
      </trkpt>
      <trkpt lat="47.93139" lon="-3.98024">
        <ele>67.78033510539</ele>
        <time>2021-03-15T23:08:34.955Z</time>
      </trkpt>
      <trkpt lat="47.93155" lon="-3.98038">
        <ele>67.71720522888</ele>
        <time>2021-03-15T23:08:52.642Z</time>
      </trkpt>
      <trkpt lat="47.93179" lon="-3.98064">
        <ele>67.7004159092</ele>
        <time>2021-03-15T23:09:10.334Z</time>
      </trkpt>
      <trkpt lat="47.93225" lon="-3.98145">
        <ele>67.78757774667</ele>
        <time>2021-03-15T23:09:28.037Z</time>
      </trkpt>
      <trkpt lat="47.93249" lon="-3.98206">
        <ele>67.67069274132</ele>
        <time>2021-03-15T23:09:45.748Z</time>
      </trkpt>
      <trkpt lat="47.93272" lon="-3.98299">
        <ele>67.6308987646</ele>
        <time>2021-03-15T23:10:03.469Z</time>
      </trkpt>
      <trkpt lat="47.93295" lon="-3.98393">
        <ele>67.55285949265</ele>
        <time>2021-03-15T23:10:21.201Z</time>
      </trkpt>
      <trkpt lat="47.93318" lon="-3.98486">
        <ele>67.48897211599</ele>
        <time>2021-03-15T23:10:38.944Z</time>
      </trkpt>
      <trkpt lat="47.93331" lon="-3.98546">
        <ele>67.51089426125</ele>
        <time>2021-03-15T23:10:56.694Z</time>
      </trkpt>
      <trkpt lat="47.93335" lon="-3.98654">
        <ele>67.58703298874</ele>
        <time>2021-03-15T23:11:14.455Z</time>
      </trkpt>
      <trkpt lat="47.93339" lon="-3.98701">
        <ele>67.82280883673</ele>
        <time>2021-03-15T23:11:32.221Z</time>
      </trkpt>
      <trkpt lat="47.93354" lon="-3.98755">
        <ele>68.13886734617</ele>
        <time>2021-03-15T23:11:49.994Z</time>
      </trkpt>
      <trkpt lat="47.93383" lon="-3.98832">
        <ele>68.57940261369</ele>
        <time>2021-03-15T23:12:07.776Z</time>
      </trkpt>
      <trkpt lat="47.93411" lon="-3.9891">
        <ele>69.00528688576</ele>
        <time>2021-03-15T23:12:25.568Z</time>
      </trkpt>
      <trkpt lat="47.93419" lon="-3.98937">
        <ele>69.5846852905</ele>
        <time>2021-03-15T23:12:43.363Z</time>
      </trkpt>
      <trkpt lat="47.93425" lon="-3.98972">
        <ele>70.25884830995</ele>
        <time>2021-03-15T23:13:01.162Z</time>
      </trkpt>
      <trkpt lat="47.93426" lon="-3.99012">
        <ele>70.98031917453</ele>
        <time>2021-03-15T23:13:18.965Z</time>
      </trkpt>
      <trkpt lat="47.93423" lon="-3.99045">
        <ele>71.71792828566</ele>
        <time>2021-03-15T23:13:36.772Z</time>
      </trkpt>
      <trkpt lat="47.93412" lon="-3.99119">
        <ele>72.57308219931</ele>
        <time>2021-03-15T23:13:54.587Z</time>
      </trkpt>
      <trkpt lat="47.9341" lon="-3.9914">
        <ele>73.2004128317</ele>
        <time>2021-03-15T23:14:12.404Z</time>
      </trkpt>
      <trkpt lat="47.93411" lon="-3.99183">
        <ele>73.74818967773</ele>
        <time>2021-03-15T23:14:30.226Z</time>
      </trkpt>
      <trkpt lat="47.93414" lon="-3.99216">
        <ele>74.15275372981</ele>
        <time>2021-03-15T23:14:48.051Z</time>
      </trkpt>
      <trkpt lat="47.93425" lon="-3.99285">
        <ele>74.4267750778</ele>
        <time>2021-03-15T23:15:05.884Z</time>
      </trkpt>
      <trkpt lat="47.9344" lon="-3.99351">
        <ele>74.5094979426</ele>
        <time>2021-03-15T23:15:23.724Z</time>
      </trkpt>
      <trkpt lat="47.93459" lon="-3.99404">
        <ele>74.44869850335</ele>
        <time>2021-03-15T23:15:41.571Z</time>
      </trkpt>
      <trkpt lat="47.93493" lon="-3.99481">
        <ele>74.20473138697</ele>
        <time>2021-03-15T23:15:59.428Z</time>
      </trkpt>
      <trkpt lat="47.93526" lon="-3.99558">
        <ele>73.63378570595</ele>
        <time>2021-03-15T23:16:17.295Z</time>
      </trkpt>
      <trkpt lat="47.9356" lon="-3.99641">
        <ele>73.04311828769</ele>
        <time>2021-03-15T23:16:35.172Z</time>
      </trkpt>
      <trkpt lat="47.93594" lon="-3.99724">
        <ele>72.34369788417</ele>
        <time>2021-03-15T23:16:53.059Z</time>
      </trkpt>
      <trkpt lat="47.93615" lon="-3.99778">
        <ele>71.61097011102</ele>
        <time>2021-03-15T23:17:10.953Z</time>
      </trkpt>
      <trkpt lat="47.93645" lon="-3.99867">
        <ele>70.83223303947</ele>
        <time>2021-03-15T23:17:28.858Z</time>
      </trkpt>
      <trkpt lat="47.93666" lon="-3.99973">
        <ele>70.22590233339</ele>
        <time>2021-03-15T23:17:46.775Z</time>
      </trkpt>
      <trkpt lat="47.93675" lon="-4.00031">
        <ele>69.42845406281</ele>
        <time>2021-03-15T23:18:04.698Z</time>
      </trkpt>
      <trkpt lat="47.93683" lon="-4.00114">
        <ele>68.52995616049</ele>
        <time>2021-03-15T23:18:22.630Z</time>
      </trkpt>
      <trkpt lat="47.9369" lon="-4.00197">
        <ele>67.58226077465</ele>
        <time>2021-03-15T23:18:40.571Z</time>
      </trkpt>
      <trkpt lat="47.937" lon="-4.0027">
        <ele>66.68089415411</ele>
        <time>2021-03-15T23:18:58.520Z</time>
      </trkpt>
      <trkpt lat="47.93711" lon="-4.00319">
        <ele>65.89908473732</ele>
        <time>2021-03-15T23:19:16.475Z</time>
      </trkpt>
      <trkpt lat="47.93733" lon="-4.0038">
        <ele>65.18140951619</ele>
        <time>2021-03-15T23:19:34.437Z</time>
      </trkpt>
      <trkpt lat="47.93765" lon="-4.00445">
        <ele>64.49622747262</ele>
        <time>2021-03-15T23:19:52.408Z</time>
      </trkpt>
      <trkpt lat="47.93819" lon="-4.00543">
        <ele>63.9947208186</ele>
        <time>2021-03-15T23:20:10.392Z</time>
      </trkpt>
      <trkpt lat="47.93873" lon="-4.0064">
        <ele>63.52265506235</ele>
        <time>2021-03-15T23:20:28.390Z</time>
      </trkpt>
      <trkpt lat="47.93927" lon="-4.00738">
        <ele>63.27062015942</ele>
        <time>2021-03-15T23:20:46.402Z</time>
      </trkpt>
      <trkpt lat="47.93981" lon="-4.00835">
        <ele>62.885441675</ele>
        <time>2021-03-15T23:21:04.427Z</time>
      </trkpt>
      <trkpt lat="47.94035" lon="-4.00933">
        <ele>62.60052737924</ele>
        <time>2021-03-15T23:21:22.466Z</time>
      </trkpt>
      <trkpt lat="47.9407" lon="-4.00985">
        <ele>62.32713451377</ele>
        <time>2021-03-15T23:21:40.513Z</time>
      </trkpt>
      <trkpt lat="47.94109" lon="-4.01046">
        <ele>62.03584937143</ele>
        <time>2021-03-15T23:21:58.569Z</time>
      </trkpt>
      <trkpt lat="47.94147" lon="-4.01107">
        <ele>61.67120518119</ele>
        <time>2021-03-15T23:22:16.634Z</time>
      </trkpt>
      <trkpt lat="47.94147" lon="-4.01117">
        <ele>61.15736408744</ele>
        <time>2021-03-15T23:22:34.700Z</time>
      </trkpt>
      <trkpt lat="47.94152" lon="-4.01119">
        <ele>60.54358786774</ele>
        <time>2021-03-15T23:22:52.767Z</time>
      </trkpt>
      <trkpt lat="47.94155" lon="-4.01115">
        <ele>59.83237992547</ele>
        <time>2021-03-15T23:23:10.834Z</time>
      </trkpt>
      <trkpt lat="47.94193" lon="-4.01169">
        <ele>58.93650931087</ele>
        <time>2021-03-15T23:23:28.910Z</time>
      </trkpt>
      <trkpt lat="47.94231" lon="-4.01224">
        <ele>57.98667346479</ele>
        <time>2021-03-15T23:23:46.994Z</time>
      </trkpt>
      <trkpt lat="47.94262" lon="-4.01261">
        <ele>56.98879424495</ele>
        <time>2021-03-15T23:24:05.085Z</time>
      </trkpt>
      <trkpt lat="47.94305" lon="-4.0131">
        <ele>55.85549851788</ele>
        <time>2021-03-15T23:24:23.184Z</time>
      </trkpt>
      <trkpt lat="47.94347" lon="-4.0136">
        <ele>54.65907579844</ele>
        <time>2021-03-15T23:24:41.292Z</time>
      </trkpt>
      <trkpt lat="47.94394" lon="-4.01416">
        <ele>53.35920778759</ele>
        <time>2021-03-15T23:24:59.410Z</time>
      </trkpt>
      <trkpt lat="47.9444" lon="-4.01473">
        <ele>52.15484582997</ele>
        <time>2021-03-15T23:25:17.537Z</time>
      </trkpt>
      <trkpt lat="47.94463" lon="-4.01497">
        <ele>51.02004222243</ele>
        <time>2021-03-15T23:25:35.669Z</time>
      </trkpt>
      <trkpt lat="47.94501" lon="-4.01528">
        <ele>49.98794014289</ele>
        <time>2021-03-15T23:25:53.808Z</time>
      </trkpt>
      <trkpt lat="47.94512" lon="-4.01539">
        <ele>49.13494325422</ele>
        <time>2021-03-15T23:26:11.949Z</time>
      </trkpt>
      <trkpt lat="47.94536" lon="-4.01553">
        <ele>48.46892686459</ele>
        <time>2021-03-15T23:26:30.094Z</time>
      </trkpt>
      <trkpt lat="47.94548" lon="-4.01558">
        <ele>48.02173119152</ele>
        <time>2021-03-15T23:26:48.241Z</time>
      </trkpt>
      <trkpt lat="47.94565" lon="-4.0156">
        <ele>47.76072044219</ele>
        <time>2021-03-15T23:27:06.391Z</time>
      </trkpt>
      <trkpt lat="47.94576" lon="-4.01563">
        <ele>47.72808612609</ele>
        <time>2021-03-15T23:27:24.542Z</time>
      </trkpt>
      <trkpt lat="47.94663" lon="-4.01596">
        <ele>47.78534924862</ele>
        <time>2021-03-15T23:27:42.708Z</time>
      </trkpt>
      <trkpt lat="47.94749" lon="-4.0163">
        <ele>48.43733569563</ele>
        <time>2021-03-15T23:28:00.888Z</time>
      </trkpt>
      <trkpt lat="47.94787" lon="-4.01649">
        <ele>49.22272661071</ele>
        <time>2021-03-15T23:28:19.074Z</time>
      </trkpt>
      <trkpt lat="47.94823" lon="-4.01673">
        <ele>50.20026300477</ele>
        <time>2021-03-15T23:28:37.267Z</time>
      </trkpt>
      <trkpt lat="47.94864" lon="-4.01715">
        <ele>51.33400189555</ele>
        <time>2021-03-15T23:28:55.468Z</time>
      </trkpt>
      <trkpt lat="47.94887" lon="-4.01748">
        <ele>52.57138119185</ele>
        <time>2021-03-15T23:29:13.674Z</time>
      </trkpt>
      <trkpt lat="47.94905" lon="-4.01778">
        <ele>53.91376934028</ele>
        <time>2021-03-15T23:29:31.884Z</time>
      </trkpt>
      <trkpt lat="47.94937" lon="-4.01845">
        <ele>55.44962956068</ele>
        <time>2021-03-15T23:29:50.103Z</time>
      </trkpt>
      <trkpt lat="47.94954" lon="-4.01895">
        <ele>57.11387686038</ele>
        <time>2021-03-15T23:30:08.328Z</time>
      </trkpt>
      <trkpt lat="47.94979" lon="-4.02">
        <ele>58.8030084014</ele>
        <time>2021-03-15T23:30:26.565Z</time>
      </trkpt>
      <trkpt lat="47.94994" lon="-4.02071">
        <ele>60.53394829555</ele>
        <time>2021-03-15T23:30:44.810Z</time>
      </trkpt>
      <trkpt lat="47.95016" lon="-4.0215">
        <ele>62.14511389003</ele>
        <time>2021-03-15T23:31:03.064Z</time>
      </trkpt>
      <trkpt lat="47.95044" lon="-4.02226">
        <ele>63.72456965614</ele>
        <time>2021-03-15T23:31:21.327Z</time>
      </trkpt>
      <trkpt lat="47.95063" lon="-4.02264">
        <ele>65.1563641097</ele>
        <time>2021-03-15T23:31:39.596Z</time>
      </trkpt>
      <trkpt lat="47.95058" lon="-4.02273">
        <ele>66.45667552202</ele>
        <time>2021-03-15T23:31:57.866Z</time>
      </trkpt>
      <trkpt lat="47.95059" lon="-4.02284">
        <ele>67.6195160262</ele>
        <time>2021-03-15T23:32:16.137Z</time>
      </trkpt>
      <trkpt lat="47.95063" lon="-4.02292">
        <ele>68.62783995012</ele>
        <time>2021-03-15T23:32:34.409Z</time>
      </trkpt>
      <trkpt lat="47.95072" lon="-4.02291">
        <ele>69.46948677361</ele>
        <time>2021-03-15T23:32:52.683Z</time>
      </trkpt>
      <trkpt lat="47.95084" lon="-4.02332">
        <ele>70.16569227095</ele>
        <time>2021-03-15T23:33:10.961Z</time>
      </trkpt>
      <trkpt lat="47.95119" lon="-4.02433">
        <ele>70.7148566215</ele>
        <time>2021-03-15T23:33:29.252Z</time>
      </trkpt>
      <trkpt lat="47.95133" lon="-4.02491">
        <ele>71.03038509061</ele>
        <time>2021-03-15T23:33:47.549Z</time>
      </trkpt>
      <trkpt lat="47.9514" lon="-4.02545">
        <ele>71.1143922711</ele>
        <time>2021-03-15T23:34:05.852Z</time>
      </trkpt>
      <trkpt lat="47.95149" lon="-4.02639">
        <ele>70.93946224882</ele>
        <time>2021-03-15T23:34:24.165Z</time>
      </trkpt>
      <trkpt lat="47.95159" lon="-4.02733">
        <ele>70.59332284188</ele>
        <time>2021-03-15T23:34:42.489Z</time>
      </trkpt>
      <trkpt lat="47.95168" lon="-4.02827">
        <ele>70.13588040887</ele>
        <time>2021-03-15T23:35:00.823Z</time>
      </trkpt>
      <trkpt lat="47.9518" lon="-4.02958">
        <ele>69.31647366256</ele>
        <time>2021-03-15T23:35:19.171Z</time>
      </trkpt>
      <trkpt lat="47.95179" lon="-4.03047">
        <ele>68.49682805585</ele>
        <time>2021-03-15T23:35:37.529Z</time>
      </trkpt>
      <trkpt lat="47.95174" lon="-4.0314">
        <ele>67.43860295257</ele>
        <time>2021-03-15T23:35:55.897Z</time>
      </trkpt>
      <trkpt lat="47.95169" lon="-4.03233">
        <ele>66.31900548398</ele>
        <time>2021-03-15T23:36:14.275Z</time>
      </trkpt>
      <trkpt lat="47.95168" lon="-4.0328">
        <ele>65.2223502237</ele>
        <time>2021-03-15T23:36:32.658Z</time>
      </trkpt>
      <trkpt lat="47.9517" lon="-4.03322">
        <ele>64.08430490542</ele>
        <time>2021-03-15T23:36:51.045Z</time>
      </trkpt>
      <trkpt lat="47.95184" lon="-4.0341">
        <ele>62.84696551361</ele>
        <time>2021-03-15T23:37:09.442Z</time>
      </trkpt>
      <trkpt lat="47.95197" lon="-4.03499">
        <ele>61.43579565242</ele>
        <time>2021-03-15T23:37:27.849Z</time>
      </trkpt>
      <trkpt lat="47.95212" lon="-4.03594">
        <ele>60.08201389622</ele>
        <time>2021-03-15T23:37:46.266Z</time>
      </trkpt>
      <trkpt lat="47.95218" lon="-4.03639">
        <ele>58.76068082534</ele>
        <time>2021-03-15T23:38:04.688Z</time>
      </trkpt>
      <trkpt lat="47.95238" lon="-4.0371">
        <ele>57.4588404086</ele>
        <time>2021-03-15T23:38:23.118Z</time>
      </trkpt>
      <trkpt lat="47.95252" lon="-4.03744">
        <ele>56.21228907225</ele>
        <time>2021-03-15T23:38:41.553Z</time>
      </trkpt>
      <trkpt lat="47.95265" lon="-4.0377">
        <ele>54.97300025153</ele>
        <time>2021-03-15T23:38:59.991Z</time>
      </trkpt>
      <trkpt lat="47.95273" lon="-4.03782">
        <ele>53.76429846705</ele>
        <time>2021-03-15T23:39:18.431Z</time>
      </trkpt>
      <trkpt lat="47.95302" lon="-4.03838">
        <ele>52.58286258557</ele>
        <time>2021-03-15T23:39:36.879Z</time>
      </trkpt>
      <trkpt lat="47.95331" lon="-4.03894">
        <ele>51.41457481223</ele>
        <time>2021-03-15T23:39:55.334Z</time>
      </trkpt>
      <trkpt lat="47.95358" lon="-4.03951">
        <ele>50.19330929271</ele>
        <time>2021-03-15T23:40:13.797Z</time>
      </trkpt>
      <trkpt lat="47.9539" lon="-4.04026">
        <ele>48.89947161204</ele>
        <time>2021-03-15T23:40:32.269Z</time>
      </trkpt>
      <trkpt lat="47.95421" lon="-4.04101">
        <ele>47.6679363654</ele>
        <time>2021-03-15T23:40:50.751Z</time>
      </trkpt>
      <trkpt lat="47.95443" lon="-4.04151">
        <ele>46.33544181668</ele>
        <time>2021-03-15T23:41:09.239Z</time>
      </trkpt>
      <trkpt lat="47.95476" lon="-4.04211">
        <ele>44.97393549625</ele>
        <time>2021-03-15T23:41:27.736Z</time>
      </trkpt>
      <trkpt lat="47.95508" lon="-4.04272">
        <ele>43.53371443373</ele>
        <time>2021-03-15T23:41:46.241Z</time>
      </trkpt>
      <trkpt lat="47.95539" lon="-4.04313">
        <ele>41.99743190724</ele>
        <time>2021-03-15T23:42:04.753Z</time>
      </trkpt>
      <trkpt lat="47.9558" lon="-4.04359">
        <ele>40.26469648583</ele>
        <time>2021-03-15T23:42:23.273Z</time>
      </trkpt>
      <trkpt lat="47.95621" lon="-4.04406">
        <ele>38.47752121568</ele>
        <time>2021-03-15T23:42:41.801Z</time>
      </trkpt>
      <trkpt lat="47.95643" lon="-4.04436">
        <ele>36.68835894856</ele>
        <time>2021-03-15T23:43:00.334Z</time>
      </trkpt>
      <trkpt lat="47.95674" lon="-4.04485">
        <ele>34.82608701708</ele>
        <time>2021-03-15T23:43:18.874Z</time>
      </trkpt>
      <trkpt lat="47.95714" lon="-4.04568">
        <ele>32.83593288375</ele>
        <time>2021-03-15T23:43:37.425Z</time>
      </trkpt>
      <trkpt lat="47.95747" lon="-4.04649">
        <ele>30.79792428889</ele>
        <time>2021-03-15T23:43:55.986Z</time>
      </trkpt>
      <trkpt lat="47.95779" lon="-4.04731">
        <ele>29.03787634493</ele>
        <time>2021-03-15T23:44:14.557Z</time>
      </trkpt>
      <trkpt lat="47.95812" lon="-4.04812">
        <ele>27.31759334233</ele>
        <time>2021-03-15T23:44:33.139Z</time>
      </trkpt>
      <trkpt lat="47.95839" lon="-4.04883">
        <ele>25.75762025053</ele>
        <time>2021-03-15T23:44:51.729Z</time>
      </trkpt>
      <trkpt lat="47.95866" lon="-4.04955">
        <ele>24.13330021806</ele>
        <time>2021-03-15T23:45:10.328Z</time>
      </trkpt>
      <trkpt lat="47.95907" lon="-4.0507">
        <ele>22.44446503591</ele>
        <time>2021-03-15T23:45:28.941Z</time>
      </trkpt>
      <trkpt lat="47.95947" lon="-4.05185">
        <ele>21.06380218025</ele>
        <time>2021-03-15T23:45:47.568Z</time>
      </trkpt>
      <trkpt lat="47.95976" lon="-4.05284">
        <ele>19.86728971944</ele>
        <time>2021-03-15T23:46:06.207Z</time>
      </trkpt>
      <trkpt lat="47.96002" lon="-4.054">
        <ele>18.70886619068</ele>
        <time>2021-03-15T23:46:24.859Z</time>
      </trkpt>
      <trkpt lat="47.96012" lon="-4.05433">
        <ele>17.90002508258</ele>
        <time>2021-03-15T23:46:43.515Z</time>
      </trkpt>
      <trkpt lat="47.96029" lon="-4.05473">
        <ele>17.29902137326</ele>
        <time>2021-03-15T23:47:02.176Z</time>
      </trkpt>
      <trkpt lat="47.96047" lon="-4.05501">
        <ele>17.0268188401</ele>
        <time>2021-03-15T23:47:20.841Z</time>
      </trkpt>
      <trkpt lat="47.96097" lon="-4.05563">
        <ele>17.05194139472</ele>
        <time>2021-03-15T23:47:39.517Z</time>
      </trkpt>
      <trkpt lat="47.96147" lon="-4.05626">
        <ele>17.27432114508</ele>
        <time>2021-03-15T23:47:58.203Z</time>
      </trkpt>
      <trkpt lat="47.96184" lon="-4.05668">
        <ele>17.72992689834</ele>
        <time>2021-03-15T23:48:16.896Z</time>
      </trkpt>
      <trkpt lat="47.96231" lon="-4.05714">
        <ele>18.46998433319</ele>
        <time>2021-03-15T23:48:35.598Z</time>
      </trkpt>
      <trkpt lat="47.96173" lon="-4.05643">
        <ele>19.03235435254</ele>
        <time>2021-03-15T23:48:54.313Z</time>
      </trkpt>
      <trkpt lat="47.96162" lon="-4.0563">
        <ele>19.97964885784</ele>
        <time>2021-03-15T23:49:13.030Z</time>
      </trkpt>
      <trkpt lat="47.96157" lon="-4.0563">
        <ele>21.12756807908</ele>
        <time>2021-03-15T23:49:31.748Z</time>
      </trkpt>
      <trkpt lat="47.96154" lon="-4.05633">
        <ele>22.44773097685</ele>
        <time>2021-03-15T23:49:50.466Z</time>
      </trkpt>
      <trkpt lat="47.96184" lon="-4.05668">
        <ele>17.72992689834</ele>
        <time>2021-03-15T23:50:09.190Z</time>
      </trkpt>
      <trkpt lat="47.96231" lon="-4.05714">
        <ele>18.46998433319</ele>
        <time>2021-03-15T23:50:27.923Z</time>
      </trkpt>
      <trkpt lat="47.96261" lon="-4.05748">
        <ele>27.50966813407</ele>
        <time>2021-03-15T23:50:46.662Z</time>
      </trkpt>
      <trkpt lat="47.96321" lon="-4.0583">
        <ele>29.48173181896</ele>
        <time>2021-03-15T23:51:05.414Z</time>
      </trkpt>
      <trkpt lat="47.96349" lon="-4.05884">
        <ele>31.3541127162</ele>
        <time>2021-03-15T23:51:24.174Z</time>
      </trkpt>
      <trkpt lat="47.96377" lon="-4.05938">
        <ele>33.1143890542</ele>
        <time>2021-03-15T23:51:42.941Z</time>
      </trkpt>
      <trkpt lat="47.96418" lon="-4.05982">
        <ele>34.80574532161</ele>
        <time>2021-03-15T23:52:01.716Z</time>
      </trkpt>
      <trkpt lat="47.96435" lon="-4.05996">
        <ele>36.51999523378</ele>
        <time>2021-03-15T23:52:20.494Z</time>
      </trkpt>
      <trkpt lat="47.96458" lon="-4.06005">
        <ele>38.25091804696</ele>
        <time>2021-03-15T23:52:39.276Z</time>
      </trkpt>
      <trkpt lat="47.96503" lon="-4.06029">
        <ele>40.0316794445</ele>
        <time>2021-03-15T23:52:58.066Z</time>
      </trkpt>
      <trkpt lat="47.9657" lon="-4.06069">
        <ele>41.67268724755</ele>
        <time>2021-03-15T23:53:16.867Z</time>
      </trkpt>
      <trkpt lat="47.96637" lon="-4.06109">
        <ele>43.27876014815</ele>
        <time>2021-03-15T23:53:35.680Z</time>
      </trkpt>
      <trkpt lat="47.96688" lon="-4.06144">
        <ele>44.75825146256</ele>
        <time>2021-03-15T23:53:54.502Z</time>
      </trkpt>
      <trkpt lat="47.96738" lon="-4.06179">
        <ele>46.07184881587</ele>
        <time>2021-03-15T23:54:13.333Z</time>
      </trkpt>
      <trkpt lat="47.96817" lon="-4.0624">
        <ele>47.24596564623</ele>
        <time>2021-03-15T23:54:32.178Z</time>
      </trkpt>
      <trkpt lat="47.9687" lon="-4.06277">
        <ele>48.52657835148</ele>
        <time>2021-03-15T23:54:51.032Z</time>
      </trkpt>
      <trkpt lat="47.96923" lon="-4.06315">
        <ele>49.86635280277</ele>
        <time>2021-03-15T23:55:09.896Z</time>
      </trkpt>
      <trkpt lat="47.96952" lon="-4.06333">
        <ele>51.04723833808</ele>
        <time>2021-03-15T23:55:28.765Z</time>
      </trkpt>
      <trkpt lat="47.97011" lon="-4.06365">
        <ele>52.21780419051</ele>
        <time>2021-03-15T23:55:47.644Z</time>
      </trkpt>
      <trkpt lat="47.97079" lon="-4.06394">
        <ele>53.45168147637</ele>
        <time>2021-03-15T23:56:06.534Z</time>
      </trkpt>
      <trkpt lat="47.97146" lon="-4.06424">
        <ele>54.72092298159</ele>
        <time>2021-03-15T23:56:25.435Z</time>
      </trkpt>
      <trkpt lat="47.97214" lon="-4.06453">
        <ele>55.83657158384</ele>
        <time>2021-03-15T23:56:44.348Z</time>
      </trkpt>
      <trkpt lat="47.97258" lon="-4.06473">
        <ele>56.72911313274</ele>
        <time>2021-03-15T23:57:03.268Z</time>
      </trkpt>
      <trkpt lat="47.97302" lon="-4.06494">
        <ele>57.59781988806</ele>
        <time>2021-03-15T23:57:22.195Z</time>
      </trkpt>
      <trkpt lat="47.9732" lon="-4.06505">
        <ele>58.44330992901</ele>
        <time>2021-03-15T23:57:41.125Z</time>
      </trkpt>
      <trkpt lat="47.97349" lon="-4.06532">
        <ele>59.19337253552</ele>
        <time>2021-03-15T23:58:00.061Z</time>
      </trkpt>
      <trkpt lat="47.97398" lon="-4.06585">
        <ele>59.95917124678</ele>
        <time>2021-03-15T23:58:19.007Z</time>
      </trkpt>
      <trkpt lat="47.97447" lon="-4.06639">
        <ele>60.63959597672</ele>
        <time>2021-03-15T23:58:37.962Z</time>
      </trkpt>
      <trkpt lat="47.97487" lon="-4.06686">
        <ele>61.2593025095</ele>
        <time>2021-03-15T23:58:56.926Z</time>
      </trkpt>
      <trkpt lat="47.97526" lon="-4.06734">
        <ele>61.76593157409</ele>
        <time>2021-03-15T23:59:15.898Z</time>
      </trkpt>
      <trkpt lat="47.97579" lon="-4.06801">
        <ele>62.13613712154</ele>
        <time>2021-03-15T23:59:34.881Z</time>
      </trkpt>
      <trkpt lat="47.97632" lon="-4.06868">
        <ele>62.37766382227</ele>
        <time>2021-03-15T23:59:53.875Z</time>
      </trkpt>
      <trkpt lat="47.97661" lon="-4.06902">
        <ele>62.38338431157</ele>
        <time>2021-03-16T00:00:12.875Z</time>
      </trkpt>
      <trkpt lat="47.97686" lon="-4.06934">
        <ele>62.2923342797</ele>
        <time>2021-03-16T00:00:31.880Z</time>
      </trkpt>
      <trkpt lat="47.97724" lon="-4.06984">
        <ele>62.0242533512</ele>
        <time>2021-03-16T00:00:50.893Z</time>
      </trkpt>
      <trkpt lat="47.97692" lon="-4.0705">
        <ele>61.61982353023</ele>
        <time>2021-03-16T00:01:09.915Z</time>
      </trkpt>
      <trkpt lat="47.97674" lon="-4.07102">
        <ele>60.95412130677</ele>
        <time>2021-03-16T00:01:28.943Z</time>
      </trkpt>
      <trkpt lat="47.97657" lon="-4.0716">
        <ele>60.08737752922</ele>
        <time>2021-03-16T00:01:47.978Z</time>
      </trkpt>
      <trkpt lat="47.97628" lon="-4.07282">
        <ele>59.13459129801</ele>
        <time>2021-03-16T00:02:07.027Z</time>
      </trkpt>
      <trkpt lat="47.97616" lon="-4.07352">
        <ele>58.02385573246</ele>
        <time>2021-03-16T00:02:26.084Z</time>
      </trkpt>
      <trkpt lat="47.9761" lon="-4.07426">
        <ele>56.71242885707</ele>
        <time>2021-03-16T00:02:45.149Z</time>
      </trkpt>
      <trkpt lat="47.97608" lon="-4.07505">
        <ele>55.51759541276</ele>
        <time>2021-03-16T00:03:04.222Z</time>
      </trkpt>
      <trkpt lat="47.97608" lon="-4.07552">
        <ele>54.25264109299</ele>
        <time>2021-03-16T00:03:23.300Z</time>
      </trkpt>
      <trkpt lat="47.97613" lon="-4.07621">
        <ele>52.85851389901</ele>
        <time>2021-03-16T00:03:42.386Z</time>
      </trkpt>
      <trkpt lat="47.97618" lon="-4.0769">
        <ele>51.51605335735</ele>
        <time>2021-03-16T00:04:01.479Z</time>
      </trkpt>
      <trkpt lat="47.97619" lon="-4.07721">
        <ele>50.21350296869</ele>
        <time>2021-03-16T00:04:20.576Z</time>
      </trkpt>
      <trkpt lat="47.97627" lon="-4.07812">
        <ele>48.81009334391</ele>
        <time>2021-03-16T00:04:39.682Z</time>
      </trkpt>
      <trkpt lat="47.97635" lon="-4.07904">
        <ele>47.44245778508</ele>
        <time>2021-03-16T00:04:58.798Z</time>
      </trkpt>
      <trkpt lat="47.97641" lon="-4.08">
        <ele>46.18192776348</ele>
        <time>2021-03-16T00:05:17.925Z</time>
      </trkpt>
      <trkpt lat="47.97639" lon="-4.08103">
        <ele>45.00207381551</ele>
        <time>2021-03-16T00:05:37.063Z</time>
      </trkpt>
      <trkpt lat="47.97635" lon="-4.08141">
        <ele>44.03220213366</ele>
        <time>2021-03-16T00:05:56.205Z</time>
      </trkpt>
      <trkpt lat="47.97626" lon="-4.08171">
        <ele>43.18100437725</ele>
        <time>2021-03-16T00:06:15.351Z</time>
      </trkpt>
      <trkpt lat="47.97603" lon="-4.08215">
        <ele>42.479747824</ele>
        <time>2021-03-16T00:06:34.503Z</time>
      </trkpt>
      <trkpt lat="47.97597" lon="-4.0823">
        <ele>41.91692270774</ele>
        <time>2021-03-16T00:06:53.656Z</time>
      </trkpt>
      <trkpt lat="47.97593" lon="-4.08246">
        <ele>41.49685365838</ele>
        <time>2021-03-16T00:07:12.811Z</time>
      </trkpt>
      <trkpt lat="47.97573" lon="-4.08286">
        <ele>41.2037731995</ele>
        <time>2021-03-16T00:07:31.972Z</time>
      </trkpt>
      <trkpt lat="47.97562" lon="-4.08304">
        <ele>41.0515888008</ele>
        <time>2021-03-16T00:07:51.135Z</time>
      </trkpt>
      <trkpt lat="47.97557" lon="-4.08305">
        <ele>41.00220550602</ele>
        <time>2021-03-16T00:08:10.299Z</time>
      </trkpt>
      <trkpt lat="47.97552" lon="-4.0831">
        <ele>41.05852033032</ele>
        <time>2021-03-16T00:08:29.464Z</time>
      </trkpt>
      <trkpt lat="47.97551" lon="-4.08321">
        <ele>41.20249841398</ele>
        <time>2021-03-16T00:08:48.630Z</time>
      </trkpt>
      <trkpt lat="47.97545" lon="-4.08329">
        <ele>41.42533588444</ele>
        <time>2021-03-16T00:09:07.797Z</time>
      </trkpt>
      <trkpt lat="47.97532" lon="-4.0834">
        <ele>41.716646108</ele>
        <time>2021-03-16T00:09:26.967Z</time>
      </trkpt>
      <trkpt lat="47.97514" lon="-4.0834">
        <ele>42.00472050105</ele>
        <time>2021-03-16T00:09:46.140Z</time>
      </trkpt>
      <trkpt lat="47.9749" lon="-4.08343">
        <ele>42.31319378521</ele>
        <time>2021-03-16T00:10:05.317Z</time>
      </trkpt>
      <trkpt lat="47.97474" lon="-4.08343">
        <ele>42.61730417866</ele>
        <time>2021-03-16T00:10:24.496Z</time>
      </trkpt>
      <trkpt lat="47.97432" lon="-4.08333">
        <ele>42.87094396382</ele>
        <time>2021-03-16T00:10:43.682Z</time>
      </trkpt>
      <trkpt lat="47.97409" lon="-4.08338">
        <ele>43.09132440454</ele>
        <time>2021-03-16T00:11:02.872Z</time>
      </trkpt>
      <trkpt lat="47.97387" lon="-4.0835">
        <ele>43.27685869105</ele>
        <time>2021-03-16T00:11:22.065Z</time>
      </trkpt>
      <trkpt lat="47.97369" lon="-4.08368">
        <ele>43.43988616684</ele>
        <time>2021-03-16T00:11:41.262Z</time>
      </trkpt>
      <trkpt lat="47.97361" lon="-4.08379">
        <ele>43.57977578094</ele>
        <time>2021-03-16T00:12:00.461Z</time>
      </trkpt>
      <trkpt lat="47.97362" lon="-4.08379">
        <ele>43.69457225104</ele>
        <time>2021-03-16T00:12:19.660Z</time>
      </trkpt>
      <trkpt lat="47.97333" lon="-4.08422">
        <ele>43.79020288786</ele>
        <time>2021-03-16T00:12:38.865Z</time>
      </trkpt>
      <trkpt lat="47.97309" lon="-4.08446">
        <ele>43.7904066408</ele>
        <time>2021-03-16T00:12:58.075Z</time>
      </trkpt>
      <trkpt lat="47.97295" lon="-4.08457">
        <ele>43.7117868468</ele>
        <time>2021-03-16T00:13:17.288Z</time>
      </trkpt>
      <trkpt lat="47.97283" lon="-4.08464">
        <ele>43.58394342549</ele>
        <time>2021-03-16T00:13:36.503Z</time>
      </trkpt>
      <trkpt lat="47.97275" lon="-4.08462">
        <ele>43.3830519206</ele>
        <time>2021-03-16T00:13:55.719Z</time>
      </trkpt>
      <trkpt lat="47.97271" lon="-4.08467">
        <ele>43.11674994995</ele>
        <time>2021-03-16T00:14:14.936Z</time>
      </trkpt>
      <trkpt lat="47.97269" lon="-4.0848">
        <ele>42.78350353287</ele>
        <time>2021-03-16T00:14:34.154Z</time>
      </trkpt>
      <trkpt lat="47.97271" lon="-4.08486">
        <ele>42.34616843573</ele>
        <time>2021-03-16T00:14:53.373Z</time>
      </trkpt>
      <trkpt lat="47.97267" lon="-4.08523">
        <ele>41.80137618288</ele>
        <time>2021-03-16T00:15:12.596Z</time>
      </trkpt>
      <trkpt lat="47.9727" lon="-4.08561">
        <ele>41.15782292849</ele>
        <time>2021-03-16T00:15:31.823Z</time>
      </trkpt>
      <trkpt lat="47.97293" lon="-4.08668">
        <ele>40.323714399</ele>
        <time>2021-03-16T00:15:51.062Z</time>
      </trkpt>
      <trkpt lat="47.97303" lon="-4.0872">
        <ele>39.57966547968</ele>
        <time>2021-03-16T00:16:10.307Z</time>
      </trkpt>
      <trkpt lat="47.97304" lon="-4.08732">
        <ele>38.80647689927</ele>
        <time>2021-03-16T00:16:29.553Z</time>
      </trkpt>
      <trkpt lat="47.973" lon="-4.08744">
        <ele>37.96426648574</ele>
        <time>2021-03-16T00:16:48.801Z</time>
      </trkpt>
      <trkpt lat="47.97292" lon="-4.08753">
        <ele>37.04800804883</ele>
        <time>2021-03-16T00:17:08.050Z</time>
      </trkpt>
      <trkpt lat="47.97288" lon="-4.08762">
        <ele>36.08340556405</ele>
        <time>2021-03-16T00:17:27.300Z</time>
      </trkpt>
      <trkpt lat="47.97287" lon="-4.08772">
        <ele>35.06846344808</ele>
        <time>2021-03-16T00:17:46.552Z</time>
      </trkpt>
      <trkpt lat="47.97289" lon="-4.08788">
        <ele>33.99695718009</ele>
        <time>2021-03-16T00:18:05.805Z</time>
      </trkpt>
      <trkpt lat="47.973" lon="-4.08805">
        <ele>32.90959394402</ele>
        <time>2021-03-16T00:18:25.061Z</time>
      </trkpt>
      <trkpt lat="47.97308" lon="-4.08806">
        <ele>31.78648743548</ele>
        <time>2021-03-16T00:18:44.318Z</time>
      </trkpt>
      <trkpt lat="47.97315" lon="-4.08824">
        <ele>30.58488981904</ele>
        <time>2021-03-16T00:19:03.577Z</time>
      </trkpt>
      <trkpt lat="47.97327" lon="-4.08887">
        <ele>29.21469221713</ele>
        <time>2021-03-16T00:19:22.843Z</time>
      </trkpt>
      <trkpt lat="47.97341" lon="-4.0894">
        <ele>27.90465815407</ele>
        <time>2021-03-16T00:19:42.115Z</time>
      </trkpt>
      <trkpt lat="47.97364" lon="-4.09009">
        <ele>26.53223491841</ele>
        <time>2021-03-16T00:20:01.396Z</time>
      </trkpt>
      <trkpt lat="47.97384" lon="-4.09049">
        <ele>25.17681642631</ele>
        <time>2021-03-16T00:20:20.682Z</time>
      </trkpt>
      <trkpt lat="47.97421" lon="-4.09109">
        <ele>23.79256677241</ele>
        <time>2021-03-16T00:20:39.977Z</time>
      </trkpt>
      <trkpt lat="47.9744" lon="-4.09135">
        <ele>22.46123443457</ele>
        <time>2021-03-16T00:20:59.276Z</time>
      </trkpt>
      <trkpt lat="47.97475" lon="-4.09169">
        <ele>21.16490892417</ele>
        <time>2021-03-16T00:21:18.582Z</time>
      </trkpt>
      <trkpt lat="47.97506" lon="-4.09196">
        <ele>20.06518224898</ele>
        <time>2021-03-16T00:21:37.893Z</time>
      </trkpt>
      <trkpt lat="47.97588" lon="-4.09248">
        <ele>18.9923048145</ele>
        <time>2021-03-16T00:21:57.219Z</time>
      </trkpt>
      <trkpt lat="47.9767" lon="-4.09299">
        <ele>17.89074515562</ele>
        <time>2021-03-16T00:22:16.559Z</time>
      </trkpt>
      <trkpt lat="47.97752" lon="-4.09351">
        <ele>17.0259813086</ele>
        <time>2021-03-16T00:22:35.913Z</time>
      </trkpt>
      <trkpt lat="47.97772" lon="-4.09365">
        <ele>16.30986114685</ele>
        <time>2021-03-16T00:22:55.271Z</time>
      </trkpt>
      <trkpt lat="47.97805" lon="-4.09393">
        <ele>15.61176879846</ele>
        <time>2021-03-16T00:23:14.635Z</time>
      </trkpt>
      <trkpt lat="47.97876" lon="-4.09462">
        <ele>15.04811744483</ele>
        <time>2021-03-16T00:23:34.012Z</time>
      </trkpt>
      <trkpt lat="47.97888" lon="-4.09478">
        <ele>14.69638208291</ele>
        <time>2021-03-16T00:23:53.392Z</time>
      </trkpt>
      <trkpt lat="47.9789" lon="-4.0949">
        <ele>14.49935299551</ele>
        <time>2021-03-16T00:24:12.773Z</time>
      </trkpt>
      <trkpt lat="47.97897" lon="-4.09506">
        <ele>14.43938051938</ele>
        <time>2021-03-16T00:24:32.156Z</time>
      </trkpt>
      <trkpt lat="47.97909" lon="-4.09518">
        <ele>14.46602149728</ele>
        <time>2021-03-16T00:24:51.542Z</time>
      </trkpt>
      <trkpt lat="47.97916" lon="-4.09522">
        <ele>14.57569776252</ele>
        <time>2021-03-16T00:25:10.929Z</time>
      </trkpt>
      <trkpt lat="47.97923" lon="-4.09543">
        <ele>14.83413018445</ele>
        <time>2021-03-16T00:25:30.318Z</time>
      </trkpt>
      <trkpt lat="47.97939" lon="-4.09602">
        <ele>15.22693762505</ele>
        <time>2021-03-16T00:25:49.714Z</time>
      </trkpt>
      <trkpt lat="47.9795" lon="-4.0964">
        <ele>15.56832473614</ele>
        <time>2021-03-16T00:26:09.115Z</time>
      </trkpt>
      <trkpt lat="47.97969" lon="-4.09719">
        <ele>15.95366846761</ele>
        <time>2021-03-16T00:26:28.525Z</time>
      </trkpt>
      <trkpt lat="47.97988" lon="-4.09799">
        <ele>16.54663600119</ele>
        <time>2021-03-16T00:26:47.944Z</time>
      </trkpt>
      <trkpt lat="47.98002" lon="-4.09869">
        <ele>17.09670119106</ele>
        <time>2021-03-16T00:27:07.371Z</time>
      </trkpt>
      <trkpt lat="47.98016" lon="-4.0994">
        <ele>17.77919007382</ele>
        <time>2021-03-16T00:27:26.806Z</time>
      </trkpt>
      <trkpt lat="47.98026" lon="-4.10013">
        <ele>18.28765679565</ele>
        <time>2021-03-16T00:27:46.249Z</time>
      </trkpt>
      <trkpt lat="47.98028" lon="-4.10074">
        <ele>18.92261409599</ele>
        <time>2021-03-16T00:28:05.698Z</time>
      </trkpt>
      <trkpt lat="47.98025" lon="-4.10133">
        <ele>19.51052419358</ele>
        <time>2021-03-16T00:28:25.154Z</time>
      </trkpt>
      <trkpt lat="47.98015" lon="-4.10241">
        <ele>19.89079771028</ele>
        <time>2021-03-16T00:28:44.621Z</time>
      </trkpt>
      <trkpt lat="47.98005" lon="-4.10349">
        <ele>20.50330970469</ele>
        <time>2021-03-16T00:29:04.100Z</time>
      </trkpt>
      <trkpt lat="47.97995" lon="-4.10456">
        <ele>21.17248036457</ele>
        <time>2021-03-16T00:29:23.591Z</time>
      </trkpt>
      <trkpt lat="47.97985" lon="-4.10564">
        <ele>21.7562359997</ele>
        <time>2021-03-16T00:29:43.093Z</time>
      </trkpt>
      <trkpt lat="47.97984" lon="-4.10631">
        <ele>22.45605131943</ele>
        <time>2021-03-16T00:30:02.603Z</time>
      </trkpt>
      <trkpt lat="47.97987" lon="-4.10674">
        <ele>22.99185002823</ele>
        <time>2021-03-16T00:30:22.117Z</time>
      </trkpt>
      <trkpt lat="47.97995" lon="-4.10721">
        <ele>23.39243549875</ele>
        <time>2021-03-16T00:30:41.636Z</time>
      </trkpt>
      <trkpt lat="47.98002" lon="-4.1075">
        <ele>23.69901954631</ele>
        <time>2021-03-16T00:31:01.159Z</time>
      </trkpt>
      <trkpt lat="47.9802" lon="-4.10796">
        <ele>23.84756064442</ele>
        <time>2021-03-16T00:31:20.687Z</time>
      </trkpt>
      <trkpt lat="47.98034" lon="-4.10827">
        <ele>23.921185673</ele>
        <time>2021-03-16T00:31:40.219Z</time>
      </trkpt>
      <trkpt lat="47.98045" lon="-4.10846">
        <ele>23.82456565691</ele>
        <time>2021-03-16T00:31:59.754Z</time>
      </trkpt>
      <trkpt lat="47.98062" lon="-4.10869">
        <ele>23.58381293087</ele>
        <time>2021-03-16T00:32:19.293Z</time>
      </trkpt>
      <trkpt lat="47.9809" lon="-4.10902">
        <ele>23.25622878704</ele>
        <time>2021-03-16T00:32:38.838Z</time>
      </trkpt>
      <trkpt lat="47.9815" lon="-4.10957">
        <ele>22.83600569728</ele>
        <time>2021-03-16T00:32:58.394Z</time>
      </trkpt>
      <trkpt lat="47.9821" lon="-4.11012">
        <ele>22.09321163861</ele>
        <time>2021-03-16T00:33:17.961Z</time>
      </trkpt>
      <trkpt lat="47.98237" lon="-4.11036">
        <ele>21.29088292641</ele>
        <time>2021-03-16T00:33:37.533Z</time>
      </trkpt>
      <trkpt lat="47.98238" lon="-4.11036">
        <ele>20.37690329988</ele>
        <time>2021-03-16T00:33:57.105Z</time>
      </trkpt>
      <trkpt lat="47.98289" lon="-4.1108">
        <ele>19.24432578232</ele>
        <time>2021-03-16T00:34:16.687Z</time>
      </trkpt>
      <trkpt lat="47.9834" lon="-4.11153">
        <ele>17.88753092363</ele>
        <time>2021-03-16T00:34:36.280Z</time>
      </trkpt>
      <trkpt lat="47.98382" lon="-4.11223">
        <ele>16.68411123109</ele>
        <time>2021-03-16T00:34:55.883Z</time>
      </trkpt>
      <trkpt lat="47.98424" lon="-4.11294">
        <ele>15.45270529417</ele>
        <time>2021-03-16T00:35:15.496Z</time>
      </trkpt>
      <trkpt lat="47.98429" lon="-4.1131">
        <ele>14.24975498817</ele>
        <time>2021-03-16T00:35:35.111Z</time>
      </trkpt>
      <trkpt lat="47.98433" lon="-4.11339">
        <ele>13.04089218203</ele>
        <time>2021-03-16T00:35:54.729Z</time>
      </trkpt>
      <trkpt lat="47.98425" lon="-4.11402">
        <ele>11.86845790345</ele>
        <time>2021-03-16T00:36:14.354Z</time>
      </trkpt>
      <trkpt lat="47.98406" lon="-4.11482">
        <ele>10.51140188542</ele>
        <time>2021-03-16T00:36:33.988Z</time>
      </trkpt>
      <trkpt lat="47.98395" lon="-4.11561">
        <ele>9.10944111899</ele>
        <time>2021-03-16T00:36:53.631Z</time>
      </trkpt>
      <trkpt lat="47.98383" lon="-4.11658">
        <ele>8.05931691298</ele>
        <time>2021-03-16T00:37:13.285Z</time>
      </trkpt>
      <trkpt lat="47.98371" lon="-4.11754">
        <ele>7.36052069416</ele>
        <time>2021-03-16T00:37:32.949Z</time>
      </trkpt>
      <trkpt lat="47.98365" lon="-4.11796">
        <ele>6.42667600231</ele>
        <time>2021-03-16T00:37:52.618Z</time>
      </trkpt>
      <trkpt lat="47.98356" lon="-4.11829">
        <ele>5.55502077782</ele>
        <time>2021-03-16T00:38:12.291Z</time>
      </trkpt>
      <trkpt lat="47.98346" lon="-4.11855">
        <ele>4.74777076725</ele>
        <time>2021-03-16T00:38:31.967Z</time>
      </trkpt>
      <trkpt lat="47.98332" lon="-4.1188">
        <ele>3.95703935354</ele>
        <time>2021-03-16T00:38:51.646Z</time>
      </trkpt>
      <trkpt lat="47.98308" lon="-4.11913">
        <ele>3.18180666501</ele>
        <time>2021-03-16T00:39:11.331Z</time>
      </trkpt>
      <trkpt lat="47.98267" lon="-4.11951">
        <ele>2.44188219206</ele>
        <time>2021-03-16T00:39:31.023Z</time>
      </trkpt>
      <trkpt lat="47.98197" lon="-4.11996">
        <ele>1.78097628025</ele>
        <time>2021-03-16T00:39:50.728Z</time>
      </trkpt>
      <trkpt lat="47.98126" lon="-4.1204">
        <ele>1.21376320232</ele>
        <time>2021-03-16T00:40:10.445Z</time>
      </trkpt>
      <trkpt lat="47.98081" lon="-4.1207">
        <ele>0.64863625679</ele>
        <time>2021-03-16T00:40:30.170Z</time>
      </trkpt>
      <trkpt lat="47.98007" lon="-4.12124">
        <ele>0.14905184279</ele>
        <time>2021-03-16T00:40:49.908Z</time>
      </trkpt>
      <trkpt lat="47.97974" lon="-4.12163">
        <ele>-0.24752165399</ele>
        <time>2021-03-16T00:41:09.653Z</time>
      </trkpt>
      <trkpt lat="47.97967" lon="-4.12168">
        <ele>-0.63965989494</ele>
        <time>2021-03-16T00:41:29.399Z</time>
      </trkpt>
      <trkpt lat="47.97956" lon="-4.12181">
        <ele>-0.96365141941</ele>
        <time>2021-03-16T00:41:49.147Z</time>
      </trkpt>
      <trkpt lat="47.9795" lon="-4.12197">
        <ele>-1.23067104468</ele>
        <time>2021-03-16T00:42:08.897Z</time>
      </trkpt>
      <trkpt lat="47.97946" lon="-4.12218">
        <ele>-1.41387458404</ele>
        <time>2021-03-16T00:42:28.650Z</time>
      </trkpt>
      <trkpt lat="47.97946" lon="-4.12239">
        <ele>-1.50797227891</ele>
        <time>2021-03-16T00:42:48.405Z</time>
      </trkpt>
      <trkpt lat="47.97953" lon="-4.1226">
        <ele>-1.46375863791</ele>
        <time>2021-03-16T00:43:08.162Z</time>
      </trkpt>
      <trkpt lat="47.9796" lon="-4.12268">
        <ele>7.17770508275</ele>
        <time>2021-03-16T00:43:27.921Z</time>
      </trkpt>
      <trkpt lat="47.97971" lon="-4.12273">
        <ele>-0.84212922824</ele>
        <time>2021-03-16T00:43:47.682Z</time>
      </trkpt>
      <trkpt lat="47.97977" lon="-4.12289">
        <ele>-0.24344621699</ele>
        <time>2021-03-16T00:44:07.445Z</time>
      </trkpt>
      <trkpt lat="47.97979" lon="-4.12303">
        <ele>0.59377718248</ele>
        <time>2021-03-16T00:44:27.209Z</time>
      </trkpt>
      <trkpt lat="47.97976" lon="-4.12352">
        <ele>1.65380341086</ele>
        <time>2021-03-16T00:44:46.978Z</time>
      </trkpt>
      <trkpt lat="47.97976" lon="-4.12404">
        <ele>3.04314890474</ele>
        <time>2021-03-16T00:45:06.753Z</time>
      </trkpt>
      <trkpt lat="47.97978" lon="-4.12421">
        <ele>4.74098489848</ele>
        <time>2021-03-16T00:45:26.530Z</time>
      </trkpt>
      <trkpt lat="47.97982" lon="-4.12446">
        <ele>6.72014107481</ele>
        <time>2021-03-16T00:45:46.310Z</time>
      </trkpt>
      <trkpt lat="47.97989" lon="-4.12481">
        <ele>9.01435423509</ele>
        <time>2021-03-16T00:46:06.093Z</time>
      </trkpt>
      <trkpt lat="47.97999" lon="-4.12516">
        <ele>11.62227305073</ele>
        <time>2021-03-16T00:46:25.881Z</time>
      </trkpt>
      <trkpt lat="47.98009" lon="-4.12544">
        <ele>14.49480529065</ele>
        <time>2021-03-16T00:46:45.672Z</time>
      </trkpt>
      <trkpt lat="47.98021" lon="-4.12569">
        <ele>17.61899505254</ele>
        <time>2021-03-16T00:47:05.466Z</time>
      </trkpt>
      <trkpt lat="47.9805" lon="-4.12619">
        <ele>21.33853968471</ele>
        <time>2021-03-16T00:47:25.267Z</time>
      </trkpt>
      <trkpt lat="47.98113" lon="-4.12702">
        <ele>25.06308583898</ele>
        <time>2021-03-16T00:47:45.082Z</time>
      </trkpt>
      <trkpt lat="47.98175" lon="-4.12784">
        <ele>28.75172733317</ele>
        <time>2021-03-16T00:48:04.910Z</time>
      </trkpt>
      <trkpt lat="47.98238" lon="-4.12867">
        <ele>32.63430541578</ele>
        <time>2021-03-16T00:48:24.752Z</time>
      </trkpt>
      <trkpt lat="47.983" lon="-4.1295">
        <ele>36.64581914355</ele>
        <time>2021-03-16T00:48:44.607Z</time>
      </trkpt>
      <trkpt lat="47.98333" lon="-4.12988">
        <ele>40.37743471384</ele>
        <time>2021-03-16T00:49:04.469Z</time>
      </trkpt>
      <trkpt lat="47.98345" lon="-4.12999">
        <ele>43.85312451682</ele>
        <time>2021-03-16T00:49:24.333Z</time>
      </trkpt>
      <trkpt lat="47.98374" lon="-4.13021">
        <ele>47.26002157907</ele>
        <time>2021-03-16T00:49:44.202Z</time>
      </trkpt>
      <trkpt lat="47.98393" lon="-4.1303">
        <ele>50.30271523965</ele>
        <time>2021-03-16T00:50:04.074Z</time>
      </trkpt>
      <trkpt lat="47.98411" lon="-4.13037">
        <ele>53.02511976521</ele>
        <time>2021-03-16T00:50:23.949Z</time>
      </trkpt>
      <trkpt lat="47.98445" lon="-4.13042">
        <ele>55.50721429027</ele>
        <time>2021-03-16T00:50:43.830Z</time>
      </trkpt>
      <trkpt lat="47.98476" lon="-4.13039">
        <ele>57.74693724006</ele>
        <time>2021-03-16T00:51:03.716Z</time>
      </trkpt>
      <trkpt lat="47.9851" lon="-4.13027">
        <ele>59.76532784482</ele>
        <time>2021-03-16T00:51:23.607Z</time>
      </trkpt>
      <trkpt lat="47.9853" lon="-4.13016">
        <ele>61.58685314396</ele>
        <time>2021-03-16T00:51:43.502Z</time>
      </trkpt>
      <trkpt lat="47.98547" lon="-4.13004">
        <ele>63.24331624168</ele>
        <time>2021-03-16T00:52:03.400Z</time>
      </trkpt>
      <trkpt lat="47.98568" lon="-4.12988">
        <ele>64.74480125033</ele>
        <time>2021-03-16T00:52:23.301Z</time>
      </trkpt>
      <trkpt lat="47.98593" lon="-4.12967">
        <ele>66.10055438429</ele>
        <time>2021-03-16T00:52:43.207Z</time>
      </trkpt>
      <trkpt lat="47.9863" lon="-4.12922">
        <ele>67.38818317082</ele>
        <time>2021-03-16T00:53:03.121Z</time>
      </trkpt>
      <trkpt lat="47.98667" lon="-4.12877">
        <ele>68.52600939892</ele>
        <time>2021-03-16T00:53:23.042Z</time>
      </trkpt>
      <trkpt lat="47.98668" lon="-4.12877">
        <ele>69.44352709666</ele>
        <time>2021-03-16T00:53:42.964Z</time>
      </trkpt>
      <trkpt lat="47.98703" lon="-4.12835">
        <ele>70.41185057645</ele>
        <time>2021-03-16T00:54:02.893Z</time>
      </trkpt>
      <trkpt lat="47.98705" lon="-4.12838">
        <ele>71.08716238491</ele>
        <time>2021-03-16T00:54:22.822Z</time>
      </trkpt>
      <trkpt lat="47.98712" lon="-4.12838">
        <ele>71.69156640686</ele>
        <time>2021-03-16T00:54:42.752Z</time>
      </trkpt>
      <trkpt lat="47.98717" lon="-4.12839">
        <ele>72.17584157801</ele>
        <time>2021-03-16T00:55:02.683Z</time>
      </trkpt>
      <trkpt lat="47.98722" lon="-4.12835">
        <ele>72.56349781193</ele>
        <time>2021-03-16T00:55:22.615Z</time>
      </trkpt>
      <trkpt lat="47.98762" lon="-4.12953">
        <ele>72.63788910635</ele>
        <time>2021-03-16T00:55:42.561Z</time>
      </trkpt>
      <trkpt lat="47.98769" lon="-4.12965">
        <ele>72.77489513805</ele>
        <time>2021-03-16T00:56:02.509Z</time>
      </trkpt>
      <trkpt lat="47.98784" lon="-4.12981">
        <ele>72.84387257368</ele>
        <time>2021-03-16T00:56:22.460Z</time>
      </trkpt>
      <trkpt lat="47.98816" lon="-4.12999">
        <ele>72.8450603387</ele>
        <time>2021-03-16T00:56:42.416Z</time>
      </trkpt>
      <trkpt lat="47.98873" lon="-4.13039">
        <ele>72.76151856495</ele>
        <time>2021-03-16T00:57:02.382Z</time>
      </trkpt>
      <trkpt lat="47.98912" lon="-4.13091">
        <ele>72.5628179845</ele>
        <time>2021-03-16T00:57:22.357Z</time>
      </trkpt>
      <trkpt lat="47.9895" lon="-4.13144">
        <ele>72.22913123673</ele>
        <time>2021-03-16T00:57:42.340Z</time>
      </trkpt>
      <trkpt lat="47.98988" lon="-4.13199">
        <ele>71.69315642035</ele>
        <time>2021-03-16T00:58:02.332Z</time>
      </trkpt>
      <trkpt lat="47.98998" lon="-4.13201">
        <ele>71.09814179893</ele>
        <time>2021-03-16T00:58:22.325Z</time>
      </trkpt>
      <trkpt lat="47.98999" lon="-4.13213">
        <ele>70.43746826584</ele>
        <time>2021-03-16T00:58:42.320Z</time>
      </trkpt>
      <trkpt lat="47.99002" lon="-4.13221">
        <ele>69.68233169096</ele>
        <time>2021-03-16T00:59:02.316Z</time>
      </trkpt>
      <trkpt lat="47.99035" lon="-4.13268">
        <ele>68.82183417293</ele>
        <time>2021-03-16T00:59:22.319Z</time>
      </trkpt>
      <trkpt lat="47.99068" lon="-4.13316">
        <ele>67.90262117029</ele>
        <time>2021-03-16T00:59:42.329Z</time>
      </trkpt>
      <trkpt lat="47.99104" lon="-4.13372">
        <ele>66.93535031277</ele>
        <time>2021-03-16T01:00:02.348Z</time>
      </trkpt>
      <trkpt lat="47.99117" lon="-4.13401">
        <ele>66.00987995229</ele>
        <time>2021-03-16T01:00:22.370Z</time>
      </trkpt>
      <trkpt lat="47.99121" lon="-4.13412">
        <ele>65.10368437312</ele>
        <time>2021-03-16T01:00:42.394Z</time>
      </trkpt>
      <trkpt lat="47.99128" lon="-4.1345">
        <ele>64.23018519761</ele>
        <time>2021-03-16T01:01:02.422Z</time>
      </trkpt>
      <trkpt lat="47.99128" lon="-4.13483">
        <ele>63.36092004398</ele>
        <time>2021-03-16T01:01:22.453Z</time>
      </trkpt>
      <trkpt lat="47.99117" lon="-4.13572">
        <ele>62.45411415713</ele>
        <time>2021-03-16T01:01:42.494Z</time>
      </trkpt>
      <trkpt lat="47.99117" lon="-4.13602">
        <ele>61.65153842531</ele>
        <time>2021-03-16T01:02:02.538Z</time>
      </trkpt>
      <trkpt lat="47.9912" lon="-4.13624">
        <ele>60.94557781833</ele>
        <time>2021-03-16T01:02:22.585Z</time>
      </trkpt>
      <trkpt lat="47.99125" lon="-4.13642">
        <ele>60.33715661361</ele>
        <time>2021-03-16T01:02:42.634Z</time>
      </trkpt>
      <trkpt lat="47.99156" lon="-4.13718">
        <ele>59.86431967429</ele>
        <time>2021-03-16T01:03:02.692Z</time>
      </trkpt>
      <trkpt lat="47.99158" lon="-4.13715">
        <ele>59.48375356199</ele>
        <time>2021-03-16T01:03:22.751Z</time>
      </trkpt>
      <trkpt lat="47.99156" lon="-4.13718">
        <ele>59.86431967429</ele>
        <time>2021-03-16T01:03:42.810Z</time>
      </trkpt>
      <trkpt lat="47.9918" lon="-4.13769">
        <ele>59.03878381459</ele>
        <time>2021-03-16T01:04:02.876Z</time>
      </trkpt>
      <trkpt lat="47.99191" lon="-4.13788">
        <ele>59.06057854188</ele>
        <time>2021-03-16T01:04:22.945Z</time>
      </trkpt>
      <trkpt lat="47.99197" lon="-4.13802">
        <ele>59.2077742772</ele>
        <time>2021-03-16T01:04:43.016Z</time>
      </trkpt>
      <trkpt lat="47.99199" lon="-4.13816">
        <ele>59.45924426367</ele>
        <time>2021-03-16T01:05:03.088Z</time>
      </trkpt>
      <trkpt lat="47.99206" lon="-4.13825">
        <ele>59.87979402829</ele>
        <time>2021-03-16T01:05:23.162Z</time>
      </trkpt>
      <trkpt lat="47.9921" lon="-4.13826">
        <ele>60.42115499026</ele>
        <time>2021-03-16T01:05:43.236Z</time>
      </trkpt>
      <trkpt lat="47.99241" lon="-4.13929">
        <ele>61.1215730192</ele>
        <time>2021-03-16T01:06:03.322Z</time>
      </trkpt>
      <trkpt lat="47.99255" lon="-4.1399">
        <ele>61.94108358473</ele>
        <time>2021-03-16T01:06:23.415Z</time>
      </trkpt>
      <trkpt lat="47.99263" lon="-4.14027">
        <ele>62.878665223</ele>
        <time>2021-03-16T01:06:43.512Z</time>
      </trkpt>
      <trkpt lat="47.99298" lon="-4.14126">
        <ele>63.99413298519</ele>
        <time>2021-03-16T01:07:03.622Z</time>
      </trkpt>
      <trkpt lat="47.99318" lon="-4.1417">
        <ele>65.37377131853</ele>
        <time>2021-03-16T01:07:23.737Z</time>
      </trkpt>
      <trkpt lat="47.9937" lon="-4.14256">
        <ele>66.92532919968</ele>
        <time>2021-03-16T01:07:43.865Z</time>
      </trkpt>
      <trkpt lat="47.99422" lon="-4.14341">
        <ele>68.674802146</ele>
        <time>2021-03-16T01:08:04.005Z</time>
      </trkpt>
      <trkpt lat="47.99473" lon="-4.14427">
        <ele>70.56268107213</ele>
        <time>2021-03-16T01:08:24.157Z</time>
      </trkpt>
      <trkpt lat="47.99525" lon="-4.14512">
        <ele>72.74023294203</ele>
        <time>2021-03-16T01:08:44.322Z</time>
      </trkpt>
      <trkpt lat="47.99577" lon="-4.14598">
        <ele>75.1135702218</ele>
        <time>2021-03-16T01:09:04.499Z</time>
      </trkpt>
      <trkpt lat="47.99596" lon="-4.14621">
        <ele>77.27270257446</ele>
        <time>2021-03-16T01:09:24.680Z</time>
      </trkpt>
      <trkpt lat="47.99659" lon="-4.14682">
        <ele>79.50104809066</ele>
        <time>2021-03-16T01:09:44.873Z</time>
      </trkpt>
      <trkpt lat="47.99718" lon="-4.14728">
        <ele>81.66647707036</ele>
        <time>2021-03-16T01:10:05.077Z</time>
      </trkpt>
      <trkpt lat="47.99776" lon="-4.14775">
        <ele>83.77359128009</ele>
        <time>2021-03-16T01:10:25.291Z</time>
      </trkpt>
      <trkpt lat="47.99825" lon="-4.14804">
        <ele>86.05690410255</ele>
        <time>2021-03-16T01:10:45.514Z</time>
      </trkpt>
      <trkpt lat="47.99842" lon="-4.14807">
        <ele>88.14927496087</ele>
        <time>2021-03-16T01:11:05.740Z</time>
      </trkpt>
      <trkpt lat="47.99875" lon="-4.14809">
        <ele>90.16618496174</ele>
        <time>2021-03-16T01:11:25.971Z</time>
      </trkpt>
      <trkpt lat="47.99914" lon="-4.14806">
        <ele>92.07793624464</ele>
        <time>2021-03-16T01:11:46.208Z</time>
      </trkpt>
      <trkpt lat="47.99921" lon="-4.14811">
        <ele>93.79867850096</ele>
        <time>2021-03-16T01:12:06.446Z</time>
      </trkpt>
      <trkpt lat="47.99926" lon="-4.1482">
        <ele>95.38626702925</ele>
        <time>2021-03-16T01:12:26.686Z</time>
      </trkpt>
      <trkpt lat="47.99931" lon="-4.14825">
        <ele>96.85223578177</ele>
        <time>2021-03-16T01:12:46.927Z</time>
      </trkpt>
      <trkpt lat="47.99937" lon="-4.14827">
        <ele>98.20500487885</ele>
        <time>2021-03-16T01:13:07.169Z</time>
      </trkpt>
      <trkpt lat="47.99944" lon="-4.14827">
        <ele>99.42321111351</ele>
        <time>2021-03-16T01:13:27.412Z</time>
      </trkpt>
      <trkpt lat="47.9995" lon="-4.14824">
        <ele>100.49559571692</ele>
        <time>2021-03-16T01:13:47.656Z</time>
      </trkpt>
      <trkpt lat="47.99984" lon="-4.14858">
        <ele>101.52307188088</ele>
        <time>2021-03-16T01:14:07.906Z</time>
      </trkpt>
      <trkpt lat="48.00019" lon="-4.14908">
        <ele>102.30633616503</ele>
        <time>2021-03-16T01:14:28.164Z</time>
      </trkpt>
      <trkpt lat="48.00032" lon="-4.14931">
        <ele>102.95616663402</ele>
        <time>2021-03-16T01:14:48.425Z</time>
      </trkpt>
      <trkpt lat="48.00043" lon="-4.14977">
        <ele>103.46089291056</ele>
        <time>2021-03-16T01:15:08.691Z</time>
      </trkpt>
      <trkpt lat="48.00054" lon="-4.15057">
        <ele>103.7643326491</ele>
        <time>2021-03-16T01:15:28.966Z</time>
      </trkpt>
      <trkpt lat="48.00064" lon="-4.15137">
        <ele>103.85779627593</ele>
        <time>2021-03-16T01:15:49.250Z</time>
      </trkpt>
      <trkpt lat="48.00061" lon="-4.15161">
        <ele>103.87343334622</ele>
        <time>2021-03-16T01:16:09.537Z</time>
      </trkpt>
      <trkpt lat="48.00056" lon="-4.15167">
        <ele>103.80477811771</ele>
        <time>2021-03-16T01:16:29.825Z</time>
      </trkpt>
      <trkpt lat="48.00053" lon="-4.15184">
        <ele>103.61122702377</ele>
        <time>2021-03-16T01:16:50.114Z</time>
      </trkpt>
      <trkpt lat="48.00057" lon="-4.15198">
        <ele>103.31219467275</ele>
        <time>2021-03-16T01:17:10.405Z</time>
      </trkpt>
      <trkpt lat="48.0006" lon="-4.15202">
        <ele>102.95938811077</ele>
        <time>2021-03-16T01:17:30.697Z</time>
      </trkpt>
      <trkpt lat="48.00065" lon="-4.15205">
        <ele>102.53481679347</ele>
        <time>2021-03-16T01:17:50.990Z</time>
      </trkpt>
      <trkpt lat="48.00069" lon="-4.15205">
        <ele>102.05277339959</ele>
        <time>2021-03-16T01:18:11.283Z</time>
      </trkpt>
      <trkpt lat="48.00076" lon="-4.15217">
        <ele>101.50798591394</ele>
        <time>2021-03-16T01:18:31.578Z</time>
      </trkpt>
      <trkpt lat="48.00078" lon="-4.15228">
        <ele>100.93577378807</ele>
        <time>2021-03-16T01:18:51.874Z</time>
      </trkpt>
      <trkpt lat="48.00084" lon="-4.15306">
        <ele>100.3403428848</ele>
        <time>2021-03-16T01:19:12.179Z</time>
      </trkpt>
      <trkpt lat="48.00086" lon="-4.15416">
        <ele>99.62618703203</ele>
        <time>2021-03-16T01:19:32.495Z</time>
      </trkpt>
      <trkpt lat="48.00092" lon="-4.15453">
        <ele>98.94000096388</ele>
        <time>2021-03-16T01:19:52.816Z</time>
      </trkpt>
      <trkpt lat="48.00101" lon="-4.15484">
        <ele>98.24856637669</ele>
        <time>2021-03-16T01:20:13.140Z</time>
      </trkpt>
      <trkpt lat="48.0011" lon="-4.15505">
        <ele>97.60804274569</ele>
        <time>2021-03-16T01:20:33.467Z</time>
      </trkpt>
      <trkpt lat="48.00125" lon="-4.15529">
        <ele>96.95215929939</ele>
        <time>2021-03-16T01:20:53.797Z</time>
      </trkpt>
      <trkpt lat="48.00161" lon="-4.15578">
        <ele>96.27190829704</ele>
        <time>2021-03-16T01:21:14.135Z</time>
      </trkpt>
      <trkpt lat="48.00178" lon="-4.15611">
        <ele>95.57796655526</ele>
        <time>2021-03-16T01:21:34.478Z</time>
      </trkpt>
      <trkpt lat="48.00181" lon="-4.15625">
        <ele>94.83306021541</ele>
        <time>2021-03-16T01:21:54.822Z</time>
      </trkpt>
      <trkpt lat="48.0018" lon="-4.15641">
        <ele>94.05868964764</ele>
        <time>2021-03-16T01:22:15.168Z</time>
      </trkpt>
      <trkpt lat="48.00176" lon="-4.15653">
        <ele>93.24734262</ele>
        <time>2021-03-16T01:22:35.515Z</time>
      </trkpt>
      <trkpt lat="48.0017" lon="-4.15664">
        <ele>92.39229750184</ele>
        <time>2021-03-16T01:22:55.864Z</time>
      </trkpt>
      <trkpt lat="48.00164" lon="-4.15665">
        <ele>91.54695668233</ele>
        <time>2021-03-16T01:23:16.214Z</time>
      </trkpt>
      <trkpt lat="48.00154" lon="-4.15672">
        <ele>90.67188865224</ele>
        <time>2021-03-16T01:23:36.566Z</time>
      </trkpt>
      <trkpt lat="48.00144" lon="-4.1569">
        <ele>89.78644070989</ele>
        <time>2021-03-16T01:23:56.920Z</time>
      </trkpt>
      <trkpt lat="48.00141" lon="-4.15712">
        <ele>88.93648548227</ele>
        <time>2021-03-16T01:24:17.277Z</time>
      </trkpt>
      <trkpt lat="48.00144" lon="-4.15728">
        <ele>88.20747074822</ele>
        <time>2021-03-16T01:24:37.635Z</time>
      </trkpt>
      <trkpt lat="48.00151" lon="-4.15743">
        <ele>87.57956441241</ele>
        <time>2021-03-16T01:24:57.995Z</time>
      </trkpt>
      <trkpt lat="48.00161" lon="-4.15754">
        <ele>87.01181785499</ele>
        <time>2021-03-16T01:25:18.357Z</time>
      </trkpt>
      <trkpt lat="48.00172" lon="-4.15755">
        <ele>86.53644465322</ele>
        <time>2021-03-16T01:25:38.721Z</time>
      </trkpt>
      <trkpt lat="48.00183" lon="-4.15752">
        <ele>86.15626455025</ele>
        <time>2021-03-16T01:25:59.087Z</time>
      </trkpt>
      <trkpt lat="48.00229" lon="-4.15782">
        <ele>85.84611688868</ele>
        <time>2021-03-16T01:26:19.461Z</time>
      </trkpt>
      <trkpt lat="48.00252" lon="-4.15812">
        <ele>85.59362798026</ele>
        <time>2021-03-16T01:26:39.840Z</time>
      </trkpt>
      <trkpt lat="48.00302" lon="-4.1585">
        <ele>85.53749559506</ele>
        <time>2021-03-16T01:27:00.228Z</time>
      </trkpt>
      <trkpt lat="48.00315" lon="-4.15865">
        <ele>85.60546557414</ele>
        <time>2021-03-16T01:27:20.618Z</time>
      </trkpt>
      <trkpt lat="48.0034" lon="-4.15895">
        <ele>85.70089999644</ele>
        <time>2021-03-16T01:27:41.014Z</time>
      </trkpt>
      <trkpt lat="48.00352" lon="-4.15916">
        <ele>85.89144322824</ele>
        <time>2021-03-16T01:28:01.413Z</time>
      </trkpt>
      <trkpt lat="48.00361" lon="-4.15941">
        <ele>86.21737053659</ele>
        <time>2021-03-16T01:28:21.815Z</time>
      </trkpt>
      <trkpt lat="48.00369" lon="-4.15979">
        <ele>86.79237559668</ele>
        <time>2021-03-16T01:28:42.221Z</time>
      </trkpt>
      <trkpt lat="48.00379" lon="-4.16055">
        <ele>87.61584880199</ele>
        <time>2021-03-16T01:29:02.635Z</time>
      </trkpt>
      <trkpt lat="48.0039" lon="-4.16154">
        <ele>88.57508507109</ele>
        <time>2021-03-16T01:29:23.060Z</time>
      </trkpt>
      <trkpt lat="48.00401" lon="-4.16254">
        <ele>89.65653467077</ele>
        <time>2021-03-16T01:29:43.496Z</time>
      </trkpt>
      <trkpt lat="48.00412" lon="-4.16353">
        <ele>90.48722447717</ele>
        <time>2021-03-16T01:30:03.943Z</time>
      </trkpt>
      <trkpt lat="48.00423" lon="-4.16453">
        <ele>91.68205324624</ele>
        <time>2021-03-16T01:30:24.401Z</time>
      </trkpt>
      <trkpt lat="48.00438" lon="-4.16538">
        <ele>93.01820490206</ele>
        <time>2021-03-16T01:30:44.868Z</time>
      </trkpt>
      <trkpt lat="48.00456" lon="-4.16612">
        <ele>94.23526369344</ele>
        <time>2021-03-16T01:31:05.343Z</time>
      </trkpt>
      <trkpt lat="48.00466" lon="-4.16641">
        <ele>95.48946852526</ele>
        <time>2021-03-16T01:31:25.822Z</time>
      </trkpt>
      <trkpt lat="48.00481" lon="-4.16678">
        <ele>96.77067002583</ele>
        <time>2021-03-16T01:31:46.306Z</time>
      </trkpt>
      <trkpt lat="48.00505" lon="-4.16723">
        <ele>98.20554499867</ele>
        <time>2021-03-16T01:32:06.796Z</time>
      </trkpt>
      <trkpt lat="48.00557" lon="-4.16791">
        <ele>99.66839741128</ele>
        <time>2021-03-16T01:32:27.297Z</time>
      </trkpt>
      <trkpt lat="48.00574" lon="-4.16817">
        <ele>101.11344345731</ele>
        <time>2021-03-16T01:32:47.802Z</time>
      </trkpt>
      <trkpt lat="48.00594" lon="-4.16859">
        <ele>102.62203958199</ele>
        <time>2021-03-16T01:33:08.312Z</time>
      </trkpt>
      <trkpt lat="48.0061" lon="-4.1691">
        <ele>104.20021627114</ele>
        <time>2021-03-16T01:33:28.828Z</time>
      </trkpt>
      <trkpt lat="48.00616" lon="-4.16939">
        <ele>105.75240949103</ele>
        <time>2021-03-16T01:33:49.348Z</time>
      </trkpt>
      <trkpt lat="48.00634" lon="-4.17058">
        <ele>107.65770620223</ele>
        <time>2021-03-16T01:34:09.881Z</time>
      </trkpt>
      <trkpt lat="48.00641" lon="-4.17133">
        <ele>109.29977924731</ele>
        <time>2021-03-16T01:34:30.422Z</time>
      </trkpt>
      <trkpt lat="48.00642" lon="-4.17171">
        <ele>110.99073357947</ele>
        <time>2021-03-16T01:34:50.967Z</time>
      </trkpt>
      <trkpt lat="48.00639" lon="-4.17284">
        <ele>112.6271806873</ele>
        <time>2021-03-16T01:35:11.524Z</time>
      </trkpt>
      <trkpt lat="48.00636" lon="-4.17397">
        <ele>114.49664083829</ele>
        <time>2021-03-16T01:35:32.093Z</time>
      </trkpt>
      <trkpt lat="48.00638" lon="-4.17437">
        <ele>116.34047701655</ele>
        <time>2021-03-16T01:35:52.667Z</time>
      </trkpt>
      <trkpt lat="48.00649" lon="-4.17497">
        <ele>118.25603316966</ele>
        <time>2021-03-16T01:36:13.247Z</time>
      </trkpt>
      <trkpt lat="48.00663" lon="-4.17549">
        <ele>120.27168715865</ele>
        <time>2021-03-16T01:36:33.833Z</time>
      </trkpt>
      <trkpt lat="48.00704" lon="-4.17656">
        <ele>122.37881266512</ele>
        <time>2021-03-16T01:36:54.432Z</time>
      </trkpt>
      <trkpt lat="48.00738" lon="-4.17725">
        <ele>124.43931402349</ele>
        <time>2021-03-16T01:37:15.041Z</time>
      </trkpt>
      <trkpt lat="48.00772" lon="-4.17801">
        <ele>126.58054759965</ele>
        <time>2021-03-16T01:37:35.659Z</time>
      </trkpt>
      <trkpt lat="48.00805" lon="-4.17877">
        <ele>128.73306588041</ele>
        <time>2021-03-16T01:37:56.287Z</time>
      </trkpt>
      <trkpt lat="48.00825" lon="-4.17922">
        <ele>130.93977683874</ele>
        <time>2021-03-16T01:38:16.921Z</time>
      </trkpt>
      <trkpt lat="48.00849" lon="-4.17983">
        <ele>133.20915894843</ele>
        <time>2021-03-16T01:38:37.563Z</time>
      </trkpt>
      <trkpt lat="48.00873" lon="-4.18044">
        <ele>135.40847529957</ele>
        <time>2021-03-16T01:38:58.212Z</time>
      </trkpt>
      <trkpt lat="48.00904" lon="-4.1814">
        <ele>137.62417904362</ele>
        <time>2021-03-16T01:39:18.873Z</time>
      </trkpt>
      <trkpt lat="48.00924" lon="-4.18212">
        <ele>139.7241408545</ele>
        <time>2021-03-16T01:39:39.542Z</time>
      </trkpt>
      <trkpt lat="48.00944" lon="-4.18285">
        <ele>141.64433861058</ele>
        <time>2021-03-16T01:40:00.219Z</time>
      </trkpt>
      <trkpt lat="48.00958" lon="-4.18354">
        <ele>143.58162061835</ele>
        <time>2021-03-16T01:40:20.904Z</time>
      </trkpt>
      <trkpt lat="48.00972" lon="-4.18424">
        <ele>145.24746530133</ele>
        <time>2021-03-16T01:40:41.597Z</time>
      </trkpt>
      <trkpt lat="48.00984" lon="-4.18506">
        <ele>146.75081023561</ele>
        <time>2021-03-16T01:41:02.299Z</time>
      </trkpt>
      <trkpt lat="48.00995" lon="-4.18588">
        <ele>148.02345826552</ele>
        <time>2021-03-16T01:41:23.010Z</time>
      </trkpt>
      <trkpt lat="48.01005" lon="-4.18717">
        <ele>149.20588718169</ele>
        <time>2021-03-16T01:41:43.735Z</time>
      </trkpt>
      <trkpt lat="48.01015" lon="-4.18846">
        <ele>150.15122885951</ele>
        <time>2021-03-16T01:42:04.474Z</time>
      </trkpt>
      <trkpt lat="48.01013" lon="-4.18852">
        <ele>150.85595216205</ele>
        <time>2021-03-16T01:42:25.214Z</time>
      </trkpt>
      <trkpt lat="48.01014" lon="-4.18878">
        <ele>151.38223716326</ele>
        <time>2021-03-16T01:42:45.957Z</time>
      </trkpt>
      <trkpt lat="48.0103" lon="-4.18982">
        <ele>151.82687758386</ele>
        <time>2021-03-16T01:43:06.711Z</time>
      </trkpt>
      <trkpt lat="48.01047" lon="-4.19083">
        <ele>151.95976478473</ele>
        <time>2021-03-16T01:43:27.476Z</time>
      </trkpt>
      <trkpt lat="48.01064" lon="-4.19184">
        <ele>151.99663580458</ele>
        <time>2021-03-16T01:43:48.252Z</time>
      </trkpt>
      <trkpt lat="48.01081" lon="-4.19295">
        <ele>151.61617031908</ele>
        <time>2021-03-16T01:44:09.041Z</time>
      </trkpt>
      <trkpt lat="48.01097" lon="-4.19407">
        <ele>151.41690122881</ele>
        <time>2021-03-16T01:44:29.842Z</time>
      </trkpt>
      <trkpt lat="48.0111" lon="-4.19474">
        <ele>150.92352866954</ele>
        <time>2021-03-16T01:44:50.650Z</time>
      </trkpt>
      <trkpt lat="48.01114" lon="-4.19503">
        <ele>150.4826112711</ele>
        <time>2021-03-16T01:45:11.462Z</time>
      </trkpt>
      <trkpt lat="48.01132" lon="-4.19578">
        <ele>150.06009685109</ele>
        <time>2021-03-16T01:45:32.282Z</time>
      </trkpt>
      <trkpt lat="48.01161" lon="-4.1966">
        <ele>149.57404254974</ele>
        <time>2021-03-16T01:45:53.112Z</time>
      </trkpt>
      <trkpt lat="48.01162" lon="-4.19682">
        <ele>144.2762528063</ele>
        <time>2021-03-16T01:46:13.944Z</time>
      </trkpt>
      <trkpt lat="48.01158" lon="-4.19692">
        <ele>144.22189600044</ele>
        <time>2021-03-16T01:46:34.778Z</time>
      </trkpt>
      <trkpt lat="48.01155" lon="-4.19707">
        <ele>148.18676359644</ele>
        <time>2021-03-16T01:46:55.613Z</time>
      </trkpt>
      <trkpt lat="48.01155" lon="-4.19725">
        <ele>147.77592108095</ele>
        <time>2021-03-16T01:47:16.450Z</time>
      </trkpt>
      <trkpt lat="48.01157" lon="-4.19734">
        <ele>147.43107538149</ele>
        <time>2021-03-16T01:47:37.288Z</time>
      </trkpt>
      <trkpt lat="48.01171" lon="-4.19753">
        <ele>147.1549107821</ele>
        <time>2021-03-16T01:47:58.129Z</time>
      </trkpt>
      <trkpt lat="48.01177" lon="-4.19757">
        <ele>146.95766446708</ele>
        <time>2021-03-16T01:48:18.971Z</time>
      </trkpt>
      <trkpt lat="48.01187" lon="-4.19759">
        <ele>146.84110241657</ele>
        <time>2021-03-16T01:48:39.815Z</time>
      </trkpt>
      <trkpt lat="48.01194" lon="-4.19759">
        <ele>146.77786299561</ele>
        <time>2021-03-16T01:49:00.660Z</time>
      </trkpt>
      <trkpt lat="48.01206" lon="-4.19745">
        <ele>146.78104752688</ele>
        <time>2021-03-16T01:49:21.508Z</time>
      </trkpt>
      <trkpt lat="48.01215" lon="-4.19752">
        <ele>146.77604733585</ele>
        <time>2021-03-16T01:49:42.357Z</time>
      </trkpt>
      <trkpt lat="48.0122" lon="-4.19761">
        <ele>146.77902804619</ele>
        <time>2021-03-16T01:50:03.207Z</time>
      </trkpt>
      <trkpt lat="48.01242" lon="-4.1988">
        <ele>146.87135271019</ele>
        <time>2021-03-16T01:50:24.071Z</time>
      </trkpt>
      <trkpt lat="48.01242" lon="-4.19879">
        <ele>146.84293902944</ele>
        <time>2021-03-16T01:50:44.935Z</time>
      </trkpt>
      <trkpt lat="48.01257" lon="-4.19971">
        <ele>146.77448652005</ele>
        <time>2021-03-16T01:51:05.809Z</time>
      </trkpt>
      <trkpt lat="48.01271" lon="-4.20063">
        <ele>146.86872726863</ele>
        <time>2021-03-16T01:51:26.693Z</time>
      </trkpt>
      <trkpt lat="48.01286" lon="-4.20155">
        <ele>147.58971764515</ele>
        <time>2021-03-16T01:51:47.587Z</time>
      </trkpt>
      <trkpt lat="48.01292" lon="-4.20176">
        <ele>148.05267023586</ele>
        <time>2021-03-16T01:52:08.484Z</time>
      </trkpt>
      <trkpt lat="48.01303" lon="-4.20202">
        <ele>148.59312241739</ele>
        <time>2021-03-16T01:52:29.384Z</time>
      </trkpt>
      <trkpt lat="48.01317" lon="-4.20228">
        <ele>149.2619348837</ele>
        <time>2021-03-16T01:52:50.288Z</time>
      </trkpt>
      <trkpt lat="48.01351" lon="-4.20277">
        <ele>150.07242334975</ele>
        <time>2021-03-16T01:53:11.199Z</time>
      </trkpt>
      <trkpt lat="48.0139" lon="-4.20345">
        <ele>150.88080756286</ele>
        <time>2021-03-16T01:53:32.120Z</time>
      </trkpt>
      <trkpt lat="48.01422" lon="-4.20406">
        <ele>151.5870989991</ele>
        <time>2021-03-16T01:53:53.049Z</time>
      </trkpt>
      <trkpt lat="48.01418" lon="-4.20413">
        <ele>151.23717316645</ele>
        <time>2021-03-16T01:54:13.979Z</time>
      </trkpt>
      <trkpt lat="48.01422" lon="-4.2043">
        <ele>152.00919536449</ele>
        <time>2021-03-16T01:54:34.911Z</time>
      </trkpt>
      <trkpt lat="48.01427" lon="-4.20432">
        <ele>152.77670365092</ele>
        <time>2021-03-16T01:54:55.844Z</time>
      </trkpt>
      <trkpt lat="48.01433" lon="-4.20428">
        <ele>154.3410404249</ele>
        <time>2021-03-16T01:55:16.778Z</time>
      </trkpt>
      <trkpt lat="48.01478" lon="-4.20522">
        <ele>154.31502263762</ele>
        <time>2021-03-16T01:55:37.724Z</time>
      </trkpt>
      <trkpt lat="48.01522" lon="-4.20616">
        <ele>154.88618279185</ele>
        <time>2021-03-16T01:55:58.683Z</time>
      </trkpt>
      <trkpt lat="48.01564" lon="-4.20704">
        <ele>155.32441452521</ele>
        <time>2021-03-16T01:56:19.653Z</time>
      </trkpt>
      <trkpt lat="48.01605" lon="-4.20792">
        <ele>155.84720072303</ele>
        <time>2021-03-16T01:56:40.635Z</time>
      </trkpt>
      <trkpt lat="48.01651" lon="-4.20884">
        <ele>155.6801359543</ele>
        <time>2021-03-16T01:57:01.629Z</time>
      </trkpt>
      <trkpt lat="48.01696" lon="-4.20977">
        <ele>155.82557866141</ele>
        <time>2021-03-16T01:57:22.635Z</time>
      </trkpt>
      <trkpt lat="48.01723" lon="-4.21042">
        <ele>155.84522886417</ele>
        <time>2021-03-16T01:57:43.650Z</time>
      </trkpt>
      <trkpt lat="48.0175" lon="-4.21108">
        <ele>155.40144740278</ele>
        <time>2021-03-16T01:58:04.673Z</time>
      </trkpt>
      <trkpt lat="48.01789" lon="-4.21193">
        <ele>154.89470133891</ele>
        <time>2021-03-16T01:58:25.707Z</time>
      </trkpt>
      <trkpt lat="48.01827" lon="-4.21266">
        <ele>154.63792498276</ele>
        <time>2021-03-16T01:58:46.751Z</time>
      </trkpt>
      <trkpt lat="48.01864" lon="-4.21339">
        <ele>154.04086156914</ele>
        <time>2021-03-16T01:59:07.805Z</time>
      </trkpt>
      <trkpt lat="48.01871" lon="-4.21344">
        <ele>153.73019860201</ele>
        <time>2021-03-16T01:59:28.860Z</time>
      </trkpt>
      <trkpt lat="48.0187" lon="-4.21354">
        <ele>153.29589852748</ele>
        <time>2021-03-16T01:59:49.916Z</time>
      </trkpt>
      <trkpt lat="48.01907" lon="-4.21435">
        <ele>152.6593481137</ele>
        <time>2021-03-16T02:00:10.983Z</time>
      </trkpt>
      <trkpt lat="48.01944" lon="-4.21516">
        <ele>150.77238836243</ele>
        <time>2021-03-16T02:00:32.060Z</time>
      </trkpt>
      <trkpt lat="48.01951" lon="-4.2152">
        <ele>149.61428206429</ele>
        <time>2021-03-16T02:00:53.138Z</time>
      </trkpt>
      <trkpt lat="48.01953" lon="-4.21528">
        <ele>148.22973663719</ele>
        <time>2021-03-16T02:01:14.217Z</time>
      </trkpt>
      <trkpt lat="48.01951" lon="-4.21533">
        <ele>146.66904232184</ele>
        <time>2021-03-16T02:01:35.297Z</time>
      </trkpt>
      <trkpt lat="48.02" lon="-4.21635">
        <ele>146.02263407936</ele>
        <time>2021-03-16T02:01:56.390Z</time>
      </trkpt>
      <trkpt lat="48.02048" lon="-4.21738">
        <ele>143.76112826196</ele>
        <time>2021-03-16T02:02:17.497Z</time>
      </trkpt>
      <trkpt lat="48.02082" lon="-4.21819">
        <ele>143.47148063312</ele>
        <time>2021-03-16T02:02:38.614Z</time>
      </trkpt>
    </trkseg>
  </trk>
</gpx>